# Wetter Temperatur Luftdruck Luftfeuchtigkeit Sichtweite Windgeschwindigkeit Windrichtung Zeit
1 Clouds 16 1016 88 10000 2.6 300 08:18 14.07.2020
2 Rain 16 1016 88 10000 2.1 300 07:42 14.07.2020
3 Rain 16 1016 88 10000 2.6 300 07:19 14.07.2020
4 Clouds 16 1016 88 10000 2.1 300 06:53 14.07.2020
5 Rain 15 1016 93 10000 3.1 280 06:25 14.07.2020
6 Rain 16 1016 93 6000 2.6 280 05:49 14.07.2020
7 Drizzle 16 1017 93 5000 2.6 250 04:51 14.07.2020
8 Rain 16 1017 93 5000 2.6 250 04:33 14.07.2020
9 Rain 16 1018 82 10000 3.1 260 03:27 14.07.2020
10 Rain 16 1018 77 10000 4.1 260 02:27 14.07.2020
11 Rain 17 1018 72 10000 4.1 250 01:41 14.07.2020
12 Rain 17 1018 72 10000 4.1 260 01:22 14.07.2020
13 Rain 18 1018 72 10000 2.1 310 00:42 14.07.2020
14 Rain 18 1018 64 10000 2.1 320 00:22 14.07.2020
15 Rain 19 1019 64 10000 3.1 310 23:39 13.07.2020
16 Rain 20 1019 60 10000 3.6 300 23:20 13.07.2020
17 Clouds 20 1019 56 10000 4.6 280 22:57 13.07.2020
18 Clouds 20 1019 56 10000 4.6 280 22:39 13.07.2020
19 Rain 20 1019 56 10000 3.6 290 22:19 13.07.2020
20 Clouds 21 1019 53 10000 3.6 290 21:55 13.07.2020
21 Clouds 21 1019 53 10000 3.6 290 21:36 13.07.2020
22 Clouds 21 1019 53 10000 5.1 300 21:18 13.07.2020
23 Clouds 21 1019 53 10000 6.2 300 20:54 13.07.2020
24 Clouds 22 1019 53 10000 6.2 300 20:36 13.07.2020
25 Clouds 22 1019 46 10000 5.7 280 20:18 13.07.2020
26 Clouds 23 1019 44 10000 5.7 270 19:42 13.07.2020
27 Clouds 24 1019 36 10000 5.1 260 19:23 13.07.2020
28 Clouds 24 1020 36 10000 5.7 280 18:57 13.07.2020
29 Clouds 25 1020 36 10000 5.7 280 18:38 13.07.2020
30 Clouds 25 1020 36 10000 5.7 280 18:38 13.07.2020
31 Clouds 25 1020 36 10000 5.1 280 18:20 13.07.2020
32 Clouds 25 1020 36 10000 6.2 270 17:55 13.07.2020
33 Clouds 25 1020 36 10000 6.2 270 17:37 13.07.2020
34 Clouds 25 1021 33 10000 5.7 280 17:18 13.07.2020
35 Clouds 24 1021 29 10000 4.1 250 16:42 13.07.2020
36 Clouds 24 1021 27 10000 5.7 250 16:21 13.07.2020
37 Clouds 24 1021 25 10000 6.7 260 15:59 13.07.2020
38 Clouds 24 1021 25 10000 6.7 260 15:40 13.07.2020
39 Clouds 24 1022 29 10000 5.7 270 15:20 13.07.2020
40 Clouds 24 1022 29 10000 4.6 250 14:59 13.07.2020
41 Clouds 24 1022 29 10000 4.6 250 14:39 13.07.2020
42 Clouds 24 1022 29 10000 4.6 250 14:39 13.07.2020
43 Clouds 24 1023 25 10000 6.2 260 14:20 13.07.2020
44 Clouds 24 1023 25 10000 6.2 270 13:56 13.07.2020
45 Clouds 24 1023 25 10000 6.2 270 13:37 13.07.2020
46 Clouds 24 1023 22 10000 6.2 250 13:19 13.07.2020
47 Clouds 23 1024 27 10000 5.1 260 12:43 13.07.2020
48 Clouds 22 1024 31 10000 5.1 250 12:22 13.07.2020
49 Clouds 21 1024 35 10000 3.6 250 11:58 13.07.2020
50 Clouds 21 1024 35 10000 3.6 250 11:39 13.07.2020
51 Clouds 21 1024 40 10000 3.6 230 11:20 13.07.2020
52 Clouds 20 1025 42 10000 3.1 240 10:40 13.07.2020
53 Clouds 19 1025 48 10000 2.6 230 10:20 13.07.2020
54 Clouds 18 1025 52 10000 2.6 240 09:43 13.07.2020
55 Clouds 17 1025 59 10000 3.1 250 09:25 13.07.2020
56 Clear 16 1025 63 10000 2.6 230 08:54 13.07.2020
57 Clear 16 1025 63 10000 2.6 230 08:35 13.07.2020
58 Clouds 15 1025 59 10000 3.6 240 07:46 13.07.2020
59 Clouds 14 1025 59 10000 2.6 230 07:20 13.07.2020
60 Clouds 14 1025 62 10000 2.6 230 06:44 13.07.2020
61 Clouds 14 1025 62 10000 2.6 250 06:24 13.07.2020
62 Clouds 14 1026 55 10000 2.1 230 04:57 13.07.2020
63 Clouds 15 1027 51 10000 2.6 210 01:58 13.07.2020
64 Clouds 16 1027 51 10000 2.6 210 01:40 13.07.2020
65 Clouds 16 1027 51 10000 3.1 220 01:20 13.07.2020
66 Clouds 16 1027 48 10000 3.1 210 00:38 13.07.2020
67 Clouds 16 1027 52 10000 3.6 210 00:19 13.07.2020
68 Clouds 17 1027 48 10000 3.1 200 23:41 12.07.2020
69 Clouds 17 1027 48 10000 4.1 200 23:22 12.07.2020
70 Clouds 18 1027 45 10000 3.6 210 22:56 12.07.2020
71 Clouds 19 1027 45 10000 3.6 210 22:37 12.07.2020
72 Clouds 19 1026 45 10000 4.1 200 22:18 12.07.2020
73 Clouds 20 1026 46 10000 3.6 180 21:56 12.07.2020
74 Clouds 20 1026 46 10000 3.6 180 21:38 12.07.2020
75 Clouds 21 1026 43 10000 4.1 170 21:19 12.07.2020
76 Clouds 22 1026 35 10000 3.1 80 20:42 12.07.2020
77 Clouds 24 1026 29 10000 1.5 0 20:20 12.07.2020
78 Clouds 24 1026 29 10000 1.5 0 19:59 12.07.2020
79 Clouds 24 1026 29 10000 1.5 0 19:40 12.07.2020
80 Clouds 24 1026 29 10000 3.6 230 19:21 12.07.2020
81 Clouds 24 1026 29 10000 1.5 0 18:57 12.07.2020
82 Clouds 24 1026 29 10000 1.5 0 18:38 12.07.2020
83 Clouds 24 1027 29 10000 1.5 0 18:18 12.07.2020
84 Clouds 24 1027 29 10000 1.5 0 17:39 12.07.2020
85 Clouds 24 1027 29 10000 2.6 160 17:21 12.07.2020
86 Clouds 24 1027 31 10000 3.1 150 16:48 12.07.2020
87 Clouds 23 1028 31 10000 3.1 130 16:23 12.07.2020
88 Clouds 23 1028 31 10000 3.1 0 15:58 12.07.2020
89 Clouds 23 1028 31 10000 3.1 0 15:40 12.07.2020
90 Clouds 23 1028 31 10000 2.6 0 15:20 12.07.2020
91 Clouds 23 1028 33 10000 2.1 160 14:41 12.07.2020
92 Clouds 22 1028 35 10000 2.6 0 14:23 12.07.2020
93 Clouds 22 1029 35 10000 2.6 150 13:41 12.07.2020
94 Clouds 21 1029 37 10000 2.1 120 13:22 12.07.2020
95 Clouds 21 1029 37 10000 2.6 170 12:58 12.07.2020
96 Clouds 21 1029 37 10000 2.6 170 12:39 12.07.2020
97 Clouds 20 1029 40 10000 1.5 0 12:19 12.07.2020
98 Clouds 20 1029 42 10000 1.5 0 11:57 12.07.2020
99 Clouds 20 1029 42 10000 1.5 0 11:39 12.07.2020
100 Clouds 20 1029 42 10000 1.5 0 11:18 12.07.2020
101 Clouds 19 1029 55 10000 1 0 10:41 12.07.2020
102 Clouds 19 1029 59 10000 0.5 0 10:20 12.07.2020
103 Clear 17 1029 63 10000 0.77 96 09:43 12.07.2020
104 Clear 16 1029 67 10000 0.98 80 09:22 12.07.2020
105 Clear 16 1029 72 10000 0.5 0 08:58 12.07.2020
106 Clear 15 1029 72 10000 0.5 0 08:39 12.07.2020
107 Clear 14 1029 76 10000 1.5 0 08:21 12.07.2020
108 Clear 13 1028 82 10000 2.1 340 07:50 12.07.2020
109 Clear 12 1028 87 10000 1.5 350 07:31 12.07.2020
110 Clear 13 1028 87 10000 1 0 06:56 12.07.2020
111 Clear 13 1028 87 10000 1 20 06:38 12.07.2020
112 Clear 12 1028 87 10000 1 20 06:19 12.07.2020
113 Clear 12 1028 87 10000 1 20 06:19 12.07.2020
114 Clear 13 1028 82 10000 2.1 350 04:59 12.07.2020
115 Clear 13 1028 76 10000 2.1 340 04:29 12.07.2020
116 Clear 13 1028 76 10000 1.5 0 03:46 12.07.2020
117 Clear 14 1028 67 10000 2.1 80 03:28 12.07.2020
118 Clouds 14 1028 67 10000 1.5 80 02:26 12.07.2020
119 Clear 15 1028 67 10000 1 0 01:29 12.07.2020
120 Clear 16 1028 55 10000 1.5 0 00:39 12.07.2020
121 Clear 16 1028 59 10000 0.5 0 00:21 12.07.2020
122 Clear 16 1028 48 10000 0.5 60 23:55 11.07.2020
123 Clear 16 1028 48 10000 0.5 60 23:36 11.07.2020
124 Clear 17 1028 48 10000 1.5 60 23:18 11.07.2020
125 Clear 17 1027 42 10000 1.5 0 22:43 11.07.2020
126 Clouds 18 1027 42 10000 2.6 60 22:24 11.07.2020
127 Clouds 19 1027 42 10000 2.6 60 21:57 11.07.2020
128 Clouds 19 1027 42 10000 2.6 60 21:38 11.07.2020
129 Clouds 19 1027 40 10000 1.5 0 21:19 11.07.2020
130 Clouds 19 1027 40 10000 3.1 40 20:55 11.07.2020
131 Clouds 19 1027 40 10000 3.1 40 20:55 11.07.2020
132 Clouds 19 1027 40 10000 3.1 40 20:37 11.07.2020
133 Clouds 19 1027 40 10000 2.6 340 20:18 11.07.2020
134 Clouds 20 1027 40 10000 2.6 360 19:49 11.07.2020
135 Clouds 20 1027 37 10000 3.1 0 19:30 11.07.2020
136 Clouds 20 1027 37 10000 2.6 310 18:58 11.07.2020
137 Clouds 20 1027 37 10000 2.6 310 18:40 11.07.2020
138 Clouds 20 1027 39 10000 3.6 320 18:22 11.07.2020
139 Clouds 20 1027 45 10000 2.6 340 17:58 11.07.2020
140 Clouds 20 1027 45 10000 2.6 340 17:38 11.07.2020
141 Clouds 19 1027 42 10000 4.1 320 17:19 11.07.2020
142 Clouds 19 1027 45 10000 3.6 320 16:56 11.07.2020
143 Clouds 19 1027 45 10000 3.6 320 16:38 11.07.2020
144 Clouds 19 1027 48 10000 4.6 310 16:19 11.07.2020
145 Clouds 19 1027 45 10000 4.1 330 15:42 11.07.2020
146 Clouds 19 1027 45 10000 5.1 300 15:21 11.07.2020
147 Clouds 19 1027 45 10000 3.6 300 14:59 11.07.2020
148 Clouds 19 1027 45 10000 3.6 300 14:40 11.07.2020
149 Clouds 19 1027 42 10000 3.1 310 14:22 11.07.2020
150 Clouds 19 1027 48 10000 4.1 290 13:44 11.07.2020
151 Clouds 18 1027 48 10000 3.6 310 13:23 11.07.2020
152 Clouds 18 1027 51 10000 4.6 300 12:59 11.07.2020
153 Clouds 18 1027 51 10000 4.6 300 12:41 11.07.2020
154 Clouds 18 1026 51 10000 4.6 310 12:23 11.07.2020
155 Clouds 17 1026 55 10000 5.1 310 11:58 11.07.2020
156 Clouds 17 1026 55 10000 5.1 310 11:40 11.07.2020
157 Clouds 17 1026 55 10000 5.1 300 11:19 11.07.2020
158 Clouds 16 1026 55 10000 4.1 310 10:46 11.07.2020
159 Clouds 16 1026 62 10000 5.7 310 10:27 11.07.2020
160 Clear 15 1026 62 10000 5.1 300 09:56 11.07.2020
161 Clear 15 1026 62 10000 5.1 300 09:37 11.07.2020
162 Clear 14 1026 67 10000 4.6 300 09:18 11.07.2020
163 Clear 14 1025 67 10000 3.6 300 08:39 11.07.2020
164 Clouds 12 1025 71 10000 3.6 300 08:20 11.07.2020
165 Clouds 12 1025 71 10000 3.1 290 07:50 11.07.2020
166 Clouds 12 1025 71 10000 2.6 300 07:27 11.07.2020
167 Clouds 12 1025 71 10000 2.6 300 06:59 11.07.2020
168 Clouds 12 1024 71 10000 3.1 290 06:23 11.07.2020
169 Clouds 12 1024 71 10000 3.1 290 05:46 11.07.2020
170 Clouds 12 1024 71 10000 3.1 290 05:46 11.07.2020
171 Clouds 12 1024 71 10000 4.1 300 05:18 11.07.2020
172 Clouds 12 1024 71 10000 3.6 300 04:39 11.07.2020
173 Clear 12 1024 71 10000 3.1 290 04:19 11.07.2020
174 Clear 13 1023 67 10000 3.6 300 02:52 11.07.2020
175 Clear 14 1023 67 10000 2.6 290 01:57 11.07.2020
176 Clear 14 1023 67 10000 2.1 300 01:21 11.07.2020
177 Clear 14 1022 67 10000 2.1 340 00:55 11.07.2020
178 Clear 14 1022 67 10000 2.1 340 00:36 11.07.2020
179 Clear 14 1022 63 10000 2.1 350 00:18 11.07.2020
180 Clear 15 1022 51 10000 3.1 310 23:44 10.07.2020
181 Clear 15 1021 51 10000 3.6 300 23:26 10.07.2020
182 Clear 16 1021 51 10000 4.1 300 22:55 10.07.2020
183 Clear 16 1021 51 10000 4.1 300 22:36 10.07.2020
184 Clear 16 1021 48 10000 3.6 300 22:18 10.07.2020
185 Clear 17 1021 48 10000 5.7 300 21:38 10.07.2020
186 Clouds 17 1020 45 10000 4.6 300 21:20 10.07.2020
187 Clouds 18 1020 48 10000 3.6 320 20:56 10.07.2020
188 Clouds 18 1020 48 10000 3.6 320 20:37 10.07.2020
189 Clouds 18 1020 45 10000 5.1 300 20:19 10.07.2020
190 Clouds 18 1020 45 10000 4.6 300 19:54 10.07.2020
191 Clouds 18 1019 42 10000 4.1 320 19:36 10.07.2020
192 Clouds 18 1019 42 10000 4.1 320 19:18 10.07.2020
193 Clouds 18 1019 42 10000 6.7 270 18:41 10.07.2020
194 Clouds 18 1019 48 10000 4.6 300 18:19 10.07.2020
195 Clouds 18 1019 45 10000 4.1 300 17:55 10.07.2020
196 Clouds 18 1019 45 10000 4.1 300 17:37 10.07.2020
197 Clouds 18 1019 48 10000 6.2 300 17:18 10.07.2020
198 Clouds 18 1019 45 10000 6.2 300 16:41 10.07.2020
199 Clouds 18 1019 51 10000 7.2 300 16:20 10.07.2020
200 Clouds 18 1019 48 10000 5.7 300 15:45 10.07.2020
201 Clouds 17 1019 51 10000 5.7 300 15:22 10.07.2020
202 Clouds 17 1018 55 10000 5.7 280 14:55 10.07.2020
203 Clouds 18 1018 55 10000 5.1 290 14:37 10.07.2020
204 Clouds 17 1018 55 10000 5.1 290 14:19 10.07.2020
205 Clouds 17 1018 51 10000 5.7 300 13:56 10.07.2020
206 Clouds 17 1018 51 10000 5.7 300 13:37 10.07.2020
207 Clouds 17 1018 51 10000 6.2 300 13:19 10.07.2020
208 Clouds 17 1017 55 10000 5.1 300 12:43 10.07.2020
209 Clouds 17 1017 59 10000 4.6 310 12:24 10.07.2020
210 Clouds 17 1017 63 10000 5.1 300 11:59 10.07.2020
211 Clouds 16 1016 72 10000 6.2 300 11:38 10.07.2020
212 Clouds 16 1016 77 10000 5.1 290 11:19 10.07.2020
213 Clouds 16 1016 77 10000 5.1 290 10:55 10.07.2020
214 Clouds 15 1016 77 10000 4.6 310 10:36 10.07.2020
215 Clouds 15 1016 82 10000 5.1 300 10:18 10.07.2020
216 Clouds 14 1015 82 10000 3.6 300 09:38 10.07.2020
217 Clouds 14 1015 82 10000 3.6 300 09:20 10.07.2020
218 Clouds 14 1015 82 10000 3.6 300 08:58 10.07.2020
219 Clouds 13 1015 82 10000 3.6 300 08:39 10.07.2020
220 Clouds 13 1015 82 10000 4.1 300 08:21 10.07.2020
221 Rain 13 1015 93 10000 4.1 300 07:43 10.07.2020
222 Rain 13 1014 93 10000 4.1 300 07:23 10.07.2020
223 Rain 13 1014 87 10000 3.1 310 06:51 10.07.2020
224 Rain 13 1013 87 10000 3.6 320 06:27 10.07.2020
225 Rain 13 1013 93 2800 3.6 310 05:19 10.07.2020
226 Rain 14 1012 87 5000 4.6 310 03:42 10.07.2020
227 Clouds 14 1012 93 10000 4.6 300 02:53 10.07.2020
228 Clouds 15 1012 87 10000 5.7 300 01:53 10.07.2020
229 Clouds 16 1011 93 10000 3.1 310 00:49 10.07.2020
230 Rain 16 1011 93 8000 3.6 300 00:21 10.07.2020
231 Rain 16 1010 93 4900 3.6 310 23:55 09.07.2020
232 Rain 16 1010 93 4900 3.6 310 23:37 09.07.2020
233 Rain 17 1010 88 10000 2.6 320 23:18 09.07.2020
234 Rain 17 1010 82 10000 4.1 290 22:55 09.07.2020
235 Clouds 17 1011 71 0 2.97 290 22:37 09.07.2020
236 Clouds 18 1009 82 10000 4.1 240 22:18 09.07.2020
237 Clouds 18 1010 82 10000 4.1 240 21:39 09.07.2020
238 Clouds 18 1010 82 10000 4.6 230 21:20 09.07.2020
239 Clouds 18 1010 82 10000 4.6 230 21:19 09.07.2020
240 Clouds 18 1010 77 10000 5.7 240 20:59 09.07.2020
241 Clouds 18 1010 77 10000 5.7 240 20:39 09.07.2020
242 Clouds 18 1010 77 10000 4.1 230 20:21 09.07.2020
243 Clouds 19 1010 77 10000 5.7 230 19:43 09.07.2020
244 Rain 19 1011 85 0 0.45 263 19:22 09.07.2020
245 Rain 19 1010 77 10000 5.1 240 18:56 09.07.2020
246 Rain 19 1010 77 10000 5.1 240 18:38 09.07.2020
247 Rain 19 1011 77 10000 5.7 240 18:18 09.07.2020
248 Rain 18 1011 88 10000 4.1 240 17:43 09.07.2020
249 Rain 18 1011 88 6000 4.1 240 17:22 09.07.2020
250 Rain 18 1011 77 10000 5.7 240 16:56 09.07.2020
251 Clouds 18 1011 77 10000 5.7 240 16:38 09.07.2020
252 Clouds 19 1011 72 10000 4.6 230 16:19 09.07.2020
253 Rain 19 1011 82 8000 5.1 230 15:58 09.07.2020
254 Rain 19 1011 82 8000 5.1 230 15:37 09.07.2020
255 Clouds 19 1011 72 10000 5.7 240 15:18 09.07.2020
256 Clouds 19 1012 72 10000 4.6 230 14:57 09.07.2020
257 Clouds 19 1012 72 10000 4.6 230 14:39 09.07.2020
258 Clouds 19 1012 72 10000 6.2 230 14:20 09.07.2020
259 Clouds 19 1011 72 10000 5.1 240 13:56 09.07.2020
260 Clouds 19 1011 72 10000 5.1 240 13:38 09.07.2020
261 Clouds 19 1011 72 10000 5.1 240 13:18 09.07.2020
262 Clouds 19 1011 77 10000 5.7 230 12:41 09.07.2020
263 Clouds 19 1012 82 10000 3.6 240 12:23 09.07.2020
264 Rain 18 1012 82 7000 4.6 240 11:57 09.07.2020
265 Rain 18 1012 82 7000 4.6 240 11:38 09.07.2020
266 Clouds 17 1012 82 10000 6.2 250 11:19 09.07.2020
267 Clouds 17 1012 82 10000 6.2 250 10:56 09.07.2020
268 Clouds 17 1012 82 10000 6.2 250 10:38 09.07.2020
269 Clouds 17 1012 82 10000 7.2 250 10:19 09.07.2020
270 Clouds 17 1011 82 10000 6.7 250 09:43 09.07.2020
271 Clouds 17 1012 82 10000 6.7 250 09:23 09.07.2020
272 Clouds 17 1011 82 10000 6.7 240 08:49 09.07.2020
273 Clouds 16 1011 82 10000 6.2 230 08:26 09.07.2020
274 Rain 16 1012 88 9000 6.2 240 07:56 09.07.2020
275 Rain 16 1012 88 9000 6.2 240 07:38 09.07.2020
276 Rain 16 1012 88 10000 5.1 230 07:20 09.07.2020
277 Rain 16 1012 88 10000 5.1 240 06:21 09.07.2020
278 Rain 16 1012 88 10000 4.1 230 05:57 09.07.2020
279 Rain 17 1013 88 10000 5.1 240 04:29 09.07.2020
280 Rain 17 1013 88 10000 4.6 240 03:22 09.07.2020
281 Clouds 17 1014 88 10000 4.6 240 01:56 09.07.2020
282 Rain 17 1014 93 10000 4.1 250 01:19 09.07.2020
283 Clouds 17 1014 93 10000 3.6 250 00:41 09.07.2020
284 Clouds 17 1014 93 10000 3.1 240 00:23 09.07.2020
285 Clouds 17 1014 93 10000 3.6 240 23:44 08.07.2020
286 Clouds 17 1014 93 10000 3.6 240 23:25 08.07.2020
287 Rain 17 1014 93 10000 3.1 240 22:57 08.07.2020
288 Rain 17 1014 93 10000 3.1 240 22:38 08.07.2020
289 Rain 17 1014 93 10000 3.1 240 22:38 08.07.2020
290 Rain 17 1014 88 10000 3.6 250 22:20 08.07.2020
291 Rain 17 1014 88 10000 3.6 250 21:57 08.07.2020
292 Rain 17 1014 88 10000 3.6 250 21:38 08.07.2020
293 Rain 17 1014 88 3300 5.1 250 21:20 08.07.2020
294 Rain 18 1014 82 10000 2.6 240 20:43 08.07.2020
295 Rain 18 1014 82 10000 2.6 240 20:25 08.07.2020
296 Rain 19 1014 77 10000 3.1 250 19:58 08.07.2020
297 Rain 19 1014 77 10000 3.1 250 19:39 08.07.2020
298 Clouds 19 1014 72 10000 4.1 290 19:21 08.07.2020
299 Clouds 19 1015 82 10000 3.1 270 18:55 08.07.2020
300 Clouds 19 1015 82 10000 3.1 270 18:55 08.07.2020
301 Clouds 19 1015 82 10000 3.1 270 18:36 08.07.2020
302 Rain 19 1015 82 10000 2.6 240 18:18 08.07.2020
303 Rain 19 1015 82 10000 2.6 230 17:54 08.07.2020
304 Rain 19 1015 82 10000 3.1 240 17:36 08.07.2020
305 Clouds 19 1015 82 10000 3.1 240 17:18 08.07.2020
306 Rain 18 1016 92 0 2.71 247 16:39 08.07.2020
307 Rain 18 1016 91 0 2.63 252 16:20 08.07.2020
308 Clouds 19 1015 82 10000 2.1 250 15:58 08.07.2020
309 Rain 19 1015 82 10000 3.1 300 15:39 08.07.2020
310 Rain 19 1015 82 10000 3.1 300 15:19 08.07.2020
311 Clouds 18 1015 82 10000 1.5 0 14:48 08.07.2020
312 Rain 18 1015 88 3900 3.1 260 14:29 08.07.2020
313 Rain 18 1015 77 10000 4.1 260 13:59 08.07.2020
314 Rain 18 1015 77 10000 4.1 260 13:41 08.07.2020
315 Clouds 18 1015 77 10000 2.6 250 13:22 08.07.2020
316 Clouds 18 1015 82 10000 4.1 260 12:45 08.07.2020
317 Clouds 17 1014 82 10000 4.6 230 12:21 08.07.2020
318 Clouds 17 1014 88 10000 3.6 240 11:57 08.07.2020
319 Clouds 17 1014 88 10000 3.6 240 11:38 08.07.2020
320 Clouds 17 1014 88 10000 4.1 250 11:20 08.07.2020
321 Clouds 16 1014 88 10000 4.1 250 10:45 08.07.2020
322 Rain 16 1014 93 10000 3.6 250 10:26 08.07.2020
323 Rain 16 1014 93 10000 4.1 250 09:59 08.07.2020
324 Rain 16 1014 93 10000 4.1 250 09:41 08.07.2020
325 Rain 15 1014 93 7000 3.6 250 09:21 08.07.2020
326 Rain 15 1014 93 10000 4.1 240 08:42 08.07.2020
327 Rain 15 1014 93 7000 3.6 240 08:24 08.07.2020
328 Rain 15 1014 93 5000 4.6 250 07:47 08.07.2020
329 Rain 15 1014 93 5000 4.1 240 07:24 08.07.2020
330 Rain 14 1014 93 6000 4.1 240 06:55 08.07.2020
331 Rain 14 1014 93 7000 3.6 240 06:35 08.07.2020
332 Rain 14 1014 93 8000 3.6 240 05:55 08.07.2020
333 Rain 14 1014 93 10000 4.1 240 05:24 08.07.2020
334 Rain 14 1014 93 10000 4.1 240 04:36 08.07.2020
335 Rain 14 1016 93 7000 2.6 210 02:42 08.07.2020
336 Rain 14 1016 93 4700 2.1 160 01:46 08.07.2020
337 Rain 14 1017 93 2300 1.5 220 01:23 08.07.2020
338 Rain 14 1017 87 4500 2.6 210 00:28 08.07.2020
339 Rain 14 1017 87 5000 2.1 220 23:59 07.07.2020
340 Rain 14 1017 87 5000 2.1 220 23:40 07.07.2020
341 Drizzle 14 1017 87 5000 1.5 240 23:19 07.07.2020
342 Rain 14 1017 87 4100 1.5 310 22:43 07.07.2020
343 Rain 15 1018 87 7000 3.1 310 22:24 07.07.2020
344 Rain 15 1018 77 10000 3.6 310 21:59 07.07.2020
345 Rain 15 1018 77 10000 3.6 310 21:40 07.07.2020
346 Rain 16 1018 77 10000 4.6 300 21:21 07.07.2020
347 Rain 17 1018 67 10000 3.6 310 20:57 07.07.2020
348 Rain 18 1018 67 10000 3.6 310 20:39 07.07.2020
349 Clouds 18 1017 55 10000 5.1 280 20:21 07.07.2020
350 Clouds 18 1017 48 10000 4.6 260 19:42 07.07.2020
351 Clouds 19 1018 48 10000 4.1 240 19:21 07.07.2020
352 Clouds 19 1018 48 10000 4.1 240 19:21 07.07.2020
353 Clouds 19 1018 48 10000 5.7 250 18:59 07.07.2020
354 Clouds 19 1018 48 10000 5.7 250 18:40 07.07.2020
355 Clouds 19 1018 48 10000 4.1 250 18:22 07.07.2020
356 Clouds 19 1018 45 10000 5.1 240 17:58 07.07.2020
357 Clouds 19 1019 59 0 0.45 266 17:39 07.07.2020
358 Clouds 19 1019 59 0 0.45 241 17:21 07.07.2020
359 Clouds 20 1018 42 10000 5.7 240 16:58 07.07.2020
360 Clouds 19 1018 42 10000 5.7 240 16:40 07.07.2020
361 Clouds 19 1019 56 0 4.62 254 16:20 07.07.2020
362 Clouds 20 1019 40 10000 5.7 230 15:42 07.07.2020
363 Clouds 20 1019 40 10000 6.7 250 15:21 07.07.2020
364 Clouds 20 1019 40 10000 6.2 250 14:56 07.07.2020
365 Clouds 20 1019 40 10000 6.2 250 14:38 07.07.2020
366 Clouds 20 1020 40 10000 6.2 260 14:19 07.07.2020
367 Clouds 20 1020 45 10000 5.1 250 13:40 07.07.2020
368 Clouds 20 1020 45 10000 5.1 250 13:19 07.07.2020
369 Clouds 19 1020 45 10000 5.1 260 12:41 07.07.2020
370 Clouds 19 1020 45 10000 4.6 240 12:22 07.07.2020
371 Clouds 19 1020 45 10000 4.6 240 12:22 07.07.2020
372 Clear 20 1021 45 10000 4.6 240 11:58 07.07.2020
373 Clear 19 1021 45 10000 4.6 240 11:40 07.07.2020
374 Clear 19 1021 48 10000 4.1 240 11:20 07.07.2020
375 Clear 18 1021 48 10000 4.1 250 10:57 07.07.2020
376 Clear 18 1021 48 10000 4.1 250 10:37 07.07.2020
377 Clear 17 1021 51 10000 3.6 250 10:18 07.07.2020
378 Clear 16 1021 55 10000 3.1 240 09:41 07.07.2020
379 Clear 15 1021 59 10000 2.6 230 09:21 07.07.2020
380 Clear 15 1022 62 10000 2.6 240 08:42 07.07.2020
381 Clouds 14 1021 58 10000 2.6 240 08:24 07.07.2020
382 Clouds 13 1022 58 10000 2.1 220 07:47 07.07.2020
383 Clouds 13 1022 62 10000 2.1 210 07:25 07.07.2020
384 Clouds 13 1022 62 10000 1.5 0 06:50 07.07.2020
385 Clouds 13 1022 62 10000 1.5 0 06:50 07.07.2020
386 Clouds 12 1022 62 10000 1 0 06:31 07.07.2020
387 Clouds 13 1022 58 10000 1.5 230 05:58 07.07.2020
388 Clouds 14 1022 54 10000 1 0 05:23 07.07.2020
389 Clouds 13 1022 54 10000 1 280 04:42 07.07.2020
390 Clouds 13 1022 54 10000 1 0 03:41 07.07.2020
391 Clouds 15 1023 48 10000 1 0 02:41 07.07.2020
392 Clear 15 1023 48 10000 0.5 0 01:28 07.07.2020
393 Clear 16 1023 45 10000 2.1 330 00:58 07.07.2020
394 Clear 15 1023 45 10000 2.1 330 00:39 07.07.2020
395 Clear 16 1023 45 10000 2.1 310 00:19 07.07.2020
396 Clear 16 1023 42 10000 3.6 300 23:42 06.07.2020
397 Clear 16 1023 42 10000 4.1 300 23:24 06.07.2020
398 Clear 17 1023 38 0 4.13 329 22:57 06.07.2020
399 Clear 18 1022 42 10000 4.1 310 22:38 06.07.2020
400 Clear 18 1022 45 10000 3.6 310 22:18 06.07.2020
401 Clear 18 1021 45 10000 5.1 300 21:56 06.07.2020
402 Clear 19 1021 45 10000 5.1 300 21:36 06.07.2020
403 Clear 19 1021 42 10000 5.1 290 21:18 06.07.2020
404 Clear 19 1021 42 10000 5.1 270 20:40 06.07.2020
405 Clouds 20 1021 40 10000 5.7 270 20:21 06.07.2020
406 Clouds 19 1021 42 10000 5.7 280 19:59 06.07.2020
407 Clouds 20 1021 42 10000 5.7 280 19:40 06.07.2020
408 Clouds 20 1021 42 10000 5.7 280 19:40 06.07.2020
409 Clouds 20 1021 42 10000 5.1 300 19:22 06.07.2020
410 Clouds 19 1021 48 10000 4.1 310 18:58 06.07.2020
411 Clouds 19 1021 48 10000 4.1 310 18:40 06.07.2020
412 Clouds 19 1021 48 10000 6.2 280 18:22 06.07.2020
413 Clouds 19 1021 48 10000 6.2 300 17:54 06.07.2020
414 Clouds 19 1021 48 10000 5.7 290 17:36 06.07.2020
415 Clouds 19 1021 48 10000 6.2 300 17:36 06.07.2020
416 Clouds 19 1021 48 10000 5.7 290 17:18 06.07.2020
417 Clouds 20 1021 48 10000 5.1 280 16:42 06.07.2020
418 Clouds 19 1021 52 10000 6.2 300 16:23 06.07.2020
419 Clouds 19 1020 45 10000 6.7 280 15:55 06.07.2020
420 Clouds 19 1020 45 10000 6.7 280 15:36 06.07.2020
421 Clouds 18 1020 45 10000 6.7 280 15:36 06.07.2020
422 Clouds 18 1020 48 10000 7.7 300 15:18 06.07.2020
423 Clouds 18 1020 48 10000 7.2 290 14:41 06.07.2020
424 Clouds 18 1020 45 10000 6.7 290 14:23 06.07.2020
425 Clouds 18 1019 48 10000 7.2 270 13:59 06.07.2020
426 Clouds 18 1019 48 10000 7.2 270 13:40 06.07.2020
427 Clouds 18 1019 51 10000 6.2 300 13:21 06.07.2020
428 Clouds 17 1019 51 10000 8.2 270 12:44 06.07.2020
429 Clouds 17 1018 51 10000 6.7 290 12:20 06.07.2020
430 Clouds 17 1018 51 10000 8.2 290 11:59 06.07.2020
431 Clouds 17 1018 51 10000 8.2 290 11:41 06.07.2020
432 Clouds 16 1018 51 10000 7.7 290 11:23 06.07.2020
433 Clouds 16 1018 51 10000 7.2 280 10:59 06.07.2020
434 Clouds 16 1018 51 10000 7.2 280 10:40 06.07.2020
435 Clouds 16 1017 59 10000 5.7 280 10:19 06.07.2020
436 Clouds 16 1017 59 10000 7.7 280 09:54 06.07.2020
437 Clouds 15 1017 59 10000 7.7 280 09:36 06.07.2020
438 Clear 15 1017 62 10000 6.7 270 09:18 06.07.2020
439 Clear 14 1016 62 10000 7.2 270 08:40 06.07.2020
440 Clear 14 1016 67 10000 7.2 260 08:22 06.07.2020
441 Clear 13 1016 71 10000 6.7 250 07:50 06.07.2020
442 Clear 13 1016 71 10000 5.7 260 07:30 06.07.2020
443 Clear 12 1015 71 10000 6.2 250 06:55 06.07.2020
444 Clear 12 1015 71 10000 6.2 250 06:37 06.07.2020
445 Clear 12 1015 71 10000 6.2 260 05:55 06.07.2020
446 Clear 12 1014 71 10000 7.2 250 05:28 06.07.2020
447 Clear 13 1014 71 10000 7.7 260 04:33 06.07.2020
448 Clouds 13 1014 67 10000 8.2 260 02:44 06.07.2020
449 Clouds 14 1014 62 10000 7.7 260 01:59 06.07.2020
450 Clouds 14 1013 58 10000 8.2 250 00:52 06.07.2020
451 Clouds 15 1013 55 10000 10.3 250 00:28 06.07.2020
452 Clouds 15 1013 55 10000 9.3 260 23:58 05.07.2020
453 Clouds 15 1013 55 10000 9.3 260 23:40 05.07.2020
454 Clouds 15 1013 51 10000 8.7 260 23:21 05.07.2020
455 Clouds 16 1013 48 10000 11.8 270 22:58 05.07.2020
456 Clouds 16 1013 48 10000 11.8 270 22:38 05.07.2020
457 Clouds 16 1012 45 10000 11.8 250 22:19 05.07.2020
458 Clouds 17 1012 42 10000 10.8 260 21:56 05.07.2020
459 Clouds 17 1012 42 10000 10.8 260 21:37 05.07.2020
460 Clouds 18 1012 42 10000 10.8 270 21:18 05.07.2020
461 Clouds 18 1013 52 0 2.68 263 20:55 05.07.2020
462 Clouds 18 1013 52 0 2.24 280 20:37 05.07.2020
463 Clouds 18 1011 39 10000 12.3 260 20:19 05.07.2020
464 Clouds 19 1011 37 10000 8.2 260 19:41 05.07.2020
465 Clouds 19 1011 37 10000 11.8 260 19:21 05.07.2020
466 Clouds 19 1011 40 10000 10.8 270 18:55 05.07.2020
467 Clouds 20 1011 40 10000 10.8 270 18:37 05.07.2020
468 Clouds 20 1011 40 10000 11.3 260 18:18 05.07.2020
469 Clouds 20 1011 37 10000 10.8 260 17:42 05.07.2020
470 Clouds 21 1011 37 10000 10.3 270 17:19 05.07.2020
471 Clouds 21 1011 35 10000 9.3 250 16:58 05.07.2020
472 Clouds 21 1011 35 10000 9.3 250 16:40 05.07.2020
473 Clear 21 1011 35 10000 9.8 250 16:20 05.07.2020
474 Clear 21 1011 37 10000 9.8 260 15:40 05.07.2020
475 Clear 21 1011 37 10000 9.3 250 15:20 05.07.2020
476 Clear 21 1011 37 10000 9.3 250 15:20 05.07.2020
477 Clear 21 1010 37 10000 10.3 260 14:56 05.07.2020
478 Clear 21 1010 37 10000 10.3 260 14:38 05.07.2020
479 Clouds 21 1010 43 10000 8.7 270 14:20 05.07.2020
480 Clouds 21 1010 40 10000 10.3 260 13:41 05.07.2020
481 Clouds 21 1010 46 10000 8.7 260 13:23 05.07.2020
482 Clouds 21 1010 46 10000 8.7 260 13:23 05.07.2020
483 Clouds 20 1010 46 10000 9.3 260 12:46 05.07.2020
484 Clouds 20 1010 46 10000 10.3 260 12:21 05.07.2020
485 Clouds 20 1010 52 10000 10.8 270 11:56 05.07.2020
486 Clouds 19 1010 52 10000 10.8 270 11:38 05.07.2020
487 Clouds 19 1010 56 10000 9.8 270 11:19 05.07.2020
488 Clouds 19 1009 64 10000 7.2 250 10:56 05.07.2020
489 Clouds 19 1009 64 10000 7.2 250 10:37 05.07.2020
490 Rain 18 1009 72 10000 7.7 250 10:18 05.07.2020
491 Rain 18 1009 82 10000 8.7 260 09:42 05.07.2020
492 Clouds 18 1009 77 10000 7.7 250 09:21 05.07.2020
493 Clouds 18 1008 77 10000 7.7 240 08:58 05.07.2020
494 Clouds 18 1008 77 10000 7.7 240 08:38 05.07.2020
495 Clouds 18 1008 77 10000 7.7 240 08:19 05.07.2020
496 Clouds 17 1008 77 10000 7.7 240 07:43 05.07.2020
497 Clouds 17 1008 77 10000 7.7 240 07:22 05.07.2020
498 Clouds 17 1008 77 10000 8.2 240 06:49 05.07.2020
499 Clouds 17 1008 82 10000 6.7 230 04:42 05.07.2020
500 Clouds 17 1009 77 10000 7.7 240 03:20 05.07.2020
501 Clouds 17 1009 77 10000 7.7 230 02:41 05.07.2020
502 Clouds 17 1010 82 10000 7.2 230 01:59 05.07.2020
503 Clouds 17 1010 82 10000 6.7 230 01:32 05.07.2020
504 Clouds 18 1010 77 10000 6.7 230 00:57 05.07.2020
505 Clouds 18 1010 77 10000 6.7 230 00:38 05.07.2020
506 Clouds 18 1010 82 10000 6.7 230 00:19 05.07.2020
507 Clouds 18 1010 82 10000 6.2 230 23:41 04.07.2020
508 Clouds 18 1010 82 10000 4.6 230 23:23 04.07.2020
509 Clouds 18 1010 82 10000 5.7 230 22:55 04.07.2020
510 Clouds 18 1010 82 10000 5.7 230 22:37 04.07.2020
511 Clouds 18 1010 77 10000 5.7 230 22:18 04.07.2020
512 Clouds 18 1010 77 10000 6.7 240 21:42 04.07.2020
513 Clouds 18 1010 77 10000 5.7 240 21:23 04.07.2020
514 Clouds 18 1010 77 10000 6.2 240 20:58 04.07.2020
515 Clouds 19 1010 77 10000 6.2 240 20:39 04.07.2020
516 Clouds 19 1010 77 10000 6.7 240 20:19 04.07.2020
517 Clouds 18 1010 77 10000 7.2 240 19:45 04.07.2020
518 Clouds 18 1010 77 10000 7.7 230 19:22 04.07.2020
519 Rain 19 1010 77 10000 8.2 240 18:55 04.07.2020
520 Clouds 19 1010 77 10000 8.2 230 18:37 04.07.2020
521 Clouds 19 1010 77 10000 8.2 230 18:19 04.07.2020
522 Clouds 20 1010 68 10000 8.2 240 17:42 04.07.2020
523 Clouds 20 1010 68 10000 8.2 240 17:24 04.07.2020
524 Clouds 20 1010 68 10000 8.2 240 16:58 04.07.2020
525 Clouds 20 1010 68 10000 8.2 240 16:38 04.07.2020
526 Clouds 20 1010 72 10000 8.7 240 16:20 04.07.2020
527 Clouds 20 1011 72 10000 8.2 230 15:55 04.07.2020
528 Clouds 20 1011 72 10000 8.2 230 15:37 04.07.2020
529 Clouds 19 1010 72 10000 6.7 240 15:18 04.07.2020
530 Clouds 19 1010 72 10000 7.7 230 14:38 04.07.2020
531 Clouds 19 1011 77 10000 7.2 240 14:20 04.07.2020
532 Clouds 19 1011 72 10000 7.7 230 13:59 04.07.2020
533 Clouds 19 1011 72 10000 7.7 230 13:41 04.07.2020
534 Clouds 19 1011 72 10000 7.7 240 13:18 04.07.2020
535 Clouds 19 1011 83 0 0.89 255 12:43 04.07.2020
536 Clouds 19 1011 83 0 1.34 263 12:22 04.07.2020
537 Clouds 19 1011 83 0 0.89 277 11:57 04.07.2020
538 Clouds 19 1010 72 10000 7.2 230 11:38 04.07.2020
539 Clouds 19 1010 77 10000 7.2 230 11:19 04.07.2020
540 Clouds 19 1010 77 10000 6.7 230 10:42 04.07.2020
541 Clouds 18 1010 82 10000 7.2 230 10:22 04.07.2020
542 Clouds 18 1010 82 10000 7.2 230 09:59 04.07.2020
543 Clouds 17 1010 82 10000 7.2 230 09:40 04.07.2020
544 Clouds 17 1011 82 10000 6.2 230 09:20 04.07.2020
545 Clouds 17 1011 88 10000 6.2 230 08:50 04.07.2020
546 Clouds 17 1011 88 10000 5.7 230 08:32 04.07.2020
547 Rain 16 1011 82 10000 6.2 230 07:55 04.07.2020
548 Rain 16 1011 82 10000 6.2 230 07:36 04.07.2020
549 Clouds 16 1011 87 10000 5.1 230 06:57 04.07.2020
550 Rain 16 1011 87 6000 5.1 230 06:23 04.07.2020
551 Rain 16 1011 87 7000 5.7 230 05:41 04.07.2020
552 Rain 16 1012 87 10000 4.6 220 05:19 04.07.2020
553 Rain 16 1012 82 10000 6.7 230 03:47 04.07.2020
554 Clouds 16 1013 82 10000 7.2 230 02:39 04.07.2020
555 Clouds 16 1013 82 10000 7.2 240 01:39 04.07.2020
556 Rain 15 1013 82 10000 7.2 240 00:47 04.07.2020
557 Rain 15 1014 82 10000 6.7 240 00:29 04.07.2020
558 Rain 15 1014 82 10000 7.2 230 23:57 03.07.2020
559 Rain 15 1014 82 10000 7.2 230 23:38 03.07.2020
560 Rain 15 1014 82 10000 6.7 230 23:18 03.07.2020
561 Rain 15 1014 77 10000 7.2 230 22:41 03.07.2020
562 Rain 15 1014 77 10000 6.7 230 22:23 03.07.2020
563 Rain 15 1015 77 10000 6.7 230 21:56 03.07.2020
564 Rain 15 1015 77 10000 6.7 230 21:37 03.07.2020
565 Rain 15 1015 77 10000 6.7 230 21:37 03.07.2020
566 Rain 17 1015 67 10000 8.2 230 21:19 03.07.2020
567 Rain 17 1015 67 10000 8.2 230 21:19 03.07.2020
568 Rain 17 1015 59 10000 7.7 250 20:42 03.07.2020
569 Clouds 17 1014 55 10000 8.2 230 20:24 03.07.2020
570 Clouds 18 1014 55 10000 8.2 240 19:55 03.07.2020
571 Clouds 18 1014 55 10000 8.2 240 19:37 03.07.2020
572 Clouds 19 1014 52 10000 8.7 240 19:18 03.07.2020
573 Clouds 20 1015 52 10000 7.2 240 18:42 03.07.2020
574 Clouds 19 1015 49 10000 8.2 230 18:23 03.07.2020
575 Clouds 20 1015 49 10000 9.8 240 17:47 03.07.2020
576 Clouds 20 1015 49 10000 8.2 240 17:24 03.07.2020
577 Clouds 21 1015 52 10000 7.2 240 16:59 03.07.2020
578 Clouds 20 1015 52 10000 7.2 240 16:39 03.07.2020
579 Clouds 20 1015 52 10000 7.7 230 16:20 03.07.2020
580 Clouds 21 1015 49 10000 7.7 240 15:42 03.07.2020
581 Clouds 20 1015 49 10000 8.2 240 15:23 03.07.2020
582 Clouds 20 1016 46 10000 7.7 230 14:56 03.07.2020
583 Clouds 20 1016 46 10000 7.7 230 14:37 03.07.2020
584 Clouds 21 1016 46 10000 7.2 240 14:19 03.07.2020
585 Clouds 20 1016 49 10000 7.2 240 13:43 03.07.2020
586 Clouds 20 1016 49 10000 6.7 240 13:24 03.07.2020
587 Clouds 19 1016 49 10000 7.2 250 12:45 03.07.2020
588 Clouds 18 1016 55 10000 7.2 240 12:24 03.07.2020
589 Clouds 18 1016 59 10000 6.2 250 11:58 03.07.2020
590 Clouds 18 1016 59 10000 6.2 250 11:40 03.07.2020
591 Clouds 18 1016 59 10000 6.2 230 11:21 03.07.2020
592 Clouds 17 1016 63 10000 5.1 240 10:55 03.07.2020
593 Clouds 17 1016 63 10000 5.1 240 10:37 03.07.2020
594 Clouds 16 1016 67 10000 5.1 250 10:18 03.07.2020
595 Clouds 16 1016 72 10000 5.1 250 09:54 03.07.2020
596 Clouds 15 1016 72 10000 5.1 250 09:36 03.07.2020
597 Clouds 15 1016 77 10000 4.6 240 09:18 03.07.2020
598 Clouds 13 1016 82 10000 4.6 240 08:39 03.07.2020
599 Clouds 13 1017 82 10000 4.1 240 08:18 03.07.2020
600 Clouds 13 1017 94 0 0.45 267 07:47 03.07.2020
601 Rain 12 1017 82 10000 4.1 240 07:25 03.07.2020
602 Rain 12 1016 82 10000 4.1 240 06:47 03.07.2020
603 Clouds 13 1016 87 10000 3.6 240 05:59 03.07.2020
604 Clouds 13 1016 87 10000 3.6 240 04:40 03.07.2020
605 Clouds 15 1015 72 10000 4.6 280 03:26 03.07.2020
606 Clouds 16 1015 77 10000 3.6 270 02:45 03.07.2020
607 Clouds 16 1015 82 10000 2.6 260 02:23 03.07.2020
608 Clouds 16 1015 88 10000 4.32 281 01:28 03.07.2020
609 Clouds 16 1015 88 10000 1.5 210 00:44 03.07.2020
610 Clouds 17 1015 88 10000 1.5 210 00:26 03.07.2020
611 Rain 17 1015 82 10000 3.1 270 23:44 02.07.2020
612 Rain 17 1015 88 10000 2.1 240 23:20 02.07.2020
613 Clear 17 1014 88 10000 1.5 0 22:57 02.07.2020
614 Clear 17 1014 88 10000 1.5 0 22:39 02.07.2020
615 Clear 18 1014 88 10000 1.5 220 22:20 02.07.2020
616 Rain 17 1014 82 10000 1.5 0 21:55 02.07.2020
617 Rain 17 1014 82 10000 1.5 0 21:37 02.07.2020
618 Rain 18 1014 82 7000 2.6 250 21:18 02.07.2020
619 Rain 18 1013 82 10000 3.89 286 20:57 02.07.2020
620 Rain 18 1013 82 10000 0.5 0 20:39 02.07.2020
621 Rain 19 1013 82 10000 0.5 0 20:18 02.07.2020
622 Rain 20 1013 58 0 4.66 289 19:41 02.07.2020
623 Rain 19 1012 72 10000 7.7 300 19:22 02.07.2020
624 Rain 21 1012 56 10000 6.7 250 18:57 02.07.2020
625 Rain 21 1012 56 10000 6.7 250 18:39 02.07.2020
626 Rain 21 1012 60 10000 5.7 260 18:21 02.07.2020
627 Rain 21 1012 60 10000 5.7 260 18:21 02.07.2020
628 Rain 20 1012 60 10000 6.7 250 17:54 02.07.2020
629 Rain 20 1012 60 10000 6.7 250 17:36 02.07.2020
630 Rain 20 1012 60 10000 6.7 250 17:36 02.07.2020
631 Rain 20 1011 60 10000 6.7 250 17:18 02.07.2020
632 Rain 19 1011 64 10000 5.7 250 16:40 02.07.2020
633 Rain 18 1011 68 10000 6.2 250 16:20 02.07.2020
634 Rain 19 1011 68 10000 6.2 250 15:55 02.07.2020
635 Rain 19 1011 68 10000 6.2 250 15:36 02.07.2020
636 Rain 18 1011 68 10000 5.7 250 15:18 02.07.2020
637 Rain 19 1011 68 10000 6.2 280 14:44 02.07.2020
638 Rain 18 1011 68 10000 5.7 240 14:21 02.07.2020
639 Clouds 19 1011 82 10000 2.6 290 13:56 02.07.2020
640 Rain 18 1011 82 10000 2.6 290 13:37 02.07.2020
641 Rain 18 1010 63 10000 5.1 240 13:18 02.07.2020
642 Clouds 17 1010 63 10000 5.7 270 12:41 02.07.2020
643 Clouds 17 1010 68 10000 5.7 250 12:22 02.07.2020
644 Clouds 17 1010 67 10000 5.7 250 11:57 02.07.2020
645 Clouds 16 1010 67 10000 5.7 250 11:39 02.07.2020
646 Clouds 16 1010 67 10000 5.7 250 11:21 02.07.2020
647 Clouds 16 1010 67 10000 6.2 240 10:42 02.07.2020
648 Clouds 16 1010 67 10000 6.2 240 10:42 02.07.2020
649 Clouds 16 1010 67 10000 5.7 260 10:24 02.07.2020
650 Clouds 16 1009 67 10000 6.2 260 09:55 02.07.2020
651 Clouds 16 1009 67 10000 6.2 260 09:36 02.07.2020
652 Clouds 16 1009 72 10000 5.1 240 09:18 02.07.2020
653 Clouds 14 1009 77 10000 3.6 250 08:42 02.07.2020
654 Clouds 14 1009 82 10000 4.6 250 08:21 02.07.2020
655 Clouds 13 1009 76 10000 4.6 250 07:43 02.07.2020
656 Clouds 13 1009 82 10000 4.6 240 07:23 02.07.2020
657 Clouds 13 1009 76 10000 4.1 240 06:53 02.07.2020
658 Clouds 13 1009 76 10000 4.6 240 06:34 02.07.2020
659 Clouds 13 1009 76 10000 4.1 240 05:50 02.07.2020
660 Clouds 13 1009 76 10000 3.1 240 05:29 02.07.2020
661 Clouds 14 1008 67 10000 4.1 250 03:35 02.07.2020
662 Clouds 15 1008 77 10000 3.6 240 01:53 02.07.2020
663 Clouds 15 1008 77 10000 3.6 240 00:46 02.07.2020
664 Clouds 16 1008 82 10000 3.6 230 00:22 02.07.2020
665 Clouds 17 1007 82 10000 3.6 230 23:45 01.07.2020
666 Clouds 17 1007 77 10000 3.1 240 23:27 01.07.2020
667 Rain 16 1007 77 10000 4.1 240 22:56 01.07.2020
668 Rain 16 1007 77 10000 5.7 250 22:38 01.07.2020
669 Rain 17 1007 77 10000 5.7 250 22:19 01.07.2020
670 Rain 17 1007 72 10000 5.1 240 21:58 01.07.2020
671 Rain 17 1007 72 10000 5.1 240 21:40 01.07.2020
672 Clouds 18 1007 68 10000 5.7 250 21:21 01.07.2020
673 Clouds 18 1006 68 10000 5.7 240 20:55 01.07.2020
674 Clouds 18 1006 68 10000 5.7 240 20:36 01.07.2020
675 Clouds 18 1006 68 10000 5.7 250 20:18 01.07.2020
676 Clouds 18 1006 72 10000 5.1 240 19:42 01.07.2020
677 Clouds 18 1006 72 10000 4.6 230 19:24 01.07.2020
678 Clouds 18 1006 72 10000 4.6 230 18:59 01.07.2020
679 Clouds 18 1006 72 10000 4.6 230 18:40 01.07.2020
680 Clouds 19 1006 72 10000 5.7 230 18:21 01.07.2020
681 Rain 18 1006 72 10000 5.1 240 17:55 01.07.2020
682 Rain 18 1006 72 10000 5.1 240 17:37 01.07.2020
683 Rain 18 1006 72 10000 5.7 250 17:18 01.07.2020
684 Rain 19 1006 72 10000 8.2 280 16:43 01.07.2020
685 Rain 20 1005 49 10000 5.1 260 16:24 01.07.2020
686 Rain 21 1005 52 10000 6.2 250 15:43 01.07.2020
687 Rain 21 1005 52 10000 5.1 240 15:25 01.07.2020
688 Clouds 21 1005 52 10000 4.6 240 14:59 01.07.2020
689 Clouds 21 1005 52 10000 4.6 240 14:41 01.07.2020
690 Clouds 20 1005 52 10000 4.6 250 14:21 01.07.2020
691 Clouds 20 1005 52 10000 5.3 246 13:56 01.07.2020
692 Clouds 20 1005 52 10000 5.3 246 13:37 01.07.2020
693 Clouds 20 1005 52 10000 5.28 244 13:19 01.07.2020
694 Clouds 20 1005 52 10000 5.28 244 12:56 01.07.2020
695 Clouds 20 1005 56 10000 5.28 244 12:38 01.07.2020
696 Clouds 20 1005 56 10000 5.19 238 12:19 01.07.2020
697 Clouds 19 1005 56 10000 5.19 238 11:40 01.07.2020
698 Clouds 19 1005 56 10000 5.14 242 11:21 01.07.2020
699 Clouds 19 1005 59 10000 5.7 250 10:57 01.07.2020
700 Clouds 19 1005 59 10000 5.7 250 10:39 01.07.2020
701 Clouds 19 1005 63 10000 6.2 250 10:20 01.07.2020
702 Clouds 17 1005 63 10000 5.1 240 09:40 01.07.2020
703 Clouds 17 1004 67 10000 5.1 250 09:20 01.07.2020
704 Clouds 16 1004 72 10000 4.6 250 08:59 01.07.2020
705 Clouds 16 1004 72 10000 4.6 250 08:40 01.07.2020
706 Clouds 16 1004 72 10000 4.6 250 08:20 01.07.2020
707 Clouds 15 1004 82 10000 4.1 240 07:44 01.07.2020
708 Clouds 14 1004 82 10000 4.6 230 07:25 01.07.2020
709 Clouds 14 1004 82 10000 3.6 230 06:59 01.07.2020
710 Clouds 14 1004 82 10000 3.6 230 06:41 01.07.2020
711 Clouds 14 1004 77 10000 4.1 240 06:21 01.07.2020
712 Clouds 16 1004 72 10000 4.6 230 04:30 01.07.2020
713 Clouds 16 1004 77 10000 5.7 240 03:44 01.07.2020
714 Rain 16 1004 82 7000 3.6 230 03:26 01.07.2020
715 Rain 17 1005 82 10000 4.6 230 02:33 01.07.2020
716 Clouds 17 1005 77 10000 4.6 240 01:26 01.07.2020
717 Clouds 17 1005 77 10000 4.1 240 00:40 01.07.2020
718 Clouds 17 1006 82 10000 4.6 230 00:21 01.07.2020
719 Clouds 17 1006 82 10000 4.1 220 23:40 30.06.2020
720 Clouds 17 1005 82 10000 3.1 230 23:21 30.06.2020
721 Clouds 17 1005 82 10000 5.1 230 22:43 30.06.2020
722 Clouds 17 1005 82 10000 4.6 230 22:20 30.06.2020
723 Clouds 18 1005 77 10000 5.1 230 21:59 30.06.2020
724 Clouds 18 1005 77 10000 5.1 230 21:40 30.06.2020
725 Clouds 18 1005 77 10000 4.1 230 21:19 30.06.2020
726 Clouds 18 1005 77 10000 3.6 230 20:43 30.06.2020
727 Rain 18 1006 82 10000 3.6 240 20:21 30.06.2020
728 Clouds 18 1006 77 10000 4.6 240 19:59 30.06.2020
729 Clouds 18 1006 77 10000 4.6 240 19:59 30.06.2020
730 Clouds 18 1006 77 10000 4.6 240 19:39 30.06.2020
731 Clouds 18 1006 77 10000 6.2 240 19:19 30.06.2020
732 Clouds 18 1006 77 10000 5.7 230 18:42 30.06.2020
733 Clouds 18 1004 80 0 1.34 237 18:20 30.06.2020
734 Clouds 18 1006 77 10000 5.1 250 17:57 30.06.2020
735 Clouds 18 1006 77 10000 5.1 250 17:37 30.06.2020
736 Clouds 18 1006 72 10000 5.1 240 17:18 30.06.2020
737 Clouds 18 1007 77 10000 4.6 240 16:41 30.06.2020
738 Clouds 17 1007 77 10000 5.1 250 16:23 30.06.2020
739 Rain 17 1007 82 9000 5.1 250 15:57 30.06.2020
740 Rain 17 1007 82 9000 5.1 250 15:39 30.06.2020
741 Rain 17 1007 72 10000 5.1 240 15:20 30.06.2020
742 Clouds 17 1007 72 10000 3.1 250 14:47 30.06.2020
743 Clouds 17 1007 72 10000 3.1 250 14:47 30.06.2020
744 Rain 17 1007 77 10000 3.1 220 14:23 30.06.2020
745 Rain 17 1007 82 10000 3.1 270 13:59 30.06.2020
746 Rain 16 1007 82 10000 3.1 270 13:39 30.06.2020
747 Rain 16 1008 77 10000 3.6 270 13:20 30.06.2020
748 Rain 16 1008 82 10000 4.1 260 12:57 30.06.2020
749 Rain 16 1008 82 10000 4.1 260 12:39 30.06.2020
750 Rain 15 1008 77 10000 4.6 260 12:20 30.06.2020
751 Rain 16 1007 67 10000 5.1 250 11:57 30.06.2020
752 Rain 16 1007 67 10000 5.1 250 11:38 30.06.2020
753 Rain 16 1007 67 10000 4.6 240 11:19 30.06.2020
754 Rain 16 1007 67 10000 4.6 240 11:19 30.06.2020
755 Rain 16 1008 67 10000 4.6 240 10:56 30.06.2020
756 Rain 19 1010 59 10000 5.1 240 16:38 28.06.2020
757 Rain 18 1010 77 10000 6.7 250 16:19 28.06.2020
758 Rain 19 1010 52 10000 7.7 230 15:56 28.06.2020
759 Rain 19 1010 52 10000 7.7 230 15:37 28.06.2020
760 Rain 19 1010 67 10000 6.7 240 15:18 28.06.2020
761 Rain 19 1008 61 0 4.92 218 15:18 28.06.2020
762 Rain 19 1010 40 10000 7.2 250 14:43 28.06.2020
763 Clouds 19 1010 37 10000 6.7 240 14:24 28.06.2020
764 Clouds 20 1010 42 10000 8.2 240 13:55 28.06.2020
765 Clouds 19 1010 42 10000 8.2 240 13:36 28.06.2020
766 Clouds 19 1010 42 10000 8.2 250 13:18 28.06.2020
767 Clouds 19 1010 45 10000 7.7 250 12:55 28.06.2020
768 Clouds 19 1010 45 10000 7.7 250 12:36 28.06.2020
769 Clouds 18 1010 48 10000 6.7 230 12:18 28.06.2020
770 Clouds 18 1010 52 10000 7.7 250 11:43 28.06.2020
771 Clouds 18 1010 52 10000 7.2 250 11:21 28.06.2020
772 Clouds 17 1010 55 10000 7.7 240 10:59 28.06.2020
773 Clouds 17 1010 55 10000 7.7 240 10:41 28.06.2020
774 Clouds 17 1010 55 10000 7.7 240 10:41 28.06.2020
775 Clouds 16 1010 59 10000 7.2 250 10:22 28.06.2020
776 Clouds 16 1009 63 10000 7.2 240 09:43 28.06.2020
777 Clouds 15 1009 67 10000 6.2 240 09:24 28.06.2020
778 Clouds 15 1009 67 10000 6.7 240 08:58 28.06.2020
779 Clouds 15 1009 67 10000 6.7 240 08:40 28.06.2020
780 Clouds 14 1009 71 10000 5.7 230 08:21 28.06.2020
781 Clouds 13 1008 71 10000 6.2 230 07:39 28.06.2020
782 Clouds 12 1008 76 10000 6.2 230 06:58 28.06.2020
783 Clouds 12 1008 76 10000 5.7 240 06:32 28.06.2020
784 Clouds 13 1007 71 10000 5.7 240 05:54 28.06.2020
785 Clouds 13 1007 71 10000 6.2 240 05:24 28.06.2020
786 Clouds 14 1007 77 10000 6.2 230 03:23 28.06.2020
787 Rain 15 1006 72 10000 5.7 220 02:28 28.06.2020
788 Clouds 15 1006 67 10000 6.2 230 01:46 28.06.2020
789 Clouds 15 1006 67 10000 5.7 230 01:22 28.06.2020
790 Clouds 15 1006 72 10000 6.2 230 00:43 28.06.2020
791 Clouds 16 1006 67 10000 6.2 230 00:22 28.06.2020
792 Clouds 16 1006 67 10000 5.7 220 23:40 27.06.2020
793 Rain 16 1006 67 10000 6.2 230 23:22 27.06.2020
794 Clouds 16 1005 67 10000 6.2 220 22:58 27.06.2020
795 Clouds 16 1005 67 10000 6.2 220 22:39 27.06.2020
796 Clouds 16 1005 67 10000 7.2 220 22:19 27.06.2020
797 Clouds 17 1005 63 10000 7.2 230 21:42 27.06.2020
798 Clouds 17 1004 59 10000 6.2 220 21:21 27.06.2020
799 Clouds 18 1004 63 10000 7.7 220 20:57 27.06.2020
800 Clouds 18 1004 63 10000 7.7 220 20:57 27.06.2020
801 Clouds 18 1004 63 10000 7.7 220 20:37 27.06.2020
802 Clouds 19 1004 63 10000 7.2 230 20:18 27.06.2020
803 Clouds 19 1004 63 10000 8.2 220 19:54 27.06.2020
804 Clouds 19 1004 63 10000 8.2 220 19:36 27.06.2020
805 Clouds 19 1004 63 10000 8.2 220 19:18 27.06.2020
806 Clouds 19 1004 63 10000 7.2 220 18:43 27.06.2020
807 Clouds 19 1004 63 10000 7.2 220 18:22 27.06.2020
808 Rain 19 1004 63 10000 7.2 210 17:55 27.06.2020
809 Rain 19 1004 63 10000 7.2 210 17:37 27.06.2020
810 Clouds 19 1004 63 10000 7.7 220 17:19 27.06.2020
811 Clouds 19 1004 63 10000 7.7 210 16:43 27.06.2020
812 Rain 19 1004 56 10000 8.7 230 16:24 27.06.2020
813 Rain 20 1003 56 10000 8.7 230 15:55 27.06.2020
814 Clouds 21 1003 56 10000 8.7 230 15:37 27.06.2020
815 Clouds 20 1003 68 10000 6.7 200 15:18 27.06.2020
816 Rain 20 1004 77 10000 8.2 200 14:41 27.06.2020
817 Clouds 20 1004 68 10000 8.7 200 14:23 27.06.2020
818 Rain 19 1004 82 10000 6.7 200 13:57 27.06.2020
819 Rain 18 1004 82 10000 6.7 200 13:37 27.06.2020
820 Rain 18 1004 77 10000 7.2 180 13:19 27.06.2020
821 Rain 18 1004 77 10000 7.2 180 13:19 27.06.2020
822 Clouds 18 1004 72 10000 7.2 180 12:56 27.06.2020
823 Clouds 18 1004 72 10000 7.2 180 12:37 27.06.2020
824 Rain 18 1003 80 0 5.81 205 12:19 27.06.2020
825 Clouds 18 1005 72 10000 5.7 200 11:42 27.06.2020
826 Clouds 18 1005 77 10000 5.7 180 11:23 27.06.2020
827 Clouds 17 1005 77 10000 4.6 190 10:59 27.06.2020
828 Rain 17 1005 77 10000 4.6 190 10:38 27.06.2020
829 Rain 17 1005 77 10000 4.1 200 10:18 27.06.2020
830 Clouds 17 1005 82 10000 5.1 200 09:41 27.06.2020
831 Clouds 16 1005 88 10000 4.1 170 09:21 27.06.2020
832 Clouds 16 1003 91 0 1.34 87 08:56 27.06.2020
833 Rain 16 1005 82 5000 5.1 200 08:38 27.06.2020
834 Rain 17 1005 77 10000 4.6 180 08:19 27.06.2020
835 Clouds 17 1006 72 10000 4.6 200 07:38 27.06.2020
836 Clouds 17 1006 72 10000 4.6 200 07:19 27.06.2020
837 Clouds 17 1006 82 10000 3.6 190 06:38 27.06.2020
838 Clouds 17 1006 82 10000 3.6 190 06:19 27.06.2020
839 Clouds 16 1008 77 10000 3.6 0 04:22 27.06.2020
840 Clouds 16 1008 77 10000 2.6 210 03:51 27.06.2020
841 Clouds 16 1008 72 10000 4.1 220 02:49 27.06.2020
842 Clouds 16 1008 72 10000 5.1 230 02:30 27.06.2020
843 Clouds 16 1008 72 10000 4.6 240 01:42 27.06.2020
844 Clouds 17 1008 72 10000 4.6 230 00:56 27.06.2020
845 Clouds 18 1008 72 10000 4.6 230 00:30 27.06.2020
846 Clear 18 1008 68 10000 4.6 230 23:44 26.06.2020
847 Clear 18 1008 72 10000 4.1 220 23:25 26.06.2020
848 Clear 18 1008 68 10000 5.1 210 22:56 26.06.2020
849 Clear 19 1008 68 10000 5.1 210 22:38 26.06.2020
850 Clear 20 1008 64 10000 4.6 220 22:19 26.06.2020
851 Clear 21 1008 56 10000 5.1 230 21:57 26.06.2020
852 Clear 21 1008 56 10000 5.1 230 21:37 26.06.2020
853 Clear 22 1008 53 10000 5.7 230 21:19 26.06.2020
854 Clear 23 1007 50 10000 5.1 230 20:43 26.06.2020
855 Clouds 24 1007 47 10000 6.2 220 20:23 26.06.2020
856 Clouds 25 1007 44 10000 5.7 220 19:47 26.06.2020
857 Clouds 26 1007 44 10000 5.1 200 19:24 26.06.2020
858 Clouds 27 1007 44 10000 5.1 210 18:58 26.06.2020
859 Clouds 27 1007 44 10000 5.1 210 18:38 26.06.2020
860 Clouds 28 1007 39 10000 5.7 210 18:19 26.06.2020
861 Clouds 28 1008 42 10000 6.2 200 17:44 26.06.2020
862 Clouds 28 1008 45 10000 6.7 210 17:25 26.06.2020
863 Clouds 28 1008 45 10000 5.7 180 16:49 26.06.2020
864 Clouds 29 1008 40 10000 5.1 180 16:28 26.06.2020
865 Clouds 29 1008 40 10000 4.1 220 15:58 26.06.2020
866 Clouds 29 1008 40 10000 4.1 220 15:39 26.06.2020
867 Clouds 30 1008 40 10000 4.1 170 15:21 26.06.2020
868 Clouds 29 1008 42 10000 3.6 200 14:57 26.06.2020
869 Rain 30 1008 40 10000 4.1 210 14:38 26.06.2020
870 Clouds 30 1008 40 10000 4.1 210 14:20 26.06.2020
871 Clouds 29 1008 42 10000 3.1 210 13:44 26.06.2020
872 Clouds 29 1008 42 10000 3.1 210 13:23 26.06.2020
873 Clouds 28 1008 45 10000 3.1 0 12:56 26.06.2020
874 Clouds 27 1009 45 10000 3.1 220 12:37 26.06.2020
875 Clouds 26 1009 45 10000 3.1 220 12:18 26.06.2020
876 Clouds 26 1009 51 10000 3.1 210 11:56 26.06.2020
877 Clouds 26 1009 51 10000 3.1 210 11:37 26.06.2020
878 Rain 26 1009 57 10000 2.6 220 11:18 26.06.2020
879 Rain 25 1009 78 10000 1.5 0 10:56 26.06.2020
880 Rain 25 1009 78 10000 1.5 0 10:37 26.06.2020
881 Rain 24 1009 78 10000 2.1 80 10:18 26.06.2020
882 Rain 23 1009 83 10000 1.5 0 09:41 26.06.2020
883 Rain 22 1009 88 10000 1 0 09:22 26.06.2020
884 Rain 22 1009 88 10000 2.1 90 08:48 26.06.2020
885 Rain 19 1009 88 10000 3.6 70 08:27 26.06.2020
886 Rain 19 1010 88 6000 1.5 0 07:48 26.06.2020
887 Rain 18 1010 88 6000 2.6 150 07:24 26.06.2020
888 Rain 19 1009 77 10000 1.5 0 06:54 26.06.2020
889 Rain 19 1009 77 10000 1.5 0 06:33 26.06.2020
890 Rain 19 1010 77 10000 1 0 05:57 26.06.2020
891 Clouds 19 1009 77 10000 1.5 0 05:30 26.06.2020
892 Clouds 20 1011 72 10000 2.1 80 02:42 26.06.2020
893 Clouds 21 1011 68 10000 2.6 90 02:21 26.06.2020
894 Clouds 21 1012 64 10000 3.6 80 00:56 26.06.2020
895 Clouds 23 1012 64 10000 3.6 80 00:38 26.06.2020
896 Clear 23 1012 60 10000 3.6 90 23:48 25.06.2020
897 Clear 24 1012 56 10000 3.6 90 23:24 25.06.2020
898 Clear 24 1012 50 10000 5.7 90 22:59 25.06.2020
899 Clear 25 1012 50 10000 5.7 90 22:40 25.06.2020
900 Clear 25 1013 53 10000 5.1 90 22:21 25.06.2020
901 Clear 25 1013 53 10000 5.1 90 22:21 25.06.2020
902 Clear 26 1013 50 10000 5.1 90 21:58 25.06.2020
903 Clear 26 1013 50 10000 5.1 90 21:40 25.06.2020
904 Clear 26 1013 50 10000 5.1 90 21:40 25.06.2020
905 Clear 27 1013 44 10000 6.2 90 21:21 25.06.2020
906 Clear 27 1013 44 10000 6.2 90 20:59 25.06.2020
907 Clear 27 1013 44 10000 6.2 90 20:41 25.06.2020
908 Clear 28 1013 42 10000 8.2 90 20:23 25.06.2020
909 Clear 28 1013 42 10000 8.7 90 19:56 25.06.2020
910 Clear 29 1013 37 10000 9.3 90 19:37 25.06.2020
911 Clear 29 1013 37 10000 8.2 90 19:18 25.06.2020
912 Clear 29 1013 37 10000 8.2 90 18:55 25.06.2020
913 Clear 30 1013 37 10000 8.2 90 18:36 25.06.2020
914 Clear 30 1014 33 10000 7.7 100 18:18 25.06.2020
915 Clear 30 1014 30 10000 8.2 100 17:39 25.06.2020
916 Clear 30 1014 32 10000 8.7 90 17:19 25.06.2020
917 Clear 31 1014 33 10000 7.2 110 16:41 25.06.2020
918 Clear 31 1014 33 10000 5.7 100 16:22 25.06.2020
919 Clear 30 1015 35 10000 5.7 100 15:59 25.06.2020
920 Clear 30 1015 35 10000 5.7 100 15:40 25.06.2020
921 Clear 30 1015 35 10000 4.6 90 15:19 25.06.2020
922 Clear 30 1015 35 10000 5.1 90 14:43 25.06.2020
923 Clear 30 1016 37 10000 5.7 100 14:23 25.06.2020
924 Clear 29 1016 39 10000 6.2 90 13:56 25.06.2020
925 Clear 29 1016 39 10000 6.2 90 13:37 25.06.2020
926 Clear 30 1016 39 10000 6.2 90 13:19 25.06.2020
927 Clear 29 1016 39 10000 6.7 90 12:44 25.06.2020
928 Clear 27 1016 44 10000 4.6 90 12:20 25.06.2020
929 Clear 27 1016 47 10000 4.1 100 11:58 25.06.2020
930 Clear 26 1016 47 10000 4.1 100 11:38 25.06.2020
931 Clear 26 1017 47 10000 4.1 100 11:20 25.06.2020
932 Clear 26 1017 47 10000 4.1 100 11:20 25.06.2020
933 Clear 26 1017 57 10000 4.1 90 10:42 25.06.2020
934 Clear 25 1017 60 10000 4.6 90 10:23 25.06.2020
935 Clear 23 1017 64 10000 4.6 80 09:41 25.06.2020
936 Clear 22 1017 68 10000 4.6 80 09:23 25.06.2020
937 Clear 22 1017 68 10000 4.6 90 08:56 25.06.2020
938 Clear 21 1017 68 10000 4.6 90 08:38 25.06.2020
939 Clear 20 1017 72 10000 3.1 90 08:18 25.06.2020
940 Clear 19 1017 77 10000 3.1 80 07:41 25.06.2020
941 Clear 19 1017 82 10000 2.6 90 07:21 25.06.2020
942 Clear 19 1017 82 10000 2.1 80 06:31 25.06.2020
943 Clear 19 1017 82 10000 2.1 70 05:55 25.06.2020
944 Clear 18 1017 82 10000 2.1 70 05:31 25.06.2020
945 Clear 19 1018 77 10000 3.1 70 03:39 25.06.2020
946 Clear 20 1019 68 10000 3.6 80 02:46 25.06.2020
947 Clear 20 1019 68 10000 2.6 80 02:25 25.06.2020
948 Clear 21 1019 64 10000 3.1 80 01:42 25.06.2020
949 Clear 22 1019 64 10000 3.1 80 00:51 25.06.2020
950 Clear 22 1019 60 10000 3.6 80 00:24 25.06.2020
951 Clear 22 1019 53 10000 4.6 80 23:59 24.06.2020
952 Clear 23 1019 53 10000 4.6 80 23:38 24.06.2020
953 Clear 23 1019 56 10000 4.6 90 23:20 24.06.2020
954 Clear 24 1019 53 10000 6.7 90 22:43 24.06.2020
955 Clear 25 1019 50 10000 4.1 80 22:22 24.06.2020
956 Clear 25 1019 47 10000 6.2 90 21:57 24.06.2020
957 Clear 26 1019 47 10000 6.2 90 21:38 24.06.2020
958 Clear 26 1019 41 10000 7.2 100 21:20 24.06.2020
959 Clear 26 1019 39 10000 8.2 100 20:59 24.06.2020
960 Clear 27 1019 39 10000 8.2 100 20:41 24.06.2020
961 Clear 27 1019 39 10000 9.3 100 20:22 24.06.2020
962 Clear 28 1019 37 10000 9.3 100 19:59 24.06.2020
963 Clear 28 1019 37 10000 9.3 100 19:39 24.06.2020
964 Clear 28 1019 37 10000 8.7 100 19:21 24.06.2020
965 Clear 29 1019 39 10000 8.7 90 18:59 24.06.2020
966 Clear 29 1019 39 10000 8.7 90 18:41 24.06.2020
967 Clear 29 1019 35 10000 8.2 90 18:23 24.06.2020
968 Clear 30 1019 35 10000 8.7 100 17:58 24.06.2020
969 Clear 29 1019 35 10000 8.7 100 17:40 24.06.2020
970 Clear 29 1019 30 10000 8.2 100 17:19 24.06.2020
971 Clear 30 1019 33 10000 7.7 100 16:56 24.06.2020
972 Clear 30 1019 33 10000 7.7 100 16:56 24.06.2020
973 Clear 30 1019 33 10000 7.7 100 16:56 24.06.2020
974 Clear 30 1019 33 10000 7.7 100 16:38 24.06.2020
975 Clear 30 1019 33 10000 7.2 100 16:20 24.06.2020
976 Clear 30 1020 35 10000 7.2 90 15:56 24.06.2020
977 Clear 30 1020 35 10000 7.2 90 15:38 24.06.2020
978 Clear 30 1020 37 10000 6.7 100 15:19 24.06.2020
979 Clear 30 1020 37 10000 6.7 90 14:43 24.06.2020
980 Clouds 30 1020 37 10000 6.2 90 14:24 24.06.2020
981 Clouds 29 1020 37 10000 5.7 90 13:57 24.06.2020
982 Clouds 29 1020 37 10000 5.7 90 13:38 24.06.2020
983 Clouds 29 1020 47 10000 4.1 80 13:18 24.06.2020
984 Clouds 29 1020 47 10000 3.6 80 12:41 24.06.2020
985 Clouds 27 1020 50 10000 3.6 90 12:20 24.06.2020
986 Clouds 26 1020 60 10000 2.6 80 11:56 24.06.2020
987 Clouds 25 1021 60 10000 3.6 80 11:38 24.06.2020
988 Clouds 25 1021 60 10000 3.6 80 11:19 24.06.2020
989 Clouds 24 1021 64 10000 3.6 90 10:43 24.06.2020
990 Clouds 23 1021 64 10000 4.1 90 10:19 24.06.2020
991 Clouds 23 1021 64 10000 4.1 90 10:19 24.06.2020
992 Clouds 21 1021 72 10000 3.1 90 09:44 24.06.2020
993 Clouds 20 1021 68 10000 2.6 90 09:23 24.06.2020
994 Clouds 19 1021 72 10000 3.6 90 08:54 24.06.2020
995 Clouds 19 1021 72 10000 3.6 90 08:36 24.06.2020
996 Clouds 18 1021 72 10000 3.6 90 08:18 24.06.2020
997 Clouds 17 1021 77 10000 2.6 80 07:42 24.06.2020
998 Clouds 18 1021 77 10000 2.6 80 07:23 24.06.2020
999 Clouds 17 1021 77 10000 2.1 60 06:40 24.06.2020
1000 Clouds 17 1021 77 10000 2.1 60 06:22 24.06.2020
1001 Clouds 18 1021 77 10000 2.6 70 05:38 24.06.2020
1002 Clouds 17 1022 77 10000 3.6 80 04:38 24.06.2020
1003 Clouds 17 1022 72 10000 4.1 80 03:38 24.06.2020
1004 Clouds 18 1022 72 10000 4.1 80 02:53 24.06.2020
1005 Clouds 19 1022 68 10000 4.1 80 02:18 24.06.2020
1006 Clouds 20 1023 68 10000 4.6 80 00:52 24.06.2020
1007 Clouds 21 1023 68 10000 4.6 100 00:33 24.06.2020
1008 Clouds 21 1022 68 10000 4.6 100 23:49 23.06.2020
1009 Clouds 22 1022 64 10000 4.6 100 23:22 23.06.2020
1010 Clouds 22 1022 64 10000 4.6 80 22:59 23.06.2020
1011 Clouds 23 1022 64 10000 4.6 80 22:41 23.06.2020
1012 Clouds 24 1022 53 10000 4.1 90 22:18 23.06.2020
1013 Clouds 24 1022 39 10000 3.6 140 21:56 23.06.2020
1014 Clouds 25 1022 39 10000 3.6 140 21:37 23.06.2020
1015 Clouds 25 1022 39 10000 4.1 150 21:18 23.06.2020
1016 Clouds 26 1022 39 10000 3.6 160 20:54 23.06.2020
1017 Clouds 26 1022 39 10000 3.6 150 20:36 23.06.2020
1018 Clouds 26 1022 39 10000 3.6 150 20:18 23.06.2020
1019 Clouds 27 1022 37 10000 3.1 140 19:41 23.06.2020
1020 Clouds 27 1022 37 10000 3.1 140 19:41 23.06.2020
1021 Clear 27 1022 37 10000 3.1 140 19:23 23.06.2020
1022 Clear 27 1022 37 10000 3.6 140 18:39 23.06.2020
1023 Clear 27 1022 37 10000 3.6 140 18:19 23.06.2020
1024 Clear 28 1022 37 10000 3.6 120 17:44 23.06.2020
1025 Clear 28 1023 37 10000 4.1 180 17:25 23.06.2020
1026 Clear 28 1023 37 10000 3.6 140 16:57 23.06.2020
1027 Clear 27 1023 37 10000 3.6 140 16:39 23.06.2020
1028 Clear 27 1023 39 10000 3.6 170 16:20 23.06.2020
1029 Clear 27 1023 39 10000 3.1 140 15:59 23.06.2020
1030 Clear 27 1023 39 10000 3.1 140 15:41 23.06.2020
1031 Clear 27 1023 36 10000 3.6 200 15:23 23.06.2020
1032 Clear 26 1024 39 10000 4.6 130 14:54 23.06.2020
1033 Clear 26 1024 39 10000 4.6 130 14:36 23.06.2020
1034 Clear 26 1024 41 10000 3.1 150 14:18 23.06.2020
1035 Clear 26 1024 44 10000 3.1 210 13:42 23.06.2020
1036 Clear 26 1024 44 10000 3.1 140 13:23 23.06.2020
1037 Clear 26 1024 44 10000 3.1 140 13:23 23.06.2020
1038 Clear 25 1024 44 10000 3.6 0 12:46 23.06.2020
1039 Clear 23 1024 44 10000 3.6 0 12:23 23.06.2020
1040 Clear 23 1025 43 10000 2.6 0 11:59 23.06.2020
1041 Clear 23 1025 43 10000 2.6 0 11:40 23.06.2020
1042 Clear 23 1025 46 10000 3.6 210 11:21 23.06.2020
1043 Clear 22 1025 49 10000 2.6 130 10:58 23.06.2020
1044 Clear 22 1025 49 10000 2.6 130 10:39 23.06.2020
1045 Clear 21 1025 52 10000 1.5 0 10:21 23.06.2020
1046 Clear 20 1025 49 10000 1.5 0 09:55 23.06.2020
1047 Clear 19 1025 49 10000 1.5 0 09:37 23.06.2020
1048 Clear 18 1025 55 10000 1.5 0 09:18 23.06.2020
1049 Clear 17 1025 55 10000 1 0 08:42 23.06.2020
1050 Clouds 16 1025 63 10000 2.1 160 08:22 23.06.2020
1051 Clouds 15 1025 67 10000 1.5 0 07:46 23.06.2020
1052 Clouds 14 1024 72 10000 1.5 0 07:24 23.06.2020
1053 Clouds 13 1024 72 10000 1.5 0 06:52 23.06.2020
1054 Clouds 13 1024 76 10000 1.5 220 06:32 23.06.2020
1055 Clouds 13 1024 76 10000 2.6 220 05:54 23.06.2020
1056 Clear 14 1024 77 10000 2.6 220 04:52 23.06.2020
1057 Clouds 14 1024 77 10000 2.6 210 03:21 23.06.2020
1058 Clouds 15 1024 72 10000 2.1 210 02:48 23.06.2020
1059 Clear 15 1024 72 10000 2.6 210 02:29 23.06.2020
1060 Clear 15 1024 72 10000 3.1 200 01:46 23.06.2020
1061 Clear 15 1024 67 10000 3.1 210 01:22 23.06.2020
1062 Clear 16 1024 67 10000 3.1 210 00:41 23.06.2020
1063 Clear 17 1024 63 10000 3.6 200 00:20 23.06.2020
1064 Clear 17 1024 59 10000 3.1 220 23:54 22.06.2020
1065 Clear 18 1024 59 10000 3.6 220 23:36 22.06.2020
1066 Clear 18 1024 59 10000 3.6 220 23:18 22.06.2020
1067 Clear 18 1024 59 10000 4.1 210 22:54 22.06.2020
1068 Clear 19 1024 59 10000 4.1 210 22:36 22.06.2020
1069 Clear 19 1023 52 10000 4.6 210 22:18 22.06.2020
1070 Clear 20 1023 49 10000 4.6 210 21:41 22.06.2020
1071 Clear 20 1023 49 10000 5.1 210 21:22 22.06.2020
1072 -273 0 0 0 0 0 20:59 22.06.2020
1073 Clear 21 1023 49 10000 4.1 220 20:41 22.06.2020
1074 Clouds 22 1023 49 10000 4.6 210 20:21 22.06.2020
1075 Clouds 22 1023 43 10000 4.6 210 19:44 22.06.2020
1076 Clouds 23 1024 43 10000 4.6 210 19:20 22.06.2020
1077 Clouds 23 1024 43 10000 4.6 210 18:58 22.06.2020
1078 Clouds 23 1024 43 10000 5.1 220 18:38 22.06.2020
1079 Clouds 23 1024 43 10000 5.1 220 18:20 22.06.2020
1080 Clouds 23 1024 43 10000 5.1 250 17:56 22.06.2020
1081 Clouds 23 1024 43 10000 5.1 210 17:37 22.06.2020
1082 Clouds 23 1024 43 10000 5.1 210 17:19 22.06.2020
1083 Clouds 23 1024 40 10000 4.6 230 16:43 22.06.2020
1084 Clouds 23 1024 40 10000 4.6 230 16:20 22.06.2020
1085 Clouds 23 1025 40 10000 4.6 220 15:59 22.06.2020
1086 Clouds 23 1025 38 10000 4.1 200 15:40 22.06.2020
1087 Clouds 23 1025 40 10000 3.1 230 15:22 22.06.2020
1088 Clouds 22 1025 40 10000 3.6 180 14:41 22.06.2020
1089 Clouds 22 1025 40 10000 3.6 180 14:22 22.06.2020
1090 Clouds 22 1026 43 10000 4.1 240 13:59 22.06.2020
1091 Clouds 22 1026 40 10000 4.1 240 13:39 22.06.2020
1092 Clouds 21 1026 40 10000 4.1 240 13:21 22.06.2020
1093 Clouds 21 1026 45 10000 4.1 220 12:56 22.06.2020
1094 Clouds 20 1026 45 10000 4.1 250 12:37 22.06.2020
1095 Clouds 19 1026 45 10000 4.1 250 12:19 22.06.2020
1096 Clouds 19 1026 48 10000 4.6 240 11:37 22.06.2020
1097 Clouds 18 1026 48 10000 4.6 240 11:19 22.06.2020
1098 Clouds 18 1026 52 10000 4.1 240 10:56 22.06.2020
1099 Clouds 18 1026 55 10000 4.1 240 10:37 22.06.2020
1100 Clouds 18 1026 55 10000 4.1 240 10:37 22.06.2020
1101 Clouds 18 1026 55 10000 4.1 240 10:19 22.06.2020
1102 Clouds 17 1026 59 10000 3.1 260 09:56 22.06.2020
1103 Clouds 16 1025 67 10000 3.1 240 09:38 22.06.2020
1104 Clouds 15 1025 67 10000 3.1 240 09:18 22.06.2020
1105 Clouds 15 1025 67 10000 3.1 240 08:54 22.06.2020
1106 Clouds 14 1025 71 10000 2.6 230 08:36 22.06.2020
1107 Clear 14 1025 71 10000 2.6 230 08:18 22.06.2020
1108 Clear 13 1025 76 10000 2.6 240 07:45 22.06.2020
1109 Clear 12 1025 76 10000 2.6 240 07:24 22.06.2020
1110 Clear 11 1024 76 10000 3.6 220 06:38 22.06.2020
1111 Clear 12 1024 76 10000 3.6 220 06:19 22.06.2020
1112 Clear 12 1024 71 10000 3.6 230 05:41 22.06.2020
1113 Clear 14 1023 62 10000 5.1 270 03:22 22.06.2020
1114 Clear 15 1022 55 10000 5.7 260 01:39 22.06.2020
1115 Clouds 16 1022 51 10000 7.2 260 00:54 22.06.2020
1116 Clouds 16 1022 51 10000 5.1 250 00:29 22.06.2020
1117 Clouds 16 1021 48 10000 7.2 270 23:56 21.06.2020
1118 Clouds 17 1021 48 10000 6.7 280 23:37 21.06.2020
1119 Clouds 17 1021 48 10000 6.7 280 23:19 21.06.2020
1120 Clouds 18 1020 52 10000 6.7 280 22:55 21.06.2020
1121 Clouds 18 1020 52 10000 7.7 290 22:36 21.06.2020
1122 Clouds 18 1020 52 10000 7.7 290 22:18 21.06.2020
1123 Clouds 19 1019 45 10000 7.2 270 21:55 21.06.2020
1124 Clouds 19 1019 49 10000 6.2 270 21:37 21.06.2020
1125 Clouds 20 1019 49 10000 6.2 270 21:19 21.06.2020
1126 Clouds 20 1018 49 10000 6.2 270 20:56 21.06.2020
1127 Clouds 20 1018 52 10000 6.2 260 20:36 21.06.2020
1128 Clouds 20 1018 52 10000 6.2 260 20:18 21.06.2020
1129 Clouds 21 1017 43 10000 6.2 270 19:41 21.06.2020
1130 Rain 21 1017 43 10000 6.2 270 19:20 21.06.2020
1131 Rain 22 1017 38 10000 5.1 250 18:56 21.06.2020
1132 Rain 22 1017 40 10000 6.2 260 18:38 21.06.2020
1133 Rain 22 1017 40 10000 6.2 260 18:20 21.06.2020
1134 Rain 22 1016 43 10000 6.7 270 17:56 21.06.2020
1135 Rain 22 1016 40 10000 5.1 260 17:38 21.06.2020
1136 Clouds 22 1016 40 10000 5.1 260 17:19 21.06.2020
1137 Clouds 22 1016 43 10000 7.2 270 16:40 21.06.2020
1138 Clouds 23 1016 43 10000 7.2 270 16:22 21.06.2020
1139 Rain 22 1016 49 10000 5.1 250 15:42 21.06.2020
1140 Rain 22 1016 49 10000 5.1 250 15:24 21.06.2020
1141 Rain 22 1016 46 10000 7.2 250 14:59 21.06.2020
1142 Rain 22 1016 46 10000 7.2 250 14:59 21.06.2020
1143 Rain 22 1015 52 10000 7.2 250 14:38 21.06.2020
1144 Rain 21 1015 52 10000 7.2 250 14:20 21.06.2020
1145 Clouds 21 1015 49 10000 6.7 240 13:56 21.06.2020
1146 Clouds 21 1015 46 10000 6.2 220 13:38 21.06.2020
1147 Clouds 21 1015 46 10000 6.2 220 13:19 21.06.2020
1148 Clouds 21 1015 64 10000 5.7 240 12:44 21.06.2020
1149 Clouds 20 1015 64 10000 5.7 240 12:25 21.06.2020
1150 Rain 19 1015 77 10000 4.6 230 11:58 21.06.2020
1151 Clouds 18 1015 88 10000 4.6 220 11:39 21.06.2020
1152 Rain 18 1015 88 10000 4.6 220 11:21 21.06.2020
1153 Clouds 17 1015 88 10000 5.1 210 10:55 21.06.2020
1154 Clouds 17 1015 82 10000 5.1 200 10:36 21.06.2020
1155 Clouds 17 1015 82 10000 5.1 200 10:18 21.06.2020
1156 Rain 16 1015 87 10000 5.1 210 09:41 21.06.2020
1157 Rain 15 1015 87 10000 5.1 210 09:19 21.06.2020
1158 Rain 15 1014 77 4500 5.1 210 08:56 21.06.2020
1159 Clouds 15 1014 67 10000 5.1 210 08:38 21.06.2020
1160 Clouds 16 1014 67 10000 5.1 210 08:19 21.06.2020
1161 Rain 16 1015 72 10000 3.1 190 07:41 21.06.2020
1162 Clouds 16 1015 72 10000 3.1 190 07:23 21.06.2020
1163 Clouds 16 1015 72 10000 3.1 180 06:49 21.06.2020
1164 Rain 16 1015 72 10000 3.6 180 06:18 21.06.2020
1165 Rain 16 1015 77 10000 3.1 170 05:54 21.06.2020
1166 Clouds 16 1016 72 10000 3.1 160 03:53 21.06.2020
1167 Clouds 16 1017 72 10000 4.1 150 03:18 21.06.2020
1168 Clouds 15 1017 72 10000 3.1 160 02:20 21.06.2020
1169 Clouds 16 1018 67 10000 3.1 160 01:36 21.06.2020
1170 Clouds 16 1018 67 10000 3.1 160 01:18 21.06.2020
1171 Clouds 16 1018 63 10000 3.1 170 00:41 21.06.2020
1172 Clouds 17 1018 63 10000 3.1 170 00:23 21.06.2020
1173 Clouds 17 1018 63 10000 3.1 170 23:45 20.06.2020
1174 Clouds 17 1018 63 10000 3.1 170 23:22 20.06.2020
1175 Clouds 17 1018 59 10000 3.1 190 22:57 20.06.2020
1176 Clouds 18 1018 56 10000 4.1 190 22:39 20.06.2020
1177 Clouds 18 1018 56 10000 4.1 190 22:19 20.06.2020
1178 Clouds 19 1018 56 10000 5.1 210 21:57 20.06.2020
1179 Clear 19 1018 49 10000 5.7 210 21:39 20.06.2020
1180 Clear 20 1018 49 10000 5.7 210 21:20 20.06.2020
1181 Clear 20 1018 49 10000 5.7 210 21:20 20.06.2020
1182 Clear 20 1018 49 10000 5.1 190 20:57 20.06.2020
1183 Clouds 21 1018 49 10000 4.1 200 20:39 20.06.2020
1184 Clouds 21 1018 49 10000 4.1 200 20:20 20.06.2020
1185 Clouds 21 1019 46 10000 5.1 180 19:44 20.06.2020
1186 Clouds 21 1019 46 10000 5.1 180 19:25 20.06.2020
1187 Clouds 22 1019 49 10000 5.7 190 18:59 20.06.2020
1188 Clouds 21 1019 49 10000 4.6 210 18:40 20.06.2020
1189 Clouds 22 1019 49 10000 4.6 210 18:20 20.06.2020
1190 Clouds 22 1019 46 10000 5.1 210 17:57 20.06.2020
1191 Clouds 21 1019 46 10000 4.6 190 17:39 20.06.2020
1192 Clouds 22 1019 46 10000 4.6 190 17:20 20.06.2020
1193 Clouds 22 1019 46 10000 5.1 210 16:42 20.06.2020
1194 Clouds 22 1019 46 10000 5.1 210 16:19 20.06.2020
1195 Clouds 22 1019 49 10000 4.6 200 15:58 20.06.2020
1196 Clouds 21 1020 52 10000 4.6 210 15:40 20.06.2020
1197 Clouds 21 1020 52 10000 5.1 200 15:18 20.06.2020
1198 Clouds 20 1020 56 10000 4.1 220 14:43 20.06.2020
1199 Clouds 20 1020 56 10000 4.1 220 14:21 20.06.2020
1200 Clouds 20 1020 56 10000 4.1 230 13:46 20.06.2020
1201 Clouds 20 1020 56 10000 4.1 230 13:26 20.06.2020
1202 Clouds 19 1020 59 10000 4.6 210 12:59 20.06.2020
1203 Clouds 19 1020 63 10000 5.1 220 12:40 20.06.2020
1204 Clouds 18 1020 63 10000 5.1 220 12:20 20.06.2020
1205 Clouds 19 1020 59 10000 5.1 220 11:55 20.06.2020
1206 Clouds 18 1020 63 10000 4.1 220 11:37 20.06.2020
1207 Clouds 18 1020 63 10000 4.1 220 11:19 20.06.2020
1208 Clouds 18 1020 59 10000 4.6 210 10:46 20.06.2020
1209 Clouds 17 1020 63 10000 3.6 240 10:22 20.06.2020
1210 Clouds 17 1020 63 10000 4.6 240 09:55 20.06.2020
1211 Clouds 17 1020 67 10000 4.1 240 09:37 20.06.2020
1212 Clouds 16 1020 67 10000 4.1 240 09:19 20.06.2020
1213 Clouds 15 1020 77 10000 3.1 220 08:46 20.06.2020
1214 Clouds 15 1020 77 10000 3.1 220 08:27 20.06.2020
1215 Clouds 14 1020 82 10000 2.6 220 07:52 20.06.2020
1216 Clouds 13 1020 82 10000 2.6 240 07:28 20.06.2020
1217 Clouds 13 1019 82 10000 2.6 240 06:58 20.06.2020
1218 Clouds 13 1019 82 10000 2.6 230 06:23 20.06.2020
1219 Clouds 13 1019 82 10000 2.6 240 05:53 20.06.2020
1220 Clouds 13 1019 82 10000 3.1 230 04:58 20.06.2020
1221 Clouds 14 1019 77 10000 3.6 240 02:50 20.06.2020
1222 Clouds 14 1019 72 10000 4.6 240 01:48 20.06.2020
1223 Clouds 15 1019 72 10000 4.6 230 01:22 20.06.2020
1224 Clear 15 1018 72 10000 5.1 240 00:22 20.06.2020
1225 Clouds 15 1018 72 10000 4.1 230 23:58 19.06.2020
1226 Clouds 15 1018 63 10000 4.1 230 23:38 19.06.2020
1227 Clouds 16 1018 63 10000 4.1 230 23:18 19.06.2020
1228 Clouds 16 1017 59 10000 5.7 240 22:41 19.06.2020
1229 Clouds 16 1017 59 10000 5.7 240 22:23 19.06.2020
1230 Clouds 17 1017 59 10000 5.1 230 21:59 19.06.2020
1231 Clouds 17 1016 59 10000 4.1 230 21:39 19.06.2020
1232 Clouds 17 1016 59 10000 5.7 230 21:18 19.06.2020
1233 Clouds 17 1016 59 10000 5.7 230 20:59 19.06.2020
1234 Clouds 17 1016 59 10000 5.7 230 20:40 19.06.2020
1235 Clouds 17 1016 59 10000 5.7 230 20:21 19.06.2020
1236 Clouds 17 1016 59 10000 5.7 230 20:21 19.06.2020
1237 Clouds 17 1016 59 10000 6.2 230 19:58 19.06.2020
1238 Clouds 18 1016 59 10000 7.7 230 19:40 19.06.2020
1239 Clouds 17 1016 59 10000 7.7 230 19:21 19.06.2020
1240 Clouds 18 1015 55 10000 8.2 240 18:56 19.06.2020
1241 Clouds 18 1015 55 10000 7.2 230 18:38 19.06.2020
1242 Clouds 19 1015 55 10000 7.2 230 18:20 19.06.2020
1243 Clouds 19 1015 49 10000 6.2 220 17:41 19.06.2020
1244 Clouds 19 1015 49 10000 6.2 220 17:23 19.06.2020
1245 Clouds 19 1015 55 10000 5.7 230 16:57 19.06.2020
1246 Clouds 19 1015 52 10000 5.7 240 16:38 19.06.2020
1247 Clouds 19 1015 52 10000 5.7 240 16:20 19.06.2020
1248 Clouds 18 1015 67 10000 6.2 240 15:44 19.06.2020
1249 Clouds 17 1015 67 10000 6.2 240 15:25 19.06.2020
1250 Clouds 17 1015 63 10000 5.7 210 14:57 19.06.2020
1251 Clouds 17 1014 63 10000 5.7 230 14:39 19.06.2020
1252 Clouds 17 1014 63 10000 5.7 230 14:20 19.06.2020
1253 Clouds 17 1014 63 10000 6.7 240 13:55 19.06.2020
1254 Clouds 17 1014 63 10000 6.7 240 13:37 19.06.2020
1255 Clouds 17 1014 63 10000 5.1 240 13:18 19.06.2020
1256 Clouds 17 1014 67 10000 6.7 230 12:40 19.06.2020
1257 Clouds 17 1013 67 10000 6.7 220 12:18 19.06.2020
1258 Clouds 17 1013 72 10000 4.1 240 11:40 19.06.2020
1259 Rain 16 1013 67 10000 5.1 230 11:19 19.06.2020
1260 Rain 16 1013 67 10000 5.1 230 10:59 19.06.2020
1261 Rain 16 1013 77 10000 5.1 220 10:41 19.06.2020
1262 Rain 16 1013 77 10000 5.1 220 10:41 19.06.2020
1263 Clouds 16 1013 77 10000 5.1 220 10:41 19.06.2020
1264 Clouds 16 1013 77 10000 5.1 220 10:20 19.06.2020
1265 Clouds 16 1012 77 10000 4.6 220 09:44 19.06.2020
1266 Clouds 16 1012 77 10000 4.6 220 09:25 19.06.2020
1267 Clouds 16 1012 77 10000 3.6 210 08:59 19.06.2020
1268 Clouds 16 1012 82 10000 4.6 210 08:39 19.06.2020
1269 Clouds 16 1012 82 10000 4.6 210 08:20 19.06.2020
1270 Rain 15 1011 87 10000 3.1 170 07:41 19.06.2020
1271 Rain 15 1011 87 10000 3.1 170 07:21 19.06.2020
1272 Clouds 14 1011 87 10000 3.6 170 06:47 19.06.2020
1273 Clouds 14 1011 87 10000 3.6 170 06:21 19.06.2020
1274 Clouds 14 1012 82 10000 3.6 160 05:28 19.06.2020
1275 Clouds 14 1012 87 10000 2.6 170 03:45 19.06.2020
1276 Clouds 14 1012 82 10000 3.1 180 02:20 19.06.2020
1277 Clear 14 1012 77 10000 3.6 210 00:45 19.06.2020
1278 Clouds 15 1011 77 10000 3.1 180 00:22 19.06.2020
1279 Clouds 15 1011 77 10000 3.1 180 23:58 18.06.2020
1280 Clouds 15 1011 67 10000 3.6 200 23:39 18.06.2020
1281 Clouds 15 1011 67 10000 3.6 200 23:21 18.06.2020
1282 Clear 16 1011 63 10000 3.6 200 22:41 18.06.2020
1283 Clear 16 1011 63 10000 3.6 200 22:21 18.06.2020
1284 Clear 17 1010 63 10000 4.1 190 21:57 18.06.2020
1285 Clouds 17 1010 59 10000 4.1 190 21:38 18.06.2020
1286 Clear 18 1010 59 10000 4.6 180 21:19 18.06.2020
1287 Clear 18 1010 56 10000 4.6 190 20:43 18.06.2020
1288 Clouds 19 1010 56 10000 4.6 190 20:22 18.06.2020
1289 Clouds 19 1009 56 10000 4.6 180 19:58 18.06.2020
1290 Clouds 19 1009 56 10000 5.1 200 19:40 18.06.2020
1291 Clouds 20 1009 56 10000 5.1 200 19:20 18.06.2020
1292 Clouds 20 1009 56 10000 4.1 230 18:44 18.06.2020
1293 Clouds 21 1009 56 10000 4.1 230 18:25 18.06.2020
1294 Clouds 21 1009 56 10000 4.6 230 17:59 18.06.2020
1295 Clouds 20 1009 63 10000 5.1 220 17:41 18.06.2020
1296 Clouds 20 1009 63 10000 5.1 220 17:23 18.06.2020
1297 Clouds 20 1009 68 10000 5.1 230 16:44 18.06.2020
1298 Clouds 20 1009 68 10000 5.1 230 16:25 18.06.2020
1299 Clouds 19 1010 77 10000 4.6 230 15:59 18.06.2020
1300 Rain 19 1010 82 10000 4.1 220 15:40 18.06.2020
1301 Rain 18 1010 82 10000 4.1 220 15:20 18.06.2020
1302 Rain 17 1010 82 10000 3.6 220 14:57 18.06.2020
1303 Rain 16 1009 87 10000 2.6 220 14:39 18.06.2020
1304 Rain 16 1009 87 10000 2.6 220 14:20 18.06.2020
1305 Rain 16 1009 87 10000 3.1 210 13:48 18.06.2020
1306 Rain 15 1009 87 10000 4.1 230 13:29 18.06.2020
1307 Rain 16 1009 82 10000 3.6 240 12:58 18.06.2020
1308 Rain 16 1009 82 10000 3.6 240 12:40 18.06.2020
1309 Clouds 16 1009 91 0 0.45 334 12:20 18.06.2020
1310 Clouds 16 1009 89 0 1.34 327 11:59 18.06.2020
1311 Rain 16 1009 82 10000 4.1 230 11:40 18.06.2020
1312 Rain 16 1009 82 10000 4.1 230 11:20 18.06.2020
1313 Rain 16 1009 82 10000 4.1 230 11:20 18.06.2020
1314 Rain 16 1009 82 10000 3.6 240 10:41 18.06.2020
1315 Rain 15 1009 82 10000 3.6 240 10:19 18.06.2020
1316 Rain 15 1009 87 10000 2.6 240 09:56 18.06.2020
1317 Rain 15 1009 93 10000 2.1 250 09:38 18.06.2020
1318 Rain 15 1009 93 10000 2.1 250 09:19 18.06.2020
1319 Rain 14 1010 93 10000 2.1 290 08:40 18.06.2020
1320 Rain 14 1010 93 10000 2.1 290 08:21 18.06.2020
1321 Rain 14 1010 93 9000 1 0 07:46 18.06.2020
1322 Rain 14 1010 93 8000 1 0 07:27 18.06.2020
1323 Rain 14 1010 93 4000 1.5 0 06:55 18.06.2020
1324 Rain 14 1010 93 9000 1.5 0 06:20 18.06.2020
1325 Rain 15 1011 87 10000 1.5 0 04:25 18.06.2020
1326 Rain 15 1012 93 7000 2.1 30 02:51 18.06.2020
1327 Rain 16 1012 88 9000 2.1 50 01:30 18.06.2020
1328 Rain 16 1013 69 0 1.49 144 00:58 18.06.2020
1329 Rain 16 1013 68 0 1.49 144 00:39 18.06.2020
1330 Rain 17 1012 68 10000 2.1 340 00:20 18.06.2020
1331 Rain 18 1012 68 10000 1 0 23:44 17.06.2020
1332 Rain 18 1012 68 10000 1 0 23:21 17.06.2020
1333 Rain 18 1012 72 10000 1.5 0 22:57 17.06.2020
1334 Rain 18 1012 72 10000 1.5 0 22:57 17.06.2020
1335 Rain 18 1012 68 10000 2.1 250 22:39 17.06.2020
1336 Rain 18 1012 68 10000 2.1 250 22:20 17.06.2020
1337 Thunderstorm 19 1012 63 10000 3.6 210 21:55 17.06.2020
1338 Rain 19 1012 60 10000 2.6 250 21:37 17.06.2020
1339 Rain 20 1012 60 10000 2.6 250 21:18 17.06.2020
1340 Rain 21 1011 60 10000 1.5 0 20:38 17.06.2020
1341 Rain 20 1011 60 10000 1.5 0 20:20 17.06.2020
1342 Rain 20 1011 60 10000 1 0 19:57 17.06.2020
1343 Rain 21 1011 60 10000 2.1 80 19:38 17.06.2020
1344 Rain 21 1011 60 10000 2.1 80 19:19 17.06.2020
1345 Rain 21 1012 56 10000 3.6 100 18:45 17.06.2020
1346 Rain 21 1012 56 10000 3.6 100 18:27 17.06.2020
1347 Rain 21 1012 56 10000 2.1 90 17:46 17.06.2020
1348 Clouds 21 1012 56 10000 2.1 90 17:23 17.06.2020
1349 Clouds 21 1012 60 10000 0.5 0 16:58 17.06.2020
1350 -273 0 0 0 0 0 16:39 17.06.2020
1351 Clouds 22 1012 60 10000 1 0 16:21 17.06.2020
1352 Rain 21 1012 77 10000 2.1 100 15:58 17.06.2020
1353 Rain 19 1012 77 10000 3.1 170 15:39 17.06.2020
1354 Rain 19 1012 77 10000 3.1 170 15:20 17.06.2020
1355 Rain 19 1012 68 10000 4.1 190 14:58 17.06.2020
1356 Clouds 21 1012 49 10000 3.1 120 14:39 17.06.2020
1357 Rain 21 1012 49 10000 3.1 120 14:19 17.06.2020
1358 Thunderstorm 23 1012 53 10000 3.6 90 13:56 17.06.2020
1359 Rain 23 1012 56 10000 3.6 100 13:38 17.06.2020
1360 Rain 21 1012 56 10000 3.6 100 13:19 17.06.2020
1361 Clouds 22 1013 56 10000 2.1 100 12:43 17.06.2020
1362 Clouds 21 1013 56 10000 2.1 100 12:23 17.06.2020
1363 Rain 21 1013 63 10000 2.1 60 11:57 17.06.2020
1364 Clouds 20 1013 63 10000 1.5 0 11:38 17.06.2020
1365 Clouds 20 1013 63 10000 1 0 11:20 17.06.2020
1366 Clouds 19 1013 68 10000 1.2 124 10:39 17.06.2020
1367 Clouds 18 1013 68 10000 1.23 97 10:19 17.06.2020
1368 Clouds 18 1013 68 10000 1.23 97 10:19 17.06.2020
1369 Clouds 18 1013 68 10000 1.23 97 10:19 17.06.2020
1370 Clouds 18 1013 68 10000 1.23 97 09:58 17.06.2020
1371 Clouds 18 1013 68 10000 1.23 97 09:58 17.06.2020
1372 Clouds 17 1013 72 10000 0.5 320 09:40 17.06.2020
1373 Clouds 17 1013 72 10000 0.5 320 09:21 17.06.2020
1374 Clouds 16 1013 72 10000 0.5 0 08:55 17.06.2020
1375 Clouds 15 1012 77 10000 1 0 08:36 17.06.2020
1376 Clouds 15 1012 77 10000 1 0 08:18 17.06.2020
1377 Clouds 15 1012 72 10000 2.1 230 07:42 17.06.2020
1378 Clouds 14 1012 72 10000 2.1 230 07:21 17.06.2020
1379 Clouds 15 1012 72 10000 2.1 240 06:55 17.06.2020
1380 Clouds 16 1012 72 10000 2.1 210 06:37 17.06.2020
1381 Clouds 16 1012 72 10000 2.1 210 06:19 17.06.2020
1382 Clouds 15 1012 72 10000 1 0 04:58 17.06.2020
1383 Clouds 16 1013 72 10000 2.6 200 02:59 17.06.2020
1384 Clouds 17 1013 68 10000 2.1 210 01:43 17.06.2020
1385 Clouds 17 1013 63 10000 1.5 220 00:41 17.06.2020
1386 Rain 18 1013 63 10000 1.5 220 00:23 17.06.2020
1387 Rain 18 1013 68 10000 3.1 110 23:56 16.06.2020
1388 Rain 18 1013 68 10000 3.1 110 23:56 16.06.2020
1389 Rain 19 1013 56 10000 2.1 220 23:37 16.06.2020
1390 Rain 19 1013 60 10000 3.6 200 23:19 16.06.2020
1391 Rain 19 1013 56 10000 2.1 220 23:19 16.06.2020
1392 Rain 19 1013 60 10000 3.6 200 22:55 16.06.2020
1393 Clouds 20 1012 56 10000 4.1 100 22:37 16.06.2020
1394 Rain 21 1012 60 10000 4.1 90 22:18 16.06.2020
1395 Rain 20 1012 60 10000 4.1 90 21:47 16.06.2020
1396 Clouds 21 1012 64 10000 4.6 90 21:24 16.06.2020
1397 Clouds 21 1012 64 10000 5.1 80 20:58 16.06.2020
1398 Clouds 22 1012 40 10000 2.1 0 20:39 16.06.2020
1399 Rain 23 1012 38 10000 2.6 190 20:19 16.06.2020
1400 Rain 23 1012 38 10000 2.6 190 19:57 16.06.2020
1401 Rain 23 1012 46 10000 2.6 190 19:39 16.06.2020
1402 Rain 23 1012 46 10000 2.6 190 19:21 16.06.2020
1403 Rain 23 1013 49 10000 3.6 0 18:55 16.06.2020
1404 Thunderstorm 22 1013 49 10000 4.6 210 18:36 16.06.2020
1405 Rain 23 1012 46 10000 4.6 190 18:18 16.06.2020
1406 Rain 22 1012 46 10000 4.6 190 17:54 16.06.2020
1407 Rain 22 1013 41 10000 2.1 0 17:36 16.06.2020
1408 Rain 23 1013 41 10000 2.1 0 17:18 16.06.2020
1409 Rain 23 1013 41 10000 2.1 290 16:42 16.06.2020
1410 Rain 24 1013 41 10000 2.1 290 16:20 16.06.2020
1411 Rain 23 1013 43 10000 2.6 0 15:58 16.06.2020
1412 Rain 22 1014 49 10000 2.1 230 15:40 16.06.2020
1413 Rain 22 1014 49 10000 2.1 230 15:21 16.06.2020
1414 Rain 21 1014 52 10000 4.1 220 14:57 16.06.2020
1415 Rain 21 1014 52 10000 4.1 220 14:57 16.06.2020
1416 Clouds 21 1014 56 10000 5.1 200 14:38 16.06.2020
1417 Clouds 21 1014 56 10000 5.1 200 14:20 16.06.2020
1418 Rain 20 1014 53 10000 2.6 230 13:48 16.06.2020
1419 Rain 21 1014 53 10000 1.5 0 13:26 16.06.2020
1420 Rain 21 1014 60 10000 3.6 150 12:57 16.06.2020
1421 Clouds 20 1015 60 10000 3.1 210 12:38 16.06.2020
1422 Clouds 20 1015 60 10000 3.1 210 12:19 16.06.2020
1423 Clouds 20 1015 52 10000 2.6 190 11:54 16.06.2020
1424 Clouds 20 1015 60 10000 1 0 11:36 16.06.2020
1425 Clouds 20 1015 60 10000 1 0 11:18 16.06.2020
1426 Clear 19 1015 68 10000 1.5 0 10:42 16.06.2020
1427 Clear 19 1015 68 10000 1.5 0 10:20 16.06.2020
1428 Clear 18 1015 72 10000 1.5 0 09:57 16.06.2020
1429 Clear 17 1015 72 10000 1.5 0 09:38 16.06.2020
1430 Clear 17 1015 72 10000 1.5 0 09:20 16.06.2020
1431 Clouds 16 1015 82 10000 1.5 0 08:41 16.06.2020
1432 Clouds 16 1015 82 10000 1.5 0 08:22 16.06.2020
1433 Clouds 15 1015 87 10000 2.6 210 07:46 16.06.2020
1434 Clouds 14 1015 82 10000 2.1 210 07:26 16.06.2020
1435 Clouds 14 1015 82 10000 1.5 240 06:48 16.06.2020
1436 Clouds 14 1015 82 10000 1.5 230 06:26 16.06.2020
1437 Clouds 14 1015 82 10000 1.5 230 06:26 16.06.2020
1438 Clouds 14 1015 77 10000 1.5 0 05:32 16.06.2020
1439 Clouds 14 1015 77 10000 1.5 0 04:28 16.06.2020
1440 Clouds 16 1015 82 10000 2.1 230 02:58 16.06.2020
1441 Clouds 16 1016 77 10000 1.5 230 01:58 16.06.2020
1442 Clouds 16 1016 72 10000 2.6 210 01:23 16.06.2020
1443 Clouds 16 1016 68 10000 2.1 220 00:43 16.06.2020
1444 Clouds 17 1016 68 10000 2.1 220 00:19 16.06.2020
1445 Clouds 17 1016 63 10000 1.5 230 23:42 15.06.2020
1446 Clouds 17 1016 63 10000 1.5 230 23:22 15.06.2020
1447 Clouds 18 1015 63 10000 1.5 0 22:55 15.06.2020
1448 Clouds 18 1015 56 10000 2.1 240 22:37 15.06.2020
1449 Rain 19 1015 60 10000 2.1 230 22:18 15.06.2020
1450 Rain 19 1015 60 10000 2.1 230 21:55 15.06.2020
1451 Clouds 21 1015 56 10000 2.1 220 21:37 15.06.2020
1452 Clouds 21 1015 56 10000 2.1 220 21:19 15.06.2020
1453 Clouds 21 1015 56 10000 3.1 210 20:55 15.06.2020
1454 Clouds 21 1015 56 10000 3.1 220 20:37 15.06.2020
1455 Rain 21 1015 56 10000 3.1 220 20:18 15.06.2020
1456 Rain 22 1015 49 10000 2.6 210 19:54 15.06.2020
1457 Rain 21 1015 53 10000 2.6 190 19:36 15.06.2020
1458 Rain 21 1015 46 10000 3.6 200 19:18 15.06.2020
1459 Rain 21 1015 46 10000 3.1 170 18:43 15.06.2020
1460 Rain 22 1015 46 10000 3.1 170 18:22 15.06.2020
1461 Rain 22 1015 46 10000 3.1 160 17:59 15.06.2020
1462 Rain 22 1015 46 10000 3.1 170 17:41 15.06.2020
1463 Rain 22 1015 46 10000 3.1 170 17:20 15.06.2020
1464 Rain 22 1015 43 10000 2.6 150 16:57 15.06.2020
1465 Rain 22 1015 43 10000 3.1 160 16:39 15.06.2020
1466 Rain 23 1016 40 10000 2.1 160 16:18 15.06.2020
1467 Rain 23 1016 40 10000 2.1 160 15:55 15.06.2020
1468 Rain 23 1016 40 10000 2.6 170 15:36 15.06.2020
1469 Rain 23 1016 40 10000 2.6 170 15:18 15.06.2020
1470 Rain 23 1016 40 10000 1.5 0 14:41 15.06.2020
1471 Clouds 23 1016 40 10000 1.5 0 14:20 15.06.2020
1472 Clouds 23 1016 40 10000 1.5 0 14:20 15.06.2020
1473 Clouds 23 1016 43 10000 2.1 300 13:58 15.06.2020
1474 Clouds 23 1016 43 10000 2.1 300 13:58 15.06.2020
1475 Clouds 23 1016 40 10000 2.1 0 13:38 15.06.2020
1476 Clouds 23 1016 40 10000 2.1 0 13:20 15.06.2020
1477 Clouds 23 1016 43 10000 2.1 310 12:55 15.06.2020
1478 Clouds 23 1016 46 10000 1.5 0 12:36 15.06.2020
1479 Clear 21 1016 46 10000 1.5 0 12:18 15.06.2020
1480 Clear 21 1016 52 10000 2.6 290 11:41 15.06.2020
1481 Clear 21 1016 52 10000 2.6 290 11:23 15.06.2020
1482 Clear 20 1017 55 10000 1.5 0 10:44 15.06.2020
1483 Clear 19 1017 55 10000 1.5 0 10:22 15.06.2020
1484 Clear 18 1017 63 10000 2.1 230 09:47 15.06.2020
1485 Clear 17 1017 67 10000 1.5 0 09:25 15.06.2020
1486 Clear 17 1016 67 10000 1.5 0 08:57 15.06.2020
1487 Clear 16 1016 77 10000 1 0 08:39 15.06.2020
1488 Clear 16 1016 77 10000 1 0 08:39 15.06.2020
1489 Clear 15 1016 77 10000 1 0 08:20 15.06.2020
1490 Clear 14 1016 82 10000 2.1 240 07:45 15.06.2020
1491 Clear 13 1016 82 10000 2.1 240 07:22 15.06.2020
1492 Clear 13 1016 82 10000 1.5 230 06:42 15.06.2020
1493 Clear 14 1016 82 10000 2.1 230 06:20 15.06.2020
1494 Clear 14 1016 82 10000 2.6 230 05:43 15.06.2020
1495 Clear 14 1016 82 10000 2.1 230 05:24 15.06.2020
1496 Clear 14 1016 77 10000 3.1 250 04:19 15.06.2020
1497 Clear 14 1016 77 10000 2.1 240 03:41 15.06.2020
1498 Clear 15 1016 72 10000 3.1 230 02:34 15.06.2020
1499 Clouds 16 1016 72 10000 3.1 240 01:53 15.06.2020
1500 Clouds 16 1016 68 10000 3.1 230 01:32 15.06.2020
1501 Clouds 16 1016 68 10000 3.6 240 00:58 15.06.2020
1502 Clouds 17 1016 59 10000 2.6 210 00:39 15.06.2020
1503 Clouds 17 1016 59 10000 2.6 210 00:20 15.06.2020
1504 Clouds 17 1016 59 10000 3.1 210 23:46 14.06.2020
1505 Clouds 18 1015 55 10000 3.1 230 23:24 14.06.2020
1506 Clouds 19 1015 52 10000 3.6 200 22:58 14.06.2020
1507 Clouds 19 1015 52 10000 3.1 200 22:39 14.06.2020
1508 Clouds 19 1015 52 10000 3.1 200 22:20 14.06.2020
1509 Clouds 19 1015 52 10000 3.1 200 22:20 14.06.2020
1510 Clouds 20 1015 49 10000 3.1 200 21:57 14.06.2020
1511 Clouds 20 1015 49 10000 3.1 200 21:57 14.06.2020
1512 Clouds 20 1015 49 10000 3.1 210 21:38 14.06.2020
1513 Clouds 21 1014 46 10000 4.1 200 21:19 14.06.2020
1514 Clouds 21 1014 46 10000 4.1 200 20:58 14.06.2020
1515 Clouds 21 1014 46 10000 3.6 170 20:38 14.06.2020
1516 Clouds 21 1014 46 10000 3.6 170 20:20 14.06.2020
1517 Clouds 22 1014 46 10000 3.6 180 19:59 14.06.2020
1518 Clouds 22 1014 46 10000 4.1 170 19:38 14.06.2020
1519 Clouds 22 1014 46 10000 4.1 170 19:19 14.06.2020
1520 Clouds 22 1014 43 10000 3.6 180 18:57 14.06.2020
1521 Clouds 22 1014 46 10000 3.6 160 18:39 14.06.2020
1522 Clouds 22 1014 46 10000 3.6 160 18:20 14.06.2020
1523 Clouds 22 1014 46 10000 4.1 180 17:58 14.06.2020
1524 Clouds 23 1014 46 10000 4.1 190 17:39 14.06.2020
1525 Clouds 22 1014 46 10000 4.1 190 17:20 14.06.2020
1526 Clouds 22 1014 43 10000 4.6 200 16:41 14.06.2020
1527 Clouds 22 1014 43 10000 4.6 200 16:22 14.06.2020
1528 -273 0 0 0 0 0 16:00 14.06.2020
1529 Clouds 22 1015 43 10000 4.6 200 15:41 14.06.2020
1530 Clouds 22 1015 43 10000 4.6 200 15:19 14.06.2020
1531 Clouds 22 1015 49 10000 4.6 180 14:59 14.06.2020
1532 Clouds 22 1015 49 10000 5.1 210 14:40 14.06.2020
1533 Clouds 22 1015 49 10000 5.1 210 14:22 14.06.2020
1534 Clouds 21 1015 52 10000 3.6 220 13:58 14.06.2020
1535 Clouds 21 1014 52 10000 3.6 200 13:39 14.06.2020
1536 Clouds 21 1014 52 10000 3.6 200 13:21 14.06.2020
1537 Clouds 21 1014 52 10000 3.1 200 13:21 14.06.2020
1538 Clouds 21 1014 52 10000 3.1 200 12:56 14.06.2020
1539 Clouds 20 1014 56 10000 4.1 170 12:38 14.06.2020
1540 Clouds 20 1014 56 10000 4.1 170 12:18 14.06.2020
1541 Clouds 20 1014 56 10000 3.6 200 11:56 14.06.2020
1542 Clouds 19 1014 63 10000 3.6 200 11:38 14.06.2020
1543 Clouds 20 1014 63 10000 3.6 200 11:18 14.06.2020
1544 Clear 19 1014 63 10000 3.1 150 10:42 14.06.2020
1545 Clear 19 1014 63 10000 3.1 150 10:19 14.06.2020
1546 Clear 18 1013 68 10000 2.6 210 09:48 14.06.2020
1547 Clouds 18 1013 68 10000 2.6 210 09:25 14.06.2020
1548 Clouds 17 1013 77 10000 2.6 230 08:58 14.06.2020
1549 Clouds 16 1013 82 10000 2.6 210 08:40 14.06.2020
1550 Clear 16 1013 82 10000 2.6 210 08:18 14.06.2020
1551 Haze 15 1013 87 5000 1.5 0 07:50 14.06.2020
1552 Rain 14 1013 93 2400 2.6 100 07:32 14.06.2020
1553 Haze 13 1012 93 2800 2.1 100 06:35 14.06.2020
1554 Haze 14 1012 93 3000 2.1 70 05:44 14.06.2020
1555 Haze 14 1012 93 4300 2.1 80 04:58 14.06.2020
1556 Haze 14 1012 87 4600 2.6 100 04:31 14.06.2020
1557 Clear 15 1012 87 7000 1.5 0 03:23 14.06.2020
1558 Clear 15 1012 87 8000 4.1 100 02:30 14.06.2020
1559 Clear 16 1012 82 10000 5.1 100 01:45 14.06.2020
1560 Clear 16 1012 82 10000 5.1 100 01:23 14.06.2020
1561 Clear 17 1012 77 10000 4.1 90 00:39 14.06.2020
1562 Clear 17 1012 77 10000 4.1 90 00:19 14.06.2020
1563 Clear 17 1012 68 10000 4.6 90 23:43 13.06.2020
1564 Clear 18 1012 68 10000 4.6 90 23:24 13.06.2020
1565 Clear 18 1011 68 10000 4.6 100 22:57 13.06.2020
1566 Clear 19 1011 68 10000 5.7 100 22:37 13.06.2020
1567 Clear 19 1011 64 10000 6.2 90 22:18 13.06.2020
1568 Clear 19 1011 64 10000 6.2 90 21:56 13.06.2020
1569 Clear 19 1010 64 10000 6.2 90 21:37 13.06.2020
1570 Clear 20 1010 64 10000 6.2 90 21:19 13.06.2020
1571 Thunderstorm 20 1010 60 10000 8.2 90 20:43 13.06.2020
1572 Rain 21 1010 60 10000 8.2 90 20:19 13.06.2020
1573 Thunderstorm 22 1010 52 10000 11.3 100 19:57 13.06.2020
1574 Clouds 22 1009 46 10000 8.2 100 19:36 13.06.2020
1575 Clouds 23 1009 46 10000 7.2 100 19:18 13.06.2020
1576 Clouds 23 1009 46 10000 7.2 100 18:55 13.06.2020
1577 Clouds 23 1009 43 10000 7.7 110 18:37 13.06.2020
1578 Clear 23 1009 43 10000 7.7 110 18:18 13.06.2020
1579 Clear 23 1009 41 10000 8.2 90 17:42 13.06.2020
1580 Clear 23 1009 41 10000 8.2 90 17:23 13.06.2020
1581 Clear 23 1009 38 10000 7.2 130 16:58 13.06.2020
1582 Clear 23 1009 38 10000 5.7 140 16:40 13.06.2020
1583 Clear 23 1009 36 10000 6.7 120 16:19 13.06.2020
1584 Clear 23 1009 36 10000 6.7 120 15:58 13.06.2020
1585 Clear 23 1009 38 10000 6.7 140 15:39 13.06.2020
1586 Clear 23 1009 38 10000 6.7 140 15:20 13.06.2020
1587 Clear 23 1009 38 10000 6.7 140 15:20 13.06.2020
1588 Clear 22 1009 40 10000 5.7 130 14:43 13.06.2020
1589 Clouds 23 1009 40 10000 5.7 130 14:22 13.06.2020
1590 Clouds 22 1009 40 10000 5.7 140 13:56 13.06.2020
1591 Clouds 22 1009 43 10000 6.2 140 13:37 13.06.2020
1592 Clouds 22 1009 43 10000 6.2 140 13:18 13.06.2020
1593 Clouds 22 1009 46 10000 5.1 140 12:42 13.06.2020
1594 Clouds 21 1009 46 10000 5.1 140 12:24 13.06.2020
1595 Clouds 21 1009 49 10000 4.6 150 11:55 13.06.2020
1596 Clouds 20 1008 52 10000 4.6 130 11:37 13.06.2020
1597 Clouds 20 1008 59 10000 4.1 150 11:18 13.06.2020
1598 Clouds 19 1008 59 10000 4.1 140 10:42 13.06.2020
1599 Clouds 18 1008 59 10000 4.1 140 10:23 13.06.2020
1600 Clouds 18 1008 63 10000 3.6 150 09:55 13.06.2020
1601 Clouds 17 1008 72 10000 3.1 130 09:36 13.06.2020
1602 Clouds 16 1008 72 10000 3.1 130 09:18 13.06.2020
1603 Clouds 15 1007 82 10000 2.1 60 08:44 13.06.2020
1604 Clouds 15 1007 82 10000 2.1 60 08:26 13.06.2020
1605 Clouds 14 1006 93 10000 2.1 90 07:44 13.06.2020
1606 Clouds 13 1006 93 10000 2.1 90 07:25 13.06.2020
1607 Clouds 13 1006 100 6000 3.6 100 06:44 13.06.2020
1608 Clouds 13 1006 100 6000 3.6 100 06:25 13.06.2020
1609 Clouds 13 1006 93 6000 4.1 90 05:30 13.06.2020
1610 Clouds 13 1006 93 6000 4.1 90 05:30 13.06.2020
1611 Clouds 14 1006 87 9000 2.1 50 04:41 13.06.2020
1612 Clear 14 1006 87 8000 3.1 90 03:43 13.06.2020
1613 Clear 14 1005 93 10000 2.6 60 02:52 13.06.2020
1614 Clouds 14 1006 87 10000 3.1 90 02:18 13.06.2020
1615 Clouds 14 1006 87 10000 3.6 80 01:25 13.06.2020
1616 Clouds 15 1005 82 10000 3.1 100 00:56 13.06.2020
1617 Clouds 15 1005 87 10000 4.1 100 00:37 13.06.2020
1618 Clouds 15 1005 87 10000 4.1 100 00:19 13.06.2020
1619 Clouds 16 1005 88 10000 3.6 80 23:39 12.06.2020
1620 Clouds 16 1004 88 10000 3.6 90 23:18 12.06.2020
1621 Clouds 16 1004 88 10000 3.6 90 22:55 12.06.2020
1622 Clouds 16 1004 82 10000 4.6 100 22:36 12.06.2020
1623 Clouds 16 1004 82 10000 5.7 100 22:18 12.06.2020
1624 Clouds 17 1004 82 8000 4.6 90 21:42 12.06.2020
1625 Clouds 17 1004 82 8000 4.6 90 21:23 12.06.2020
1626 Rain 17 1004 77 10000 6.7 90 21:23 12.06.2020
1627 Rain 17 1004 77 10000 6.7 90 20:57 12.06.2020
1628 Clouds 17 1004 72 10000 7.7 100 20:38 12.06.2020
1629 Clouds 17 1004 72 10000 7.7 100 20:19 12.06.2020
1630 Clouds 18 1003 68 10000 7.2 90 19:44 12.06.2020
1631 Clouds 18 1003 68 10000 7.2 90 19:22 12.06.2020
1632 Clouds 17 1003 72 10000 7.2 90 18:59 12.06.2020
1633 Clouds 17 1004 77 10000 8.2 90 18:37 12.06.2020
1634 Clouds 17 1004 77 8000 8.7 90 18:18 12.06.2020
1635 Rain 17 1004 77 7000 8.2 90 17:44 12.06.2020
1636 Rain 17 1004 77 7000 8.2 90 17:26 12.06.2020
1637 Rain 17 1004 77 10000 7.7 90 16:47 12.06.2020
1638 Rain 18 1004 77 10000 7.7 80 16:24 12.06.2020
1639 Rain 18 1004 77 8000 7.7 90 15:59 12.06.2020
1640 Rain 18 1004 68 10000 7.7 100 15:41 12.06.2020
1641 Clouds 19 1004 68 10000 9.3 100 15:19 12.06.2020
1642 Clouds 19 1004 64 10000 9.3 90 14:42 12.06.2020
1643 Clouds 19 1004 64 10000 8.7 80 14:22 12.06.2020
1644 Clouds 19 1004 64 10000 8.7 80 13:58 12.06.2020
1645 Clouds 19 1005 68 10000 8.7 90 13:40 12.06.2020
1646 Clouds 20 1005 68 10000 8.7 90 13:19 12.06.2020
1647 Clouds 19 1005 72 10000 6.2 70 12:40 12.06.2020
1648 Clouds 19 1005 72 10000 6.2 70 12:19 12.06.2020
1649 Clouds 19 1005 68 10000 5.7 70 11:56 12.06.2020
1650 Clouds 19 1006 72 10000 5.7 60 11:36 12.06.2020
1651 Clouds 19 1005 72 10000 7.2 70 11:18 12.06.2020
1652 Clouds 18 1006 72 10000 6.2 60 10:42 12.06.2020
1653 Clouds 18 1006 72 10000 6.2 60 10:23 12.06.2020
1654 Clouds 17 1006 82 6000 4.1 50 09:44 12.06.2020
1655 Clouds 16 1006 82 6000 4.1 50 09:21 12.06.2020
1656 Clouds 16 1007 87 6000 3.1 60 08:43 12.06.2020
1657 Clouds 15 1007 87 6000 3.1 60 08:24 12.06.2020
1658 Haze 14 1007 87 4900 1 0 07:44 12.06.2020
1659 Haze 14 1007 87 4900 1 0 07:25 12.06.2020
1660 Haze 14 1007 87 5000 1 0 06:55 12.06.2020
1661 Haze 14 1007 87 5000 2.6 60 06:26 12.06.2020
1662 Haze 14 1007 87 5000 3.6 60 05:50 12.06.2020
1663 Clouds 14 1008 87 7000 3.6 70 05:29 12.06.2020
1664 Clouds 14 1008 82 10000 4.1 60 04:50 12.06.2020
1665 Rain 14 1009 93 10000 4.1 60 02:55 12.06.2020
1666 Clouds 14 1009 87 10000 5.1 60 01:53 12.06.2020
1667 Clouds 14 1010 87 10000 4.1 60 01:26 12.06.2020
1668 Clouds 14 1010 87 10000 4.6 60 00:42 12.06.2020
1669 Clouds 14 1010 87 10000 4.6 60 00:24 12.06.2020
1670 Clouds 14 1010 82 10000 3.6 50 23:59 11.06.2020
1671 Clouds 14 1010 77 10000 3.6 60 23:40 11.06.2020
1672 Clouds 14 1010 77 10000 4.1 50 23:21 11.06.2020
1673 Clouds 14 1010 77 10000 4.1 50 22:59 11.06.2020
1674 Clouds 14 1010 77 10000 3.1 50 22:39 11.06.2020
1675 Clouds 14 1010 77 10000 3.6 50 22:20 11.06.2020
1676 Clouds 14 1010 77 10000 3.6 50 21:56 11.06.2020
1677 Clouds 15 1010 77 10000 4.6 0 21:38 11.06.2020
1678 Clouds 15 1010 77 10000 4.6 0 21:20 11.06.2020
1679 Clouds 15 1011 72 10000 4.6 0 20:45 11.06.2020
1680 Clouds 16 1011 72 10000 7.2 60 20:21 11.06.2020
1681 Clouds 16 1011 72 10000 7.2 60 20:21 11.06.2020
1682 Clouds 16 1011 72 10000 7.2 60 19:55 11.06.2020
1683 Clouds 17 1011 67 10000 6.7 60 19:37 11.06.2020
1684 Clouds 17 1011 67 10000 6.7 60 19:18 11.06.2020
1685 Clouds 18 1011 63 10000 6.2 50 18:42 11.06.2020
1686 Clouds 18 1011 63 10000 7.7 60 18:24 11.06.2020
1687 Clouds 18 1011 55 10000 7.2 60 17:57 11.06.2020
1688 Clouds 18 1011 55 10000 7.2 60 17:57 11.06.2020
1689 Clouds 18 1011 55 10000 7.2 60 17:38 11.06.2020
1690 Clouds 19 1011 59 10000 7.7 70 17:19 11.06.2020
1691 Clouds 20 1011 60 10000 8.2 80 16:57 11.06.2020
1692 Clouds 20 1011 60 10000 8.2 80 16:38 11.06.2020
1693 Clouds 19 1011 56 10000 8.7 90 16:20 11.06.2020
1694 Clouds 19 1011 63 10000 8.2 90 15:43 11.06.2020
1695 Clouds 18 1012 63 10000 9.3 90 15:25 11.06.2020
1696 Clouds 18 1012 72 10000 7.2 80 14:58 11.06.2020
1697 Clouds 17 1012 72 10000 7.2 80 14:39 11.06.2020
1698 Clouds 16 1012 77 10000 6.7 60 14:20 11.06.2020
1699 Clouds 16 1012 82 8000 5.7 60 13:55 11.06.2020
1700 Clouds 16 1012 82 8000 5.7 60 13:37 11.06.2020
1701 Rain 15 1012 82 8000 6.2 60 13:18 11.06.2020
1702 Rain 15 1012 87 7000 5.1 60 12:54 11.06.2020
1703 Rain 15 1012 87 5000 5.1 60 12:36 11.06.2020
1704 Rain 15 1012 87 5000 5.1 60 12:18 11.06.2020
1705 Rain 15 1012 87 0 4.1 60 11:56 11.06.2020
1706 Rain 15 1012 87 0 4.1 60 11:37 11.06.2020
1707 Clouds 15 1012 87 6000 5.7 60 11:18 11.06.2020
1708 Clouds 15 1012 82 7000 6.2 70 10:43 11.06.2020
1709 Clouds 14 1012 87 7000 5.1 60 10:20 11.06.2020
1710 Haze 14 1012 87 5000 4.6 60 09:59 11.06.2020
1711 Clouds 14 1012 82 7000 4.6 60 09:40 11.06.2020
1712 Clouds 14 1012 82 7000 4.6 60 09:21 11.06.2020
1713 Clouds 13 1012 87 9000 3.6 60 08:42 11.06.2020
1714 Clouds 12 1012 82 9000 4.1 60 08:19 11.06.2020
1715 Clouds 12 1012 87 10000 3.6 70 07:42 11.06.2020
1716 Rain 12 1012 87 10000 3.6 60 07:24 11.06.2020
1717 Clouds 12 1012 82 10000 4.1 60 06:38 11.06.2020
1718 Clouds 12 1012 82 10000 4.1 60 06:20 11.06.2020
1719 Clouds 12 1012 87 10000 3.6 80 04:52 11.06.2020
1720 Clouds 11 1012 93 10000 2.1 80 03:26 11.06.2020
1721 Rain 11 1013 87 10000 4.1 100 02:50 11.06.2020
1722 Clouds 11 1013 87 10000 3.1 110 02:31 11.06.2020
1723 Clouds 11 1013 87 10000 3.1 120 01:43 11.06.2020
1724 Clouds 11 1013 87 10000 3.1 110 01:22 11.06.2020
1725 Clouds 11 1013 87 10000 3.1 120 00:45 11.06.2020
1726 Clouds 11 1013 87 10000 4.1 120 00:26 11.06.2020
1727 Clouds 11 1013 87 10000 4.1 120 23:43 10.06.2020
1728 Rain 12 1013 82 10000 4.1 110 23:24 10.06.2020
1729 Rain 12 1013 82 10000 4.1 120 22:56 10.06.2020
1730 Rain 12 1013 82 10000 4.1 120 22:37 10.06.2020
1731 Rain 12 1013 82 10000 4.1 120 22:19 10.06.2020
1732 Clouds 12 1013 82 10000 4.1 130 21:55 10.06.2020
1733 Clouds 12 1013 82 10000 4.1 130 21:37 10.06.2020
1734 Clouds 12 1013 82 10000 3.6 130 21:18 10.06.2020
1735 Clouds 12 1013 82 10000 3.6 130 21:18 10.06.2020
1736 Clouds 12 1013 82 10000 4.1 140 20:56 10.06.2020
1737 Clouds 12 1013 82 10000 4.1 140 20:38 10.06.2020
1738 Clouds 13 1013 76 10000 4.1 140 20:19 10.06.2020
1739 Clouds 13 1013 82 10000 3.6 140 19:40 10.06.2020
1740 Rain 13 1014 82 10000 3.6 130 19:20 10.06.2020
1741 Rain 13 1014 87 10000 3.1 100 18:58 10.06.2020
1742 Rain 13 1014 87 10000 3.1 100 18:40 10.06.2020
1743 Rain 13 1014 87 10000 2.6 110 18:19 10.06.2020
1744 Rain 13 1014 87 10000 2.6 110 17:55 10.06.2020
1745 Rain 13 1014 87 10000 2.6 110 17:37 10.06.2020
1746 Rain 13 1014 87 10000 2.6 110 17:37 10.06.2020
1747 Rain 13 1015 82 10000 3.1 100 17:19 10.06.2020
1748 Rain 13 1015 82 10000 1.5 0 16:57 10.06.2020
1749 Rain 13 1015 82 10000 1.5 0 16:39 10.06.2020
1750 Rain 13 1015 82 10000 2.1 220 16:19 10.06.2020
1751 Rain 13 1015 76 10000 3.1 210 15:40 10.06.2020
1752 Rain 13 1015 67 10000 4.1 210 15:22 10.06.2020
1753 Rain 14 1015 67 10000 2.1 240 14:58 10.06.2020
1754 Rain 14 1015 67 10000 2.1 240 14:39 10.06.2020
1755 Rain 15 1015 59 10000 3.1 280 14:20 10.06.2020
1756 Clouds 15 1015 62 10000 1.5 0 13:41 10.06.2020
1757 Rain 15 1015 62 10000 2.1 250 13:21 10.06.2020
1758 Rain 15 1015 72 10000 2.1 230 12:45 10.06.2020
1759 Rain 15 1015 77 10000 2.1 230 12:23 10.06.2020
1760 Rain 14 1015 77 10000 2.6 200 11:59 10.06.2020
1761 Rain 14 1015 77 10000 2.6 200 11:40 10.06.2020
1762 Clouds 14 1016 72 10000 2.1 240 11:19 10.06.2020
1763 Clouds 14 1016 72 10000 3.1 230 10:57 10.06.2020
1764 Clouds 14 1016 77 10000 2.6 240 10:39 10.06.2020
1765 Clouds 14 1016 77 10000 2.6 240 10:21 10.06.2020
1766 Clouds 14 1016 76 10000 2.6 230 09:42 10.06.2020
1767 Clouds 14 1016 76 10000 2.6 220 09:23 10.06.2020
1768 Clouds 13 1016 76 10000 2.6 230 08:57 10.06.2020
1769 Rain 13 1016 76 10000 3.1 210 08:38 10.06.2020
1770 Rain 13 1016 76 10000 3.1 210 08:20 10.06.2020
1771 Clouds 13 1017 85 0 2.31 244 07:39 10.06.2020
1772 Clouds 13 1017 84 0 2.29 214 07:21 10.06.2020
1773 Clouds 13 1017 76 10000 2.6 220 06:46 10.06.2020
1774 Clouds 13 1017 71 10000 3.1 220 06:24 10.06.2020
1775 Clouds 13 1017 76 10000 3.6 210 05:58 10.06.2020
1776 Rain 13 1017 76 10000 3.1 210 05:26 10.06.2020
1777 Rain 13 1017 82 10000 3.6 220 04:36 10.06.2020
1778 Clouds 13 1018 71 10000 2.1 210 02:57 10.06.2020
1779 Clouds 13 1018 76 10000 2.6 160 02:23 10.06.2020
1780 Clouds 13 1019 67 10000 3.1 160 01:38 10.06.2020
1781 Clouds 14 1019 67 10000 3.1 180 00:40 10.06.2020
1782 Clouds 14 1019 62 10000 3.6 180 00:22 10.06.2020
1783 Clouds 14 1019 59 10000 3.6 190 23:57 09.06.2020
1784 Clouds 15 1019 59 10000 3.6 190 23:39 09.06.2020
1785 Clouds 15 1018 63 10000 3.6 160 23:20 09.06.2020
1786 Clouds 15 1018 59 10000 4.1 140 22:56 09.06.2020
1787 Clouds 15 1018 59 10000 4.1 140 22:38 09.06.2020
1788 Clouds 16 1018 55 10000 4.6 140 22:19 09.06.2020
1789 Clouds 16 1018 55 10000 4.6 120 21:56 09.06.2020
1790 Clouds 16 1018 55 10000 4.6 120 21:38 09.06.2020
1791 Clouds 16 1018 55 10000 4.6 120 21:38 09.06.2020
1792 Clouds 16 1018 48 10000 4.6 110 21:20 09.06.2020
1793 Clouds 17 1018 45 10000 4.1 100 20:56 09.06.2020
1794 Clouds 17 1018 45 10000 3.6 90 20:38 09.06.2020
1795 Clouds 18 1018 45 10000 3.6 90 20:18 09.06.2020
1796 Clouds 18 1018 45 10000 3.6 70 19:57 09.06.2020
1797 Clouds 18 1019 42 10000 3.1 90 19:38 09.06.2020
1798 Clouds 18 1019 42 10000 3.1 90 19:20 09.06.2020
1799 Clouds 18 1019 42 10000 3.1 90 19:20 09.06.2020
1800 Clouds 19 1019 39 10000 2.1 90 18:46 09.06.2020
1801 Clouds 19 1019 39 10000 1.5 0 18:28 09.06.2020
1802 Clouds 19 1019 37 10000 2.1 150 17:59 09.06.2020
1803 Clouds 19 1019 37 10000 2.1 150 17:41 09.06.2020
1804 Clouds 19 1019 39 10000 2.1 90 17:22 09.06.2020
1805 Clouds 18 1019 42 10000 2.1 130 17:00 09.06.2020
1806 Clouds 18 1020 45 10000 3.1 90 16:40 09.06.2020
1807 Clouds 18 1020 45 10000 3.1 90 16:21 09.06.2020
1808 Clouds 18 1020 42 10000 2.1 90 15:55 09.06.2020
1809 Clouds 18 1020 42 10000 1.5 0 15:36 09.06.2020
1810 Clouds 18 1020 42 10000 1.5 0 15:18 09.06.2020
1811 Clouds 18 1020 42 10000 3.1 110 14:40 09.06.2020
1812 Clouds 17 1020 42 10000 3.6 90 14:20 09.06.2020
1813 Clouds 17 1021 42 10000 2.6 120 13:57 09.06.2020
1814 Clouds 17 1021 42 10000 2.6 120 13:38 09.06.2020
1815 Clouds 18 1021 42 10000 2.6 120 13:20 09.06.2020
1816 Clouds 16 1021 44 10000 2.6 120 12:43 09.06.2020
1817 Clouds 16 1021 44 10000 3.1 110 12:21 09.06.2020
1818 Clouds 15 1021 47 10000 2.1 110 11:59 09.06.2020
1819 Clouds 15 1021 47 10000 2.1 110 11:41 09.06.2020
1820 Clouds 15 1021 47 10000 2.1 0 11:20 09.06.2020
1821 Clouds 15 1021 54 10000 2.1 110 10:58 09.06.2020
1822 Clouds 14 1021 54 10000 2.1 110 10:40 09.06.2020
1823 Clouds 14 1021 58 10000 2.1 80 10:22 09.06.2020
1824 Clouds 13 1021 62 10000 3.1 90 09:44 09.06.2020
1825 Clouds 12 1021 62 10000 2.6 60 09:24 09.06.2020
1826 Clear 11 1021 66 10000 2.6 80 08:56 09.06.2020
1827 Clear 11 1021 71 10000 1 0 08:38 09.06.2020
1828 Clouds 11 1021 71 10000 1 0 08:19 09.06.2020
1829 Clouds 10 1021 76 10000 1.5 10 07:38 09.06.2020
1830 Clouds 10 1021 76 10000 1.5 10 07:19 09.06.2020
1831 Clouds 10 1021 81 10000 1.5 360 06:54 09.06.2020
1832 Clouds 10 1020 76 10000 2.1 20 06:34 09.06.2020
1833 Clouds 10 1020 76 10000 1.5 10 05:34 09.06.2020
1834 Clouds 10 1021 66 10000 1.5 0 03:34 09.06.2020
1835 Clouds 12 1021 62 10000 2.1 50 01:43 09.06.2020
1836 Clouds 11 1021 62 10000 3.1 60 01:19 09.06.2020
1837 Clouds 11 1021 62 10000 3.1 60 01:19 09.06.2020
1838 Clouds 12 1021 58 10000 2.6 60 00:50 09.06.2020
1839 Clouds 12 1021 58 10000 2.6 50 00:26 09.06.2020
1840 Clouds 12 1021 58 10000 3.1 60 23:59 08.06.2020
1841 Clouds 12 1021 58 10000 3.1 60 23:39 08.06.2020
1842 Clouds 13 1021 58 10000 3.1 60 23:19 08.06.2020
1843 Clouds 13 1020 58 10000 3.1 60 22:54 08.06.2020
1844 Clouds 13 1020 54 10000 2.6 60 22:36 08.06.2020
1845 Clouds 13 1020 54 10000 2.6 60 22:18 08.06.2020
1846 Clouds 14 1020 54 10000 3.6 60 21:54 08.06.2020
1847 Clouds 14 1020 54 10000 3.6 60 21:36 08.06.2020
1848 Clouds 14 1020 54 10000 3.1 60 21:18 08.06.2020
1849 Clouds 15 1019 54 10000 3.1 0 20:54 08.06.2020
1850 Clouds 15 1019 54 10000 2.6 20 20:36 08.06.2020
1851 Clouds 15 1019 54 10000 2.6 20 20:18 08.06.2020
1852 Clouds 16 1019 51 10000 3.1 10 19:41 08.06.2020
1853 Clouds 15 1019 51 10000 3.1 10 19:20 08.06.2020
1854 Clouds 15 1019 54 10000 4.1 340 18:41 08.06.2020
1855 Clouds 16 1019 54 10000 4.1 340 18:20 08.06.2020
1856 Clouds 16 1019 54 10000 4.1 330 17:57 08.06.2020
1857 Clouds 16 1019 54 10000 4.1 330 17:39 08.06.2020
1858 Clouds 16 1019 54 10000 4.1 340 17:20 08.06.2020
1859 Clouds 16 1019 54 10000 4.1 340 16:56 08.06.2020
1860 Clouds 15 1019 54 10000 4.1 340 16:38 08.06.2020
1861 Clouds 15 1019 58 10000 3.1 340 16:20 08.06.2020
1862 Clouds 15 1019 58 10000 3.1 340 16:20 08.06.2020
1863 Clouds 15 1019 58 10000 3.6 0 15:42 08.06.2020
1864 Clouds 15 1019 58 10000 3.1 340 15:21 08.06.2020
1865 Clouds 15 1019 62 10000 3.6 10 14:57 08.06.2020
1866 Clouds 15 1019 62 10000 3.6 10 14:38 08.06.2020
1867 Clouds 15 1019 62 10000 3.1 0 14:18 08.06.2020
1868 Clouds 15 1019 66 10000 2.6 40 13:42 08.06.2020
1869 Clouds 14 1019 66 10000 2.6 40 13:23 08.06.2020
1870 Clouds 14 1019 62 10000 2.6 50 12:42 08.06.2020
1871 Clouds 13 1019 62 10000 2.6 50 12:20 08.06.2020
1872 Clouds 13 1019 62 10000 2.6 50 12:20 08.06.2020
1873 Clouds 13 1019 66 10000 3.1 30 11:59 08.06.2020
1874 Clouds 13 1019 66 10000 3.1 30 11:40 08.06.2020
1875 Clouds 13 1019 66 10000 2.6 0 11:21 08.06.2020
1876 Clouds 13 1019 66 10000 3.1 50 10:57 08.06.2020
1877 Clouds 12 1019 66 10000 3.1 50 10:37 08.06.2020
1878 Clouds 12 1019 66 10000 4.6 10 10:19 08.06.2020
1879 Clouds 11 1018 71 10000 4.6 360 09:48 08.06.2020
1880 Clouds 11 1018 76 10000 4.1 350 09:23 08.06.2020
1881 Clouds 11 1018 76 10000 4.1 360 08:57 08.06.2020
1882 Clouds 11 1018 76 10000 4.1 360 08:39 08.06.2020
1883 Clouds 10 1018 81 10000 4.6 350 08:19 08.06.2020
1884 Rain 10 1017 81 10000 4.1 340 07:40 08.06.2020
1885 Rain 10 1017 81 10000 4.1 360 07:21 08.06.2020
1886 Rain 10 1017 81 10000 4.1 360 07:21 08.06.2020
1887 Rain 10 1016 81 10000 4.1 350 06:43 08.06.2020
1888 Rain 10 1016 81 10000 2.6 350 06:25 08.06.2020
1889 Rain 10 1016 81 10000 4.6 350 05:42 08.06.2020
1890 Clouds 11 1016 76 10000 3.1 340 03:43 08.06.2020
1891 Clouds 11 1016 76 10000 2.6 350 02:32 08.06.2020
1892 Clouds 11 1016 76 10000 3.6 340 01:45 08.06.2020
1893 Clouds 12 1016 76 10000 2.6 10 01:26 08.06.2020
1894 Clouds 12 1015 76 10000 3.1 10 00:30 08.06.2020
1895 Rain 12 1015 71 10000 2.6 10 23:41 07.06.2020
1896 Clouds 12 1015 76 10000 3.1 360 23:20 07.06.2020
1897 Clouds 12 1014 76 10000 2.6 350 22:59 07.06.2020
1898 Clouds 13 1014 76 10000 2.6 350 22:39 07.06.2020
1899 Clouds 13 1014 71 10000 3.1 350 22:19 07.06.2020
1900 Clouds 13 1014 71 10000 3.6 360 21:59 07.06.2020
1901 Clouds 13 1014 71 10000 3.6 360 21:38 07.06.2020
1902 Clouds 13 1014 71 10000 3.6 360 21:38 07.06.2020
1903 Clouds 14 1013 71 10000 2.6 360 21:20 07.06.2020
1904 Clouds 14 1013 71 10000 2.6 360 21:20 07.06.2020
1905 Clouds 14 1013 71 10000 2.6 350 20:56 07.06.2020
1906 Clouds 14 1013 71 10000 2.6 350 20:38 07.06.2020
1907 Rain 13 1013 71 10000 3.1 360 20:18 07.06.2020
1908 Rain 14 1012 71 10000 3.6 10 19:55 07.06.2020
1909 Rain 14 1012 71 10000 3.6 10 19:37 07.06.2020
1910 Rain 14 1012 82 10000 2.6 10 19:19 07.06.2020
1911 Rain 14 1012 76 10000 4.1 360 18:54 07.06.2020
1912 Rain 14 1012 76 10000 4.1 360 18:36 07.06.2020
1913 Rain 14 1011 82 10000 3.1 350 18:18 07.06.2020
1914 Rain 15 1011 67 10000 4.1 340 17:41 07.06.2020
1915 Rain 15 1010 67 10000 2.6 320 17:23 07.06.2020
1916 Rain 16 1010 63 10000 4.1 340 16:59 07.06.2020
1917 Rain 16 1010 63 10000 4.1 340 16:41 07.06.2020
1918 Rain 16 1010 67 10000 4.1 350 16:20 07.06.2020
1919 Rain 17 1010 63 10000 2.6 340 15:36 07.06.2020
1920 Rain 18 1009 42 10000 5.1 270 15:18 07.06.2020
1921 Rain 19 1009 48 10000 4.6 300 14:39 07.06.2020
1922 Clouds 18 1009 48 10000 4.1 300 14:21 07.06.2020
1923 Clouds 18 1009 45 10000 5.7 290 13:47 07.06.2020
1924 Clouds 18 1009 45 10000 5.7 290 13:47 07.06.2020
1925 Clouds 18 1008 51 10000 5.7 290 13:21 07.06.2020
1926 Clouds 17 1008 51 10000 5.7 270 12:55 07.06.2020
1927 Clouds 17 1008 59 10000 5.1 290 12:36 07.06.2020
1928 Clouds 16 1008 59 10000 5.1 290 12:18 07.06.2020
1929 Clouds 16 1008 63 10000 4.1 280 11:55 07.06.2020
1930 Clouds 16 1008 63 10000 4.1 280 11:36 07.06.2020
1931 Clouds 15 1008 67 10000 3.6 270 11:18 07.06.2020
1932 Clouds 14 1008 71 10000 4.1 280 10:42 07.06.2020
1933 Clouds 13 1007 76 10000 3.1 250 10:20 07.06.2020
1934 Clouds 12 1007 81 10000 4.1 250 09:57 07.06.2020
1935 Clouds 12 1007 81 10000 4.1 250 09:38 07.06.2020
1936 Clouds 11 1007 81 10000 3.6 250 09:20 07.06.2020
1937 Clouds 10 1006 87 10000 3.1 250 08:48 07.06.2020
1938 Clouds 10 1006 87 10000 1.5 0 08:24 07.06.2020
1939 Clouds 9 1006 87 10000 2.1 250 07:57 07.06.2020
1940 Clouds 9 1005 87 10000 2.1 230 07:32 07.06.2020
1941 Clouds 9 1005 81 10000 4.1 290 06:51 07.06.2020
1942 Clear 9 1005 87 10000 2.6 260 05:52 07.06.2020
1943 Clear 8 1004 87 10000 3.1 260 04:21 07.06.2020
1944 Clear 9 1003 81 10000 4.1 280 02:57 07.06.2020
1945 Clouds 10 1003 87 10000 3.1 260 02:18 07.06.2020
1946 Rain 10 1002 87 10000 3.1 250 01:25 07.06.2020
1947 Rain 10 1002 87 10000 3.1 230 00:47 07.06.2020
1948 Clouds 11 1002 87 10000 3.1 230 00:20 07.06.2020
1949 Clouds 11 1002 87 10000 3.1 240 23:58 06.06.2020
1950 Clouds 11 1002 87 10000 3.1 240 23:38 06.06.2020
1951 Clouds 11 1002 87 10000 3.1 240 23:38 06.06.2020
1952 Clouds 11 1002 87 10000 2.6 240 23:19 06.06.2020
1953 Clouds 11 1001 87 10000 4.1 230 22:56 06.06.2020
1954 Clouds 11 1001 87 10000 4.1 230 22:38 06.06.2020
1955 Clouds 10 1001 87 10000 2.1 260 22:19 06.06.2020
1956 Rain 11 1000 81 10000 3.6 240 21:47 06.06.2020
1957 Rain 12 1000 81 10000 4.1 240 21:23 06.06.2020
1958 Rain 11 1000 81 10000 4.6 250 20:58 06.06.2020
1959 Rain 11 1000 81 10000 4.6 250 20:40 06.06.2020
1960 Rain 11 999 87 10000 4.6 240 20:19 06.06.2020
1961 Thunderstorm 11 999 81 9000 4.6 250 19:57 06.06.2020
1962 Thunderstorm 12 999 81 9000 4.6 250 19:38 06.06.2020
1963 Rain 12 999 71 10000 4.6 310 19:20 06.06.2020
1964 Rain 13 998 71 10000 8.2 240 18:55 06.06.2020
1965 Rain 13 998 76 10000 7.2 250 18:36 06.06.2020
1966 Rain 13 998 76 10000 7.2 250 18:18 06.06.2020
1967 Clouds 12 998 71 10000 7.7 240 17:43 06.06.2020
1968 Rain 12 998 71 10000 7.7 230 17:20 06.06.2020
1969 Clouds 12 998 66 10000 7.2 240 16:56 06.06.2020
1970 Clouds 12 998 66 10000 7.2 240 16:38 06.06.2020
1971 Clouds 12 998 66 10000 9.3 250 16:19 06.06.2020
1972 Clouds 12 998 76 10000 8.7 250 15:44 06.06.2020
1973 Clouds 12 998 76 10000 8.2 250 15:20 06.06.2020
1974 Clouds 12 998 76 10000 8.2 250 15:20 06.06.2020
1975 Rain 12 998 76 10000 7.7 250 14:57 06.06.2020
1976 Rain 11 998 76 10000 7.7 250 14:37 06.06.2020
1977 Rain 11 998 71 10000 8.2 260 14:19 06.06.2020
1978 Rain 12 998 58 10000 9.3 250 13:47 06.06.2020
1979 Rain 12 998 54 10000 10.8 260 13:19 06.06.2020
1980 Clouds 12 998 50 10000 9.8 260 12:57 06.06.2020
1981 Clouds 13 998 50 10000 9.8 260 12:38 06.06.2020
1982 Clouds 13 998 47 10000 8.7 250 12:18 06.06.2020
1983 Clouds 12 998 47 10000 8.2 260 11:54 06.06.2020
1984 Clouds 12 998 50 10000 9.8 250 11:36 06.06.2020
1985 Clouds 12 998 50 10000 9.8 250 11:18 06.06.2020
1986 Clouds 12 998 47 10000 9.8 260 10:55 06.06.2020
1987 Clouds 12 998 47 10000 9.8 260 10:36 06.06.2020
1988 Clouds 12 998 50 10000 8.2 250 10:18 06.06.2020
1989 Clouds 11 998 53 10000 8.7 260 09:43 06.06.2020
1990 Clear 11 998 53 10000 8.7 250 09:24 06.06.2020
1991 Clear 10 998 57 10000 7.7 260 08:48 06.06.2020
1992 Clear 9 998 61 10000 7.7 250 08:25 06.06.2020
1993 Clear 9 998 61 10000 7.7 250 07:57 06.06.2020
1994 Clear 9 998 61 10000 7.7 250 07:39 06.06.2020
1995 Clear 8 998 66 10000 6.2 260 07:20 06.06.2020
1996 Clear 8 998 66 10000 6.2 260 06:45 06.06.2020
1997 Clear 8 998 66 10000 5.7 260 06:26 06.06.2020
1998 Clear 8 998 66 10000 6.2 260 05:44 06.06.2020
1999 Clear 8 998 61 10000 7.2 260 05:24 06.06.2020
2000 Clear 9 998 61 10000 6.2 270 04:24 06.06.2020
2001 Clear 10 998 54 10000 6.7 280 02:36 06.06.2020
2002 Clouds 11 998 50 10000 6.7 280 01:41 06.06.2020
2003 Clouds 12 998 47 10000 6.7 270 01:18 06.06.2020
2004 Clouds 12 998 58 0 0.45 262 00:41 06.06.2020
2005 Clouds 13 998 44 10000 6.2 280 00:22 06.06.2020
2006 Clouds 13 998 44 10000 5.7 290 23:40 05.06.2020
2007 Clouds 13 998 44 10000 5.7 290 23:21 05.06.2020
2008 Clouds 13 997 44 10000 6.2 290 22:58 05.06.2020
2009 Clouds 13 997 44 10000 6.2 290 22:40 05.06.2020
2010 Clear 13 997 41 10000 7.2 280 22:22 05.06.2020
2011 Clear 14 997 38 10000 7.2 270 21:57 05.06.2020
2012 Clear 14 997 38 10000 7.2 270 21:39 05.06.2020
2013 Clouds 14 997 38 10000 7.7 270 21:19 05.06.2020
2014 Clouds 14 997 38 10000 6.7 270 20:55 05.06.2020
2015 Clouds 15 997 38 10000 6.7 270 20:37 05.06.2020
2016 Clouds 14 997 44 10000 6.2 270 20:18 05.06.2020
2017 Clouds 14 996 47 10000 4.6 240 19:40 05.06.2020
2018 Clouds 14 997 44 10000 4.6 230 19:21 05.06.2020
2019 Rain 14 997 44 10000 4.6 270 18:54 05.06.2020
2020 Clouds 15 997 50 10000 4.1 270 18:36 05.06.2020
2021 Clouds 14 997 50 10000 4.1 270 18:18 05.06.2020
2022 Clouds 15 997 54 10000 4.6 320 17:55 05.06.2020
2023 Clouds 15 997 54 10000 4.6 320 17:37 05.06.2020
2024 Rain 16 996 36 10000 7.7 280 17:18 05.06.2020
2025 Rain 15 997 44 10000 7.2 300 16:37 05.06.2020
2026 Rain 14 996 41 10000 10.3 280 16:19 05.06.2020
2027 Rain 15 996 41 10000 7.7 300 15:41 05.06.2020
2028 Clouds 15 996 58 10000 5.1 290 15:21 05.06.2020
2029 Rain 15 996 62 10000 4.6 320 14:58 05.06.2020
2030 Rain 13 996 62 10000 4.6 320 14:40 05.06.2020
2031 Clouds 13 996 66 10000 4.6 330 14:22 05.06.2020
2032 Rain 13 996 71 10000 6.7 340 13:57 05.06.2020
2033 Rain 13 996 71 10000 6.7 340 13:38 05.06.2020
2034 Rain 14 995 47 10000 8.7 280 13:19 05.06.2020
2035 Clouds 14 995 51 10000 9.3 280 12:41 05.06.2020
2036 Clouds 13 995 54 10000 8.2 290 12:19 05.06.2020
2037 Clouds 13 995 58 10000 8.7 300 11:55 05.06.2020
2038 Clouds 13 995 58 10000 8.7 300 11:37 05.06.2020
2039 Clouds 13 995 58 10000 7.2 290 11:18 05.06.2020
2040 Clouds 13 995 58 10000 8.2 280 10:42 05.06.2020
2041 Clouds 13 995 58 10000 8.2 290 10:21 05.06.2020
2042 Rain 12 995 62 10000 7.2 290 09:57 05.06.2020
2043 Rain 12 995 62 10000 7.2 290 09:39 05.06.2020
2044 Clouds 12 995 62 10000 7.7 290 09:21 05.06.2020
2045 Clouds 12 995 66 10000 7.2 280 08:58 05.06.2020
2046 Clouds 12 995 66 10000 7.2 280 08:40 05.06.2020
2047 Clouds 12 995 66 10000 6.2 280 08:19 05.06.2020
2048 Clouds 11 995 71 10000 5.7 280 07:53 05.06.2020
2049 Clouds 11 995 81 10000 5.1 280 07:33 05.06.2020
2050 Rain 11 995 81 10000 4.6 280 06:50 05.06.2020
2051 Clouds 11 996 88 0 0.89 263 05:23 05.06.2020
2052 Clouds 11 997 87 0 0.89 261 04:31 05.06.2020
2053 Clouds 11 998 86 0 0.45 258 03:38 05.06.2020
2054 Clouds 12 999 71 10000 4.1 240 02:37 05.06.2020
2055 Clouds 12 999 71 10000 4.1 240 02:18 05.06.2020
2056 Clouds 12 1000 71 10000 4.1 250 01:34 05.06.2020
2057 Clouds 12 1000 71 10000 4.1 250 00:56 05.06.2020
2058 Clouds 12 1000 66 10000 4.1 260 00:37 05.06.2020
2059 Clouds 12 1000 66 10000 4.1 260 00:18 05.06.2020
2060 Clouds 12 1000 62 10000 5.7 260 23:42 04.06.2020
2061 Clouds 13 1000 58 10000 5.1 270 23:24 04.06.2020
2062 Clouds 13 1000 58 10000 5.7 270 22:44 04.06.2020
2063 Clouds 13 1001 58 10000 5.1 290 22:22 04.06.2020
2064 Clouds 14 1001 58 10000 4.1 280 21:59 04.06.2020
2065 Clouds 14 1001 58 10000 4.1 280 21:40 04.06.2020
2066 Clouds 13 1001 58 10000 4.1 280 21:21 04.06.2020
2067 Rain 14 1001 62 10000 4.6 300 20:57 04.06.2020
2068 Rain 14 1001 62 10000 4.6 300 20:39 04.06.2020
2069 Clouds 14 1001 58 10000 4.1 280 20:20 04.06.2020
2070 Clouds 13 1001 58 10000 6.2 250 19:57 04.06.2020
2071 Clouds 14 1001 51 10000 4.1 310 19:38 04.06.2020
2072 Clouds 14 1001 51 10000 4.1 310 19:19 04.06.2020
2073 Clouds 14 1001 51 10000 5.7 300 18:40 04.06.2020
2074 Clouds 14 1001 51 10000 5.7 300 18:21 04.06.2020
2075 Clouds 15 1001 44 10000 5.1 300 17:59 04.06.2020
2076 Clouds 15 1001 44 10000 5.1 300 17:41 04.06.2020
2077 Clouds 15 1001 44 10000 5.1 300 17:41 04.06.2020
2078 Clouds 15 1002 47 10000 5.1 300 17:20 04.06.2020
2079 Clouds 15 1002 47 10000 6.2 300 16:41 04.06.2020
2080 Clouds 15 1002 44 10000 6.2 310 16:21 04.06.2020
2081 Clouds 15 1002 44 10000 5.1 300 15:58 04.06.2020
2082 Clouds 15 1002 44 10000 5.1 300 15:40 04.06.2020
2083 Clouds 16 1002 41 10000 5.1 310 15:22 04.06.2020
2084 Clouds 16 1002 41 10000 5.1 310 15:22 04.06.2020
2085 Clouds 16 1003 44 10000 5.7 310 14:39 04.06.2020
2086 Clouds 16 1003 44 10000 5.7 310 14:20 04.06.2020
2087 Clouds 16 1003 47 10000 5.7 310 13:56 04.06.2020
2088 Clouds 15 1003 47 10000 5.7 310 13:37 04.06.2020
2089 Clouds 15 1003 50 10000 5.1 350 13:19 04.06.2020
2090 Clouds 15 1003 50 10000 4.1 330 12:55 04.06.2020
2091 Clouds 15 1003 50 10000 4.1 330 12:36 04.06.2020
2092 Clouds 14 1003 54 10000 4.1 330 12:18 04.06.2020
2093 Clouds 14 1003 58 10000 3.6 330 11:41 04.06.2020
2094 Clouds 13 1004 66 10000 4.1 340 11:20 04.06.2020
2095 Clouds 13 1004 71 10000 3.1 350 10:59 04.06.2020
2096 Clouds 13 1004 71 10000 3.1 350 10:38 04.06.2020
2097 Clouds 12 1004 71 10000 4.6 340 10:20 04.06.2020
2098 Clouds 12 1004 76 10000 4.6 340 09:46 04.06.2020
2099 Clouds 11 1004 76 10000 3.1 0 09:28 04.06.2020
2100 Clouds 11 1004 81 10000 3.6 350 08:57 04.06.2020
2101 Clouds 11 1004 81 10000 3.6 350 08:38 04.06.2020
2102 Clouds 11 1004 76 10000 3.6 330 08:20 04.06.2020
2103 Clouds 11 1004 81 10000 4.1 330 07:31 04.06.2020
2104 Clouds 11 1004 81 10000 3.6 340 06:47 04.06.2020
2105 Clouds 11 1004 76 10000 3.1 340 06:27 04.06.2020
2106 Clouds 11 1005 81 10000 4.6 350 05:52 04.06.2020
2107 Clouds 11 1005 81 10000 4.1 350 05:32 04.06.2020
2108 Clouds 11 1006 81 10000 5.1 350 03:37 04.06.2020
2109 Rain 12 1006 82 10000 5.1 350 02:21 04.06.2020
2110 Clouds 12 1007 87 0 0.45 67 01:22 04.06.2020
2111 Rain 13 1007 76 10000 4.1 10 01:00 04.06.2020
2112 Clouds 13 1007 76 10000 4.1 10 00:19 04.06.2020
2113 Rain 14 1007 67 10000 3.6 10 23:38 03.06.2020
2114 Clouds 14 1007 67 10000 3.1 0 23:19 03.06.2020
2115 Clouds 14 1007 62 10000 4.6 20 22:56 03.06.2020
2116 Clouds 14 1007 62 10000 4.6 20 22:38 03.06.2020
2117 Clouds 14 1007 67 10000 3.6 0 22:18 03.06.2020
2118 Clouds 15 1007 63 10000 3.6 20 21:55 03.06.2020
2119 Clouds 15 1007 63 10000 3.6 20 21:37 03.06.2020
2120 Clouds 15 1007 63 10000 5.7 20 21:18 03.06.2020
2121 Clouds 16 1007 63 10000 4.1 20 20:42 03.06.2020
2122 Rain 16 1006 63 10000 5.1 10 20:21 03.06.2020
2123 Rain 16 1006 63 10000 5.1 10 20:21 03.06.2020
2124 Rain 17 1006 55 10000 4.1 10 19:57 03.06.2020
2125 Rain 17 1006 59 10000 3.1 0 19:39 03.06.2020
2126 Rain 17 1006 59 10000 3.1 0 19:21 03.06.2020
2127 Rain 17 1006 55 10000 3.1 30 18:59 03.06.2020
2128 Rain 17 1006 55 10000 3.1 30 18:40 03.06.2020
2129 Rain 17 1007 59 10000 3.1 340 18:19 03.06.2020
2130 Rain 17 1007 63 10000 2.1 310 17:45 03.06.2020
2131 Rain 17 1007 59 10000 2.6 360 17:23 03.06.2020
2132 Rain 18 1007 52 10000 2.6 50 16:59 03.06.2020
2133 Rain 18 1007 52 10000 2.6 50 16:41 03.06.2020
2134 Rain 19 1007 52 10000 3.1 40 16:19 03.06.2020
2135 Clouds 19 1007 48 10000 3.1 40 15:55 03.06.2020
2136 Clouds 19 1007 48 10000 3.1 40 15:37 03.06.2020
2137 Rain 19 1007 48 10000 3.6 30 15:18 03.06.2020
2138 Rain 19 1008 48 10000 3.1 20 14:44 03.06.2020
2139 Rain 19 1008 48 10000 3.6 30 14:24 03.06.2020
2140 Rain 19 1008 48 10000 3.1 50 13:54 03.06.2020
2141 Rain 19 1008 48 10000 3.1 50 13:36 03.06.2020
2142 Rain 18 1008 48 10000 3.1 30 13:18 03.06.2020
2143 Rain 18 1008 48 10000 4.1 60 12:42 03.06.2020
2144 Rain 19 1008 48 10000 3.1 10 12:19 03.06.2020
2145 Clouds 18 1008 48 10000 2.6 30 11:44 03.06.2020
2146 Rain 18 1008 59 10000 2.6 110 11:26 03.06.2020
2147 Rain 17 1008 63 10000 2.1 80 10:55 03.06.2020
2148 Rain 17 1008 68 10000 2.1 110 10:37 03.06.2020
2149 Rain 18 1008 68 10000 2.1 110 10:19 03.06.2020
2150 Rain 17 1009 72 10000 2.1 90 09:41 03.06.2020
2151 Rain 16 1009 77 10000 2.6 90 09:19 03.06.2020
2152 Rain 16 1009 77 9000 3.1 90 08:47 03.06.2020
2153 Clouds 16 1009 77 10000 2.6 60 08:22 03.06.2020
2154 Clouds 15 1009 87 10000 2.1 100 07:58 03.06.2020
2155 Clouds 15 1009 87 10000 2.1 70 07:37 03.06.2020
2156 Clouds 14 1010 87 8000 2.1 120 07:18 03.06.2020
2157 Clouds 15 1010 87 8000 2.1 120 06:45 03.06.2020
2158 Clouds 15 1010 87 8000 1.5 0 06:22 03.06.2020
2159 Clouds 16 1010 82 10000 2.1 60 05:45 03.06.2020
2160 Clouds 16 1011 82 10000 1.5 70 04:30 03.06.2020
2161 Clouds 15 1011 82 10000 2.1 70 03:42 03.06.2020
2162 Clouds 16 1012 77 10000 1.5 60 02:42 03.06.2020
2163 Clouds 17 1013 72 10000 3.1 100 01:47 03.06.2020
2164 Clouds 18 1013 48 10000 2.1 90 00:41 03.06.2020
2165 Clouds 18 1013 40 10000 1.5 0 00:22 03.06.2020
2166 Clouds 19 1014 40 10000 1 0 23:49 02.06.2020
2167 Clear 19 1014 37 10000 1 0 23:27 02.06.2020
2168 Clear 20 1014 35 10000 2.1 350 22:56 02.06.2020
2169 Clear 21 1014 35 10000 2.1 350 22:37 02.06.2020
2170 Clear 21 1014 35 10000 2.6 350 22:18 02.06.2020
2171 Clear 22 1014 33 10000 3.1 340 21:55 02.06.2020
2172 Clear 22 1014 33 10000 3.1 340 21:36 02.06.2020
2173 Clear 23 1014 35 10000 2.6 360 21:18 02.06.2020
2174 Clear 23 1015 33 10000 3.6 330 20:42 02.06.2020
2175 Clouds 24 1015 31 10000 2.6 360 20:24 02.06.2020
2176 Clouds 24 1015 33 10000 4.1 290 19:59 02.06.2020
2177 Clouds 25 1015 25 10000 3.6 280 19:40 02.06.2020
2178 Clouds 25 1015 25 10000 3.6 280 19:22 02.06.2020
2179 Clouds 25 1016 29 10000 3.1 310 18:56 02.06.2020
2180 Clouds 24 1016 29 10000 3.1 310 18:37 02.06.2020
2181 Clouds 24 1016 29 10000 3.6 300 18:19 02.06.2020
2182 Clouds 24 1016 29 10000 3.6 300 17:42 02.06.2020
2183 Clouds 24 1017 27 10000 3.1 0 17:23 02.06.2020
2184 Clouds 24 1017 27 10000 3.1 0 17:23 02.06.2020
2185 Clouds 24 1017 29 10000 3.6 300 16:57 02.06.2020
2186 Clouds 25 1017 29 10000 3.6 300 16:39 02.06.2020
2187 Clouds 24 1017 29 10000 4.1 310 16:20 02.06.2020
2188 Clouds 24 1018 33 10000 4.1 310 15:54 02.06.2020
2189 Clouds 24 1018 31 10000 2.1 0 15:36 02.06.2020
2190 Clouds 24 1018 31 10000 2.1 0 15:18 02.06.2020
2191 Clouds 23 1018 31 10000 2.6 0 14:42 02.06.2020
2192 Clouds 23 1019 35 10000 2.6 40 14:22 02.06.2020
2193 Clouds 23 1019 37 10000 2.6 0 13:40 02.06.2020
2194 Clouds 22 1019 37 10000 2.6 0 13:19 02.06.2020
2195 Clouds 22 1020 40 10000 3.6 340 12:59 02.06.2020
2196 Clouds 22 1020 40 10000 3.6 340 12:40 02.06.2020
2197 Clouds 20 1020 42 10000 2.6 0 12:21 02.06.2020
2198 Clouds 20 1020 48 10000 3.6 300 11:59 02.06.2020
2199 Clouds 20 1020 48 10000 3.6 300 11:39 02.06.2020
2200 Clouds 20 1020 52 10000 3.1 0 11:20 02.06.2020
2201 Clouds 19 1020 55 10000 3.6 340 10:48 02.06.2020
2202 Clouds 18 1021 59 10000 2.6 10 10:28 02.06.2020
2203 Clouds 17 1021 63 10000 2.1 360 09:59 02.06.2020
2204 Clouds 16 1021 63 10000 2.1 360 09:40 02.06.2020
2205 Clouds 15 1021 67 10000 2.1 10 09:20 02.06.2020
2206 Clouds 15 1021 76 10000 3.1 340 08:51 02.06.2020
2207 Clouds 15 1021 76 10000 2.1 310 08:23 02.06.2020
2208 Clouds 14 1021 76 10000 2.1 340 07:53 02.06.2020
2209 Clouds 13 1021 76 10000 2.1 340 07:28 02.06.2020
2210 Clouds 13 1021 76 10000 1.5 0 06:51 02.06.2020
2211 Clouds 13 1021 76 10000 1.5 0 06:30 02.06.2020
2212 Clear 13 1021 71 10000 1 0 05:27 02.06.2020
2213 Clear 14 1022 62 10000 1.5 0 03:29 02.06.2020
2214 Clear 15 1022 67 10000 2.6 60 02:30 02.06.2020
2215 Clear 16 1022 67 10000 4.1 90 01:34 02.06.2020
2216 Clear 17 1022 59 10000 4.1 90 00:26 02.06.2020
2217 Clear 17 1022 59 10000 3.6 90 23:59 01.06.2020
2218 Clear 17 1022 59 10000 3.6 90 23:38 01.06.2020
2219 Clear 17 1022 55 10000 4.1 110 23:19 01.06.2020
2220 Clear 18 1022 55 10000 3.6 100 22:56 01.06.2020
2221 Clear 19 1022 49 10000 4.6 110 22:37 01.06.2020
2222 Clouds 19 1022 49 10000 4.6 110 22:18 01.06.2020
2223 Clouds 20 1021 46 10000 4.6 110 21:41 01.06.2020
2224 Clear 21 1021 40 10000 5.1 90 21:20 01.06.2020
2225 Clear 22 1021 40 10000 6.2 90 20:58 01.06.2020
2226 Clear 22 1021 40 10000 6.2 90 20:40 01.06.2020
2227 Clouds 23 1021 38 10000 6.2 90 20:20 01.06.2020
2228 Clouds 23 1021 38 10000 6.2 90 20:20 01.06.2020
2229 Clouds 23 1021 38 10000 6.2 90 19:58 01.06.2020
2230 Clouds 23 1021 38 10000 6.2 90 19:39 01.06.2020
2231 Clouds 24 1021 33 10000 6.2 90 19:20 01.06.2020
2232 Clouds 24 1021 31 10000 6.2 100 18:57 01.06.2020
2233 Clouds 24 1021 31 10000 6.2 100 18:38 01.06.2020
2234 Clouds 24 1021 31 10000 6.2 80 18:19 01.06.2020
2235 Clouds 24 1022 33 10000 5.1 90 17:41 01.06.2020
2236 Clouds 24 1022 33 10000 4.6 110 17:21 01.06.2020
2237 Clouds 24 1022 33 10000 4.55 84 16:58 01.06.2020
2238 Clouds 24 1022 33 10000 4.55 84 16:39 01.06.2020
2239 Clouds 24 1022 36 10000 6.7 110 16:18 01.06.2020
2240 Clouds 24 1022 33 10000 6.7 90 15:45 01.06.2020
2241 Clouds 24 1022 36 10000 6.2 80 15:21 01.06.2020
2242 Clouds 24 1022 36 10000 6.2 90 14:59 01.06.2020
2243 Clouds 24 1022 36 10000 6.2 90 14:41 01.06.2020
2244 Clouds 24 1022 33 10000 6.2 90 14:23 01.06.2020
2245 Clouds 23 1023 40 10000 5.1 80 13:58 01.06.2020
2246 Clouds 23 1023 40 10000 5.1 80 13:39 01.06.2020
2247 Clouds 23 1023 40 10000 5.1 80 13:20 01.06.2020
2248 Clouds 22 1023 46 10000 4.6 80 12:57 01.06.2020
2249 Clouds 22 1023 49 10000 3.6 80 12:39 01.06.2020
2250 Clouds 21 1023 49 10000 3.6 80 12:20 01.06.2020
2251 Clouds 20 1023 55 10000 4.1 60 11:42 01.06.2020
2252 Clouds 19 1023 55 10000 4.1 60 11:23 01.06.2020
2253 Clouds 19 1023 63 10000 3.1 70 10:59 01.06.2020
2254 Clouds 18 1023 63 10000 2.1 20 10:39 01.06.2020
2255 Clouds 18 1023 63 10000 2.1 20 10:20 01.06.2020
2256 Clouds 17 1023 67 10000 3.1 70 09:57 01.06.2020
2257 Clouds 16 1023 72 10000 2.6 0 09:39 01.06.2020
2258 Clouds 16 1023 72 10000 2.6 0 09:20 01.06.2020
2259 Clouds 14 1023 76 10000 2.1 20 08:51 01.06.2020
2260 Clouds 14 1023 76 10000 2.1 50 08:28 01.06.2020
2261 Clouds 13 1023 76 10000 1.5 0 07:46 01.06.2020
2262 Clouds 12 1023 81 10000 1.5 0 07:28 01.06.2020
2263 Clouds 12 1023 76 10000 1.5 0 06:59 01.06.2020
2264 Clouds 11 1023 76 10000 1.5 0 06:33 01.06.2020
2265 Clouds 11 1023 76 10000 1.5 0 05:53 01.06.2020
2266 Clouds 12 1023 71 10000 1.5 0 04:46 01.06.2020
2267 Clouds 12 1023 71 10000 2.1 360 03:49 01.06.2020
2268 Clouds 13 1023 67 10000 2.1 50 03:27 01.06.2020
2269 Clear 13 1024 62 10000 3.6 50 02:32 01.06.2020
2270 Clear 14 1024 55 10000 3.6 60 01:35 01.06.2020
2271 Clear 15 1024 51 10000 3.1 60 00:58 01.06.2020
2272 Clear 15 1023 48 10000 3.1 50 00:40 01.06.2020
2273 Clear 15 1023 48 10000 3.1 50 00:21 01.06.2020
2274 Clear 16 1023 51 10000 4.1 60 23:58 31.05.2020
2275 Clear 16 1023 51 10000 5.1 70 23:39 31.05.2020
2276 Clear 16 1023 51 10000 5.1 70 23:21 31.05.2020
2277 Clear 17 1023 48 10000 4.6 70 22:57 31.05.2020
2278 Clear 17 1023 48 10000 6.2 80 22:38 31.05.2020
2279 Clear 17 1023 48 10000 6.2 80 22:20 31.05.2020
2280 Clear 18 1023 45 10000 7.2 70 21:42 31.05.2020
2281 Clear 18 1023 45 10000 7.2 70 21:24 31.05.2020
2282 Clear 19 1023 39 10000 8.7 90 20:59 31.05.2020
2283 Clear 19 1023 39 10000 8.7 90 20:58 31.05.2020
2284 Clear 19 1023 40 10000 8.7 90 20:40 31.05.2020
2285 Clear 19 1023 40 10000 8.7 90 20:21 31.05.2020
2286 Clear 20 1022 40 10000 8.7 90 19:56 31.05.2020
2287 Clear 20 1022 40 10000 8.7 90 19:56 31.05.2020
2288 Clear 20 1022 40 10000 8.7 80 19:37 31.05.2020
2289 Clear 21 1022 40 10000 8.7 80 19:19 31.05.2020
2290 Clear 21 1022 40 10000 8.7 80 19:19 31.05.2020
2291 Clear 21 1023 37 10000 9.3 80 18:44 31.05.2020
2292 Clear 21 1023 37 10000 9.3 80 18:25 31.05.2020
2293 Clear 22 1023 35 10000 8.7 90 17:57 31.05.2020
2294 Clear 22 1023 33 10000 9.3 90 17:39 31.05.2020
2295 Clear 22 1023 33 10000 9.3 90 17:19 31.05.2020
2296 Clear 22 1022 35 10000 8.7 80 16:41 31.05.2020
2297 Clear 22 1022 35 10000 8.7 80 16:21 31.05.2020
2298 Clear 22 1022 35 10000 8.7 80 16:21 31.05.2020
2299 Clear 23 1023 28 10000 8.7 110 15:41 31.05.2020
2300 Clear 23 1023 28 10000 8.7 110 15:23 31.05.2020
2301 Clear 23 1023 28 10000 9.3 110 14:58 31.05.2020
2302 Clear 23 1023 28 10000 9.3 90 14:40 31.05.2020
2303 Clear 23 1023 28 10000 9.3 90 14:19 31.05.2020
2304 Clear 23 1023 28 10000 8.2 90 13:55 31.05.2020
2305 Clear 23 1023 27 10000 8.2 110 13:36 31.05.2020
2306 Clear 23 1023 27 10000 8.2 110 13:18 31.05.2020
2307 Clear 22 1023 35 10000 7.2 90 12:42 31.05.2020
2308 Clear 22 1023 35 10000 7.2 90 12:23 31.05.2020
2309 Clear 22 1023 35 10000 7.2 90 12:23 31.05.2020
2310 Clear 22 1023 35 10000 7.2 90 11:55 31.05.2020
2311 Clear 22 1023 46 10000 5.7 80 11:36 31.05.2020
2312 Clear 21 1023 52 10000 5.1 80 11:18 31.05.2020
2313 Clear 20 1023 55 10000 4.1 80 10:43 31.05.2020
2314 Clear 20 1023 55 10000 4.1 80 10:25 31.05.2020
2315 Clear 20 1023 55 10000 4.1 80 10:25 31.05.2020
2316 Clear 18 1023 63 10000 3.6 90 09:58 31.05.2020
2317 Clear 17 1023 67 10000 3.6 90 09:40 31.05.2020
2318 Clear 16 1023 67 10000 3.6 90 09:20 31.05.2020
2319 Clear 15 1023 67 10000 3.1 70 08:42 31.05.2020
2320 Clear 15 1023 67 10000 3.1 70 08:24 31.05.2020
2321 Clear 13 1022 67 10000 1.5 50 07:50 31.05.2020
2322 Clear 13 1022 67 10000 1 0 07:22 31.05.2020
2323 Clear 13 1022 67 10000 2.6 60 06:57 31.05.2020
2324 Clear 13 1022 67 10000 3.1 50 06:35 31.05.2020
2325 Clear 13 1022 62 10000 2.6 60 05:51 31.05.2020
2326 Clear 13 1022 62 10000 2.6 50 05:32 31.05.2020
2327 Clear 14 1022 58 10000 2.1 60 04:18 31.05.2020
2328 Clear 14 1022 62 10000 2.6 60 03:44 31.05.2020
2329 Clear 14 1023 62 10000 2.6 60 02:49 31.05.2020
2330 Clear 15 1023 59 10000 4.1 80 01:46 31.05.2020
2331 Clear 15 1023 59 10000 4.6 80 00:46 31.05.2020
2332 Clear 16 1023 55 10000 5.1 80 00:28 31.05.2020
2333 Clear 17 1022 52 10000 5.1 80 23:42 30.05.2020
2334 Clear 17 1022 52 10000 5.1 80 23:24 30.05.2020
2335 Clear 17 1022 45 10000 5.1 90 22:57 30.05.2020
2336 Clear 18 1022 42 10000 8.7 90 22:39 30.05.2020
2337 Clear 18 1022 42 10000 8.7 90 22:21 30.05.2020
2338 Clear 19 1021 40 10000 6.7 90 21:43 30.05.2020
2339 Clear 19 1021 40 10000 6.7 90 21:22 30.05.2020
2340 Clear 20 1021 35 10000 7.7 90 20:58 30.05.2020
2341 Clear 20 1021 32 10000 7.7 90 20:40 30.05.2020
2342 Clear 21 1021 32 10000 7.7 90 20:21 30.05.2020
2343 Clear 21 1022 33 10000 7.7 90 19:58 30.05.2020
2344 Clear 22 1022 33 10000 7.2 80 19:40 30.05.2020
2345 Clear 22 1022 33 10000 7.2 80 19:20 30.05.2020
2346 Clear 23 1022 28 10000 7.7 90 18:43 30.05.2020
2347 Clear 23 1022 28 10000 7.7 90 18:20 30.05.2020
2348 Clear 23 1022 25 10000 7.7 100 17:43 30.05.2020
2349 Clear 23 1022 25 10000 7.7 100 17:25 30.05.2020
2350 Clear 23 1022 31 10000 7.7 90 16:59 30.05.2020
2351 Clear 23 1022 29 10000 7.7 110 16:41 30.05.2020
2352 Clear 23 1022 29 10000 7.7 110 16:21 30.05.2020
2353 Clear 23 1023 28 10000 7.7 90 15:45 30.05.2020
2354 Clear 23 1023 28 10000 7.7 90 15:26 30.05.2020
2355 Clear 23 1023 31 10000 7.2 80 14:46 30.05.2020
2356 Clear 23 1023 31 10000 7.2 70 14:27 30.05.2020
2357 Clear 23 1023 35 10000 5.7 100 13:46 30.05.2020
2358 Clear 23 1023 35 10000 5.7 100 13:27 30.05.2020
2359 Clear 22 1023 40 10000 4.6 90 12:55 30.05.2020
2360 Clear 22 1024 49 10000 4.1 90 12:36 30.05.2020
2361 Clear 21 1024 49 10000 4.1 90 12:18 30.05.2020
2362 Clear 20 1024 59 10000 3.6 90 11:41 30.05.2020
2363 Clear 19 1024 59 10000 3.6 90 11:23 30.05.2020
2364 Clear 19 1024 63 10000 3.6 100 10:58 30.05.2020
2365 Clear 19 1024 63 10000 3.6 100 10:58 30.05.2020
2366 Clear 17 1024 72 10000 3.6 100 10:38 30.05.2020
2367 Clear 17 1024 72 10000 3.6 100 10:20 30.05.2020
2368 Clear 15 1024 71 10000 1 0 09:44 30.05.2020
2369 Clear 15 1024 71 10000 1 0 09:25 30.05.2020
2370 Clear 13 1024 81 10000 2.1 40 08:44 30.05.2020
2371 Clear 12 1024 81 10000 2.1 40 08:26 30.05.2020
2372 Clear 11 1024 81 10000 2.1 360 07:40 30.05.2020
2373 Clear 11 1024 81 10000 2.1 360 07:19 30.05.2020
2374 Clear 10 1024 87 10000 1.5 350 06:31 30.05.2020
2375 Clear 10 1024 81 10000 2.1 360 05:52 30.05.2020
2376 Clear 11 1024 81 10000 1.5 0 05:19 30.05.2020
2377 Clear 11 1025 76 10000 3.1 60 02:56 30.05.2020
2378 Clear 11 1025 71 10000 3.6 70 02:23 30.05.2020
2379 Clear 12 1026 71 10000 4.1 70 01:30 30.05.2020
2380 Clear 13 1026 67 10000 4.6 70 00:36 30.05.2020
2381 Clear 13 1026 62 10000 4.6 80 00:18 30.05.2020
2382 Clear 13 1026 54 10000 5.1 100 23:41 29.05.2020
2383 Clear 14 1026 54 10000 5.1 100 23:20 29.05.2020
2384 Clear 14 1025 44 10000 5.1 90 22:56 29.05.2020
2385 Clear 15 1025 38 10000 6.7 90 22:38 29.05.2020
2386 Clear 16 1025 36 10000 5.7 70 22:19 29.05.2020
2387 Clear 17 1025 34 10000 5.7 80 21:41 29.05.2020
2388 Clear 17 1025 34 10000 5.7 80 21:21 29.05.2020
2389 Clear 17 1025 34 10000 5.7 80 21:21 29.05.2020
2390 Clear 18 1025 34 10000 5.7 90 20:59 29.05.2020
2391 Clear 18 1025 37 10000 5.7 100 20:40 29.05.2020
2392 Clear 19 1025 37 10000 5.7 100 20:19 29.05.2020
2393 Clear 20 1025 37 10000 6.2 110 19:56 29.05.2020
2394 Clear 20 1026 37 10000 6.7 100 19:37 29.05.2020
2395 Clear 20 1026 37 10000 6.7 100 19:19 29.05.2020
2396 Clear 20 1026 40 10000 6.7 110 18:44 29.05.2020
2397 Clear 21 1026 40 10000 6.7 110 18:19 29.05.2020
2398 Clear 21 1026 37 10000 7.2 120 17:56 29.05.2020
2399 Clear 21 1026 37 10000 7.2 120 17:56 29.05.2020
2400 Clear 21 1026 37 10000 7.2 110 17:37 29.05.2020
2401 Clear 21 1026 37 10000 7.2 110 17:19 29.05.2020
2402 Clear 21 1026 37 10000 7.2 110 17:19 29.05.2020
2403 Clear 21 1027 33 10000 6.2 110 16:42 29.05.2020
2404 Clear 22 1027 33 10000 6.2 110 16:23 29.05.2020
2405 Clear 22 1027 33 10000 5.7 100 15:56 29.05.2020
2406 Clear 22 1027 30 10000 6.2 100 15:38 29.05.2020
2407 Clear 22 1027 30 10000 6.2 100 15:19 29.05.2020
2408 Clear 21 1028 37 10000 5.7 80 14:43 29.05.2020
2409 Clear 21 1028 37 10000 5.7 80 14:22 29.05.2020
2410 Clear 21 1028 40 10000 5.7 90 13:57 29.05.2020
2411 Clear 21 1029 40 10000 5.7 80 13:38 29.05.2020
2412 Clear 20 1029 45 10000 4.6 70 13:18 29.05.2020
2413 Clear 20 1029 48 10000 4.6 90 12:42 29.05.2020
2414 Clear 20 1029 48 10000 4.6 90 12:23 29.05.2020
2415 Clear 19 1029 45 10000 4.6 100 11:45 29.05.2020
2416 Clear 19 1029 45 10000 4.6 100 11:27 29.05.2020
2417 Clear 17 1029 55 10000 5.1 90 10:58 29.05.2020
2418 Clear 17 1029 63 10000 5.1 90 10:38 29.05.2020
2419 Clear 17 1029 63 10000 5.1 90 10:18 29.05.2020
2420 Clear 16 1029 72 10000 4.6 80 09:43 29.05.2020
2421 Clear 15 1029 72 10000 4.6 80 09:20 29.05.2020
2422 Clear 15 1029 76 10000 4.6 80 08:56 29.05.2020
2423 Clear 14 1030 82 10000 4.6 80 08:37 29.05.2020
2424 Clear 13 1030 82 10000 4.6 80 08:19 29.05.2020
2425 Clear 13 1030 81 10000 3.1 60 07:40 29.05.2020
2426 Clouds 12 1030 81 10000 3.1 60 07:21 29.05.2020
2427 Clouds 11 1030 81 10000 2.6 60 06:48 29.05.2020
2428 Clouds 11 1030 76 10000 3.1 80 06:27 29.05.2020
2429 Clouds 11 1030 76 10000 3.6 70 05:52 29.05.2020
2430 Clear 12 1031 71 10000 4.6 80 02:56 29.05.2020
2431 Clear 13 1031 67 10000 4.6 70 01:46 29.05.2020
2432 Clear 13 1031 67 10000 4.6 70 01:23 29.05.2020
2433 Clear 13 1031 67 10000 4.1 70 00:47 29.05.2020
2434 Clear 13 1031 67 10000 4.1 70 00:22 29.05.2020
2435 Clear 14 1032 54 10000 6.7 90 23:40 28.05.2020
2436 Clear 14 1032 51 10000 6.2 90 23:19 28.05.2020
2437 Clear 15 1032 44 10000 6.2 100 22:45 28.05.2020
2438 Clear 15 1032 44 10000 6.2 100 22:45 28.05.2020
2439 Clear 15 1032 44 10000 6.2 100 22:45 28.05.2020
2440 Clear 16 1032 44 10000 6.2 100 22:27 28.05.2020
2441 Clear 16 1032 42 10000 6.2 80 21:59 28.05.2020
2442 Clear 17 1031 39 10000 6.7 90 21:40 28.05.2020
2443 Clear 16 1031 39 10000 6.7 90 21:21 28.05.2020
2444 -273 0 0 0 0 0 20:58 28.05.2020
2445 Clear 18 1032 34 10000 6.7 90 20:40 28.05.2020
2446 Clear 18 1032 34 10000 6.7 90 20:19 28.05.2020
2447 Clear 18 1032 34 10000 6.7 90 19:58 28.05.2020
2448 Clear 19 1032 37 10000 6.7 100 19:40 28.05.2020
2449 Clear 20 1032 37 10000 6.7 100 19:20 28.05.2020
2450 Clear 20 1032 37 10000 6.2 100 18:55 28.05.2020
2451 Clear 20 1032 34 10000 6.7 100 18:36 28.05.2020
2452 Clear 20 1032 34 10000 6.7 100 18:18 28.05.2020
2453 Clear 20 1033 30 10000 7.7 100 17:40 28.05.2020
2454 Clear 20 1033 30 10000 7.7 100 17:21 28.05.2020
2455 Clear 20 1033 32 10000 7.2 90 16:46 28.05.2020
2456 Clear 20 1033 32 10000 7.2 100 16:21 28.05.2020
2457 Clear 20 1034 30 10000 8.2 90 15:56 28.05.2020
2458 Clear 20 1034 32 10000 7.7 100 15:38 28.05.2020
2459 Clear 20 1034 32 10000 7.7 100 15:19 28.05.2020
2460 Clear 20 1034 39 10000 6.7 100 14:42 28.05.2020
2461 Clear 20 1034 39 10000 6.7 100 14:22 28.05.2020
2462 Clear 19 1034 39 10000 6.2 90 13:46 28.05.2020
2463 Clear 19 1034 39 10000 6.2 90 13:28 28.05.2020
2464 Clear 19 1035 39 10000 6.7 100 12:57 28.05.2020
2465 Clear 19 1035 42 10000 6.7 90 12:38 28.05.2020
2466 Clear 18 1035 42 10000 5.7 90 12:18 28.05.2020
2467 Clear 18 1035 45 10000 6.2 90 11:41 28.05.2020
2468 Clear 18 1035 45 10000 6.2 90 11:23 28.05.2020
2469 Clear 17 1035 59 10000 5.1 80 10:50 28.05.2020
2470 Clear 16 1036 63 10000 5.1 80 10:28 28.05.2020
2471 Clouds 15 1036 67 10000 5.7 90 09:59 28.05.2020
2472 Clouds 15 1036 76 10000 4.6 80 09:38 28.05.2020
2473 Clouds 14 1036 76 10000 4.6 80 09:19 28.05.2020
2474 Clouds 13 1036 82 10000 4.1 70 08:44 28.05.2020
2475 Clouds 13 1036 82 10000 4.1 70 08:25 28.05.2020
2476 Clouds 12 1036 82 10000 4.1 80 07:45 28.05.2020
2477 Clouds 12 1036 87 10000 5.1 70 07:24 28.05.2020
2478 Clouds 12 1036 82 10000 5.1 70 06:51 28.05.2020
2479 Clouds 12 1036 87 10000 4.6 70 06:31 28.05.2020
2480 Clouds 12 1036 87 10000 4.6 70 05:40 28.05.2020
2481 Clouds 12 1036 82 10000 4.6 70 04:46 28.05.2020
2482 Clouds 12 1036 82 10000 4.6 70 04:25 28.05.2020
2483 Clouds 13 1036 82 10000 4.1 70 03:45 28.05.2020
2484 Clouds 14 1036 76 10000 4.6 100 02:45 28.05.2020
2485 Clouds 14 1036 72 10000 4.6 90 01:49 28.05.2020
2486 Clouds 15 1036 72 10000 5.7 80 00:54 28.05.2020
2487 Clouds 15 1036 72 10000 6.2 80 00:23 28.05.2020
2488 Clouds 15 1036 63 10000 6.7 90 23:57 27.05.2020
2489 Clouds 16 1036 67 10000 6.7 80 23:38 27.05.2020
2490 Clouds 16 1036 67 10000 6.7 80 23:20 27.05.2020
2491 Clouds 17 1036 63 10000 7.2 90 22:54 27.05.2020
2492 Clouds 19 1035 63 10000 7.2 100 22:36 27.05.2020
2493 Clouds 19 1035 63 10000 7.2 100 22:18 27.05.2020
2494 Clouds 20 1034 52 10000 4.6 90 21:40 27.05.2020
2495 Clouds 21 1034 52 10000 4.6 90 21:21 27.05.2020
2496 Clouds 21 1034 56 10000 5.7 80 20:58 27.05.2020
2497 Clouds 22 1034 49 10000 5.7 100 20:40 27.05.2020
2498 Clouds 22 1034 49 10000 5.7 100 20:20 27.05.2020
2499 Clouds 23 1034 46 10000 3.6 100 19:47 27.05.2020
2500 Clouds 23 1034 46 10000 3.6 100 19:47 27.05.2020
2501 Clouds 23 1034 46 10000 3.6 100 19:21 27.05.2020
2502 Clouds 24 1034 44 10000 4.1 80 18:58 27.05.2020
2503 Clouds 23 1034 46 10000 4.1 90 18:39 27.05.2020
2504 Clouds 24 1034 46 10000 4.1 90 18:19 27.05.2020
2505 Clouds 24 1034 44 10000 4.1 90 17:43 27.05.2020
2506 Clouds 24 1034 43 10000 3.1 80 17:25 27.05.2020
2507 Clouds 24 1034 43 10000 3.1 80 16:57 27.05.2020
2508 Clouds 24 1035 46 10000 3.6 90 16:38 27.05.2020
2509 Clouds 24 1035 43 10000 4.1 90 16:20 27.05.2020
2510 Clouds 24 1035 43 10000 4.1 90 15:59 27.05.2020
2511 Clouds 23 1035 43 10000 3.1 90 15:37 27.05.2020
2512 Clouds 23 1035 43 10000 3.1 90 15:18 27.05.2020
2513 Clouds 23 1035 43 10000 2.6 130 14:42 27.05.2020
2514 Clouds 24 1035 43 10000 2.6 130 14:21 27.05.2020
2515 Clouds 24 1035 46 10000 2.1 110 13:55 27.05.2020
2516 Clouds 24 1036 46 10000 2.6 120 13:36 27.05.2020
2517 Clouds 24 1036 46 10000 2.6 120 13:18 27.05.2020
2518 Clouds 23 1036 46 10000 2.6 100 12:40 27.05.2020
2519 Clouds 21 1036 46 10000 2.6 100 12:22 27.05.2020
2520 Clouds 20 1036 52 10000 3.1 80 11:39 27.05.2020
2521 Clouds 20 1036 52 10000 3.1 80 11:21 27.05.2020
2522 Clouds 20 1036 55 10000 2.6 60 10:58 27.05.2020
2523 Clouds 20 1036 55 10000 0.5 0 10:39 27.05.2020
2524 Clouds 19 1036 55 10000 0.5 0 10:20 27.05.2020
2525 Clouds 17 1036 67 10000 1.5 0 09:41 27.05.2020
2526 Clouds 17 1036 67 10000 1.5 0 09:22 27.05.2020
2527 Clouds 17 1036 72 10000 1.5 0 08:56 27.05.2020
2528 Clouds 16 1036 72 10000 1.5 0 08:56 27.05.2020
2529 Clouds 16 1036 72 10000 1.5 0 08:36 27.05.2020
2530 Clouds 15 1036 72 10000 1.5 0 08:18 27.05.2020
2531 Clouds 15 1036 76 10000 2.1 110 07:49 27.05.2020
2532 Clouds 14 1036 71 10000 3.1 100 07:30 27.05.2020
2533 Clouds 14 1036 71 10000 2.1 90 06:49 27.05.2020
2534 Clouds 15 1036 71 10000 2.1 60 06:21 27.05.2020
2535 Clouds 14 1036 71 10000 1.5 30 05:49 27.05.2020
2536 Clouds 14 1036 67 10000 1.5 0 05:22 27.05.2020
2537 Clouds 15 1036 62 10000 4.6 90 02:36 27.05.2020
2538 Clouds 15 1036 59 10000 4.1 90 01:55 27.05.2020
2539 Clouds 16 1036 63 10000 4.1 80 01:30 27.05.2020
2540 Clouds 17 1036 55 10000 5.7 90 00:47 27.05.2020
2541 Clouds 18 1036 63 10000 7.2 90 00:20 27.05.2020
2542 Clouds 18 1036 63 10000 7.2 90 00:20 27.05.2020
2543 Clouds 19 1036 59 10000 7.2 90 23:57 26.05.2020
2544 Clouds 21 1035 63 10000 5.7 80 23:39 26.05.2020
2545 Clouds 20 1035 63 10000 5.7 80 23:20 26.05.2020
2546 Clouds 22 1035 43 10000 4.1 80 22:42 26.05.2020
2547 Clouds 22 1035 43 10000 4.1 80 22:23 26.05.2020
2548 Clouds 22 1035 43 10000 4.1 80 22:23 26.05.2020
2549 Clouds 22 1034 43 10000 3.6 60 21:59 26.05.2020
2550 Clouds 23 1034 36 10000 3.1 60 21:40 26.05.2020
2551 Clouds 23 1034 36 10000 3.1 60 21:22 26.05.2020
2552 Clouds 24 1034 31 10000 3.1 350 20:58 26.05.2020
2553 Clouds 24 1034 29 10000 3.1 360 20:39 26.05.2020
2554 Clouds 24 1034 29 10000 3.1 360 20:39 26.05.2020
2555 Clouds 25 1034 29 10000 3.1 360 20:19 26.05.2020
2556 Clouds 25 1034 27 10000 3.1 10 19:40 26.05.2020
2557 Clouds 25 1034 27 10000 2.6 0 19:20 26.05.2020
2558 Clouds 26 1034 27 10000 2.6 0 18:58 26.05.2020
2559 Clouds 26 1034 27 10000 3.6 0 18:39 26.05.2020
2560 Clouds 26 1034 27 10000 3.6 0 18:20 26.05.2020
2561 Clouds 26 1034 31 10000 3.6 270 17:42 26.05.2020
2562 Clouds 26 1034 31 10000 3.6 270 17:23 26.05.2020
2563 Clouds 26 1035 29 10000 1.5 0 16:49 26.05.2020
2564 Clouds 26 1035 29 10000 3.6 220 16:23 26.05.2020
2565 Clouds 25 1035 33 10000 3.1 250 15:59 26.05.2020
2566 Clouds 25 1035 31 10000 3.6 250 15:41 26.05.2020
2567 Clouds 25 1035 31 10000 3.6 250 15:20 26.05.2020
2568 Clouds 25 1035 31 10000 3.1 230 14:56 26.05.2020
2569 Clouds 24 1035 31 10000 3.6 260 14:37 26.05.2020
2570 Clouds 24 1035 31 10000 3.6 260 14:18 26.05.2020
2571 Clouds 23 1036 31 10000 2.6 230 13:41 26.05.2020
2572 Clouds 24 1036 31 10000 2.6 230 13:23 26.05.2020
2573 Clouds 24 1036 35 10000 2.6 220 12:44 26.05.2020
2574 Clouds 22 1036 35 10000 2.6 220 12:23 26.05.2020
2575 Clouds 22 1036 37 10000 1 0 11:59 26.05.2020
2576 Clouds 21 1036 40 10000 1.5 0 11:41 26.05.2020
2577 Clouds 22 1036 40 10000 1.5 0 11:20 26.05.2020
2578 Clouds 21 1036 42 10000 3.1 340 10:57 26.05.2020
2579 Clouds 21 1036 42 10000 2.1 330 10:37 26.05.2020
2580 Clouds 20 1036 40 10000 0.5 0 10:18 26.05.2020
2581 Clouds 18 1036 45 10000 1.87 318 09:38 26.05.2020
2582 Clouds 17 1036 45 10000 1.67 319 09:19 26.05.2020
2583 Clouds 17 1036 59 10000 1 0 08:41 26.05.2020
2584 Clouds 16 1036 59 10000 1 0 08:22 26.05.2020
2585 Clouds 15 1035 62 10000 2.1 230 07:44 26.05.2020
2586 Clouds 15 1035 62 10000 2.1 230 07:44 26.05.2020
2587 Clouds 14 1035 62 10000 2.1 230 07:23 26.05.2020
2588 Clouds 14 1035 67 10000 1.5 0 06:54 26.05.2020
2589 Clouds 15 1035 67 10000 2.1 220 06:35 26.05.2020
2590 Clouds 15 1035 67 10000 1.5 230 05:44 26.05.2020
2591 Clouds 14 1035 67 10000 1.5 230 05:25 26.05.2020
2592 Clouds 15 1035 63 10000 2.1 250 04:49 26.05.2020
2593 Clouds 15 1035 63 10000 1.5 240 04:31 26.05.2020
2594 Clouds 15 1035 63 10000 2.1 220 03:50 26.05.2020
2595 Clouds 16 1035 63 10000 3.1 250 02:40 26.05.2020
2596 Clouds 16 1035 59 10000 2.6 230 01:47 26.05.2020
2597 Clouds 17 1034 55 10000 3.1 230 00:56 26.05.2020
2598 Clouds 17 1034 55 10000 2.6 230 00:36 26.05.2020
2599 Clouds 17 1034 55 10000 2.6 230 00:36 26.05.2020
2600 Clouds 18 1034 55 10000 2.6 230 00:18 26.05.2020
2601 Clouds 18 1034 52 10000 3.1 230 23:54 25.05.2020
2602 Clouds 18 1034 52 10000 3.1 230 23:36 25.05.2020
2603 Clouds 19 1034 52 10000 3.1 230 23:18 25.05.2020
2604 Clouds 19 1034 49 10000 3.6 230 22:54 25.05.2020
2605 Clouds 20 1034 49 10000 4.1 220 22:36 25.05.2020
2606 Clouds 20 1033 46 10000 4.1 230 22:18 25.05.2020
2607 Clouds 21 1033 46 10000 4.1 230 21:54 25.05.2020
2608 Clouds 21 1033 43 10000 5.1 220 21:36 25.05.2020
2609 Clouds 22 1033 43 10000 5.1 220 21:18 25.05.2020
2610 Clouds 23 1033 29 10000 3.1 300 20:41 25.05.2020
2611 Clouds 24 1033 29 10000 3.1 300 20:21 25.05.2020
2612 Clouds 24 1033 27 10000 4.1 290 19:58 25.05.2020
2613 Clouds 25 1033 27 10000 3.6 270 19:39 25.05.2020
2614 Clouds 25 1033 27 10000 3.6 270 19:18 25.05.2020
2615 Clouds 25 1033 29 10000 4.1 0 18:45 25.05.2020
2616 Clouds 25 1033 29 10000 4.1 0 18:22 25.05.2020
2617 Clouds 25 1033 29 10000 1 0 17:59 25.05.2020
2618 Clouds 25 1033 27 10000 2.1 0 17:40 25.05.2020
2619 Clear 25 1033 27 10000 2.1 0 17:22 25.05.2020
2620 Clear 25 1033 29 10000 2.6 310 16:56 25.05.2020
2621 Clear 25 1034 31 10000 3.1 230 16:38 25.05.2020
2622 Clear 25 1034 31 10000 3.1 230 16:19 25.05.2020
2623 Clear 24 1034 38 10000 2.6 280 15:44 25.05.2020
2624 Clear 24 1034 33 10000 3.1 0 15:19 25.05.2020
2625 Clear 24 1034 33 10000 3.1 0 14:57 25.05.2020
2626 Clear 24 1034 38 10000 3.1 230 14:38 25.05.2020
2627 Clear 23 1034 38 10000 3.1 230 14:19 25.05.2020
2628 Clouds 23 1034 40 10000 2.1 0 13:40 25.05.2020
2629 Clouds 23 1034 40 10000 2.1 0 13:21 25.05.2020
2630 Clouds 23 1034 43 10000 2.6 230 12:58 25.05.2020
2631 Clear 22 1035 43 10000 2.1 0 12:38 25.05.2020
2632 Clear 22 1035 46 10000 1.5 0 12:20 25.05.2020
2633 Clear 21 1035 49 10000 1.5 0 11:40 25.05.2020
2634 Clear 21 1035 49 10000 1.5 0 11:20 25.05.2020
2635 Clear 20 1035 55 10000 1.5 0 10:57 25.05.2020
2636 Clear 20 1035 52 10000 1.5 0 10:39 25.05.2020
2637 Clear 19 1035 52 10000 1.5 0 10:20 25.05.2020
2638 Clear 19 1035 52 10000 1.5 0 10:20 25.05.2020
2639 Clear 17 1035 51 10000 1 70 09:54 25.05.2020
2640 Clear 16 1035 51 10000 0.24 11 09:36 25.05.2020
2641 Clear 16 1035 55 10000 1 0 09:18 25.05.2020
2642 Clear 15 1035 58 10000 1.5 310 08:40 25.05.2020
2643 Clouds 14 1035 58 10000 1.5 310 08:21 25.05.2020
2644 Clouds 13 1034 62 10000 1.5 300 07:56 25.05.2020
2645 Clouds 13 1034 71 10000 0.5 0 07:38 25.05.2020
2646 Clouds 12 1034 76 10000 1 0 07:18 25.05.2020
2647 Clouds 12 1034 76 10000 2.1 230 06:38 25.05.2020
2648 Clouds 13 1034 71 10000 1.6 331 05:27 25.05.2020
2649 Clouds 14 1034 63 10000 2.1 300 03:30 25.05.2020
2650 Clouds 14 1034 63 10000 2.1 280 02:52 25.05.2020
2651 Clouds 15 1033 59 10000 3.6 300 02:34 25.05.2020
2652 Clouds 16 1033 59 10000 1.5 230 01:42 25.05.2020
2653 Clouds 16 1033 52 10000 1 300 00:47 25.05.2020
2654 Clouds 17 1033 52 10000 1 300 00:26 25.05.2020
2655 Clouds 16 1032 55 10000 0.5 0 23:59 24.05.2020
2656 Clouds 16 1032 52 10000 1 350 23:39 24.05.2020
2657 Clouds 17 1032 45 10000 1.5 0 23:20 24.05.2020
2658 Clouds 17 1032 45 10000 1.5 0 22:56 24.05.2020
2659 Clouds 18 1032 45 10000 3.1 300 22:37 24.05.2020
2660 Clouds 19 1032 42 10000 3.6 310 22:18 24.05.2020
2661 Clouds 20 1031 40 10000 3.6 310 21:55 24.05.2020
2662 Clouds 20 1031 40 10000 3.6 310 21:36 24.05.2020
2663 Clouds 20 1031 40 10000 5.1 300 21:18 24.05.2020
2664 Clouds 21 1031 40 10000 5.1 310 20:43 24.05.2020
2665 Clouds 21 1031 40 10000 5.1 310 20:21 24.05.2020
2666 Clouds 21 1031 40 10000 3.6 300 19:56 24.05.2020
2667 Clouds 21 1031 40 10000 4.6 290 19:38 24.05.2020
2668 Clouds 21 1031 40 10000 6.2 290 19:19 24.05.2020
2669 Clouds 21 1031 37 10000 5.7 270 18:43 24.05.2020
2670 Clouds 21 1031 37 10000 5.7 270 18:24 24.05.2020
2671 Clouds 22 1031 37 10000 4.6 270 17:59 24.05.2020
2672 Clouds 21 1031 40 10000 5.7 290 17:40 24.05.2020
2673 Clouds 21 1031 40 10000 5.7 290 17:21 24.05.2020
2674 Clouds 21 1031 40 10000 5.7 290 17:21 24.05.2020
2675 Clouds 21 1030 43 10000 5.7 300 16:57 24.05.2020
2676 Clouds 21 1030 43 10000 5.7 310 16:38 24.05.2020
2677 Clouds 20 1030 45 10000 6.2 300 16:20 24.05.2020
2678 Clouds 20 1030 45 10000 6.2 300 15:57 24.05.2020
2679 Clouds 20 1030 45 10000 5.7 280 15:38 24.05.2020
2680 Clouds 20 1030 45 10000 5.7 280 15:19 24.05.2020
2681 Clouds 20 1030 45 10000 6.7 280 14:45 24.05.2020
2682 Clouds 20 1030 48 10000 5.7 260 14:24 24.05.2020
2683 Clouds 20 1030 48 10000 5.7 260 13:59 24.05.2020
2684 Clouds 20 1030 48 10000 5.1 270 13:41 24.05.2020
2685 Clouds 20 1030 48 10000 5.1 270 13:21 24.05.2020
2686 Clouds 19 1030 55 10000 6.2 280 12:59 24.05.2020
2687 Clouds 18 1030 55 10000 6.2 260 12:40 24.05.2020
2688 Clouds 17 1030 55 10000 6.2 260 12:22 24.05.2020
2689 Clouds 17 1030 63 10000 6.2 260 11:59 24.05.2020
2690 Clouds 16 1030 63 10000 6.7 270 11:41 24.05.2020
2691 Clouds 16 1030 63 10000 6.7 270 11:41 24.05.2020
2692 Clouds 16 1030 63 10000 6.7 270 11:22 24.05.2020
2693 Clouds 16 1029 63 10000 6.2 270 10:57 24.05.2020
2694 Clouds 15 1029 63 10000 6.2 260 10:39 24.05.2020
2695 Clouds 15 1029 63 10000 6.2 260 10:21 24.05.2020
2696 Clouds 14 1029 71 10000 5.7 250 09:41 24.05.2020
2697 Clouds 14 1029 71 10000 5.7 240 09:19 24.05.2020
2698 Clouds 13 1029 71 10000 5.7 240 08:57 24.05.2020
2699 Clouds 13 1028 71 10000 6.2 250 08:39 24.05.2020
2700 Clouds 12 1028 71 10000 6.2 250 08:21 24.05.2020
2701 Clouds 12 1028 76 10000 5.7 250 07:51 24.05.2020
2702 Clouds 12 1028 76 10000 6.2 250 07:26 24.05.2020
2703 Clouds 11 1028 76 10000 6.2 250 06:57 24.05.2020
2704 Clouds 11 1028 76 10000 6.7 260 06:36 24.05.2020
2705 Clouds 11 1028 71 10000 5.1 250 05:20 24.05.2020
2706 Clouds 11 1027 66 10000 6.7 250 03:42 24.05.2020
2707 Clouds 12 1027 62 10000 7.7 260 02:47 24.05.2020
2708 Clouds 12 1027 62 10000 7.2 250 01:54 24.05.2020
2709 Clouds 13 1026 54 10000 8.2 260 00:42 24.05.2020
2710 Clouds 13 1026 50 10000 7.7 260 00:23 24.05.2020
2711 Clouds 13 1026 50 10000 7.7 260 23:54 23.05.2020
2712 Clouds 14 1026 47 10000 6.2 260 23:36 23.05.2020
2713 Clouds 14 1025 44 10000 8.2 260 23:18 23.05.2020
2714 Clouds 14 1025 44 10000 9.3 260 22:55 23.05.2020
2715 Clouds 14 1025 44 10000 9.3 260 22:36 23.05.2020
2716 Clear 14 1025 44 10000 9.3 260 22:18 23.05.2020
2717 Clear 15 1024 38 10000 10.3 260 21:42 23.05.2020
2718 Clear 16 1024 38 10000 10.3 260 21:20 23.05.2020
2719 Clear 16 1024 36 10000 10.8 270 20:59 23.05.2020
2720 Clear 16 1024 39 10000 9.8 280 20:39 23.05.2020
2721 Clouds 17 1024 39 10000 9.8 280 20:19 23.05.2020
2722 Clouds 17 1023 36 10000 10.8 270 19:55 23.05.2020
2723 Clouds 17 1023 36 10000 9.8 250 19:37 23.05.2020
2724 Clouds 17 1023 36 10000 9.8 250 19:18 23.05.2020
2725 Clouds 18 1022 34 10000 9.3 260 18:41 23.05.2020
2726 Clouds 18 1022 34 10000 10.8 270 18:22 23.05.2020
2727 Clouds 18 1022 34 10000 9.3 260 18:22 23.05.2020
2728 Clouds 18 1022 34 10000 10.8 270 17:58 23.05.2020
2729 Clouds 18 1022 32 10000 10.3 280 17:40 23.05.2020
2730 Clouds 18 1022 32 10000 10.3 280 17:20 23.05.2020
2731 Clouds 18 1022 34 10000 8.7 270 16:59 23.05.2020
2732 Clouds 18 1022 34 10000 8.7 270 16:59 23.05.2020
2733 Clouds 18 1022 45 10000 8.7 260 16:40 23.05.2020
2734 Clouds 19 1022 45 10000 8.7 260 16:20 23.05.2020
2735 Rain 18 1022 63 10000 6.2 250 15:56 23.05.2020
2736 Rain 18 1022 63 10000 7.2 250 15:38 23.05.2020
2737 Rain 18 1022 63 10000 7.2 250 15:20 23.05.2020
2738 Rain 17 1021 34 10000 10.3 250 14:41 23.05.2020
2739 Clouds 17 1021 34 10000 10.3 250 14:23 23.05.2020
2740 Clouds 17 1021 36 10000 9.3 250 13:42 23.05.2020
2741 Clouds 18 1021 36 10000 9.3 250 13:19 23.05.2020
2742 Clouds 18 1021 36 10000 9.3 260 12:59 23.05.2020
2743 Clouds 18 1021 36 10000 9.3 260 12:59 23.05.2020
2744 Clouds 17 1021 42 10000 9.3 260 12:40 23.05.2020
2745 Clouds 17 1021 42 10000 9.3 260 12:40 23.05.2020
2746 Clouds 17 1021 42 10000 9.3 260 12:19 23.05.2020
2747 Clouds 17 1021 45 10000 8.7 260 11:57 23.05.2020
2748 Clouds 16 1021 48 10000 9.8 270 11:37 23.05.2020
2749 Clouds 16 1021 48 10000 9.8 270 11:18 23.05.2020
2750 Clouds 16 1021 48 10000 9.3 260 10:54 23.05.2020
2751 Clouds 15 1021 54 10000 7.7 250 10:36 23.05.2020
2752 Clouds 15 1021 54 10000 8.2 250 10:18 23.05.2020
2753 Clouds 14 1021 62 10000 7.2 240 09:41 23.05.2020
2754 Clouds 14 1021 62 10000 7.2 240 09:23 23.05.2020
2755 Clouds 13 1021 62 10000 6.7 250 08:56 23.05.2020
2756 Clear 13 1021 66 10000 5.7 250 08:37 23.05.2020
2757 Clouds 13 1020 66 10000 6.2 240 08:18 23.05.2020
2758 Clouds 12 1020 71 10000 5.1 240 07:43 23.05.2020
2759 Clouds 12 1020 71 10000 5.1 240 07:22 23.05.2020
2760 Clouds 11 1020 66 10000 6.2 240 06:42 23.05.2020
2761 Clouds 12 1020 66 10000 5.7 240 05:51 23.05.2020
2762 Clouds 12 1020 71 10000 5.1 250 03:52 23.05.2020
2763 Clouds 13 1020 67 10000 6.2 250 03:23 23.05.2020
2764 Clouds 13 1019 71 10000 6.2 250 02:31 23.05.2020
2765 Clouds 13 1019 71 10000 5.1 250 01:46 23.05.2020
2766 Clouds 13 1019 71 10000 5.1 240 01:18 23.05.2020
2767 Clouds 14 1019 67 10000 5.7 240 00:41 23.05.2020
2768 Clouds 14 1018 67 10000 5.7 230 23:59 22.05.2020
2769 Clouds 14 1019 78 0 0.45 253 23:40 22.05.2020
2770 Clouds 15 1018 63 10000 5.7 220 23:20 22.05.2020
2771 Clouds 15 1018 63 10000 5.7 220 22:58 22.05.2020
2772 Clouds 15 1018 59 10000 7.2 240 22:39 22.05.2020
2773 Clouds 16 1017 55 10000 7.2 230 22:20 22.05.2020
2774 Clouds 16 1017 55 10000 7.2 230 21:46 22.05.2020
2775 Clouds 17 1017 55 10000 5.7 230 21:22 22.05.2020
2776 Clouds 17 1017 55 10000 7.2 220 20:59 22.05.2020
2777 Clouds 17 1017 61 0 0.89 244 20:40 22.05.2020
2778 Clouds 18 1016 48 10000 7.2 230 20:20 22.05.2020
2779 Clouds 19 1017 57 0 0.89 266 19:44 22.05.2020
2780 Clouds 19 1017 56 0 0.45 275 19:25 22.05.2020
2781 Clouds 20 1016 35 10000 6.7 240 18:54 22.05.2020
2782 Clouds 21 1016 28 10000 7.2 240 18:36 22.05.2020
2783 Clouds 21 1016 30 10000 8.2 240 18:18 22.05.2020
2784 Clouds 21 1015 28 10000 7.7 250 17:40 22.05.2020
2785 Clouds 22 1015 28 10000 7.7 250 17:20 22.05.2020
2786 Clouds 22 1015 24 10000 8.7 240 16:57 22.05.2020
2787 Clouds 22 1015 25 10000 8.7 240 16:39 22.05.2020
2788 Clouds 22 1015 25 10000 8.7 240 16:19 22.05.2020
2789 Clouds 22 1015 27 10000 9.3 260 15:42 22.05.2020
2790 Clouds 22 1015 27 10000 9.3 260 15:22 22.05.2020
2791 Clouds 21 1015 26 10000 9.8 260 14:56 22.05.2020
2792 Clouds 21 1015 26 10000 8.2 240 14:38 22.05.2020
2793 Clouds 21 1015 26 10000 8.2 240 14:20 22.05.2020
2794 Clouds 21 1015 35 10000 8.2 250 13:41 22.05.2020
2795 Clouds 21 1015 35 10000 8.2 250 13:19 22.05.2020
2796 Clouds 20 1014 45 10000 7.7 240 12:43 22.05.2020
2797 Clouds 20 1014 45 10000 7.7 240 12:43 22.05.2020
2798 Clouds 19 1014 45 10000 7.7 240 12:24 22.05.2020
2799 Clouds 19 1014 55 10000 8.7 230 11:47 22.05.2020
2800 Clouds 19 1014 55 10000 8.7 230 11:22 22.05.2020
2801 Clouds 19 1014 59 10000 8.7 240 10:59 22.05.2020
2802 Clouds 18 1014 63 10000 6.7 240 10:39 22.05.2020
2803 Clouds 18 1014 63 10000 6.7 240 10:20 22.05.2020
2804 Clouds 18 1013 63 10000 9.3 250 09:57 22.05.2020
2805 Clouds 17 1013 63 10000 3.6 220 09:38 22.05.2020
2806 Clouds 18 1013 63 10000 3.6 220 09:18 22.05.2020
2807 Clouds 17 1013 59 10000 6.7 250 08:43 22.05.2020
2808 Clouds 17 1014 73 0 0.89 252 08:20 22.05.2020
2809 Clouds 17 1014 71 0 0.89 265 07:52 22.05.2020
2810 Clouds 18 1012 48 10000 5.7 240 07:24 22.05.2020
2811 Clouds 18 1013 62 0 0.89 249 06:55 22.05.2020
2812 Clouds 18 1012 52 10000 4.6 220 06:33 22.05.2020
2813 Clouds 19 1013 66 0 0.45 251 05:38 22.05.2020
2814 Clouds 19 1013 64 0 0.45 62 04:50 22.05.2020
2815 Clouds 20 1013 40 10000 4.1 150 04:19 22.05.2020
2816 Clouds 20 1014 34 10000 3.1 160 03:45 22.05.2020
2817 Clouds 19 1014 34 10000 2.6 150 02:59 22.05.2020
2818 Clouds 19 1015 40 10000 2.1 160 01:53 22.05.2020
2819 Clouds 19 1016 42 10000 2.1 180 01:25 22.05.2020
2820 Clouds 19 1016 40 10000 3.1 180 00:40 22.05.2020
2821 Clouds 19 1016 40 10000 3.1 180 00:22 22.05.2020
2822 Clouds 20 1017 33 10000 2.6 190 23:42 21.05.2020
2823 Clouds 20 1017 33 10000 2.6 190 23:24 21.05.2020
2824 Clouds 21 1017 37 10000 2.1 190 22:58 21.05.2020
2825 Clouds 21 1017 38 10000 3.6 210 22:38 21.05.2020
2826 Clouds 22 1017 38 10000 3.6 210 22:20 21.05.2020
2827 Clouds 22 1017 41 10000 4.1 200 21:56 21.05.2020
2828 Clouds 23 1017 33 10000 3.6 200 21:38 21.05.2020
2829 Clouds 24 1017 34 10000 3.6 180 21:18 21.05.2020
2830 Clouds 25 1017 30 10000 3.6 180 20:42 21.05.2020
2831 Clouds 26 1017 30 10000 3.6 180 20:22 21.05.2020
2832 Clouds 26 1017 28 10000 2.6 0 19:41 21.05.2020
2833 Clouds 27 1017 28 10000 2.6 0 19:21 21.05.2020
2834 Clouds 27 1017 24 10000 2.6 260 18:59 21.05.2020
2835 Clouds 27 1018 24 10000 2.6 0 18:39 21.05.2020
2836 Clouds 27 1018 24 10000 2.6 0 18:19 21.05.2020
2837 Clouds 27 1018 28 10000 4.1 280 17:58 21.05.2020
2838 Clouds 27 1018 26 10000 1 0 17:39 21.05.2020
2839 Clouds 27 1018 26 10000 1 0 17:21 21.05.2020
2840 Clouds 27 1019 28 10000 3.6 270 16:46 21.05.2020
2841 Clouds 26 1019 28 10000 3.6 270 16:24 21.05.2020
2842 Clouds 26 1019 36 10000 3.6 270 15:47 21.05.2020
2843 Clear 26 1019 36 10000 3.6 270 15:24 21.05.2020
2844 Clear 26 1019 39 10000 3.6 250 14:56 21.05.2020
2845 Clouds 25 1019 44 0 2.6 270 14:37 21.05.2020
2846 Clouds 25 1019 44 0 2.6 270 14:18 21.05.2020
2847 Clouds 25 1019 47 0 2.6 280 13:40 21.05.2020
2848 Clouds 25 1019 47 0 2.6 280 13:22 21.05.2020
2849 Clouds 25 1019 47 0 3.1 210 12:57 21.05.2020
2850 Clouds 23 1019 50 0 1.5 0 12:37 21.05.2020
2851 Clouds 22 1019 50 0 1.5 0 12:18 21.05.2020
2852 Clouds 22 1019 56 10000 2.1 280 11:42 21.05.2020
2853 Clouds 22 1019 56 10000 2.1 280 11:23 21.05.2020
2854 Clouds 21 1019 60 10000 2.6 120 10:57 21.05.2020
2855 Clouds 21 1019 60 10000 2.1 100 10:39 21.05.2020
2856 Clouds 21 1019 60 10000 2.1 100 10:19 21.05.2020
2857 Clouds 20 1020 60 10000 1 0 09:54 21.05.2020
2858 Clouds 19 1020 63 10000 1.5 0 09:36 21.05.2020
2859 Clouds 18 1020 63 10000 1.5 0 09:18 21.05.2020
2860 Clouds 17 1019 72 10000 0.5 0 08:42 21.05.2020
2861 Rain 17 1019 72 10000 0.5 0 08:23 21.05.2020
2862 Clouds 15 1019 77 10000 1.5 0 07:44 21.05.2020
2863 Clouds 15 1019 77 10000 1.5 0 07:25 21.05.2020
2864 Clouds 15 1019 72 10000 1.5 80 06:52 21.05.2020
2865 Clouds 15 1019 77 10000 1.5 0 05:54 21.05.2020
2866 Clouds 16 1019 72 10000 1.5 0 04:58 21.05.2020
2867 Clouds 16 1020 68 10000 2.1 240 03:22 21.05.2020
2868 Clouds 16 1020 68 10000 2.1 240 03:22 21.05.2020
2869 Clouds 17 1020 63 10000 2.6 130 02:42 21.05.2020
2870 Clouds 17 1020 63 10000 2.6 130 02:21 21.05.2020
2871 Clouds 18 1020 52 10000 2.1 140 01:43 21.05.2020
2872 Clouds 18 1020 52 10000 2.1 140 01:19 21.05.2020
2873 Clouds 18 1020 49 10000 2.1 140 00:48 21.05.2020
2874 Clouds 20 1020 43 10000 2.1 160 00:23 21.05.2020
2875 Clouds 20 1020 37 10000 2.6 170 23:41 20.05.2020
2876 Clouds 20 1020 37 10000 2.6 170 23:20 20.05.2020
2877 Clouds 21 1020 40 10000 3.1 170 22:58 20.05.2020
2878 Clouds 21 1020 40 10000 2.6 190 22:39 20.05.2020
2879 Clouds 22 1020 40 10000 2.6 190 22:20 20.05.2020
2880 Clouds 23 1020 36 10000 3.6 200 21:40 20.05.2020
2881 Clear 23 1020 36 10000 3.6 200 21:21 20.05.2020
2882 Clear 24 1019 38 10000 3.6 170 20:45 20.05.2020
2883 Clouds 25 1019 38 10000 3.6 160 20:26 20.05.2020
2884 Clouds 25 1019 34 10000 3.6 190 19:58 20.05.2020
2885 Clouds 25 1020 31 10000 3.6 170 19:38 20.05.2020
2886 Clouds 26 1020 31 10000 3.6 170 19:20 20.05.2020
2887 Clouds 26 1020 32 10000 3.6 190 18:47 20.05.2020
2888 Clouds 26 1020 32 10000 3.6 190 18:28 20.05.2020
2889 Clouds 26 1020 34 10000 3.6 190 17:46 20.05.2020
2890 Clouds 26 1020 34 10000 3.6 190 17:24 20.05.2020
2891 Clouds 26 1020 36 10000 3.6 200 16:59 20.05.2020
2892 Clouds 26 1020 39 10000 4.1 170 16:41 20.05.2020
2893 Clouds 26 1020 39 10000 4.1 170 16:22 20.05.2020
2894 Clouds 26 1021 39 10000 3.1 210 15:56 20.05.2020
2895 Clouds 26 1021 41 10000 4.6 180 15:36 20.05.2020
2896 Clouds 26 1021 41 10000 4.6 180 15:18 20.05.2020
2897 Clouds 26 1021 41 10000 4.1 180 14:41 20.05.2020
2898 Clouds 26 1021 41 10000 4.1 180 14:20 20.05.2020
2899 Clouds 26 1021 41 10000 3.6 170 13:41 20.05.2020
2900 Clouds 26 1021 41 10000 3.6 170 13:19 20.05.2020
2901 Clouds 25 1022 44 10000 3.1 180 12:56 20.05.2020
2902 Clouds 25 1022 47 10000 2.6 170 12:37 20.05.2020
2903 Clear 24 1022 47 10000 2.6 170 12:18 20.05.2020
2904 Clear 23 1022 49 10000 2.1 260 11:36 20.05.2020
2905 Rain 23 1022 52 10000 1 0 11:18 20.05.2020
2906 Clear 22 1022 52 10000 1.9 199 10:42 20.05.2020
2907 Clear 21 1022 52 10000 1.44 190 10:20 20.05.2020
2908 Rain 19 1022 59 7000 1.5 0 09:44 20.05.2020
2909 Rain 18 1022 59 7000 1.5 0 09:21 20.05.2020
2910 Clear 18 1022 63 10000 2.1 230 08:57 20.05.2020
2911 Clear 17 1021 67 10000 1.5 0 08:39 20.05.2020
2912 Clear 16 1021 67 10000 1.5 0 08:18 20.05.2020
2913 Clear 15 1021 72 10000 2.6 230 07:46 20.05.2020
2914 Clear 15 1021 72 10000 2.6 230 07:20 20.05.2020
2915 Clear 15 1021 67 10000 2.1 240 06:36 20.05.2020
2916 Clouds 15 1022 67 10000 2.6 240 05:24 20.05.2020
2917 Clouds 16 1022 59 10000 2.1 230 04:27 20.05.2020
2918 Clouds 17 1022 59 10000 2.1 230 03:51 20.05.2020
2919 Clear 17 1022 55 10000 2.1 280 02:30 20.05.2020
2920 Clouds 19 1022 52 10000 2.6 270 01:29 20.05.2020
2921 Clouds 19 1022 52 10000 2.1 310 00:44 20.05.2020
2922 Clouds 20 1022 52 10000 2.1 310 00:24 20.05.2020
2923 Clouds 21 1022 53 10000 3.6 290 23:42 19.05.2020
2924 Clouds 21 1022 53 10000 3.6 290 23:19 19.05.2020
2925 Clouds 22 1022 46 10000 3.6 280 22:56 19.05.2020
2926 Clouds 22 1021 46 10000 2.6 270 22:38 19.05.2020
2927 Clouds 22 1021 44 10000 4.1 280 22:19 19.05.2020
2928 Clouds 22 1021 46 10000 2.6 270 22:19 19.05.2020
2929 Clouds 23 1021 44 10000 4.1 280 21:58 19.05.2020
2930 Clouds 23 1021 47 10000 4.1 270 21:38 19.05.2020
2931 Clear 23 1021 47 10000 4.1 270 21:38 19.05.2020
2932 Clear 24 1021 41 10000 4.1 260 21:19 19.05.2020
2933 Clear 24 1021 41 10000 4.1 260 20:57 19.05.2020
2934 Clear 24 1021 41 10000 3.1 270 20:39 19.05.2020
2935 Clear 25 1021 41 10000 3.1 270 20:21 19.05.2020
2936 Clear 25 1021 41 10000 3.1 270 20:21 19.05.2020
2937 Clear 25 1021 39 10000 3.6 260 19:55 19.05.2020
2938 Clear 26 1021 39 10000 3.1 250 19:37 19.05.2020
2939 Clear 25 1021 39 10000 3.1 250 19:18 19.05.2020
2940 Clear 25 1021 39 10000 4.1 280 18:42 19.05.2020
2941 Clear 26 1021 39 10000 4.1 280 18:20 19.05.2020
2942 Clear 25 1022 38 10000 5.1 280 17:44 19.05.2020
2943 Clear 25 1022 38 10000 5.1 280 17:21 19.05.2020
2944 Clear 25 1022 36 10000 3.6 230 16:59 19.05.2020
2945 Clear 25 1022 38 10000 2.6 200 16:39 19.05.2020
2946 Clear 25 1022 38 10000 2.6 200 16:20 19.05.2020
2947 Clear 24 1022 40 10000 4.1 290 15:47 19.05.2020
2948 Clear 23 1022 40 10000 4.1 290 15:23 19.05.2020
2949 Clear 23 1023 38 10000 3.1 240 14:59 19.05.2020
2950 Clear 23 1023 43 10000 3.6 280 14:41 19.05.2020
2951 Clouds 23 1023 43 10000 3.6 280 14:21 19.05.2020
2952 Clouds 23 1023 46 10000 3.1 230 13:58 19.05.2020
2953 Clouds 22 1023 46 10000 3.6 0 13:40 19.05.2020
2954 Clouds 22 1023 46 10000 3.6 0 13:21 19.05.2020
2955 Clouds 22 1023 52 10000 3.6 260 12:58 19.05.2020
2956 Clouds 21 1023 52 10000 4.6 260 12:39 19.05.2020
2957 Clouds 19 1023 52 10000 4.6 260 12:21 19.05.2020
2958 Clouds 18 1023 59 10000 4.6 270 11:55 19.05.2020
2959 Clouds 17 1023 63 10000 4.1 250 11:37 19.05.2020
2960 Clouds 18 1023 63 10000 4.1 250 11:19 19.05.2020
2961 Clouds 17 1024 67 10000 3.1 240 10:45 19.05.2020
2962 Clouds 16 1024 72 10000 4.1 230 10:27 19.05.2020
2963 Clouds 15 1024 72 10000 3.6 260 09:58 19.05.2020
2964 Clouds 15 1024 72 10000 4.1 270 09:40 19.05.2020
2965 Clouds 15 1024 72 10000 4.1 270 09:20 19.05.2020
2966 Clear 14 1023 76 10000 3.6 250 08:43 19.05.2020
2967 Clouds 13 1023 76 10000 3.6 250 08:23 19.05.2020
2968 Clouds 13 1023 76 10000 4.1 250 07:44 19.05.2020
2969 Clouds 13 1023 76 10000 4.1 250 07:26 19.05.2020
2970 Clouds 13 1023 71 10000 3.1 240 06:50 19.05.2020
2971 Clear 13 1023 67 10000 2.6 240 06:25 19.05.2020
2972 Clear 13 1023 67 10000 3.6 250 05:41 19.05.2020
2973 Clouds 13 1023 67 10000 3.6 250 04:56 19.05.2020
2974 Clouds 13 1023 58 10000 3.6 260 04:32 19.05.2020
2975 Clouds 16 1024 48 10000 3.6 260 01:31 19.05.2020
2976 Clouds 16 1023 45 10000 5.1 270 00:44 19.05.2020
2977 Clouds 17 1023 45 10000 5.1 270 00:24 19.05.2020
2978 Clouds 17 1023 42 10000 4.6 280 23:58 18.05.2020
2979 Clouds 17 1023 37 10000 4.1 290 23:39 18.05.2020
2980 Clouds 18 1023 37 10000 4.1 290 23:19 18.05.2020
2981 Clouds 18 1024 52 0 0.45 245 22:41 18.05.2020
2982 Clouds 18 1023 30 10000 6.7 270 22:22 18.05.2020
2983 Clouds 19 1023 30 10000 6.2 290 21:56 18.05.2020
2984 Clouds 20 1023 35 10000 6.2 290 21:38 18.05.2020
2985 Clouds 20 1023 35 10000 6.2 290 21:19 18.05.2020
2986 Clouds 21 1022 30 10000 4.6 260 20:43 18.05.2020
2987 Clouds 21 1023 30 0 4.23 276 20:22 18.05.2020
2988 Clouds 22 1022 27 10000 5.7 260 19:59 18.05.2020
2989 Clouds 22 1022 27 10000 6.2 260 19:41 18.05.2020
2990 Clouds 22 1022 27 10000 6.2 270 19:19 18.05.2020
2991 Clouds 23 1022 27 10000 6.2 270 18:46 18.05.2020
2992 Clouds 23 1022 25 10000 6.7 270 18:25 18.05.2020
2993 Clouds 23 1022 23 10000 6.2 260 17:55 18.05.2020
2994 Clouds 23 1022 23 10000 5.7 240 17:37 18.05.2020
2995 Clouds 23 1022 23 10000 5.7 240 17:18 18.05.2020
2996 Clouds 23 1023 25 10000 5.1 260 16:44 18.05.2020
2997 Clouds 23 1023 25 10000 5.1 260 16:22 18.05.2020
2998 Clouds 23 1023 27 10000 6.7 260 15:59 18.05.2020
2999 Clouds 22 1023 25 10000 5.1 250 15:41 18.05.2020
3000 Clouds 22 1023 25 10000 5.1 250 15:22 18.05.2020
3001 Clouds 22 1023 25 10000 5.7 250 14:58 18.05.2020
3002 Clouds 22 1023 27 10000 5.7 260 14:39 18.05.2020
3003 Clouds 22 1023 27 10000 5.7 260 14:20 18.05.2020
3004 Clouds 21 1023 37 10000 4.1 240 13:42 18.05.2020
3005 Clouds 21 1023 37 10000 4.1 240 13:22 18.05.2020
3006 Clouds 20 1024 39 10000 4.6 270 12:58 18.05.2020
3007 Clouds 20 1024 42 10000 5.1 260 12:40 18.05.2020
3008 Clouds 18 1024 42 10000 5.1 260 12:20 18.05.2020
3009 Clouds 18 1024 45 10000 4.6 260 11:59 18.05.2020
3010 Clouds 17 1023 51 10000 4.6 240 11:41 18.05.2020
3011 Clouds 17 1023 51 10000 4.6 240 11:22 18.05.2020
3012 Clouds 16 1023 59 10000 3.6 230 10:47 18.05.2020
3013 Clouds 15 1024 62 10000 4.6 260 10:25 18.05.2020
3014 Clouds 13 1024 71 10000 4.6 240 09:46 18.05.2020
3015 Clouds 13 1024 71 10000 4.6 240 09:28 18.05.2020
3016 Clouds 12 1024 76 10000 3.6 250 08:59 18.05.2020
3017 Clouds 12 1024 76 10000 4.6 250 08:40 18.05.2020
3018 Clouds 12 1024 76 10000 4.6 250 08:21 18.05.2020
3019 Clouds 11 1024 76 10000 5.1 250 07:45 18.05.2020
3020 Clouds 11 1023 76 10000 3.6 250 07:24 18.05.2020
3021 Clouds 11 1023 76 10000 3.6 250 06:48 18.05.2020
3022 Clouds 11 1023 76 10000 4.1 250 06:24 18.05.2020
3023 Clouds 11 1023 71 10000 4.6 250 05:45 18.05.2020
3024 Clouds 12 1023 66 10000 3.6 250 03:58 18.05.2020
3025 Clouds 12 1023 62 10000 5.1 250 03:28 18.05.2020
3026 Clouds 13 1023 47 10000 5.1 250 01:57 18.05.2020
3027 Clouds 15 1023 41 10000 4.6 260 00:50 18.05.2020
3028 Clouds 14 1023 41 10000 4.6 270 00:19 18.05.2020
3029 Clouds 15 1023 41 10000 4.6 270 23:56 17.05.2020
3030 Clouds 15 1023 41 10000 4.6 270 23:56 17.05.2020
3031 Clouds 15 1023 39 10000 6.2 260 23:38 17.05.2020
3032 Clouds 15 1023 39 10000 6.2 260 23:19 17.05.2020
3033 Clouds 16 1023 39 10000 6.2 250 22:54 17.05.2020
3034 Clouds 16 1023 39 10000 6.2 250 22:36 17.05.2020
3035 Clouds 17 1022 42 10000 5.7 270 22:18 17.05.2020
3036 Clouds 18 1022 42 10000 4.6 280 21:41 17.05.2020
3037 Clear 18 1022 42 10000 4.6 280 21:20 17.05.2020
3038 Clear 18 1022 39 10000 5.7 290 20:58 17.05.2020
3039 Clear 18 1022 40 10000 4.6 270 20:40 17.05.2020
3040 Clouds 19 1022 40 10000 4.6 270 20:19 17.05.2020
3041 Clouds 20 1022 40 10000 3.6 260 19:47 17.05.2020
3042 Clouds 20 1022 40 10000 3.6 260 19:29 17.05.2020
3043 Clouds 20 1022 40 10000 3.6 250 18:59 17.05.2020
3044 Clouds 20 1022 40 10000 3.6 250 18:59 17.05.2020
3045 Clouds 20 1022 37 10000 4.6 270 18:39 17.05.2020
3046 Clouds 19 1023 32 10000 5.1 240 18:21 17.05.2020
3047 Clouds 19 1023 32 10000 5.1 240 17:55 17.05.2020
3048 Clouds 19 1023 32 10000 4.1 270 17:36 17.05.2020
3049 Clouds 19 1023 32 10000 4.6 250 17:18 17.05.2020
3050 Clouds 19 1023 34 10000 4.6 250 16:39 17.05.2020
3051 Clouds 19 1023 34 10000 4.6 250 16:20 17.05.2020
3052 Clouds 19 1023 32 10000 3.6 240 15:56 17.05.2020
3053 Clouds 19 1023 37 10000 4.6 280 15:37 17.05.2020
3054 Clouds 19 1023 37 10000 4.6 280 15:18 17.05.2020
3055 Clouds 19 1024 42 10000 3.6 270 14:42 17.05.2020
3056 Clouds 18 1024 42 10000 3.6 270 14:24 17.05.2020
3057 Clouds 18 1024 42 10000 3.6 270 14:24 17.05.2020
3058 Clouds 18 1024 39 10000 4.1 240 13:58 17.05.2020
3059 Clouds 18 1024 39 10000 4.6 260 13:39 17.05.2020
3060 Clouds 17 1024 39 10000 3.6 250 13:18 17.05.2020
3061 Clouds 10 1024 66 10000 2.6 220 04:26 17.05.2020
3062 Clouds 12 1024 73 0 1.04 284 02:39 17.05.2020
3063 Clouds 12 1024 70 0 1.43 271 02:19 17.05.2020
3064 Clouds 12 1023 66 10000 1.43 271 01:44 17.05.2020
3065 Clouds 13 1023 58 10000 0.5 330 00:40 17.05.2020
3066 Clouds 13 1023 58 10000 0.5 330 00:20 17.05.2020
3067 Clouds 13 1023 54 10000 0.5 0 23:40 16.05.2020
3068 Clouds 14 1023 54 10000 0.5 0 23:20 16.05.2020
3069 Clouds 14 1023 47 10000 1.5 0 22:58 16.05.2020
3070 Clouds 14 1023 41 10000 2.6 300 22:40 16.05.2020
3071 Clouds 15 1023 41 10000 2.6 300 22:20 16.05.2020
3072 Clouds 15 1023 41 10000 3.6 300 21:54 16.05.2020
3073 Clouds 16 1023 39 10000 4.1 290 21:36 16.05.2020
3074 Clear 16 1023 39 10000 4.1 290 21:18 16.05.2020
3075 Clear 16 1023 39 10000 4.1 300 20:42 16.05.2020
3076 Clouds 16 1023 36 10000 5.1 310 20:22 16.05.2020
3077 Clouds 16 1023 36 10000 5.1 310 19:59 16.05.2020
3078 Clouds 17 1023 36 10000 4.6 280 19:40 16.05.2020
3079 Clouds 17 1023 36 10000 4.6 280 19:22 16.05.2020
3080 Clouds 17 1023 36 10000 4.6 280 19:22 16.05.2020
3081 Clouds 17 1023 36 10000 4.6 300 18:55 16.05.2020
3082 Clouds 17 1023 39 10000 4.6 300 18:36 16.05.2020
3083 Clouds 17 1023 39 10000 4.6 300 18:18 16.05.2020
3084 Clouds 17 1023 36 10000 4.1 290 17:40 16.05.2020
3085 Clouds 16 1023 36 10000 4.1 290 17:20 16.05.2020
3086 Clouds 16 1024 38 10000 4.1 280 16:42 16.05.2020
3087 Clouds 16 1024 38 10000 4.1 280 16:23 16.05.2020
3088 Clouds 16 1024 38 10000 5.1 290 15:59 16.05.2020
3089 Clouds 16 1024 38 10000 4.6 280 15:41 16.05.2020
3090 Clouds 16 1024 38 10000 4.6 280 15:20 16.05.2020
3091 Clouds 16 1024 38 10000 3.1 280 14:56 16.05.2020
3092 Clouds 15 1024 36 10000 3.6 280 14:37 16.05.2020
3093 Clouds 15 1024 36 10000 3.6 280 14:19 16.05.2020
3094 Clouds 15 1024 41 10000 3.1 310 13:42 16.05.2020
3095 Clouds 15 1024 41 10000 3.1 310 13:23 16.05.2020
3096 Clouds 15 1024 44 10000 2.6 290 12:58 16.05.2020
3097 Clouds 15 1025 44 10000 3.1 260 12:39 16.05.2020
3098 Clouds 14 1025 50 10000 3.1 280 12:18 16.05.2020
3099 Clouds 13 1025 54 10000 2.6 300 11:41 16.05.2020
3100 Clouds 13 1025 58 10000 3.6 300 11:23 16.05.2020
3101 Clouds 12 1025 58 10000 3.6 300 10:58 16.05.2020
3102 Clouds 12 1025 58 10000 2.6 300 10:39 16.05.2020
3103 Clouds 12 1025 58 10000 2.6 300 10:20 16.05.2020
3104 Clouds 11 1025 62 10000 2.6 290 09:46 16.05.2020
3105 Clouds 11 1025 62 10000 2.6 290 09:28 16.05.2020
3106 Clouds 10 1024 62 10000 1.5 0 08:55 16.05.2020
3107 Clouds 10 1024 62 10000 2.1 350 08:36 16.05.2020
3108 Clouds 10 1024 62 10000 2.1 350 08:18 16.05.2020
3109 Clouds 10 1024 61 10000 2.1 310 07:42 16.05.2020
3110 Clouds 9 1024 61 10000 2.1 310 07:21 16.05.2020
3111 Clouds 9 1024 61 10000 2.1 300 06:47 16.05.2020
3112 Clouds 9 1025 57 10000 3.1 310 06:20 16.05.2020
3113 Clouds 9 1025 57 10000 3.1 310 05:43 16.05.2020
3114 Clouds 9 1025 57 10000 3.1 310 05:24 16.05.2020
3115 Clouds 9 1024 57 10000 2.1 300 03:33 16.05.2020
3116 Clouds 10 1024 57 10000 1 0 02:49 16.05.2020
3117 Clouds 10 1025 58 10000 2.1 350 02:20 16.05.2020
3118 Clouds 11 1025 50 10000 2.6 340 01:43 16.05.2020
3119 Clouds 11 1025 54 10000 3.1 350 00:59 16.05.2020
3120 Clouds 12 1025 50 10000 1 0 00:41 16.05.2020
3121 Clouds 12 1025 50 10000 1 0 00:20 16.05.2020
3122 Clouds 13 1024 50 10000 1.5 0 23:40 15.05.2020
3123 Clouds 13 1024 50 10000 1.5 0 23:20 15.05.2020
3124 Clouds 13 1024 51 10000 2.6 330 22:56 15.05.2020
3125 Clouds 14 1023 51 10000 3.6 340 22:38 15.05.2020
3126 Clouds 14 1024 44 0 2.94 319 22:18 15.05.2020
3127 Clouds 15 1024 43 0 2.94 319 21:39 15.05.2020
3128 Clouds 16 1024 41 0 3.37 318 21:21 15.05.2020
3129 Clouds 17 1023 42 10000 4.1 300 20:58 15.05.2020
3130 Clouds 17 1024 39 0 2.61 315 20:40 15.05.2020
3131 Clouds 18 1023 36 10000 4.1 290 20:22 15.05.2020
3132 Clouds 18 1023 36 10000 4.1 290 20:22 15.05.2020
3133 Clouds 18 1023 36 10000 3.1 310 19:55 15.05.2020
3134 Clouds 18 1023 36 10000 3.1 340 19:37 15.05.2020
3135 Clouds 18 1023 36 10000 3.1 340 19:18 15.05.2020
3136 Clouds 18 1023 34 10000 3.6 50 18:42 15.05.2020
3137 Clouds 17 1023 34 10000 3.6 50 18:23 15.05.2020
3138 Clouds 18 1023 34 10000 2.6 0 17:39 15.05.2020
3139 Clouds 18 1023 34 10000 2.6 0 17:19 15.05.2020
3140 Clouds 17 1023 34 10000 1.5 0 16:57 15.05.2020
3141 Clouds 17 1024 36 10000 4.1 300 16:38 15.05.2020
3142 Clouds 17 1024 36 10000 4.1 300 16:19 15.05.2020
3143 Clouds 17 1024 34 10000 2.1 280 15:54 15.05.2020
3144 Clouds 17 1024 33 10000 2.1 130 15:36 15.05.2020
3145 Clouds 18 1024 31 10000 1.5 0 15:18 15.05.2020
3146 Clouds 18 1024 31 10000 1.5 0 15:18 15.05.2020
3147 Clouds 17 1024 33 10000 2.1 0 14:41 15.05.2020
3148 Clear 17 1024 33 10000 2.1 0 14:23 15.05.2020
3149 Clear 17 1024 33 10000 2.6 210 13:58 15.05.2020
3150 Clear 17 1024 36 10000 3.6 170 13:39 15.05.2020
3151 Clear 16 1024 34 10000 1.5 0 13:19 15.05.2020
3152 Clear 15 1024 34 10000 2.6 110 12:39 15.05.2020
3153 Clear 15 1024 37 10000 2.6 110 12:18 15.05.2020
3154 Clear 15 1025 37 10000 2.6 120 11:57 15.05.2020
3155 Clear 14 1025 35 10000 2.6 100 11:38 15.05.2020
3156 Clear 14 1025 35 10000 2.6 100 11:20 15.05.2020
3157 Clear 13 1024 42 10000 1.5 0 10:58 15.05.2020
3158 Clear 13 1024 42 10000 0.5 0 10:39 15.05.2020
3159 Clear 12 1024 50 10000 1 0 10:20 15.05.2020
3160 Clear 11 1024 50 10000 1 0 09:58 15.05.2020
3161 Clear 9 1024 61 10000 1.5 0 09:37 15.05.2020
3162 Clear 9 1024 66 10000 1.5 0 09:18 15.05.2020
3163 Clear 9 1024 66 10000 1.5 0 08:54 15.05.2020
3164 Clear 8 1024 70 10000 0.5 0 08:36 15.05.2020
3165 Clear 8 1023 75 10000 0.5 340 08:18 15.05.2020
3166 Clear 7 1023 81 10000 1 340 07:42 15.05.2020
3167 Clear 7 1023 81 10000 1 340 07:23 15.05.2020
3168 Clear 6 1023 81 10000 1 0 06:35 15.05.2020
3169 Clear 6 1023 81 10000 1.5 340 05:38 15.05.2020
3170 Clear 6 1023 81 10000 1.5 340 03:52 15.05.2020
3171 Clear 5 1023 81 10000 1.5 340 03:31 15.05.2020
3172 Clouds 7 1023 70 10000 1.5 0 01:37 15.05.2020
3173 Clouds 7 1023 70 10000 1.5 0 01:19 15.05.2020
3174 Clouds 7 1023 70 10000 2.6 90 00:44 15.05.2020
3175 Clouds 7 1023 70 10000 2.6 90 00:23 15.05.2020
3176 Clouds 8 1023 65 10000 3.6 90 23:43 14.05.2020
3177 Clouds 8 1023 61 10000 5.1 90 23:20 14.05.2020
3178 Clouds 9 1023 61 10000 5.1 90 22:55 14.05.2020
3179 Clouds 9 1023 61 10000 5.7 80 22:37 14.05.2020
3180 Clouds 9 1023 61 10000 5.7 80 22:19 14.05.2020
3181 Clouds 10 1022 57 10000 5.7 100 21:55 14.05.2020
3182 Clouds 10 1022 53 10000 6.2 100 21:37 14.05.2020
3183 Clouds 11 1022 53 10000 6.2 100 21:18 14.05.2020
3184 Clouds 12 1021 50 10000 5.7 110 20:42 14.05.2020
3185 Clouds 12 1021 37 10000 5.1 60 20:20 14.05.2020
3186 Clouds 12 1021 37 10000 5.1 60 20:20 14.05.2020
3187 Clouds 12 1021 37 10000 5.1 60 19:59 14.05.2020
3188 Clouds 13 1021 46 10000 6.2 60 19:39 14.05.2020
3189 Clouds 13 1021 44 10000 6.2 60 19:20 14.05.2020
3190 Clouds 14 1021 37 10000 4.1 30 18:58 14.05.2020
3191 Clouds 13 1021 37 10000 3.1 30 18:38 14.05.2020
3192 Clouds 13 1022 45 10000 5.1 70 18:20 14.05.2020
3193 Clouds 13 1022 45 10000 5.1 70 17:58 14.05.2020
3194 Clouds 13 1022 37 10000 5.7 60 17:37 14.05.2020
3195 Clouds 14 1022 37 10000 5.7 60 17:19 14.05.2020
3196 Clouds 13 1022 39 10000 5.7 60 16:57 14.05.2020
3197 Clouds 13 1022 39 10000 4.1 40 16:38 14.05.2020
3198 Clouds 13 1022 40 10000 4.1 40 16:19 14.05.2020
3199 Clouds 13 1023 40 10000 4.6 10 15:56 14.05.2020
3200 Clouds 13 1023 37 10000 4.6 50 15:37 14.05.2020
3201 Clouds 12 1023 43 10000 3.6 40 15:18 14.05.2020
3202 Clouds 12 1023 43 10000 3.6 0 14:40 14.05.2020
3203 Clouds 12 1023 44 10000 3.6 0 14:21 14.05.2020
3204 Clouds 12 1023 44 10000 4.1 0 13:59 14.05.2020
3205 Clouds 12 1023 44 10000 4.1 0 13:59 14.05.2020
3206 Clouds 11 1023 44 10000 4.1 0 13:59 14.05.2020
3207 Clouds 11 1023 44 10000 3.1 0 13:41 14.05.2020
3208 Clouds 12 1023 45 10000 3.1 0 13:20 14.05.2020
3209 Clouds 11 1024 45 10000 3.1 0 12:59 14.05.2020
3210 Clouds 11 1024 45 10000 5.1 60 12:39 14.05.2020
3211 Clouds 11 1024 46 10000 5.1 60 12:20 14.05.2020
3212 Clouds 11 1023 46 10000 4.6 60 11:59 14.05.2020
3213 Clouds 11 1023 46 10000 4.6 60 11:59 14.05.2020
3214 Clouds 11 1023 53 10000 5.7 70 11:40 14.05.2020
3215 Clouds 10 1023 53 10000 5.7 70 11:21 14.05.2020
3216 Clouds 10 1023 57 10000 4.6 50 10:56 14.05.2020
3217 Clear 9 1023 61 10000 4.6 0 10:38 14.05.2020
3218 Clear 9 1023 61 10000 4.6 0 10:20 14.05.2020
3219 Clear 9 1024 56 0 4.66 39 09:42 14.05.2020
3220 Clear 8 1023 70 10000 4.1 50 09:23 14.05.2020
3221 Clear 7 1023 70 10000 2.6 0 08:43 14.05.2020
3222 Clear 6 1023 70 10000 2.6 0 08:21 14.05.2020
3223 Clear 5 1023 75 10000 2.6 30 07:47 14.05.2020
3224 Clear 4 1022 75 10000 2.6 0 07:25 14.05.2020
3225 Clear 4 1022 75 10000 2.1 10 06:56 14.05.2020
3226 Clear 4 1022 75 10000 2.1 20 06:34 14.05.2020
3227 Clear 4 1022 75 10000 2.1 20 05:59 14.05.2020
3228 Clear 4 1022 75 10000 2.1 10 05:37 14.05.2020
3229 Clear 4 1022 71 10000 1.5 0 04:42 14.05.2020
3230 Clear 4 1022 69 10000 2.6 10 03:32 14.05.2020
3231 Clear 5 1021 66 10000 1.5 0 02:43 14.05.2020
3232 Clouds 5 1021 63 10000 1.5 0 02:20 14.05.2020
3233 Clouds 5 1021 63 10000 2.1 0 01:47 14.05.2020
3234 Clouds 6 1021 56 10000 3.1 0 00:51 14.05.2020
3235 Clouds 6 1021 56 10000 2.6 60 00:27 14.05.2020
3236 Clouds 7 1021 52 10000 2.6 0 23:45 13.05.2020
3237 Clouds 7 1020 52 10000 3.6 60 23:23 13.05.2020
3238 Clouds 8 1020 49 10000 4.6 60 22:59 13.05.2020
3239 Clouds 8 1019 49 10000 4.1 60 22:40 13.05.2020
3240 Clouds 8 1019 49 10000 4.1 60 22:21 13.05.2020
3241 Clouds 8 1019 49 10000 4.1 60 22:21 13.05.2020
3242 Clouds 8 1019 49 10000 5.1 60 21:57 13.05.2020
3243 Clouds 9 1019 46 10000 7.2 60 21:39 13.05.2020
3244 Clouds 9 1019 46 10000 7.2 60 21:19 13.05.2020
3245 Clouds 10 1018 40 10000 4.6 60 20:42 13.05.2020
3246 Clouds 10 1018 40 10000 4.6 60 20:23 13.05.2020
3247 Clouds 11 1018 40 10000 5.7 60 19:59 13.05.2020
3248 Clouds 11 1017 37 10000 4.1 50 19:40 13.05.2020
3249 Clouds 11 1017 40 10000 5.1 60 19:22 13.05.2020
3250 Clouds 11 1017 40 10000 5.7 60 18:43 13.05.2020
3251 -273 0 0 0 0 0 18:22 13.05.2020
3252 -273 0 0 0 0 0 18:21 13.05.2020
3253 Clouds 11 1017 40 10000 5.7 60 18:21 13.05.2020
3254 Clouds 11 1017 40 10000 5.7 60 18:21 13.05.2020
3255 Clouds 11 1017 40 10000 4.6 60 17:39 13.05.2020
3256 Clouds 12 1017 40 10000 4.6 60 17:20 13.05.2020
3257 Clouds 12 1017 34 10000 5.1 30 16:56 13.05.2020
3258 Clouds 12 1017 34 10000 4.6 0 16:38 13.05.2020
3259 Clouds 12 1017 34 10000 4.6 0 16:18 13.05.2020
3260 Clouds 11 1017 40 10000 5.1 0 15:42 13.05.2020
3261 Clouds 11 1017 40 10000 5.1 0 15:42 13.05.2020
3262 Clouds 11 1017 40 10000 5.1 0 15:20 13.05.2020
3263 Clouds 11 1017 43 10000 5.1 10 14:57 13.05.2020
3264 Clouds 12 1017 40 10000 5.7 60 14:39 13.05.2020
3265 Clouds 11 1017 40 10000 5.7 60 14:21 13.05.2020
3266 Clouds 11 1017 43 0 5.1 60 13:57 13.05.2020
3267 Clouds 11 1017 44 0 5.7 60 13:39 13.05.2020
3268 Clouds 11 1017 44 0 5.7 60 13:20 13.05.2020
3269 Clouds 11 1017 50 0 6.2 60 12:54 13.05.2020
3270 Clouds 11 1017 53 0 3.6 0 12:36 13.05.2020
3271 Clouds 10 1017 57 0 5.1 60 12:18 13.05.2020
3272 Clouds 11 1017 57 0 5.1 60 11:54 13.05.2020
3273 Clouds 11 1017 57 0 2.6 0 11:36 13.05.2020
3274 Clouds 10 1017 61 10000 3.6 40 11:18 13.05.2020
3275 Clouds 10 1017 61 10000 3.6 40 10:54 13.05.2020
3276 Clouds 9 1017 61 10000 5.1 60 10:36 13.05.2020
3277 Clouds 10 1017 61 10000 5.1 60 10:18 13.05.2020
3278 Clouds 9 1017 66 10000 3.6 30 09:41 13.05.2020
3279 Clouds 8 1017 66 10000 3.6 30 09:22 13.05.2020
3280 Clouds 8 1017 75 10000 4.1 0 08:43 13.05.2020
3281 Clouds 8 1017 75 10000 4.1 0 08:22 13.05.2020
3282 Clouds 7 1016 75 10000 3.1 20 07:59 13.05.2020
3283 Clouds 7 1016 81 10000 1 0 07:39 13.05.2020
3284 Clouds 7 1016 81 10000 1 0 07:21 13.05.2020
3285 Clouds 7 1016 70 10000 2.6 350 06:43 13.05.2020
3286 Clear 7 1016 61 0 3.75 15 05:54 13.05.2020
3287 Clouds 8 1016 61 10000 2.1 300 04:48 13.05.2020
3288 Clear 10 1016 53 10000 2.1 330 03:26 13.05.2020
3289 Clouds 10 1016 53 10000 1.5 0 02:27 13.05.2020
3290 Clouds 10 1016 53 10000 1.5 0 01:28 13.05.2020
3291 Clouds 11 1016 53 10000 1.5 0 00:47 13.05.2020
3292 Clouds 11 1017 50 10000 2.1 360 00:20 13.05.2020
3293 Clouds 11 1017 50 10000 2.6 360 23:40 12.05.2020
3294 Clouds 11 1017 50 10000 2.6 360 23:40 12.05.2020
3295 Clouds 11 1017 50 10000 2.6 360 23:21 12.05.2020
3296 Clouds 11 1017 50 10000 2.6 10 22:58 12.05.2020
3297 Clouds 11 1016 50 10000 2.6 350 22:39 12.05.2020
3298 Clouds 11 1016 50 10000 2.6 350 22:20 12.05.2020
3299 Clouds 12 1016 47 10000 2.6 360 21:55 12.05.2020
3300 Clouds 12 1016 43 10000 4.1 360 21:37 12.05.2020
3301 Clear 12 1016 43 10000 4.1 360 21:18 12.05.2020
3302 Clear 13 1016 35 10000 3.6 340 20:57 12.05.2020
3303 Clear 13 1016 35 10000 3.6 300 20:38 12.05.2020
3304 Clouds 13 1016 35 10000 3.6 300 20:20 12.05.2020
3305 Clouds 13 1017 35 10000 3.1 310 19:56 12.05.2020
3306 Clouds 14 1017 35 10000 4.1 300 19:37 12.05.2020
3307 Clouds 14 1017 33 10000 2.1 0 19:19 12.05.2020
3308 Clouds 15 1018 35 10000 4.6 290 18:42 12.05.2020
3309 Clouds 15 1018 35 10000 4.6 290 18:24 12.05.2020
3310 Clouds 15 1018 30 10000 3.1 270 17:58 12.05.2020
3311 Clouds 15 1018 30 10000 3.1 270 17:39 12.05.2020
3312 Clouds 15 1018 30 10000 3.1 270 17:21 12.05.2020
3313 Clouds 14 1019 33 10000 3.1 270 16:43 12.05.2020
3314 Clouds 14 1019 33 10000 3.1 270 16:23 12.05.2020
3315 Clouds 14 1019 33 10000 2.1 0 15:56 12.05.2020
3316 Clouds 14 1019 35 10000 2.6 80 15:37 12.05.2020
3317 Haze 14 1020 33 2000 1.5 0 15:18 12.05.2020
3318 Haze 14 1020 33 2000 1.5 0 14:55 12.05.2020
3319 Fog 14 1020 33 750 2.1 170 14:36 12.05.2020
3320 Fog 14 1020 33 750 2.1 170 14:18 12.05.2020
3321 Clear 13 1020 37 10000 3.1 0 13:56 12.05.2020
3322 Clear 14 1021 35 10000 2.1 0 13:37 12.05.2020
3323 Clear 13 1021 35 10000 2.1 0 13:18 12.05.2020
3324 Clear 13 1021 37 10000 1.5 0 12:57 12.05.2020
3325 Clear 13 1022 37 10000 2.1 0 12:38 12.05.2020
3326 Clear 12 1022 37 10000 2.1 0 12:38 12.05.2020
3327 Clear 12 1022 37 10000 2.1 0 12:20 12.05.2020
3328 Clear 12 1022 40 10000 2.1 260 11:57 12.05.2020
3329 Clear 11 1022 43 10000 1.5 0 11:37 12.05.2020
3330 Clear 11 1022 43 10000 1.5 0 11:19 12.05.2020
3331 Clear 10 1023 45 10000 2.6 300 10:56 12.05.2020
3332 Clear 10 1023 52 10000 2.6 350 10:37 12.05.2020
3333 Clear 9 1023 52 10000 2.6 350 10:18 12.05.2020
3334 Clear 9 1023 52 10000 3.1 10 09:57 12.05.2020
3335 Clear 8 1023 70 10000 2.6 350 09:38 12.05.2020
3336 Clear 7 1023 70 10000 2.6 350 09:19 12.05.2020
3337 Clear 6 1023 75 10000 1.5 0 08:41 12.05.2020
3338 Clear 6 1023 75 10000 1.5 0 08:21 12.05.2020
3339 Clear 4 1023 75 10000 1.5 0 07:55 12.05.2020
3340 Clear 4 1023 80 10000 1.5 0 07:37 12.05.2020
3341 Clear 4 1023 80 10000 1.5 340 07:18 12.05.2020
3342 Clear 3 1023 80 10000 1.5 0 06:37 12.05.2020
3343 Clear 4 1023 80 10000 1.5 0 06:19 12.05.2020
3344 Clear 3 1024 75 10000 2.1 300 05:45 12.05.2020
3345 Clear 4 1024 75 10000 1.5 0 03:55 12.05.2020
3346 Clear 5 1024 65 10000 1.5 350 03:19 12.05.2020
3347 Clouds 5 1024 64 10000 2.1 360 02:27 12.05.2020
3348 Clear 6 1024 64 10000 2.1 340 01:40 12.05.2020
3349 Clear 6 1024 65 10000 2.1 10 00:58 12.05.2020
3350 Clear 6 1024 65 10000 2.1 10 00:24 12.05.2020
3351 Clear 7 1024 61 10000 2.6 50 23:57 11.05.2020
3352 Clear 7 1023 61 10000 4.6 60 23:37 11.05.2020
3353 Clear 7 1023 59 10000 3.1 0 23:19 11.05.2020
3354 Clear 7 1023 50 0 5.18 29 22:56 11.05.2020
3355 Clear 7 1023 50 0 5.18 29 22:56 11.05.2020
3356 Clear 8 1023 49 10000 4.1 60 22:38 11.05.2020
3357 Clear 8 1023 49 10000 4.1 60 22:19 11.05.2020
3358 Clear 8 1022 56 10000 4.6 60 21:55 11.05.2020
3359 Clouds 9 1022 56 10000 5.7 50 21:36 11.05.2020
3360 Clouds 9 1022 56 10000 5.7 50 21:36 11.05.2020
3361 Clear 9 1022 46 10000 4.6 50 21:18 11.05.2020
3362 Clear 9 1022 46 10000 4.6 50 20:54 11.05.2020
3363 Clouds 10 1022 52 10000 5.1 50 20:36 11.05.2020
3364 Clouds 10 1022 48 10000 5.1 50 20:18 11.05.2020
3365 Clouds 10 1021 40 10000 5.7 50 19:41 11.05.2020
3366 Clouds 11 1021 40 10000 5.7 50 19:22 11.05.2020
3367 Clouds 11 1021 40 10000 6.2 40 18:57 11.05.2020
3368 Clouds 11 1021 34 10000 6.2 0 18:39 11.05.2020
3369 Clouds 12 1021 34 10000 6.2 0 18:20 11.05.2020
3370 Clouds 12 1020 34 10000 6.7 0 17:57 11.05.2020
3371 Clouds 12 1020 34 10000 6.7 60 17:39 11.05.2020
3372 Clouds 12 1020 34 10000 6.7 60 17:21 11.05.2020
3373 Clouds 12 1020 43 10000 6.2 0 16:56 11.05.2020
3374 Clouds 11 1020 37 10000 6.7 50 16:37 11.05.2020
3375 Clouds 12 1020 37 10000 6.7 50 16:19 11.05.2020
3376 Clouds 12 1019 43 10000 7.7 60 15:42 11.05.2020
3377 Clouds 12 1019 43 10000 7.7 60 15:20 11.05.2020
3378 Clouds 12 1019 43 10000 6.7 50 14:59 11.05.2020
3379 Clear 11 1019 40 10000 6.7 40 14:41 11.05.2020
3380 Clear 11 1019 40 10000 6.7 40 14:22 11.05.2020
3381 Clear 11 1019 37 10000 7.2 50 13:55 11.05.2020
3382 Clear 11 1019 37 10000 7.2 50 13:55 11.05.2020
3383 Clear 11 1019 40 10000 6.7 60 13:37 11.05.2020
3384 Clear 11 1019 40 10000 6.7 60 13:18 11.05.2020
3385 Clouds 11 1019 40 10000 7.2 50 12:55 11.05.2020
3386 Clouds 10 1019 46 10000 10.3 60 12:37 11.05.2020
3387 Clouds 10 1019 46 10000 10.3 60 12:19 11.05.2020
3388 Clouds 9 1019 45 10000 6.7 50 11:41 11.05.2020
3389 Clouds 9 1019 45 10000 6.7 50 11:22 11.05.2020
3390 Clouds 9 1018 52 10000 7.2 0 10:58 11.05.2020
3391 Clouds 9 1018 52 10000 7.7 50 10:40 11.05.2020
3392 Clouds 8 1018 52 10000 7.7 50 10:21 11.05.2020
3393 Clouds 8 1018 53 10000 6.7 50 09:58 11.05.2020
3394 Clear 8 1018 56 10000 6.7 60 09:39 11.05.2020
3395 Clear 7 1018 56 10000 6.7 60 09:19 11.05.2020
3396 Clear 7 1018 56 10000 6.2 60 08:56 11.05.2020
3397 Clear 7 1018 60 10000 4.6 60 08:37 11.05.2020
3398 Clear 7 1018 60 10000 4.6 60 08:18 11.05.2020
3399 Clouds 6 1017 60 10000 3.1 0 07:42 11.05.2020
3400 Clouds 5 1017 60 10000 3.1 0 07:23 11.05.2020
3401 Clear 5 1017 56 10000 3.6 0 06:43 11.05.2020
3402 Clouds 5 1017 60 10000 3.6 60 05:58 11.05.2020
3403 Clear 5 1017 56 10000 5.1 60 05:25 11.05.2020
3404 Clouds 5 1017 60 10000 3.6 0 04:31 11.05.2020
3405 Clear 6 1017 53 0 8.28 40 03:29 11.05.2020
3406 Clouds 6 1017 56 10000 4.6 60 02:29 11.05.2020
3407 Clouds 6 1017 56 10000 4.6 50 01:40 11.05.2020
3408 Clouds 7 1017 52 10000 6.2 60 00:53 11.05.2020
3409 Clouds 7 1017 52 10000 6.2 60 00:20 11.05.2020
3410 Clouds 8 1016 57 10000 5.1 60 23:44 10.05.2020
3411 Clouds 8 1016 57 10000 5.1 60 23:24 10.05.2020
3412 Clouds 8 1016 57 10000 6.7 60 22:57 10.05.2020
3413 Clouds 8 1016 57 10000 8.7 60 22:38 10.05.2020
3414 Clouds 8 1016 57 10000 8.7 60 22:20 10.05.2020
3415 Clouds 9 1015 57 10000 7.7 60 21:44 10.05.2020
3416 Clouds 9 1015 57 10000 7.7 60 21:20 10.05.2020
3417 Clouds 9 1015 61 10000 8.7 60 20:55 10.05.2020
3418 Clouds 9 1015 61 10000 8.7 60 20:55 10.05.2020
3419 Clouds 9 1015 61 10000 7.7 60 20:37 10.05.2020
3420 Clouds 9 1015 61 10000 7.7 60 20:19 10.05.2020
3421 Clouds 9 1014 61 10000 8.2 60 19:41 10.05.2020
3422 Clouds 9 1014 61 10000 8.2 60 19:22 10.05.2020
3423 Clouds 9 1014 71 10000 7.7 60 18:57 10.05.2020
3424 Clouds 9 1013 71 10000 6.2 50 18:38 10.05.2020
3425 Clouds 10 1013 71 10000 6.2 50 18:19 10.05.2020
3426 Clouds 11 1013 71 10000 9.3 60 17:59 10.05.2020
3427 Clouds 11 1013 76 10000 7.2 50 17:40 10.05.2020
3428 Clouds 11 1013 76 10000 7.2 50 17:22 10.05.2020
3429 Clouds 11 1012 76 10000 5.7 40 16:59 10.05.2020
3430 Clouds 12 1011 76 10000 5.7 0 16:40 10.05.2020
3431 Clouds 12 1011 76 10000 5.7 0 16:19 10.05.2020
3432 Clouds 12 1011 76 10000 5.7 0 16:19 10.05.2020
3433 Clouds 13 1011 76 10000 5.7 10 15:55 10.05.2020
3434 Rain 13 1011 81 0 0.45 48 15:36 10.05.2020
3435 Clouds 14 1010 67 10000 6.7 360 15:36 10.05.2020
3436 Clouds 15 1010 67 10000 6.7 360 15:18 10.05.2020
3437 Clouds 17 1009 63 10000 5.1 350 14:39 10.05.2020
3438 Clouds 18 1009 63 10000 5.1 350 14:20 10.05.2020
3439 Clouds 18 1009 63 10000 5.1 350 14:20 10.05.2020
3440 Clouds 18 1009 63 10000 5.1 30 13:59 10.05.2020
3441 Clouds 18 1009 63 10000 5.1 30 13:59 10.05.2020
3442 Clouds 18 1009 63 10000 5.1 30 13:59 10.05.2020
3443 Clouds 18 1008 63 10000 4.1 40 13:39 10.05.2020
3444 Clouds 19 1008 63 10000 4.1 40 13:21 10.05.2020
3445 Clouds 18 1008 59 10000 5.1 20 12:58 10.05.2020
3446 Clouds 18 1008 55 10000 5.1 20 12:40 10.05.2020
3447 Clouds 18 1008 55 10000 5.1 20 12:21 10.05.2020
3448 Clouds 18 1008 55 10000 4.6 10 11:58 10.05.2020
3449 Clouds 18 1008 55 10000 4.6 10 11:58 10.05.2020
3450 Clouds 18 1008 52 10000 4.1 10 11:39 10.05.2020
3451 Clouds 18 1008 52 10000 4.1 10 11:20 10.05.2020
3452 Clouds 18 1007 59 10000 2.1 0 10:48 10.05.2020
3453 Clouds 17 1007 59 10000 2.1 0 10:29 10.05.2020
3454 Clouds 17 1007 63 10000 2.1 60 09:59 10.05.2020
3455 Clouds 16 1007 67 10000 1.5 0 09:41 10.05.2020
3456 Clouds 15 1007 67 10000 1.5 0 09:22 10.05.2020
3457 Clouds 14 1007 67 10000 1.5 0 08:53 10.05.2020
3458 Clouds 13 1007 76 10000 1.5 340 08:24 10.05.2020
3459 Clouds 12 1007 71 10000 2.1 360 07:59 10.05.2020
3460 Clouds 12 1006 76 10000 0.5 0 07:38 10.05.2020
3461 Clouds 12 1006 76 10000 1 350 07:19 10.05.2020
3462 Clouds 12 1006 76 10000 1 350 06:50 10.05.2020
3463 Clouds 13 1007 71 10000 1 0 06:23 10.05.2020
3464 Clouds 13 1007 66 10000 1.5 0 05:44 10.05.2020
3465 Clouds 13 1007 62 10000 1.5 0 04:42 10.05.2020
3466 Clouds 13 1007 62 10000 1.5 0 04:23 10.05.2020
3467 Clouds 13 1008 62 10000 1.5 10 03:43 10.05.2020
3468 Clouds 14 1008 58 10000 1.5 0 02:55 10.05.2020
3469 Clouds 14 1008 62 10000 2.6 60 02:24 10.05.2020
3470 Clouds 15 1009 62 10000 2.6 60 01:57 10.05.2020
3471 Clouds 15 1009 59 10000 3.1 70 01:39 10.05.2020
3472 Clouds 15 1009 59 10000 2.6 80 01:18 10.05.2020
3473 Clouds 15 1009 59 10000 3.1 80 00:42 10.05.2020
3474 Clouds 15 1009 59 10000 3.1 80 00:20 10.05.2020
3475 Clouds 16 1010 55 10000 3.1 80 23:40 09.05.2020
3476 Clouds 16 1010 55 10000 3.1 80 23:21 09.05.2020
3477 Clouds 17 1010 48 10000 3.1 80 22:57 09.05.2020
3478 Clouds 17 1009 48 10000 3.6 90 22:39 09.05.2020
3479 Clouds 18 1009 48 10000 3.6 90 22:21 09.05.2020
3480 Clouds 18 1009 42 10000 4.1 90 21:56 09.05.2020
3481 Clouds 19 1010 40 10000 4.6 80 21:37 09.05.2020
3482 Clouds 20 1010 40 10000 4.6 80 21:19 09.05.2020
3483 Clouds 20 1010 37 10000 4.6 80 20:56 09.05.2020
3484 Clouds 20 1010 37 10000 5.1 90 20:37 09.05.2020
3485 Clouds 20 1010 37 10000 5.1 90 20:18 09.05.2020
3486 Clouds 21 1010 32 10000 5.7 110 19:40 09.05.2020
3487 Clouds 21 1010 32 10000 5.7 110 19:20 09.05.2020
3488 Clouds 21 1010 30 10000 6.7 90 18:58 09.05.2020
3489 Clouds 22 1011 30 10000 6.2 100 18:40 09.05.2020
3490 Clouds 22 1011 30 10000 6.2 100 18:21 09.05.2020
3491 Clouds 23 1011 33 10000 6.7 100 17:44 09.05.2020
3492 Clouds 23 1011 33 10000 6.7 100 17:23 09.05.2020
3493 Clouds 23 1012 33 10000 5.7 100 16:55 09.05.2020
3494 Clouds 23 1012 33 10000 6.2 100 16:37 09.05.2020
3495 Clouds 23 1012 33 10000 6.2 100 16:18 09.05.2020
3496 Clouds 23 1012 31 10000 6.2 110 15:41 09.05.2020
3497 Clouds 23 1012 31 10000 6.2 110 15:22 09.05.2020
3498 Clouds 23 1012 33 10000 6.2 90 14:54 09.05.2020
3499 Clear 23 1013 35 10000 5.1 100 14:36 09.05.2020
3500 Clear 23 1013 37 10000 5.1 90 14:18 09.05.2020
3501 Clear 23 1013 37 10000 5.1 90 13:41 09.05.2020
3502 Clear 22 1013 37 10000 5.1 90 13:22 09.05.2020
3503 Clear 22 1013 43 10000 4.6 80 12:58 09.05.2020
3504 Clear 22 1013 43 10000 4.6 90 12:39 09.05.2020
3505 Clear 21 1013 43 10000 4.6 90 12:21 09.05.2020
3506 Clear 21 1014 48 10000 2.6 100 11:45 09.05.2020
3507 Clear 20 1014 48 10000 2.6 100 11:20 09.05.2020
3508 Clear 20 1014 52 10000 2.1 90 10:54 09.05.2020
3509 Clear 19 1014 51 10000 2.1 90 10:36 09.05.2020
3510 Clear 18 1014 59 10000 1.5 130 10:18 09.05.2020
3511 Clouds 16 1014 62 9000 1.5 0 09:43 09.05.2020
3512 Clouds 15 1014 62 9000 1.5 0 09:20 09.05.2020
3513 Clouds 15 1014 67 10000 1.5 80 08:55 09.05.2020
3514 Clouds 14 1014 76 8000 2.1 100 08:36 09.05.2020
3515 Clouds 12 1014 81 8000 1 70 07:56 09.05.2020
3516 Clouds 13 1014 76 8000 2.1 60 07:38 09.05.2020
3517 Clouds 13 1014 76 8000 2.1 60 07:20 09.05.2020
3518 Clouds 13 1015 82 7000 1 90 06:40 09.05.2020
3519 Clouds 13 1015 82 7000 1 90 06:18 09.05.2020
3520 Clouds 13 1015 82 10000 1.5 0 05:39 09.05.2020
3521 Clouds 13 1015 76 10000 2.6 70 03:40 09.05.2020
3522 Clouds 14 1015 67 10000 1.5 70 02:54 09.05.2020
3523 Clouds 14 1016 72 10000 2.6 90 02:30 09.05.2020
3524 Clouds 14 1016 71 10000 2.1 90 01:50 09.05.2020
3525 Clouds 15 1016 67 10000 2.1 80 01:22 09.05.2020
3526 Clouds 16 1016 63 10000 2.1 70 00:43 09.05.2020
3527 Clouds 16 1016 63 10000 2.1 70 00:20 09.05.2020
3528 Clouds 17 1016 59 10000 2.1 80 23:45 08.05.2020
3529 Clouds 17 1016 55 10000 2.6 70 23:27 08.05.2020
3530 Clouds 17 1016 55 10000 3.1 90 22:56 08.05.2020
3531 Clouds 18 1015 52 10000 4.1 90 22:38 08.05.2020
3532 Clouds 19 1015 52 10000 4.1 90 22:19 08.05.2020
3533 Clouds 19 1015 42 10000 4.6 100 21:56 08.05.2020
3534 Clouds 20 1015 45 10000 4.6 100 21:38 08.05.2020
3535 Clouds 20 1015 45 10000 4.6 100 21:18 08.05.2020
3536 Clouds 21 1015 46 10000 5.1 90 20:56 08.05.2020
3537 Clouds 22 1015 40 10000 5.1 110 20:38 08.05.2020
3538 Clouds 22 1015 40 10000 5.1 110 20:19 08.05.2020
3539 Clouds 23 1015 38 10000 3.6 90 19:42 08.05.2020
3540 Clouds 23 1015 35 10000 3.1 100 19:22 08.05.2020
3541 Clouds 23 1015 35 10000 3.1 100 18:50 08.05.2020
3542 Clouds 24 1016 35 10000 2.1 0 18:31 08.05.2020
3543 Clouds 24 1016 35 10000 2.6 0 17:55 08.05.2020
3544 Clouds 24 1016 36 10000 1.5 0 17:37 08.05.2020
3545 Clouds 24 1016 36 10000 1.5 0 17:18 08.05.2020
3546 Clouds 23 1017 38 10000 2.6 100 16:42 08.05.2020
3547 Clouds 23 1017 38 10000 2.6 100 16:24 08.05.2020
3548 Clouds 23 1017 35 10000 1.5 0 15:55 08.05.2020
3549 Clouds 23 1017 38 10000 3.1 110 15:37 08.05.2020
3550 Clouds 23 1018 40 10000 3.6 150 15:18 08.05.2020
3551 Clouds 22 1018 43 10000 3.1 120 14:41 08.05.2020
3552 Clouds 23 1018 43 10000 3.1 120 14:20 08.05.2020
3553 Clouds 22 1018 40 10000 2.6 0 13:58 08.05.2020
3554 Clouds 22 1018 46 10000 1 0 13:39 08.05.2020
3555 Clouds 21 1018 46 10000 1 0 13:19 08.05.2020
3556 Clouds 22 1018 45 10000 1.5 0 12:45 08.05.2020
3557 Clouds 20 1018 45 10000 1.5 0 12:25 08.05.2020
3558 Clouds 20 1018 52 10000 1 0 11:57 08.05.2020
3559 Clouds 19 1019 48 10000 1.6 179 11:39 08.05.2020
3560 Clouds 19 1019 48 10000 1.16 179 11:20 08.05.2020
3561 Clouds 19 1019 45 10000 0.5 0 10:57 08.05.2020
3562 Clouds 18 1019 48 10000 1 0 10:39 08.05.2020
3563 Clouds 18 1019 48 10000 0.5 0 10:18 08.05.2020
3564 Clouds 16 1019 54 10000 1 0 09:41 08.05.2020
3565 Clouds 15 1019 54 10000 1 0 09:19 08.05.2020
3566 Clouds 14 1019 54 10000 1.5 0 08:58 08.05.2020
3567 Clouds 13 1019 58 10000 2.1 230 08:39 08.05.2020
3568 Clouds 13 1019 58 10000 2.1 230 08:20 08.05.2020
3569 Clouds 12 1019 62 10000 1.5 230 07:40 08.05.2020
3570 Clouds 13 1019 62 10000 1.5 230 07:20 08.05.2020
3571 Clouds 13 1019 58 10000 1.5 0 06:49 08.05.2020
3572 Clouds 13 1019 58 10000 1.5 0 06:20 08.05.2020
3573 Rain 13 1019 50 2500 1.5 230 05:35 08.05.2020
3574 Haze 13 1019 54 1400 1 0 04:21 08.05.2020
3575 Clouds 14 1020 47 10000 2.1 230 02:32 08.05.2020
3576 Clouds 14 1020 48 10000 2.1 220 01:44 08.05.2020
3577 Clouds 14 1020 48 10000 2.1 220 01:21 08.05.2020
3578 Clouds 15 1020 48 10000 2.1 240 00:51 08.05.2020
3579 Clouds 15 1020 51 10000 2.1 230 00:28 08.05.2020
3580 Clouds 15 1020 48 10000 2.6 240 23:57 07.05.2020
3581 Clouds 16 1020 48 10000 2.6 210 23:39 07.05.2020
3582 Clouds 16 1020 48 10000 2.6 210 23:39 07.05.2020
3583 Clouds 16 1020 48 10000 2.6 210 23:21 07.05.2020
3584 Clouds 16 1020 45 10000 3.6 240 22:54 07.05.2020
3585 Clouds 17 1020 42 10000 4.1 240 22:36 07.05.2020
3586 Clouds 17 1020 42 10000 3.1 230 22:18 07.05.2020
3587 Clouds 18 1020 42 10000 3.1 230 21:54 07.05.2020
3588 Clouds 19 1019 40 10000 4.1 220 21:36 07.05.2020
3589 Clouds 19 1019 37 10000 4.1 220 21:18 07.05.2020
3590 Clouds 20 1019 37 10000 3.1 180 20:41 07.05.2020
3591 Clouds 21 1019 37 10000 3.1 180 20:21 07.05.2020
3592 Clouds 21 1019 37 10000 3.1 180 20:21 07.05.2020
3593 Clouds 21 1020 37 10000 3.1 250 19:54 07.05.2020
3594 Clouds 22 1020 37 10000 2.6 230 19:36 07.05.2020
3595 Clouds 22 1020 37 10000 2.6 230 19:18 07.05.2020
3596 Clouds 22 1020 35 10000 1.5 0 18:41 07.05.2020
3597 Clouds 22 1020 35 10000 1.5 0 18:23 07.05.2020
3598 Clouds 22 1020 35 10000 3.6 210 17:43 07.05.2020
3599 Clear 22 1020 35 10000 3.6 210 17:21 07.05.2020
3600 Clear 22 1020 35 10000 3.6 210 17:21 07.05.2020
3601 Clear 22 1020 35 10000 3.6 210 17:21 07.05.2020
3602 Clear 22 1021 35 10000 2.6 200 16:58 07.05.2020
3603 Clear 22 1021 37 10000 2.1 0 16:40 07.05.2020
3604 Clear 22 1021 35 10000 2.6 250 16:18 07.05.2020
3605 Clear 22 1021 35 10000 2.6 250 16:18 07.05.2020
3606 Clear 22 1021 35 10000 2.6 250 15:55 07.05.2020
3607 Clear 21 1022 40 10000 3.1 270 15:37 07.05.2020
3608 Clear 21 1022 40 10000 3.6 280 15:18 07.05.2020
3609 Clear 21 1022 37 10000 2.6 230 14:43 07.05.2020
3610 Clouds 21 1022 37 10000 2.6 230 14:20 07.05.2020
3611 Clouds 21 1023 45 10000 2.6 0 13:44 07.05.2020
3612 Clouds 21 1023 45 10000 2.6 0 13:25 07.05.2020
3613 Clouds 19 1023 59 10000 2.6 70 12:45 07.05.2020
3614 Clouds 17 1023 59 10000 2.6 70 12:20 07.05.2020
3615 Clouds 17 1023 59 10000 2.1 70 11:59 07.05.2020
3616 Clouds 16 1024 67 10000 2.6 70 11:39 07.05.2020
3617 Clouds 16 1024 67 10000 2.6 70 11:21 07.05.2020
3618 Clouds 15 1024 76 10000 2.1 90 10:43 07.05.2020
3619 Clouds 14 1024 76 10000 2.1 90 10:24 07.05.2020
3620 Clouds 13 1024 81 10000 2.1 90 09:54 07.05.2020
3621 Clouds 12 1024 81 10000 2.1 90 09:36 07.05.2020
3622 Clouds 11 1024 81 10000 2.1 90 09:18 07.05.2020
3623 Clouds 9 1024 87 10000 1.5 0 08:41 07.05.2020
3624 Clear 9 1024 87 10000 1.5 0 08:22 07.05.2020
3625 Clear 8 1024 87 10000 1.5 0 07:57 07.05.2020
3626 Clear 7 1024 93 10000 1.5 360 07:39 07.05.2020
3627 Clear 7 1024 93 10000 1.5 360 07:18 07.05.2020
3628 Clear 7 1024 87 9000 1.5 10 06:37 07.05.2020
3629 Clear 7 1025 93 8000 1.5 0 05:47 07.05.2020
3630 Clear 8 1025 93 10000 1.5 20 04:27 07.05.2020
3631 Clear 8 1026 87 10000 2.1 60 03:29 07.05.2020
3632 Clear 9 1026 87 10000 2.6 60 02:59 07.05.2020
3633 Clear 8 1026 81 10000 2.1 70 02:24 07.05.2020
3634 Clear 9 1026 87 10000 3.1 70 01:25 07.05.2020
3635 Clear 9 1026 87 10000 3.1 80 00:51 07.05.2020
3636 Clear 9 1026 76 10000 3.6 80 00:31 07.05.2020
3637 Clear 10 1026 76 10000 4.6 80 23:58 06.05.2020
3638 Clear 10 1026 76 10000 4.6 100 23:39 06.05.2020
3639 Clear 10 1026 76 10000 4.6 100 23:21 06.05.2020
3640 Clear 11 1026 76 10000 5.1 100 22:55 06.05.2020
3641 Clear 11 1026 66 10000 4.6 100 22:37 06.05.2020
3642 Clear 12 1026 66 10000 4.6 100 22:18 06.05.2020
3643 Clear 13 1025 47 10000 4.6 100 21:42 06.05.2020
3644 Clear 13 1025 47 10000 4.6 100 21:23 06.05.2020
3645 Clear 14 1025 41 10000 5.7 100 20:58 06.05.2020
3646 Clear 15 1025 38 10000 5.7 110 20:39 06.05.2020
3647 Clear 15 1025 38 10000 5.7 110 20:21 06.05.2020
3648 Clear 16 1025 38 10000 5.1 110 19:56 06.05.2020
3649 Clear 16 1025 38 10000 4.1 100 19:38 06.05.2020
3650 Clear 16 1025 38 10000 4.1 100 19:18 06.05.2020
3651 Clear 16 1025 38 10000 4.1 100 19:18 06.05.2020
3652 Clear 17 1025 36 10000 4.6 90 18:58 06.05.2020
3653 Clear 17 1025 36 10000 4.6 90 18:58 06.05.2020
3654 Clear 17 1025 33 10000 4.6 100 18:38 06.05.2020
3655 Clear 17 1025 33 10000 4.6 100 18:38 06.05.2020
3656 Clear 17 1025 33 10000 4.6 100 18:20 06.05.2020
3657 Clear 17 1025 36 10000 5.1 110 17:55 06.05.2020
3658 Clear 17 1025 33 10000 4.6 110 17:37 06.05.2020
3659 Clear 17 1025 33 10000 4.6 110 17:37 06.05.2020
3660 Clear 17 1026 36 10000 5.7 90 17:18 06.05.2020
3661 Clear 17 1026 36 10000 5.7 90 16:58 06.05.2020
3662 Clear 17 1026 33 10000 6.2 100 16:40 06.05.2020
3663 Clear 17 1026 33 10000 6.2 100 16:20 06.05.2020
3664 Clear 17 1026 36 10000 5.1 100 15:56 06.05.2020
3665 Clear 17 1026 38 10000 6.2 100 15:38 06.05.2020
3666 Clear 17 1026 41 10000 6.2 100 15:18 06.05.2020
3667 Clouds 16 1026 44 10000 5.1 110 14:40 06.05.2020
3668 Clouds 16 1026 44 10000 5.1 110 14:19 06.05.2020
3669 Clouds 16 1026 48 10000 5.1 90 13:59 06.05.2020
3670 Clouds 16 1026 51 10000 5.1 90 13:39 06.05.2020
3671 Clouds 15 1026 58 10000 4.6 90 13:19 06.05.2020
3672 Clouds 15 1026 58 10000 4.6 90 13:19 06.05.2020
3673 Clear 15 1026 62 10000 4.6 80 12:43 06.05.2020
3674 Clear 15 1026 62 10000 4.6 80 12:25 06.05.2020
3675 Clear 14 1026 66 10000 4.1 90 11:56 06.05.2020
3676 Clear 14 1026 71 10000 4.1 100 11:37 06.05.2020
3677 Clouds 13 1026 76 10000 5.1 80 11:19 06.05.2020
3678 Clouds 12 1026 76 10000 5.1 80 10:56 06.05.2020
3679 Clouds 12 1026 76 10000 5.1 80 10:37 06.05.2020
3680 Clear 12 1026 76 10000 4.1 80 10:18 06.05.2020
3681 Clear 10 1026 75 10000 2.1 60 09:39 06.05.2020
3682 Clear 9 1026 75 10000 2.1 60 09:21 06.05.2020
3683 Clouds 8 1025 81 10000 1 0 08:45 06.05.2020
3684 Clouds 7 1025 81 10000 1 0 08:22 06.05.2020
3685 Clouds 6 1025 81 10000 1.5 10 07:58 06.05.2020
3686 Clouds 6 1025 81 10000 1 0 07:39 06.05.2020
3687 Clouds 5 1025 81 10000 1 0 07:20 06.05.2020
3688 Clouds 5 1025 81 10000 2.1 40 06:49 06.05.2020
3689 Clouds 5 1025 81 10000 2.6 50 06:21 06.05.2020
3690 Clear 5 1025 81 10000 2.1 0 05:52 06.05.2020
3691 Clear 5 1025 81 10000 2.1 60 05:34 06.05.2020
3692 Clear 6 1025 81 10000 1.5 0 04:31 06.05.2020
3693 Clear 6 1025 81 10000 3.6 60 03:36 06.05.2020
3694 Clear 7 1025 75 10000 3.6 60 02:58 06.05.2020
3695 Clear 7 1025 75 10000 3.1 60 02:29 06.05.2020
3696 Clear 7 1025 75 10000 4.1 60 01:54 06.05.2020
3697 Clear 7 1025 75 10000 3.6 60 01:30 06.05.2020
3698 Clear 8 1025 70 10000 4.1 60 00:53 06.05.2020
3699 Clear 8 1024 70 10000 5.7 70 00:23 06.05.2020
3700 Clear 8 1024 70 10000 4.6 70 23:56 05.05.2020
3701 Clear 8 1024 70 10000 5.1 70 23:37 05.05.2020
3702 Clear 8 1024 70 10000 5.1 70 23:18 05.05.2020
3703 Clear 9 1023 66 10000 5.7 70 22:41 05.05.2020
3704 Clear 9 1023 66 10000 5.7 70 22:19 05.05.2020
3705 Clear 9 1023 66 10000 5.7 70 22:19 05.05.2020
3706 Clear 10 1023 57 10000 5.1 80 21:57 05.05.2020
3707 Clear 10 1023 57 10000 6.7 80 21:38 05.05.2020
3708 Clear 11 1023 57 10000 6.7 80 21:20 05.05.2020
3709 Clear 11 1022 50 10000 6.7 80 20:57 05.05.2020
3710 Clear 12 1022 50 10000 7.2 80 20:39 05.05.2020
3711 Clear 12 1022 50 10000 7.2 80 20:18 05.05.2020
3712 Clear 13 1022 50 10000 7.2 90 19:54 05.05.2020
3713 Clear 13 1022 47 10000 7.2 70 19:36 05.05.2020
3714 Clear 13 1022 47 10000 7.2 70 19:18 05.05.2020
3715 Clear 13 1021 41 10000 8.2 100 18:42 05.05.2020
3716 Clear 14 1021 41 10000 8.2 100 18:20 05.05.2020
3717 Clear 14 1022 41 10000 8.7 90 17:58 05.05.2020
3718 Clear 14 1022 41 10000 9.3 80 17:40 05.05.2020
3719 Clear 14 1022 41 10000 9.3 80 17:40 05.05.2020
3720 Clear 14 1022 47 10000 9.3 70 17:21 05.05.2020
3721 Clear 14 1022 47 10000 9.3 70 16:56 05.05.2020
3722 Clear 14 1022 47 10000 7.7 80 16:36 05.05.2020
3723 Clouds 14 1022 47 10000 8.7 100 16:18 05.05.2020
3724 Clouds 13 1022 47 10000 8.7 90 15:41 05.05.2020
3725 Clouds 14 1022 47 10000 8.7 90 15:22 05.05.2020
3726 Clouds 14 1022 50 10000 8.7 80 14:58 05.05.2020
3727 Clear 14 1022 47 10000 9.8 90 14:39 05.05.2020
3728 Clouds 14 1022 47 10000 9.8 90 14:20 05.05.2020
3729 Clouds 13 1022 47 10000 9.8 100 13:58 05.05.2020
3730 Clouds 13 1021 50 10000 8.7 90 13:39 05.05.2020
3731 Clouds 13 1021 50 10000 8.7 90 13:21 05.05.2020
3732 Clouds 13 1021 54 10000 9.3 100 12:58 05.05.2020
3733 Clouds 12 1021 54 10000 9.3 90 12:39 05.05.2020
3734 Clouds 12 1021 54 10000 9.3 90 12:20 05.05.2020
3735 Clouds 13 1021 58 10000 8.7 80 11:55 05.05.2020
3736 Clouds 12 1021 58 10000 9.8 100 11:36 05.05.2020
3737 Clouds 12 1021 58 10000 9.8 100 11:18 05.05.2020
3738 Clouds 12 1021 62 10000 9.8 90 10:39 05.05.2020
3739 Clouds 11 1021 62 10000 9.8 90 10:19 05.05.2020
3740 Clouds 11 1020 62 10000 10.3 80 09:58 05.05.2020
3741 Clouds 10 1020 66 10000 9.3 80 09:40 05.05.2020
3742 Clouds 10 1020 66 10000 9.3 80 09:22 05.05.2020
3743 Clouds 10 1020 71 10000 6.7 80 08:41 05.05.2020
3744 Clouds 10 1020 71 10000 6.7 80 08:20 05.05.2020
3745 Clouds 10 1020 76 10000 8.2 70 07:58 05.05.2020
3746 Clouds 9 1020 76 10000 7.7 80 07:38 05.05.2020
3747 Clouds 9 1020 76 10000 7.7 80 07:19 05.05.2020
3748 Clouds 9 1020 76 10000 7.2 80 06:49 05.05.2020
3749 Clouds 9 1020 76 10000 6.7 80 06:22 05.05.2020
3750 Clouds 9 1020 76 10000 6.7 80 05:37 05.05.2020
3751 Clouds 8 1021 81 10000 5.1 70 03:36 05.05.2020
3752 Clouds 8 1021 87 10000 6.2 70 01:51 05.05.2020
3753 Clouds 9 1021 76 10000 5.7 70 00:54 05.05.2020
3754 Clouds 9 1022 76 10000 6.2 70 00:22 05.05.2020
3755 Clouds 9 1023 76 10000 6.2 90 23:45 04.05.2020
3756 Clouds 9 1023 76 10000 6.2 90 23:23 04.05.2020
3757 Clouds 10 1022 66 10000 6.2 80 22:56 04.05.2020
3758 Clouds 10 1021 66 10000 6.7 70 22:38 04.05.2020
3759 Clouds 11 1021 66 10000 6.7 70 22:19 04.05.2020
3760 Clouds 11 1021 62 10000 6.2 90 21:54 04.05.2020
3761 Clouds 11 1021 62 10000 8.2 90 21:34 04.05.2020
3762 Clear 13 1020 58 10000 7.2 90 20:58 04.05.2020
3763 Clear 13 1020 58 10000 7.2 90 20:58 04.05.2020
3764 Clear 13 1020 58 10000 7.2 90 20:58 04.05.2020
3765 Clear 13 1020 54 10000 8.2 80 20:38 04.05.2020
3766 Clear 13 1020 54 10000 8.2 80 20:38 04.05.2020
3767 Clouds 14 1020 54 10000 8.2 80 20:18 04.05.2020
3768 Clouds 15 1020 58 10000 7.7 90 19:43 04.05.2020
3769 Clouds 15 1020 58 10000 7.7 90 19:22 04.05.2020
3770 Clouds 15 1020 58 10000 7.7 90 18:58 04.05.2020
3771 Clouds 15 1020 62 10000 7.2 90 18:38 04.05.2020
3772 Clouds 15 1020 62 10000 7.2 90 18:38 04.05.2020
3773 Clouds 16 1020 62 10000 7.2 90 18:19 04.05.2020
3774 Clouds 16 1020 58 10000 7.7 90 17:56 04.05.2020
3775 Clouds 16 1020 55 10000 7.2 100 17:37 04.05.2020
3776 Clouds 16 1020 55 10000 7.2 100 17:18 04.05.2020
3777 Clouds 17 1020 55 10000 7.2 90 16:43 04.05.2020
3778 Clouds 17 1020 55 10000 7.2 90 16:22 04.05.2020
3779 Clouds 17 1020 51 10000 4.6 90 15:57 04.05.2020
3780 Clouds 16 1020 55 10000 5.1 90 15:38 04.05.2020
3781 Clouds 17 1020 55 10000 5.1 90 15:20 04.05.2020
3782 Clouds 16 1020 54 10000 4.6 80 14:48 04.05.2020
3783 Clouds 16 1020 51 10000 4.1 90 14:48 04.05.2020
3784 Clouds 16 1020 51 10000 4.1 90 14:48 04.05.2020
3785 Clouds 16 1020 54 10000 4.6 80 14:48 04.05.2020
3786 Clouds 16 1020 51 10000 4.1 90 14:20 04.05.2020
3787 Clouds 16 1020 55 10000 4.6 100 13:20 04.05.2020
3788 Clouds 16 1020 55 10000 4.6 100 13:20 04.05.2020
3789 Clouds 16 1020 51 10000 4.6 100 13:20 04.05.2020
3790 Clouds 16 1020 51 10000 4.6 100 13:20 04.05.2020
3791 Clouds 16 1020 55 10000 4.6 100 13:20 04.05.2020
3792 Clouds 15 1020 54 10000 5.1 90 12:43 04.05.2020
3793 Clouds 15 1020 54 10000 5.1 90 12:43 04.05.2020
3794 Clouds 15 1020 54 10000 5.1 90 12:43 04.05.2020
3795 Clouds 15 1020 54 10000 5.1 90 12:43 04.05.2020
3796 Clouds 15 1020 54 10000 5.1 90 12:43 04.05.2020
3797 Clouds 14 1019 66 10000 2.6 100 10:42 04.05.2020
3798 Clouds 14 1019 66 10000 2.6 100 10:42 04.05.2020
3799 Clouds 14 1019 66 10000 2.6 100 10:42 04.05.2020
3800 Clouds 14 1019 66 10000 2.6 100 10:42 04.05.2020
3801 Clouds 14 1019 66 10000 2.6 100 10:42 04.05.2020
3802 Clouds 12 1019 76 10000 2.1 80 09:26 04.05.2020
3803 Clouds 12 1019 76 10000 2.1 80 09:26 04.05.2020
3804 Clouds 12 1019 76 10000 2.1 80 09:26 04.05.2020
3805 Clouds 12 1019 76 10000 2.1 80 09:26 04.05.2020
3806 Clouds 12 1019 76 10000 2.1 80 09:26 04.05.2020
3807 Clouds 10 1018 81 10000 1 60 07:53 04.05.2020
3808 Clouds 10 1018 87 10000 1.5 60 07:33 04.05.2020
3809 Clouds 10 1018 87 10000 1.5 60 07:33 04.05.2020
3810 Clouds 10 1018 87 10000 1.5 60 07:33 04.05.2020
3811 Clouds 10 1018 87 10000 1.5 60 07:33 04.05.2020
3812 Clouds 10 1018 87 10000 1.5 60 07:33 04.05.2020
3813 Clouds 10 1017 76 10000 1.5 70 05:24 04.05.2020
3814 Clouds 10 1017 76 10000 2.1 90 04:48 04.05.2020
3815 Clouds 11 1017 71 10000 3.1 120 02:42 04.05.2020
3816 Clouds 12 1017 76 10000 3.1 110 01:22 04.05.2020
3817 Clouds 12 1017 81 10000 4.1 100 23:59 03.05.2020
3818 Rain 12 1017 80 0 0.45 107 23:41 03.05.2020
3819 Clouds 12 1017 66 10000 2.6 120 23:23 03.05.2020
3820 Clouds 12 1016 71 10000 4.6 90 22:43 03.05.2020
3821 Clouds 12 1016 71 10000 4.6 90 22:24 03.05.2020
3822 Clouds 13 1016 62 10000 4.6 100 21:42 03.05.2020
3823 Clouds 13 1016 62 10000 4.6 100 21:22 03.05.2020
3824 Clouds 13 1016 62 10000 3.6 100 20:58 03.05.2020
3825 Clouds 13 1016 62 10000 3.6 100 20:58 03.05.2020
3826 Clouds 13 1016 62 10000 3.6 100 20:58 03.05.2020
3827 Clouds 13 1016 62 10000 3.6 100 20:58 03.05.2020
3828 Clouds 13 1016 62 10000 3.6 100 20:58 03.05.2020
3829 Clouds 13 1016 62 10000 3.6 110 20:39 03.05.2020
3830 Clouds 13 1016 62 10000 3.6 110 20:20 03.05.2020
3831 Clouds 13 1016 62 10000 4.1 100 20:20 03.05.2020
3832 Clouds 13 1016 62 10000 4.1 100 20:20 03.05.2020
3833 Clouds 14 1016 62 10000 3.1 120 19:47 03.05.2020
3834 Clouds 14 1016 62 10000 3.1 120 19:29 03.05.2020
3835 Clouds 14 1016 54 10000 3.6 110 18:55 03.05.2020
3836 Clouds 14 1016 54 10000 3.6 110 18:55 03.05.2020
3837 Clouds 14 1016 54 10000 3.6 110 18:54 03.05.2020
3838 Clouds 14 1016 54 10000 3.6 120 18:36 03.05.2020
3839 Clouds 14 1016 54 10000 3.6 120 18:18 03.05.2020
3840 Clouds 14 1016 51 10000 4.1 100 17:40 03.05.2020
3841 Clouds 15 1016 51 10000 4.1 100 17:21 03.05.2020
3842 Clouds 15 1016 47 10000 2.6 80 16:45 03.05.2020
3843 Clouds 15 1016 47 10000 2.6 80 16:20 03.05.2020
3844 Clouds 15 1016 44 10000 3.6 80 15:58 03.05.2020
3845 Clouds 15 1016 44 10000 3.6 80 15:58 03.05.2020
3846 Clouds 14 1016 47 10000 3.6 70 15:39 03.05.2020
3847 Clouds 14 1016 47 10000 3.6 70 15:20 03.05.2020
3848 Clouds 14 1016 47 10000 3.6 70 15:20 03.05.2020
3849 Clouds 14 1016 44 10000 2.1 80 14:58 03.05.2020
3850 Clouds 14 1016 50 10000 2.1 90 14:40 03.05.2020
3851 Rain 14 1016 50 10000 2.1 90 14:21 03.05.2020
3852 Rain 13 1016 50 10000 2.1 120 13:51 03.05.2020
3853 Rain 13 1016 50 10000 2.1 120 13:51 03.05.2020
3854 Rain 13 1016 50 10000 2.1 120 13:51 03.05.2020
3855 Rain 13 1016 50 10000 2.1 120 13:51 03.05.2020
3856 Rain 13 1016 50 10000 2.1 120 13:51 03.05.2020
3857 Rain 14 1016 47 10000 2.6 140 13:18 03.05.2020
3858 Rain 14 1016 47 10000 2.6 140 13:18 03.05.2020
3859 Rain 14 1016 41 10000 2.6 170 12:43 03.05.2020
3860 Rain 14 1016 41 10000 2.6 130 12:18 03.05.2020
3861 Rain 14 1016 41 10000 2.6 130 11:55 03.05.2020
3862 Rain 14 1016 41 10000 2.6 130 11:55 03.05.2020
3863 Rain 14 1016 47 10000 2.6 150 11:37 03.05.2020
3864 Clouds 14 1016 47 10000 2.6 150 11:18 03.05.2020
3865 Clouds 13 1016 66 10000 2.6 130 10:46 03.05.2020
3866 Clouds 13 1016 66 10000 2.6 130 10:46 03.05.2020
3867 Clouds 13 1016 66 10000 2.6 130 10:46 03.05.2020
3868 Clouds 13 1016 66 10000 2.6 130 10:46 03.05.2020
3869 Clouds 12 1016 76 10000 2.6 110 09:58 03.05.2020
3870 Clouds 12 1016 76 10000 2.6 110 09:58 03.05.2020
3871 Clouds 11 1016 81 10000 2.1 60 09:34 03.05.2020
3872 Clouds 11 1016 81 10000 2.1 60 09:34 03.05.2020
3873 Clouds 11 1016 81 10000 2.1 60 09:34 03.05.2020
3874 Clouds 12 1016 81 10000 2.1 60 09:34 03.05.2020
3875 Clouds 11 1015 76 10000 1.5 0 08:55 03.05.2020
3876 Rain 10 1015 76 10000 2.1 130 08:26 03.05.2020
3877 Rain 10 1015 76 10000 2.1 130 08:26 03.05.2020
3878 Rain 10 1015 76 10000 1.5 60 07:39 03.05.2020
3879 Rain 10 1015 76 10000 1.5 60 07:39 03.05.2020
3880 Rain 10 1015 76 10000 1.5 60 07:39 03.05.2020
3881 Clouds 10 1015 71 10000 1.5 210 06:20 03.05.2020
3882 Clouds 10 1015 71 10000 2.1 220 05:47 03.05.2020
3883 Clouds 9 1015 71 10000 2.6 230 04:54 03.05.2020
3884 Clouds 9 1015 71 10000 2.1 230 04:26 03.05.2020
3885 Clouds 10 1015 71 10000 2.1 240 02:59 03.05.2020
3886 Clouds 10 1015 71 10000 2.1 230 02:24 03.05.2020
3887 Clouds 9 1015 71 10000 2.1 220 01:45 03.05.2020
3888 Clouds 10 1015 71 10000 2.1 220 01:27 03.05.2020
3889 Clouds 10 1015 66 10000 2.6 220 00:55 03.05.2020
3890 Clouds 10 1015 66 10000 2.1 220 00:37 03.05.2020
3891 Clouds 10 1015 66 10000 2.1 220 00:37 03.05.2020
3892 Clouds 11 1014 58 10000 1.5 0 00:18 03.05.2020
3893 Clouds 12 1014 47 10000 1.28 253 23:43 02.05.2020
3894 Clouds 12 1014 47 10000 1.42 249 23:24 02.05.2020
3895 Clouds 13 1014 44 10000 2.1 310 22:43 02.05.2020
3896 Clouds 14 1014 44 10000 2.1 310 22:24 02.05.2020
3897 Clouds 14 1014 41 10000 2.1 310 21:57 02.05.2020
3898 Clouds 14 1013 41 10000 3.6 300 21:39 02.05.2020
3899 Clouds 15 1013 41 10000 3.6 300 21:19 02.05.2020
3900 Clouds 15 1013 41 10000 3.1 280 20:57 02.05.2020
3901 Clouds 16 1012 41 10000 3.1 270 20:37 02.05.2020
3902 Clouds 16 1012 41 10000 3.1 270 20:19 02.05.2020
3903 Clouds 16 1012 36 10000 4.1 260 19:57 02.05.2020
3904 Clouds 16 1012 36 10000 4.1 260 19:57 02.05.2020
3905 Clouds 16 1012 39 10000 3.6 250 19:38 02.05.2020
3906 Clouds 16 1012 39 10000 3.6 250 19:38 02.05.2020
3907 Clouds 16 1012 39 10000 3.6 250 19:38 02.05.2020
3908 Clouds 16 1012 39 10000 3.6 250 19:19 02.05.2020
3909 Clouds 16 1012 39 10000 3.1 280 18:55 02.05.2020
3910 Clouds 17 1012 41 10000 3.1 290 18:37 02.05.2020
3911 Clear 17 1012 38 10000 4.1 270 18:18 02.05.2020
3912 Clear 17 1012 38 10000 4.1 270 17:54 02.05.2020
3913 Clear 17 1012 39 10000 3.1 260 17:36 02.05.2020
3914 Clear 17 1012 44 10000 4.1 300 17:18 02.05.2020
3915 Clear 17 1012 38 10000 4.6 260 16:41 02.05.2020
3916 Clear 16 1012 38 10000 4.6 260 16:23 02.05.2020
3917 Clear 16 1011 44 10000 4.1 290 15:44 02.05.2020
3918 Clear 16 1011 44 10000 4.1 290 15:21 02.05.2020
3919 Clear 15 1011 44 10000 4.1 240 14:59 02.05.2020
3920 Clouds 16 1011 44 10000 5.7 270 14:41 02.05.2020
3921 Clouds 16 1011 44 10000 5.7 270 14:22 02.05.2020
3922 Clouds 15 1011 47 10000 4.1 290 13:55 02.05.2020
3923 Clouds 15 1011 50 10000 4.1 290 13:37 02.05.2020
3924 Clouds 15 1011 50 10000 4.1 290 13:18 02.05.2020
3925 Clouds 14 1010 54 10000 5.1 300 12:40 02.05.2020
3926 Clouds 13 1010 54 10000 5.1 300 12:20 02.05.2020
3927 Clouds 13 1010 58 10000 5.7 290 11:55 02.05.2020
3928 Clouds 12 1010 58 10000 5.7 280 11:37 02.05.2020
3929 Clouds 12 1010 58 10000 5.7 280 11:18 02.05.2020
3930 Clouds 12 1009 66 10000 5.7 280 10:40 02.05.2020
3931 Clouds 11 1009 66 10000 5.7 280 10:22 02.05.2020
3932 Clear 10 1009 71 10000 5.7 290 09:58 02.05.2020
3933 Clear 10 1009 71 10000 5.1 280 09:40 02.05.2020
3934 Clear 9 1009 71 10000 5.1 280 09:21 02.05.2020
3935 Clear 9 1008 76 10000 5.1 280 08:55 02.05.2020
3936 Clear 8 1008 76 10000 5.1 260 08:37 02.05.2020
3937 Clouds 8 1008 76 10000 5.1 260 08:18 02.05.2020
3938 Clouds 7 1007 81 10000 4.6 260 07:42 02.05.2020
3939 Clouds 7 1007 81 10000 4.6 260 07:22 02.05.2020
3940 Clouds 7 1006 76 10000 5.1 250 06:42 02.05.2020
3941 Clouds 8 1006 76 10000 5.7 250 05:28 02.05.2020
3942 Clouds 8 1006 76 10000 4.1 240 04:27 02.05.2020
3943 Clouds 8 1005 76 10000 4.6 240 03:40 02.05.2020
3944 Clouds 8 1005 71 10000 5.7 250 02:42 02.05.2020
3945 Clouds 8 1005 71 10000 5.7 250 01:58 02.05.2020
3946 Clear 9 1005 71 10000 5.1 250 01:26 02.05.2020
3947 Clear 10 1005 66 10000 6.2 250 00:43 02.05.2020
3948 Clear 9 1005 66 10000 6.2 250 00:22 02.05.2020
3949 Clear 10 1004 62 10000 7.2 250 23:55 01.05.2020
3950 Clear 10 1004 62 10000 6.2 260 23:37 01.05.2020
3951 Clear 10 1004 62 10000 6.2 260 23:18 01.05.2020
3952 Clear 11 1003 62 10000 4.6 300 22:39 01.05.2020
3953 Clouds 10 1003 62 10000 4.6 300 22:20 01.05.2020
3954 Clouds 11 1003 58 10000 4.6 300 21:57 01.05.2020
3955 Clear 11 1002 62 10000 2.1 310 21:39 01.05.2020
3956 Clear 11 1002 62 10000 2.1 310 21:20 01.05.2020
3957 Clear 12 1002 58 10000 2.6 270 20:57 01.05.2020
3958 Rain 12 1002 66 10000 3.6 300 20:39 01.05.2020
3959 Rain 12 1002 66 10000 3.6 300 20:20 01.05.2020
3960 Clouds 12 1001 54 10000 7.2 260 19:58 01.05.2020
3961 Clouds 13 1001 58 10000 2.6 280 19:40 01.05.2020
3962 Clouds 13 1001 58 10000 2.6 280 19:20 01.05.2020
3963 Rain 12 1001 62 10000 5.1 310 18:56 01.05.2020
3964 Rain 13 1000 54 10000 6.7 300 18:37 01.05.2020
3965 Clouds 14 1000 54 10000 6.7 300 18:19 01.05.2020
3966 Clouds 14 1000 54 10000 6.2 290 17:40 01.05.2020
3967 Rain 15 1000 54 10000 6.2 290 17:22 01.05.2020
3968 Rain 15 1000 58 10000 5.7 310 16:57 01.05.2020
3969 Rain 14 999 58 10000 8.7 300 16:39 01.05.2020
3970 Rain 14 999 58 10000 8.7 300 16:20 01.05.2020
3971 Rain 14 999 54 10000 6.2 270 15:57 01.05.2020
3972 Rain 14 998 58 10000 4.6 240 15:39 01.05.2020
3973 Rain 15 998 58 10000 4.6 240 15:19 01.05.2020
3974 Rain 13 998 71 10000 3.6 260 14:44 01.05.2020
3975 Rain 13 998 71 10000 3.6 260 14:25 01.05.2020
3976 Rain 13 998 58 10000 6.7 280 13:56 01.05.2020
3977 Rain 14 998 58 10000 6.2 240 13:38 01.05.2020
3978 Clouds 14 998 58 10000 6.2 240 13:19 01.05.2020
3979 Clouds 13 998 62 10000 5.1 250 12:55 01.05.2020
3980 Clouds 13 998 66 10000 5.1 260 12:37 01.05.2020
3981 Clouds 13 998 66 10000 5.1 260 12:18 01.05.2020
3982 Clouds 12 998 71 10000 5.1 250 11:41 01.05.2020
3983 Clouds 12 998 71 10000 5.1 250 11:23 01.05.2020
3984 Clouds 12 997 71 10000 5.1 250 10:57 01.05.2020
3985 Clouds 11 997 76 10000 5.7 260 10:38 01.05.2020
3986 Clouds 11 997 76 10000 5.7 260 10:19 01.05.2020
3987 Clouds 10 997 81 10000 5.7 250 09:44 01.05.2020
3988 Clouds 10 997 81 10000 5.7 250 09:19 01.05.2020
3989 Clouds 10 997 81 10000 5.7 240 08:57 01.05.2020
3990 Clouds 10 997 81 10000 5.7 250 08:39 01.05.2020
3991 Clouds 9 997 81 10000 5.7 250 08:21 01.05.2020
3992 Clouds 9 997 91 0 0.89 267 07:44 01.05.2020
3993 Rain 9 996 81 10000 5.1 240 07:22 01.05.2020
3994 Rain 8 996 87 10000 5.1 240 06:42 01.05.2020
3995 Clouds 8 996 81 10000 5.1 240 05:35 01.05.2020
3996 Rain 8 996 81 10000 4.1 240 04:39 01.05.2020
3997 Clouds 8 996 87 10000 2.1 220 03:24 01.05.2020
3998 Clouds 8 996 81 10000 2.1 220 02:43 01.05.2020
3999 Clouds 8 996 81 10000 2.1 220 02:19 01.05.2020
4000 Clouds 8 996 81 10000 2.1 220 01:28 01.05.2020
4001 Clouds 8 996 81 10000 2.1 230 00:59 01.05.2020
4002 Clouds 8 996 81 10000 4.1 240 00:37 01.05.2020
4003 Clouds 8 996 81 10000 4.1 240 00:18 01.05.2020
4004 Clouds 8 996 81 10000 3.1 230 23:54 30.04.2020
4005 Clouds 8 996 76 10000 3.6 230 23:36 30.04.2020
4006 Clouds 8 996 76 10000 3.6 230 23:18 30.04.2020
4007 Clouds 9 995 76 10000 4.6 240 22:41 30.04.2020
4008 Clouds 9 995 76 10000 4.6 240 22:20 30.04.2020
4009 Clouds 9 995 76 10000 5.1 240 21:56 30.04.2020
4010 Clouds 9 995 76 10000 4.1 240 21:37 30.04.2020
4011 Clouds 10 994 87 10000 4.1 240 21:19 30.04.2020
4012 Clouds 10 994 81 10000 5.1 240 20:43 30.04.2020
4013 Rain 10 994 81 10000 5.1 240 20:19 30.04.2020
4014 Rain 10 994 76 10000 5.1 240 19:58 30.04.2020
4015 Rain 9 993 87 10000 5.1 240 19:40 30.04.2020
4016 Rain 9 993 87 10000 5.1 240 19:22 30.04.2020
4017 Rain 10 993 81 10000 7.7 250 18:56 30.04.2020
4018 Rain 11 992 76 10000 4.1 230 18:37 30.04.2020
4019 Rain 10 992 76 10000 4.1 230 18:19 30.04.2020
4020 Rain 11 992 81 10000 3.6 220 17:55 30.04.2020
4021 Rain 11 993 81 10000 4.1 210 17:37 30.04.2020
4022 Rain 11 993 81 10000 4.1 210 17:18 30.04.2020
4023 Rain 10 994 87 4200 6.7 230 16:54 30.04.2020
4024 Rain 11 992 62 10000 8.2 200 16:36 30.04.2020
4025 Rain 11 992 62 10000 8.2 200 16:36 30.04.2020
4026 Rain 10 992 62 10000 8.2 200 16:18 30.04.2020
4027 Rain 13 993 62 10000 6.2 190 15:43 30.04.2020
4028 Rain 13 993 62 10000 6.2 190 15:21 30.04.2020
4029 Rain 13 994 50 10000 7.2 200 14:42 30.04.2020
4030 Rain 13 994 50 10000 7.2 200 14:42 30.04.2020
4031 Rain 13 994 50 10000 7.2 200 14:21 30.04.2020
4032 Rain 13 994 58 10000 6.2 190 13:58 30.04.2020
4033 Clouds 13 995 50 10000 6.7 190 13:40 30.04.2020
4034 Clouds 13 995 50 10000 6.7 190 13:22 30.04.2020
4035 Clouds 13 995 58 10000 6.2 200 12:58 30.04.2020
4036 Clouds 13 995 58 10000 7.2 210 12:40 30.04.2020
4037 Clouds 13 996 66 10000 5.7 200 12:18 30.04.2020
4038 Clouds 12 996 71 10000 6.7 200 11:38 30.04.2020
4039 Clouds 11 996 66 10000 7.7 210 11:19 30.04.2020
4040 Clouds 11 996 66 10000 7.7 210 10:58 30.04.2020
4041 Rain 11 996 71 10000 6.2 200 10:38 30.04.2020
4042 Clouds 11 996 76 10000 5.7 210 10:19 30.04.2020
4043 Clouds 10 996 76 10000 5.7 210 09:55 30.04.2020
4044 Clouds 10 996 76 10000 5.1 210 09:37 30.04.2020
4045 Clear 9 996 81 10000 4.6 210 09:18 30.04.2020
4046 Clear 9 996 87 10000 4.1 210 08:44 30.04.2020
4047 Clouds 8 996 87 10000 4.1 210 08:23 30.04.2020
4048 Clouds 7 996 87 10000 4.1 200 07:43 30.04.2020
4049 Clouds 7 996 87 10000 4.1 200 07:25 30.04.2020
4050 Clouds 7 996 81 10000 3.1 230 06:52 30.04.2020
4051 Clouds 7 996 87 10000 3.6 230 06:18 30.04.2020
4052 Clouds 7 996 87 10000 4.1 230 05:44 30.04.2020
4053 Rain 8 996 81 10000 3.1 220 04:39 30.04.2020
4054 Rain 8 996 87 10000 4.6 210 03:58 30.04.2020
4055 Rain 9 996 87 6000 5.1 210 02:48 30.04.2020
4056 Rain 9 996 87 6000 5.1 210 02:26 30.04.2020
4057 Rain 10 997 76 10000 3.1 170 01:36 30.04.2020
4058 Clouds 10 998 71 10000 4.1 170 00:42 30.04.2020
4059 Clouds 10 998 71 10000 4.1 170 00:20 30.04.2020
4060 Clouds 10 998 66 10000 4.1 200 23:57 29.04.2020
4061 Clouds 10 998 66 10000 3.6 210 23:39 29.04.2020
4062 Clouds 10 998 66 10000 3.6 210 23:21 29.04.2020
4063 Clouds 10 999 58 10000 3.6 230 22:54 29.04.2020
4064 Clouds 11 998 58 10000 4.6 220 22:36 29.04.2020
4065 Clouds 11 998 58 10000 4.6 220 22:18 29.04.2020
4066 Clouds 11 999 66 10000 4.6 230 21:38 29.04.2020
4067 Clouds 12 999 66 10000 5.1 210 21:19 29.04.2020
4068 Clouds 12 999 66 10000 5.1 210 20:58 29.04.2020
4069 Clouds 12 999 77 0 0.45 237 20:38 29.04.2020
4070 Clouds 13 999 77 0 0.45 267 20:19 29.04.2020
4071 Clouds 13 999 77 0 0.45 267 20:19 29.04.2020
4072 Clouds 12 999 77 0 0.45 267 20:19 29.04.2020
4073 Clouds 13 999 77 0 0.45 338 19:43 29.04.2020
4074 Clouds 13 999 67 10000 5.7 220 19:22 29.04.2020
4075 Clouds 14 999 67 10000 5.7 220 18:58 29.04.2020
4076 Clouds 13 999 76 10000 4.6 220 18:40 29.04.2020
4077 Clouds 13 999 76 10000 4.6 220 18:19 29.04.2020
4078 Clouds 13 999 76 10000 5.1 210 17:44 29.04.2020
4079 Clouds 13 999 76 10000 5.1 210 17:22 29.04.2020
4080 Rain 12 999 82 10000 4.6 170 16:59 29.04.2020
4081 Rain 12 1000 87 10000 5.1 160 16:37 29.04.2020
4082 Rain 12 1000 81 10000 5.1 170 16:18 29.04.2020
4083 Rain 12 1000 81 10000 5.1 170 15:55 29.04.2020
4084 Rain 12 1001 71 10000 5.7 180 15:37 29.04.2020
4085 Rain 12 1001 71 10000 5.7 180 15:37 29.04.2020
4086 Rain 12 1001 71 10000 5.1 180 15:19 29.04.2020
4087 Rain 12 1001 83 0 0.45 71 14:44 29.04.2020
4088 Rain 12 1001 81 0 0.45 320 14:26 29.04.2020
4089 Clouds 13 1002 62 10000 3.6 170 13:58 29.04.2020
4090 Clouds 13 1002 66 10000 4.6 170 13:38 29.04.2020
4091 Clouds 13 1002 62 10000 5.1 180 13:19 29.04.2020
4092 Clouds 13 1002 62 10000 5.1 180 12:55 29.04.2020
4093 Clouds 12 1003 62 10000 4.1 210 12:37 29.04.2020
4094 Clouds 12 1003 71 10000 4.1 200 12:18 29.04.2020
4095 Rain 12 1003 76 10000 3.1 190 11:39 29.04.2020
4096 Rain 11 1003 76 10000 3.1 190 11:39 29.04.2020
4097 Rain 11 1003 76 10000 3.1 190 11:20 29.04.2020
4098 Rain 11 1003 71 10000 3.1 190 10:55 29.04.2020
4099 Rain 10 1004 76 10000 2.1 250 10:37 29.04.2020
4100 Rain 10 1004 81 10000 2.1 220 10:18 29.04.2020
4101 Clouds 9 1004 81 10000 3.1 220 09:41 29.04.2020
4102 Clouds 8 1004 81 10000 3.1 220 09:22 29.04.2020
4103 Clouds 8 1004 87 10000 3.1 240 08:45 29.04.2020
4104 Clouds 8 1004 93 8000 2.1 240 08:26 29.04.2020
4105 Clouds 8 1004 100 8000 0.5 0 07:57 29.04.2020
4106 Clouds 8 1004 93 9000 1.66 163 07:38 29.04.2020
4107 Clouds 8 1004 93 9000 1.22 133 07:18 29.04.2020
4108 Clouds 8 1004 93 7000 1.5 10 06:48 29.04.2020
4109 Clouds 8 1004 93 6000 1 0 06:29 29.04.2020
4110 Clouds 8 1004 93 6000 1 0 06:29 29.04.2020
4111 Drizzle 8 1004 93 2300 1.5 0 05:21 29.04.2020
4112 Drizzle 8 1004 93 2300 1.5 0 05:21 29.04.2020
4113 Rain 8 1005 93 2300 1.5 340 04:21 29.04.2020
4114 Rain 8 1005 93 4100 2.1 310 03:55 29.04.2020
4115 Rain 8 1004 93 8000 1.5 0 02:39 29.04.2020
4116 Rain 8 1004 93 10000 2.6 60 01:44 29.04.2020
4117 Rain 8 1004 93 10000 2.6 60 01:20 29.04.2020
4118 Rain 8 1004 93 7000 2.6 50 00:39 29.04.2020
4119 Rain 8 1004 93 8000 2.6 60 00:19 29.04.2020
4120 Rain 8 1005 100 4100 3.1 60 23:48 28.04.2020
4121 Rain 8 1005 100 4100 3.1 60 23:23 28.04.2020
4122 Rain 8 1005 93 5000 3.6 60 22:55 28.04.2020
4123 Rain 8 1004 93 3900 4.1 70 22:37 28.04.2020
4124 Drizzle 8 1004 93 4100 4.1 60 22:18 28.04.2020
4125 Rain 8 1004 93 4100 4.1 60 21:54 28.04.2020
4126 Rain 8 1004 93 3600 3.1 60 21:36 28.04.2020
4127 Rain 8 1004 93 3600 3.1 60 21:18 28.04.2020
4128 Rain 8 1004 93 3500 3.6 60 20:41 28.04.2020
4129 Rain 8 1004 93 3500 3.6 60 20:21 28.04.2020
4130 Rain 8 1004 87 3700 4.1 60 19:59 28.04.2020
4131 Rain 8 1004 87 10000 4.1 70 19:41 28.04.2020
4132 Rain 8 1004 87 10000 4.1 70 19:22 28.04.2020
4133 Rain 8 1004 87 10000 5.1 70 18:58 28.04.2020
4134 Rain 9 1004 93 10000 4.6 70 18:38 28.04.2020
4135 Rain 9 1004 93 9000 5.1 70 18:19 28.04.2020
4136 Rain 9 1004 93 9000 5.1 70 17:57 28.04.2020
4137 Rain 8 1004 93 7000 5.1 70 17:36 28.04.2020
4138 Rain 8 1004 87 8000 5.1 60 17:18 28.04.2020
4139 Rain 8 1004 87 10000 6.2 80 16:42 28.04.2020
4140 Rain 8 1004 87 10000 6.2 80 16:23 28.04.2020
4141 Rain 8 1004 87 9000 5.7 60 15:57 28.04.2020
4142 Rain 8 1004 87 7000 5.7 70 15:39 28.04.2020
4143 Rain 8 1004 87 7000 5.7 70 15:21 28.04.2020
4144 Rain 8 1004 87 6000 5.7 70 14:58 28.04.2020
4145 Rain 8 1004 87 10000 6.7 80 14:40 28.04.2020
4146 Rain 8 1004 87 10000 6.7 80 14:21 28.04.2020
4147 Rain 8 1004 87 10000 6.7 80 14:21 28.04.2020
4148 Rain 8 1004 87 10000 5.7 70 13:57 28.04.2020
4149 Rain 8 1004 93 10000 5.1 60 13:38 28.04.2020
4150 Rain 8 1004 93 8000 6.2 70 13:19 28.04.2020
4151 Rain 8 1005 93 8000 5.1 70 12:44 28.04.2020
4152 Rain 8 1005 93 8000 5.1 70 12:24 28.04.2020
4153 Rain 8 1004 79 0 5.47 67 11:45 28.04.2020
4154 Rain 8 1004 87 5000 6.2 80 11:26 28.04.2020
4155 Rain 8 1004 87 7000 6.7 80 10:59 28.04.2020
4156 Rain 8 1004 87 10000 5.7 70 10:39 28.04.2020
4157 Rain 8 1004 87 10000 5.7 70 10:39 28.04.2020
4158 Rain 8 1004 87 10000 5.7 70 10:19 28.04.2020
4159 Rain 8 1004 87 10000 5.7 70 09:57 28.04.2020
4160 Rain 8 1004 87 7000 6.2 70 09:39 28.04.2020
4161 Rain 8 1004 87 7000 6.2 70 09:20 28.04.2020
4162 Rain 8 1005 87 10000 5.7 70 08:45 28.04.2020
4163 Rain 8 1005 87 10000 5.7 70 08:26 28.04.2020
4164 Rain 8 1005 93 7000 5.1 70 07:45 28.04.2020
4165 Rain 8 1005 87 10000 6.7 90 07:20 28.04.2020
4166 Rain 8 1005 87 10000 6.2 90 06:54 28.04.2020
4167 Rain 9 1005 87 8000 5.7 90 06:22 28.04.2020
4168 Rain 9 1005 81 10000 5.7 70 05:43 28.04.2020
4169 Rain 9 1005 81 10000 5.7 70 05:25 28.04.2020
4170 Rain 10 1005 76 10000 5.7 70 04:27 28.04.2020
4171 Clouds 11 1007 76 10000 6.7 100 02:34 28.04.2020
4172 Clouds 11 1007 66 10000 6.7 90 01:23 28.04.2020
4173 Clouds 11 1007 66 10000 6.7 90 01:23 28.04.2020
4174 Clouds 11 1007 71 10000 5.7 90 00:56 28.04.2020
4175 Clouds 11 1007 66 10000 6.2 90 00:25 28.04.2020
4176 Clouds 11 1007 71 10000 6.7 90 23:47 27.04.2020
4177 Clouds 11 1007 71 10000 6.7 90 23:47 27.04.2020
4178 Clouds 12 1007 71 10000 6.7 90 23:24 27.04.2020
4179 Clouds 12 1007 71 10000 8.2 90 22:56 27.04.2020
4180 Clouds 12 1007 66 10000 5.7 90 22:38 27.04.2020
4181 Clouds 13 1007 66 10000 5.7 90 22:20 27.04.2020
4182 Clouds 13 1006 67 10000 6.2 80 21:56 27.04.2020
4183 Clouds 14 1006 62 10000 6.2 70 21:38 27.04.2020
4184 Clouds 15 1006 62 10000 6.2 70 21:18 27.04.2020
4185 Clouds 15 1006 59 10000 3.1 0 21:18 27.04.2020
4186 Clouds 16 1006 59 10000 3.1 0 20:54 27.04.2020
4187 Clouds 16 1006 55 10000 3.1 60 20:36 27.04.2020
4188 Clouds 17 1006 55 10000 3.1 60 20:18 27.04.2020
4189 Clouds 18 1006 52 10000 2.1 30 19:40 27.04.2020
4190 Clouds 18 1006 52 10000 2.1 30 19:21 27.04.2020
4191 Clouds 18 1006 52 10000 2.6 10 18:59 27.04.2020
4192 Clouds 18 1006 52 10000 2.6 10 18:59 27.04.2020
4193 Clouds 18 1006 52 10000 2.1 20 18:40 27.04.2020
4194 Clouds 19 1006 52 10000 2.1 20 18:19 27.04.2020
4195 Clouds 19 1006 52 10000 2.1 20 18:19 27.04.2020
4196 Clouds 19 1006 52 10000 2.1 360 17:58 27.04.2020
4197 Clouds 19 1006 45 10000 2.6 210 17:39 27.04.2020
4198 Clouds 19 1006 45 10000 2.6 210 17:19 27.04.2020
4199 Clouds 19 1006 45 10000 3.1 250 16:40 27.04.2020
4200 Clouds 18 1007 48 10000 3.1 250 16:22 27.04.2020
4201 Clouds 18 1007 48 10000 3.1 250 15:57 27.04.2020
4202 Clouds 18 1007 45 10000 2.6 230 15:38 27.04.2020
4203 Clouds 18 1007 45 10000 2.6 230 15:19 27.04.2020
4204 Clouds 18 1007 48 10000 2.1 240 14:58 27.04.2020
4205 Clouds 18 1007 48 10000 2.6 220 14:40 27.04.2020
4206 Clouds 17 1007 48 10000 2.6 220 14:19 27.04.2020
4207 Clouds 17 1007 51 10000 2.6 240 13:56 27.04.2020
4208 Clouds 16 1007 51 10000 2.6 260 13:36 27.04.2020
4209 Clouds 16 1007 51 10000 2.6 260 13:18 27.04.2020
4210 Clouds 16 1007 51 10000 2.1 270 12:42 27.04.2020
4211 Clouds 15 1007 51 10000 2.1 270 12:21 27.04.2020
4212 Clouds 15 1007 54 10000 2.1 250 11:42 27.04.2020
4213 Clouds 14 1007 54 10000 2.1 250 11:22 27.04.2020
4214 Clouds 13 1007 54 10000 2.1 240 10:59 27.04.2020
4215 Clouds 12 1007 58 10000 2.1 260 10:40 27.04.2020
4216 Clouds 12 1007 58 10000 2.1 260 10:22 27.04.2020
4217 Clouds 11 1007 58 10000 2.6 240 09:55 27.04.2020
4218 Clouds 11 1008 57 10000 3.1 230 09:36 27.04.2020
4219 Clouds 10 1008 57 10000 3.1 240 09:18 27.04.2020
4220 Clouds 9 1008 62 10000 2.1 230 08:45 27.04.2020
4221 Clouds 8 1008 62 10000 2.1 230 08:26 27.04.2020
4222 Clouds 7 1008 61 10000 2.6 220 07:45 27.04.2020
4223 Clouds 7 1008 61 10000 2.6 220 07:23 27.04.2020
4224 Clouds 7 1008 61 10000 1.5 0 06:57 27.04.2020
4225 Clear 7 1008 57 10000 2.1 220 06:27 27.04.2020
4226 Clear 8 1008 62 10000 3.6 240 05:55 27.04.2020
4227 Clear 8 1008 66 10000 2.6 240 04:55 27.04.2020
4228 Clear 8 1009 66 10000 2.1 220 04:36 27.04.2020
4229 Clear 9 1009 62 10000 2.1 220 03:45 27.04.2020
4230 Clear 10 1010 62 10000 2.1 210 01:51 27.04.2020
4231 Clear 11 1010 62 10000 2.1 240 01:20 27.04.2020
4232 Clear 12 1010 58 10000 1.5 230 00:21 27.04.2020
4233 Clear 12 1010 58 10000 1.5 230 00:21 27.04.2020
4234 Clear 12 1010 58 10000 3.1 210 23:59 26.04.2020
4235 Clear 12 1010 54 10000 3.1 230 23:41 26.04.2020
4236 Clear 13 1010 54 10000 3.1 230 23:22 26.04.2020
4237 Clear 13 1010 58 10000 3.1 220 22:59 26.04.2020
4238 Clear 14 1010 58 10000 2.6 130 22:40 26.04.2020
4239 Clear 14 1010 58 10000 2.6 130 22:21 26.04.2020
4240 Clear 15 1009 59 10000 4.1 90 21:59 26.04.2020
4241 Clear 15 1009 48 10000 4.6 100 21:40 26.04.2020
4242 Clear 16 1009 51 10000 5.1 90 21:19 26.04.2020
4243 Clear 17 1009 51 10000 5.1 90 20:56 26.04.2020
4244 Clear 18 1009 45 10000 5.7 100 20:37 26.04.2020
4245 Clear 18 1009 45 10000 5.7 100 20:19 26.04.2020
4246 Clear 18 1009 45 10000 5.7 100 19:57 26.04.2020
4247 Clear 19 1010 39 10000 4.1 90 19:37 26.04.2020
4248 Clear 19 1010 39 10000 4.1 90 19:19 26.04.2020
4249 Clear 20 1010 39 10000 4.1 80 18:44 26.04.2020
4250 Clear 20 1010 39 10000 4.1 80 18:25 26.04.2020
4251 Clear 20 1010 39 10000 4.1 80 18:25 26.04.2020
4252 Clear 20 1010 39 10000 4.6 80 17:56 26.04.2020
4253 Clear 20 1010 37 10000 2.6 70 17:38 26.04.2020
4254 Clear 20 1011 37 10000 1.5 0 17:18 26.04.2020
4255 Clear 20 1011 37 10000 1.5 0 16:40 26.04.2020
4256 Clear 19 1011 37 10000 1.5 0 16:21 26.04.2020
4257 Clear 19 1011 37 10000 1.5 0 15:58 26.04.2020
4258 Clear 19 1012 39 10000 1.5 0 15:39 26.04.2020
4259 Clear 19 1012 39 10000 1.5 0 15:21 26.04.2020
4260 Clear 19 1012 39 10000 1 0 14:56 26.04.2020
4261 Clear 18 1012 42 10000 2.1 60 14:38 26.04.2020
4262 Clear 18 1012 42 10000 2.1 60 14:18 26.04.2020
4263 Clear 17 1013 42 10000 1 0 13:54 26.04.2020
4264 Clear 17 1013 44 10000 1.5 40 13:36 26.04.2020
4265 Clear 17 1013 48 10000 0.5 0 13:18 26.04.2020
4266 Clear 15 1013 54 10000 1 0 12:40 26.04.2020
4267 Clear 14 1013 54 10000 1 0 12:21 26.04.2020
4268 Clear 14 1013 58 10000 1.5 0 11:59 26.04.2020
4269 Clear 13 1013 62 10000 1.5 70 11:40 26.04.2020
4270 Clear 13 1013 62 10000 1.5 60 11:21 26.04.2020
4271 Clear 12 1013 62 10000 1.5 60 10:56 26.04.2020
4272 Clear 12 1013 62 10000 1.5 60 10:56 26.04.2020
4273 Clear 12 1013 66 10000 1.5 0 10:37 26.04.2020
4274 Clear 11 1013 71 10000 2.1 90 10:18 26.04.2020
4275 Clear 9 1013 76 10000 1.5 90 09:40 26.04.2020
4276 Clear 8 1013 76 10000 1.5 90 09:21 26.04.2020
4277 Clear 7 1013 76 10000 1 0 08:58 26.04.2020
4278 Clear 7 1013 75 10000 0.39 120 08:40 26.04.2020
4279 Clear 6 1013 75 10000 0.39 120 08:20 26.04.2020
4280 Clear 5 1013 81 10000 1 250 07:46 26.04.2020
4281 Clear 4 1013 81 10000 1 250 07:21 26.04.2020
4282 Clear 4 1014 81 10000 1.5 210 06:44 26.04.2020
4283 Clear 4 1014 81 10000 1 240 05:58 26.04.2020
4284 Clear 5 1014 75 10000 1.5 230 05:39 26.04.2020
4285 Clear 5 1014 75 10000 1 0 04:58 26.04.2020
4286 Clear 6 1014 75 10000 1.5 220 04:22 26.04.2020
4287 Clear 6 1014 75 10000 1.5 0 02:53 26.04.2020
4288 Clear 7 1014 75 10000 2.6 110 02:32 26.04.2020
4289 Clear 7 1014 81 10000 3.1 110 01:51 26.04.2020
4290 Clear 7 1014 81 10000 3.1 100 01:27 26.04.2020
4291 Clear 8 1014 76 10000 4.1 100 00:40 26.04.2020
4292 Clear 8 1014 76 10000 4.1 100 00:19 26.04.2020
4293 Clear 9 1014 71 10000 4.1 100 23:39 25.04.2020
4294 Clear 9 1014 71 10000 4.1 100 23:21 25.04.2020
4295 Clear 10 1014 71 10000 3.6 90 22:58 25.04.2020
4296 Clear 10 1014 71 10000 3.6 90 22:58 25.04.2020
4297 Clear 10 1014 71 10000 3.6 90 22:58 25.04.2020
4298 Clear 10 1014 66 10000 4.1 110 22:40 25.04.2020
4299 Clear 11 1014 66 10000 4.1 110 22:19 25.04.2020
4300 Clear 12 1014 66 10000 3.6 100 21:56 25.04.2020
4301 Clear 12 1014 62 10000 4.1 100 21:36 25.04.2020
4302 Clear 12 1014 58 10000 4.1 120 21:18 25.04.2020
4303 Clear 14 1014 58 10000 4.1 110 20:42 25.04.2020
4304 Clear 14 1014 58 10000 4.1 110 20:22 25.04.2020
4305 Clear 15 1014 54 10000 4.6 110 19:56 25.04.2020
4306 Clear 15 1014 54 10000 4.1 120 19:38 25.04.2020
4307 Clear 15 1014 54 10000 4.1 120 19:19 25.04.2020
4308 Clear 15 1014 54 10000 4.1 100 18:42 25.04.2020
4309 Clear 16 1014 54 10000 4.1 100 18:21 25.04.2020
4310 Clear 16 1014 54 10000 4.6 110 17:58 25.04.2020
4311 Clear 16 1015 54 10000 4.1 100 17:39 25.04.2020
4312 Clear 16 1015 54 10000 4.1 100 17:20 25.04.2020
4313 Clear 16 1015 54 10000 4.1 90 16:59 25.04.2020
4314 Clear 16 1015 54 10000 4.6 100 16:41 25.04.2020
4315 Clear 15 1015 54 10000 4.6 100 16:21 25.04.2020
4316 Clear 15 1015 54 10000 4.6 100 15:55 25.04.2020
4317 Clear 15 1016 54 10000 3.6 110 15:36 25.04.2020
4318 Clouds 14 1016 62 10000 4.1 70 15:18 25.04.2020
4319 Clouds 14 1016 62 10000 5.7 90 14:40 25.04.2020
4320 Clouds 14 1016 62 10000 5.7 90 14:20 25.04.2020
4321 Clouds 13 1016 66 10000 5.1 80 13:59 25.04.2020
4322 Clouds 13 1017 62 10000 4.6 90 13:41 25.04.2020
4323 Clouds 13 1017 62 10000 4.6 90 13:18 25.04.2020
4324 Clouds 12 1017 66 10000 5.1 100 12:55 25.04.2020
4325 Clouds 12 1017 71 10000 5.1 80 12:37 25.04.2020
4326 Clouds 11 1017 71 10000 5.1 80 12:18 25.04.2020
4327 Clouds 11 1017 71 10000 5.1 80 12:18 25.04.2020
4328 Clouds 10 1017 76 10000 5.1 90 11:42 25.04.2020
4329 Clouds 10 1017 76 10000 5.1 90 11:24 25.04.2020
4330 Clouds 9 1017 76 10000 5.1 100 10:57 25.04.2020
4331 Clouds 9 1017 81 10000 5.7 70 10:38 25.04.2020
4332 Clouds 9 1017 81 10000 5.7 70 10:20 25.04.2020
4333 Clouds 8 1016 76 10000 5.1 80 09:43 25.04.2020
4334 Clouds 8 1016 76 10000 5.1 80 09:22 25.04.2020
4335 Clouds 8 1016 81 10000 5.1 80 08:56 25.04.2020
4336 Clouds 8 1016 81 10000 4.1 90 08:38 25.04.2020
4337 Clouds 8 1016 81 10000 4.1 90 08:19 25.04.2020
4338 Clouds 7 1016 87 10000 4.6 70 07:44 25.04.2020
4339 Clouds 7 1016 87 10000 4.6 70 07:23 25.04.2020
4340 Clouds 7 1016 87 10000 4.6 80 06:44 25.04.2020
4341 Clouds 7 1016 87 10000 4.6 60 05:48 25.04.2020
4342 Clouds 7 1016 87 10000 4.1 70 05:30 25.04.2020
4343 Clouds 8 1016 87 10000 4.6 110 04:29 25.04.2020
4344 Clouds 9 1016 87 8000 5.7 80 02:44 25.04.2020
4345 Clouds 9 1016 87 8000 5.7 80 02:19 25.04.2020
4346 Clouds 9 1016 87 10000 5.7 90 01:50 25.04.2020
4347 Clouds 9 1016 81 10000 4.6 90 01:27 25.04.2020
4348 Clouds 10 1016 81 10000 5.1 90 00:50 25.04.2020
4349 Clouds 10 1016 71 10000 5.7 90 00:29 25.04.2020
4350 Clouds 11 1016 66 10000 6.2 90 23:43 24.04.2020
4351 Clouds 12 1016 66 10000 6.2 90 23:22 24.04.2020
4352 Clouds 13 1015 62 10000 5.1 80 22:56 24.04.2020
4353 Clouds 14 1015 62 10000 5.1 90 22:37 24.04.2020
4354 Clouds 15 1014 62 10000 6.2 100 22:19 24.04.2020
4355 Clouds 15 1014 62 10000 6.2 100 21:54 24.04.2020
4356 Clouds 16 1014 48 10000 5.7 100 21:36 24.04.2020
4357 Clouds 18 1014 45 10000 5.7 100 21:18 24.04.2020
4358 Clouds 18 1013 42 10000 4.6 110 20:44 24.04.2020
4359 Clouds 19 1013 42 10000 4.6 110 20:19 24.04.2020
4360 Clouds 20 1013 42 10000 5.7 90 19:58 24.04.2020
4361 Clouds 20 1013 35 10000 2.6 20 19:39 24.04.2020
4362 Clouds 21 1013 35 10000 2.6 20 19:20 24.04.2020
4363 Clouds 21 1014 35 10000 2.1 0 18:44 24.04.2020
4364 Clear 21 1014 35 10000 2.1 0 18:25 24.04.2020
4365 Clear 21 1014 35 10000 1.5 0 17:55 24.04.2020
4366 Clear 21 1014 32 10000 2.1 140 17:37 24.04.2020
4367 Clear 21 1014 34 10000 2.6 80 17:19 24.04.2020
4368 Clear 21 1014 34 10000 2.6 80 16:57 24.04.2020
4369 Clear 21 1015 34 10000 2.1 30 16:38 24.04.2020
4370 Clear 21 1015 34 10000 2.1 30 16:20 24.04.2020
4371 Clear 21 1015 34 10000 3.1 70 15:42 24.04.2020
4372 Clouds 20 1015 34 10000 3.1 70 15:21 24.04.2020
4373 Clouds 20 1016 34 10000 2.6 140 14:56 24.04.2020
4374 Clouds 20 1016 37 10000 2.6 0 14:37 24.04.2020
4375 Clouds 19 1016 37 10000 2.6 0 14:18 24.04.2020
4376 Clouds 19 1016 39 10000 2.6 80 13:41 24.04.2020
4377 Clouds 18 1016 39 10000 2.6 80 13:21 24.04.2020
4378 Clouds 18 1016 39 10000 2.6 80 13:21 24.04.2020
4379 Clouds 18 1017 42 10000 2.1 90 12:58 24.04.2020
4380 Clouds 17 1017 48 10000 2.1 80 12:40 24.04.2020
4381 Clouds 16 1017 48 10000 2.1 80 12:19 24.04.2020
4382 Clouds 15 1017 58 10000 2.6 80 11:43 24.04.2020
4383 Clouds 15 1017 58 10000 2.6 80 11:23 24.04.2020
4384 Clouds 13 1017 58 10000 2.1 70 10:59 24.04.2020
4385 Clouds 13 1017 62 10000 1.5 0 10:38 24.04.2020
4386 Clouds 12 1017 62 10000 1.5 0 10:20 24.04.2020
4387 Clouds 12 1017 66 10000 1 0 09:57 24.04.2020
4388 Clouds 10 1017 71 10000 1 0 09:37 24.04.2020
4389 Clouds 9 1017 71 10000 1.5 0 09:19 24.04.2020
4390 Clouds 9 1017 76 10000 1.5 360 08:42 24.04.2020
4391 Clouds 8 1017 76 10000 1.5 360 08:20 24.04.2020
4392 Clouds 7 1017 76 10000 1.5 360 07:58 24.04.2020
4393 Clouds 8 1017 76 10000 1 0 07:40 24.04.2020
4394 Clouds 8 1017 76 10000 1 0 07:21 24.04.2020
4395 Clouds 8 1017 71 10000 1.5 0 06:44 24.04.2020
4396 Clouds 9 1017 71 10000 1.5 0 06:23 24.04.2020
4397 Clouds 8 1017 71 10000 1.5 0 05:39 24.04.2020
4398 Clouds 9 1018 71 10000 1.5 0 03:41 24.04.2020
4399 Clouds 10 1018 71 10000 1.5 50 02:51 24.04.2020
4400 Clouds 10 1018 71 10000 1.5 0 02:31 24.04.2020
4401 Clouds 11 1018 71 10000 1.5 0 01:47 24.04.2020
4402 Clouds 11 1018 71 10000 3.1 100 00:55 24.04.2020
4403 Clouds 12 1018 71 10000 3.6 100 00:20 24.04.2020
4404 Clouds 13 1018 58 10000 4.6 90 23:48 23.04.2020
4405 Clouds 13 1018 58 10000 4.6 90 23:28 23.04.2020
4406 Clouds 14 1018 54 10000 5.1 90 22:59 23.04.2020
4407 Clouds 15 1018 44 10000 5.7 110 22:41 23.04.2020
4408 Clouds 15 1018 44 10000 5.7 110 22:20 23.04.2020
4409 Clouds 15 1018 51 10000 5.1 110 21:58 23.04.2020
4410 Clouds 16 1017 45 10000 4.6 110 21:39 23.04.2020
4411 Clouds 16 1017 45 10000 4.6 110 21:39 23.04.2020
4412 Clouds 17 1017 45 10000 4.6 110 21:20 23.04.2020
4413 Clouds 18 1017 36 10000 5.7 110 20:58 23.04.2020
4414 Clouds 18 1017 36 10000 4.6 110 20:40 23.04.2020
4415 Clouds 19 1017 36 10000 4.6 110 20:21 23.04.2020
4416 Clouds 20 1017 32 10000 5.1 110 19:56 23.04.2020
4417 Clouds 20 1018 34 10000 5.1 110 19:38 23.04.2020
4418 Clouds 21 1018 34 10000 5.1 110 19:20 23.04.2020
4419 Clouds 22 1018 32 10000 5.1 110 18:55 23.04.2020
4420 Clouds 22 1018 28 10000 4.6 110 18:36 23.04.2020
4421 Clouds 22 1018 26 10000 5.1 110 18:18 23.04.2020
4422 Clouds 22 1018 28 10000 4.6 110 17:40 23.04.2020
4423 Clouds 23 1018 28 10000 4.6 110 17:22 23.04.2020
4424 Clouds 23 1018 33 10000 4.6 110 16:57 23.04.2020
4425 Clouds 22 1018 35 10000 3.6 80 16:39 23.04.2020
4426 Clouds 22 1019 35 10000 4.6 110 16:19 23.04.2020
4427 Clouds 22 1019 37 10000 4.1 80 15:42 23.04.2020
4428 Clear 22 1019 37 10000 4.1 80 15:23 23.04.2020
4429 Clear 22 1019 35 10000 4.6 90 14:58 23.04.2020
4430 Clear 21 1019 35 10000 4.6 90 14:38 23.04.2020
4431 Clear 21 1019 35 10000 4.6 90 14:20 23.04.2020
4432 Clear 21 1019 35 10000 4.6 90 14:20 23.04.2020
4433 Clear 20 1020 37 10000 4.6 90 13:56 23.04.2020
4434 Clear 20 1020 40 10000 4.1 90 13:38 23.04.2020
4435 Clear 20 1020 40 10000 4.1 90 13:38 23.04.2020
4436 Clear 20 1020 40 10000 4.1 90 13:19 23.04.2020
4437 Clear 18 1020 48 10000 3.1 70 12:44 23.04.2020
4438 Clear 17 1020 48 10000 3.1 70 12:26 23.04.2020
4439 Clear 16 1020 51 10000 3.1 60 11:59 23.04.2020
4440 Clear 15 1020 58 10000 2.1 60 11:40 23.04.2020
4441 Clear 15 1020 58 10000 2.1 60 11:22 23.04.2020
4442 Clear 13 1021 66 10000 2.1 50 10:42 23.04.2020
4443 Clear 13 1021 66 10000 2.1 50 10:24 23.04.2020
4444 Clear 11 1021 71 10000 1.5 0 09:58 23.04.2020
4445 Clear 10 1021 76 10000 1.5 350 09:37 23.04.2020
4446 Clear 10 1021 76 10000 1.5 350 09:18 23.04.2020
4447 Clear 9 1020 87 10000 1 0 08:46 23.04.2020
4448 Clear 8 1020 87 10000 1 0 08:27 23.04.2020
4449 Clear 7 1020 87 10000 1.5 350 07:43 23.04.2020
4450 Clear 7 1020 87 10000 1.5 350 07:24 23.04.2020
4451 Clear 7 1020 87 10000 1 340 06:49 23.04.2020
4452 Clear 7 1020 87 10000 1 350 06:27 23.04.2020
4453 Clear 8 1020 81 10000 1.5 0 05:31 23.04.2020
4454 Clear 8 1020 81 10000 1.5 0 04:53 23.04.2020
4455 Clear 10 1021 71 10000 2.1 360 02:25 23.04.2020
4456 Clear 11 1021 71 10000 1.5 0 01:55 23.04.2020
4457 Clear 11 1021 62 10000 3.1 60 01:33 23.04.2020
4458 Clear 12 1021 58 10000 2.1 50 00:47 23.04.2020
4459 Clear 13 1021 54 10000 3.6 60 00:24 23.04.2020
4460 Clear 13 1021 50 10000 2.6 60 23:50 22.04.2020
4461 Clear 14 1020 47 10000 2.6 70 23:25 22.04.2020
4462 Clear 14 1020 44 10000 2.1 0 22:58 22.04.2020
4463 Clear 15 1020 41 10000 2.1 0 22:39 22.04.2020
4464 Clear 15 1020 36 10000 3.1 60 22:19 22.04.2020
4465 Clear 16 1020 36 10000 3.1 60 21:56 22.04.2020
4466 Clear 16 1020 36 10000 3.6 60 21:38 22.04.2020
4467 Clouds 16 1020 36 10000 3.6 60 21:20 22.04.2020
4468 Clouds 17 1019 34 10000 4.6 60 20:55 22.04.2020
4469 Clouds 17 1019 36 10000 5.7 90 20:36 22.04.2020
4470 Clouds 18 1019 36 10000 5.7 90 20:18 22.04.2020
4471 Clouds 18 1019 34 10000 7.2 90 19:55 22.04.2020
4472 Clouds 19 1019 34 10000 7.7 90 19:36 22.04.2020
4473 Clouds 19 1019 31 10000 8.2 90 19:18 22.04.2020
4474 Clouds 19 1019 31 10000 8.2 90 18:55 22.04.2020
4475 Clouds 19 1019 29 10000 8.2 90 18:37 22.04.2020
4476 Clouds 19 1019 29 10000 8.2 90 18:18 22.04.2020
4477 Clouds 20 1019 32 10000 7.7 70 17:42 22.04.2020
4478 Clouds 20 1019 32 10000 8.7 90 17:23 22.04.2020
4479 Clouds 20 1019 30 10000 8.7 90 16:47 22.04.2020
4480 Clouds 20 1019 30 10000 8.7 90 16:28 22.04.2020
4481 Clouds 20 1019 32 10000 8.7 90 15:59 22.04.2020
4482 Clouds 20 1019 32 10000 9.3 90 15:38 22.04.2020
4483 Clear 19 1019 32 10000 9.3 90 15:19 22.04.2020
4484 Clear 19 1019 36 10000 7.7 80 14:56 22.04.2020
4485 Clouds 19 1019 36 10000 7.7 80 14:36 22.04.2020
4486 Clouds 18 1019 36 10000 7.7 80 14:18 22.04.2020
4487 Clouds 18 1020 42 10000 6.7 60 13:43 22.04.2020
4488 Clouds 17 1020 45 10000 6.2 90 13:20 22.04.2020
4489 Clouds 17 1020 48 10000 6.7 90 12:44 22.04.2020
4490 Clear 16 1020 48 10000 6.7 90 12:24 22.04.2020
4491 Clear 16 1020 51 10000 6.2 90 11:58 22.04.2020
4492 Clear 16 1020 51 10000 6.2 90 11:58 22.04.2020
4493 Clear 15 1020 51 10000 6.2 90 11:39 22.04.2020
4494 Clear 15 1020 51 10000 6.2 90 11:39 22.04.2020
4495 Clear 14 1020 51 10000 6.2 90 11:20 22.04.2020
4496 Clear 13 1020 58 10000 4.1 60 10:45 22.04.2020
4497 Clear 13 1020 58 10000 4.1 60 10:25 22.04.2020
4498 Clear 12 1020 62 10000 4.1 60 09:56 22.04.2020
4499 Clouds 11 1019 66 10000 1.5 0 09:37 22.04.2020
4500 Clouds 11 1019 66 10000 1.5 0 09:19 22.04.2020
4501 Clouds 10 1019 71 10000 1 0 08:54 22.04.2020
4502 Clouds 9 1019 76 10000 1.5 0 08:36 22.04.2020
4503 Clouds 9 1019 81 10000 1.5 0 08:18 22.04.2020
4504 Clouds 8 1019 81 10000 1.5 0 07:44 22.04.2020
4505 Clouds 8 1019 81 10000 1.5 0 07:21 22.04.2020
4506 Clouds 8 1019 81 10000 2.1 10 06:44 22.04.2020
4507 Clouds 8 1018 76 10000 1.5 0 05:45 22.04.2020
4508 Clouds 8 1018 76 10000 1.5 0 05:23 22.04.2020
4509 Clouds 9 1018 71 10000 2.1 20 03:54 22.04.2020
4510 Clear 9 1018 71 10000 1.5 0 02:35 22.04.2020
4511 Clear 10 1018 66 10000 3.6 60 01:42 22.04.2020
4512 Clear 10 1018 66 10000 3.6 60 01:23 22.04.2020
4513 Clear 11 1018 62 10000 2.6 50 00:45 22.04.2020
4514 Clear 11 1018 62 10000 2.6 50 00:21 22.04.2020
4515 Clear 12 1018 62 10000 2.1 40 23:56 21.04.2020
4516 Clear 12 1018 54 10000 2.6 0 23:36 21.04.2020
4517 Clear 13 1018 50 10000 4.6 60 23:18 21.04.2020
4518 Clear 13 1017 47 10000 3.6 60 22:39 21.04.2020
4519 Clear 14 1017 47 10000 3.6 60 22:21 21.04.2020
4520 Clear 14 1017 44 10000 4.6 50 21:58 21.04.2020
4521 Clear 14 1017 44 10000 4.6 50 21:58 21.04.2020
4522 Clear 14 1017 38 10000 6.2 60 21:40 21.04.2020
4523 Clouds 15 1017 38 10000 6.2 60 21:22 21.04.2020
4524 Clouds 16 1016 36 10000 7.2 70 20:41 21.04.2020
4525 Clouds 16 1016 36 10000 7.2 70 20:23 21.04.2020
4526 Clouds 16 1016 33 10000 8.2 70 19:59 21.04.2020
4527 Clouds 16 1016 38 10000 8.7 70 19:40 21.04.2020
4528 Clouds 16 1016 38 10000 8.7 70 19:19 21.04.2020
4529 Clouds 17 1016 36 10000 8.7 70 18:56 21.04.2020
4530 Clouds 17 1017 36 10000 9.8 80 18:38 21.04.2020
4531 Clouds 17 1017 36 10000 9.8 80 18:18 21.04.2020
4532 Clouds 17 1017 36 10000 9.8 80 18:18 21.04.2020
4533 Clear 17 1017 38 10000 8.2 80 17:41 21.04.2020
4534 Clear 17 1017 38 10000 8.2 80 17:22 21.04.2020
4535 Clouds 17 1017 38 10000 9.3 80 16:59 21.04.2020
4536 Clear 17 1017 41 10000 9.8 90 16:38 21.04.2020
4537 Clear 17 1017 41 10000 9.8 90 16:19 21.04.2020
4538 Clear 17 1017 41 10000 10.3 90 15:56 21.04.2020
4539 Clear 17 1017 41 10000 8.7 90 15:38 21.04.2020
4540 Clear 17 1017 41 10000 8.7 90 15:19 21.04.2020
4541 Clear 17 1017 41 10000 10.3 90 14:45 21.04.2020
4542 Clear 17 1017 41 10000 10.3 90 14:25 21.04.2020
4543 Clear 16 1017 41 10000 10.8 80 13:59 21.04.2020
4544 Clear 16 1017 44 10000 8.7 80 13:39 21.04.2020
4545 Clear 16 1017 44 10000 8.7 80 13:19 21.04.2020
4546 Clear 16 1017 44 10000 8.7 80 12:54 21.04.2020
4547 Clear 15 1017 47 10000 8.7 80 12:36 21.04.2020
4548 Clear 14 1017 47 10000 8.7 80 12:18 21.04.2020
4549 Clear 14 1017 47 10000 8.7 80 12:18 21.04.2020
4550 Clear 14 1017 50 10000 8.7 70 11:54 21.04.2020
4551 Clear 14 1017 50 10000 8.2 80 11:36 21.04.2020
4552 Clear 14 1017 50 10000 9.3 70 11:18 21.04.2020
4553 Clear 13 1017 50 10000 9.3 70 10:54 21.04.2020
4554 Clear 13 1017 54 10000 7.2 70 10:36 21.04.2020
4555 Clear 13 1017 54 10000 7.2 70 10:18 21.04.2020
4556 Clear 11 1017 62 10000 6.2 60 09:37 21.04.2020
4557 Clouds 11 1017 62 10000 6.2 60 09:18 21.04.2020
4558 Clouds 10 1017 62 10000 5.1 60 08:47 21.04.2020
4559 Clouds 10 1016 66 10000 5.1 60 08:27 21.04.2020
4560 Clouds 10 1016 66 10000 5.1 60 08:27 21.04.2020
4561 Clouds 9 1016 66 10000 5.1 60 07:56 21.04.2020
4562 Clouds 9 1016 66 10000 4.6 60 07:37 21.04.2020
4563 Clouds 9 1016 66 10000 4.6 60 07:19 21.04.2020
4564 Clouds 9 1016 62 10000 4.6 60 06:43 21.04.2020
4565 Clouds 9 1016 62 10000 4.6 60 06:19 21.04.2020
4566 Clouds 9 1016 62 10000 3.6 60 05:45 21.04.2020
4567 Clouds 11 1016 58 10000 5.7 70 03:48 21.04.2020
4568 Clouds 10 1016 58 10000 4.6 70 03:48 21.04.2020
4569 Clouds 11 1016 58 10000 4.6 60 02:59 21.04.2020
4570 Clouds 11 1017 58 10000 4.1 50 01:37 21.04.2020
4571 Clouds 11 1017 58 10000 3.6 50 00:52 21.04.2020
4572 Clear 11 1017 54 10000 2.6 30 00:31 21.04.2020
4573 Clear 12 1016 54 10000 3.1 70 23:44 20.04.2020
4574 Clear 12 1016 54 10000 3.1 70 23:23 20.04.2020
4575 Clear 12 1016 50 10000 2.1 60 22:57 20.04.2020
4576 Clear 12 1016 44 10000 5.1 60 22:37 20.04.2020
4577 Clear 13 1016 44 10000 5.1 60 22:19 20.04.2020
4578 Clear 13 1016 44 10000 5.1 60 22:19 20.04.2020
4579 Clear 13 1016 41 10000 5.7 60 21:55 20.04.2020
4580 Clear 13 1016 56 10000 6.7 60 21:37 20.04.2020
4581 Clear 14 1016 45 10000 6.7 60 21:19 20.04.2020
4582 Clear 14 1016 45 10000 7.7 60 20:56 20.04.2020
4583 Clear 14 1016 45 10000 7.2 60 20:37 20.04.2020
4584 Clear 15 1016 45 10000 9.3 70 20:18 20.04.2020
4585 Clear 15 1016 45 10000 9.8 70 19:41 20.04.2020
4586 Clear 15 1016 45 10000 9.8 70 19:23 20.04.2020
4587 Clear 16 1016 36 10000 10.8 90 18:59 20.04.2020
4588 Clear 16 1016 36 10000 10.8 90 18:59 20.04.2020
4589 Clear 16 1016 36 10000 11.3 90 18:41 20.04.2020
4590 Clear 16 1016 36 10000 11.3 90 18:21 20.04.2020
4591 Clear 17 1016 38 10000 10.3 90 17:55 20.04.2020
4592 Clear 17 1016 38 10000 11.8 90 17:37 20.04.2020
4593 Clear 17 1016 38 10000 11.8 90 17:19 20.04.2020
4594 Clear 17 1016 41 10000 9.8 90 16:57 20.04.2020
4595 Clear 17 1016 39 10000 10.8 90 16:38 20.04.2020
4596 Clear 17 1017 39 10000 10.8 90 16:18 20.04.2020
4597 Clear 17 1017 39 10000 9.8 80 15:42 20.04.2020
4598 Clear 17 1017 39 10000 9.8 80 15:23 20.04.2020
4599 Clear 16 1017 41 10000 8.2 70 14:55 20.04.2020
4600 Clear 16 1017 41 10000 7.7 80 14:36 20.04.2020
4601 Clear 16 1018 44 10000 9.3 80 14:18 20.04.2020
4602 Clear 16 1018 47 10000 9.3 80 13:41 20.04.2020
4603 Clear 15 1018 47 10000 9.3 80 13:22 20.04.2020
4604 Clear 15 1018 47 10000 9.3 80 12:58 20.04.2020
4605 Clear 15 1018 47 10000 10.3 80 12:39 20.04.2020
4606 Clear 14 1018 47 10000 10.3 80 12:18 20.04.2020
4607 Clear 14 1018 50 10000 8.2 70 11:40 20.04.2020
4608 Clear 14 1018 50 10000 8.2 70 11:21 20.04.2020
4609 Clear 13 1018 54 10000 8.2 70 10:57 20.04.2020
4610 Clear 12 1018 62 10000 6.7 60 10:38 20.04.2020
4611 Clear 12 1018 62 10000 6.7 60 10:19 20.04.2020
4612 Clear 11 1018 66 10000 6.2 60 09:56 20.04.2020
4613 Clear 10 1018 66 10000 5.7 60 09:37 20.04.2020
4614 Clear 10 1018 66 10000 5.7 60 09:19 20.04.2020
4615 Clear 8 1018 75 10000 3.6 60 08:41 20.04.2020
4616 Clear 8 1019 81 10000 2.1 40 08:22 20.04.2020
4617 Clear 7 1019 81 10000 2.1 40 07:53 20.04.2020
4618 Clear 7 1019 81 10000 2.1 40 07:29 20.04.2020
4619 Clear 7 1019 81 10000 1.5 0 06:58 20.04.2020
4620 Clear 7 1019 81 10000 2.1 10 06:36 20.04.2020
4621 Clear 7 1019 81 10000 1.5 360 05:44 20.04.2020
4622 Clear 7 1019 81 10000 1.5 350 04:28 20.04.2020
4623 Clear 8 1020 75 10000 2.1 360 02:47 20.04.2020
4624 Clear 8 1020 75 10000 1.5 0 02:19 20.04.2020
4625 Clear 8 1020 70 10000 2.1 40 01:29 20.04.2020
4626 Clear 9 1020 61 10000 3.6 50 00:42 20.04.2020
4627 Clear 9 1020 66 10000 3.6 60 23:59 19.04.2020
4628 Clear 10 1020 57 10000 3.6 60 23:39 19.04.2020
4629 Clear 10 1020 57 10000 3.6 60 23:21 19.04.2020
4630 Clear 11 1020 54 10000 4.1 60 22:55 19.04.2020
4631 Clear 11 1020 50 10000 4.6 60 22:37 19.04.2020
4632 Clear 11 1020 50 10000 4.6 60 22:19 19.04.2020
4633 Clear 12 1020 47 10000 7.2 70 21:42 19.04.2020
4634 Clear 12 1020 47 10000 7.2 70 21:23 19.04.2020
4635 Clear 13 1019 47 10000 6.7 90 20:57 19.04.2020
4636 Clear 13 1019 47 10000 7.7 90 20:39 19.04.2020
4637 Clear 14 1019 44 10000 8.7 90 20:20 19.04.2020
4638 Clear 15 1019 44 10000 8.7 90 19:56 19.04.2020
4639 Clear 15 1019 44 10000 8.2 90 19:38 19.04.2020
4640 Clear 15 1019 44 10000 8.2 90 19:19 19.04.2020
4641 Clear 16 1019 41 10000 8.2 90 18:55 19.04.2020
4642 Clear 16 1019 38 10000 8.2 90 18:36 19.04.2020
4643 Clear 16 1019 38 10000 9.3 90 18:18 19.04.2020
4644 Clear 16 1019 38 10000 9.3 90 17:55 19.04.2020
4645 Clear 17 1019 33 10000 8.2 90 17:37 19.04.2020
4646 Clear 17 1019 33 10000 8.7 90 17:19 19.04.2020
4647 Clear 18 1019 31 10000 7.2 90 16:40 19.04.2020
4648 Clear 18 1019 31 10000 7.2 90 16:21 19.04.2020
4649 Clear 17 1019 36 10000 5.1 60 15:58 19.04.2020
4650 Clear 17 1019 33 10000 5.1 50 15:40 19.04.2020
4651 Clear 17 1019 33 10000 5.1 50 15:19 19.04.2020
4652 Clear 17 1020 41 10000 5.7 70 14:39 19.04.2020
4653 Clear 16 1020 41 10000 5.7 70 14:21 19.04.2020
4654 Clear 16 1020 44 10000 5.7 60 13:57 19.04.2020
4655 Clear 16 1020 44 10000 5.7 60 13:37 19.04.2020
4656 Clear 15 1020 44 10000 5.7 60 13:18 19.04.2020
4657 Clear 15 1021 50 10000 3.1 50 12:44 19.04.2020
4658 Clear 15 1021 50 10000 3.1 50 12:44 19.04.2020
4659 Clear 14 1021 50 10000 3.1 50 12:24 19.04.2020
4660 Clear 13 1020 58 10000 4.1 60 11:55 19.04.2020
4661 Clear 12 1020 66 10000 3.6 50 11:36 19.04.2020
4662 Clear 12 1020 66 10000 3.1 60 11:18 19.04.2020
4663 Clear 11 1021 71 10000 2.6 60 10:41 19.04.2020
4664 Clear 11 1021 71 10000 2.6 60 10:21 19.04.2020
4665 Clear 10 1021 76 10000 2.6 0 09:59 19.04.2020
4666 Clouds 9 1021 81 10000 1.5 0 09:41 19.04.2020
4667 Clouds 9 1021 81 10000 1.5 0 09:41 19.04.2020
4668 Clouds 8 1021 87 10000 1 0 09:19 19.04.2020
4669 Clouds 8 1021 93 10000 1 0 08:40 19.04.2020
4670 Clouds 7 1021 93 10000 1 0 08:21 19.04.2020
4671 Clouds 7 1021 93 10000 2.1 300 07:56 19.04.2020
4672 Clouds 7 1021 87 10000 1.5 0 07:38 19.04.2020
4673 Clouds 7 1021 87 10000 1.5 0 07:19 19.04.2020
4674 Clouds 7 1020 87 10000 1.5 340 06:26 19.04.2020
4675 Clouds 7 1020 87 10000 1.5 0 05:35 19.04.2020
4676 Clouds 7 1020 87 10000 1.5 0 04:22 19.04.2020
4677 Clouds 8 1020 87 10000 1.5 360 02:52 19.04.2020
4678 Clouds 8 1020 87 10000 1.5 360 02:19 19.04.2020
4679 Clouds 8 1020 87 10000 2.1 60 01:31 19.04.2020
4680 Clouds 9 1020 87 10000 3.1 90 00:41 19.04.2020
4681 Clouds 9 1020 87 10000 3.1 90 00:20 19.04.2020
4682 Clouds 9 1020 76 10000 4.6 90 23:44 18.04.2020
4683 Clouds 10 1020 76 10000 4.6 90 23:21 18.04.2020
4684 Clouds 10 1020 81 10000 4.1 100 22:57 18.04.2020
4685 Clouds 10 1020 81 10000 4.6 100 22:38 18.04.2020
4686 Clouds 11 1020 81 10000 4.6 100 22:20 18.04.2020
4687 Clouds 11 1019 76 10000 4.6 100 21:56 18.04.2020
4688 Clouds 12 1019 71 10000 4.1 110 21:37 18.04.2020
4689 Clouds 12 1019 71 10000 4.6 110 21:19 18.04.2020
4690 Clouds 13 1018 66 10000 4.6 100 20:40 18.04.2020
4691 Clouds 13 1018 66 10000 4.6 100 20:22 18.04.2020
4692 Clouds 13 1018 71 10000 4.6 100 19:54 18.04.2020
4693 Clouds 14 1018 67 10000 3.6 110 19:36 18.04.2020
4694 Clouds 14 1018 67 10000 3.6 100 19:18 18.04.2020
4695 Clouds 14 1018 67 10000 2.1 110 18:37 18.04.2020
4696 Clouds 14 1018 67 10000 2.1 110 18:19 18.04.2020
4697 Clouds 14 1018 67 10000 2.1 130 18:19 18.04.2020
4698 Clouds 15 1018 62 10000 2.1 80 17:43 18.04.2020
4699 Clouds 15 1018 62 10000 2.1 80 17:21 18.04.2020
4700 Clouds 15 1018 67 10000 2.1 110 16:58 18.04.2020
4701 Clouds 15 1018 62 10000 2.1 70 16:38 18.04.2020
4702 Clouds 14 1018 62 10000 2.1 70 16:20 18.04.2020
4703 Clouds 14 1018 66 10000 1.5 0 15:40 18.04.2020
4704 Clouds 13 1018 66 10000 1.5 0 15:22 18.04.2020
4705 Clouds 12 1018 71 10000 2.1 50 14:48 18.04.2020
4706 Clouds 12 1018 71 10000 2.1 50 14:29 18.04.2020
4707 Clouds 11 1018 76 10000 3.1 70 13:59 18.04.2020
4708 Clouds 11 1018 76 10000 2.1 50 13:41 18.04.2020
4709 Clouds 11 1018 76 10000 2.1 50 13:20 18.04.2020
4710 Clouds 10 1018 76 10000 2.6 50 12:42 18.04.2020
4711 Clouds 10 1018 76 10000 2.6 50 12:42 18.04.2020
4712 Clouds 10 1018 76 10000 2.6 50 12:24 18.04.2020
4713 Clouds 9 1018 76 10000 2.1 50 11:57 18.04.2020
4714 Clouds 9 1018 81 10000 2.6 0 11:39 18.04.2020
4715 Clouds 9 1018 81 10000 2.6 0 11:20 18.04.2020
4716 Clouds 9 1017 81 10000 2.6 360 10:42 18.04.2020
4717 Clouds 8 1017 81 10000 2.6 360 10:22 18.04.2020
4718 Clouds 8 1017 81 10000 2.6 360 10:22 18.04.2020
4719 Clouds 8 1017 87 10000 2.1 40 09:59 18.04.2020
4720 Clouds 8 1017 87 10000 1.5 0 09:39 18.04.2020
4721 Clouds 8 1017 87 10000 1.5 0 09:20 18.04.2020
4722 Rain 7 1016 87 10000 3.1 60 08:43 18.04.2020
4723 Rain 7 1016 87 10000 3.1 60 08:22 18.04.2020
4724 Rain 7 1016 87 10000 1.5 0 07:48 18.04.2020
4725 Clouds 7 1016 87 10000 1.5 0 07:28 18.04.2020
4726 Clouds 7 1016 87 10000 2.1 60 06:49 18.04.2020
4727 Clouds 7 1015 87 10000 2.6 50 05:49 18.04.2020
4728 Rain 7 1016 87 10000 2.6 60 04:56 18.04.2020
4729 Rain 7 1016 81 10000 3.6 60 04:31 18.04.2020
4730 Rain 7 1016 75 0 4.25 52 03:34 18.04.2020
4731 Rain 8 1017 76 10000 4.6 70 02:42 18.04.2020
4732 Rain 8 1017 76 10000 4.6 70 02:21 18.04.2020
4733 Rain 8 1017 76 10000 4.6 70 02:21 18.04.2020
4734 Rain 8 1016 70 10000 5.1 70 01:45 18.04.2020
4735 Rain 8 1016 70 10000 5.1 70 01:22 18.04.2020
4736 Rain 8 1016 70 10000 4.6 80 00:38 18.04.2020
4737 Clouds 9 1016 70 10000 4.6 80 00:18 18.04.2020
4738 Clouds 9 1016 70 10000 5.7 70 23:41 17.04.2020
4739 Clouds 9 1016 70 10000 5.7 70 23:20 17.04.2020
4740 Clouds 9 1017 71 10000 6.2 70 23:00 17.04.2020
4741 Clouds 9 1016 66 10000 6.7 80 22:40 17.04.2020
4742 Clouds 9 1016 66 10000 6.7 80 22:21 17.04.2020
4743 Clouds 10 1016 66 10000 6.2 80 21:59 17.04.2020
4744 Rain 10 1016 62 10000 5.1 70 21:40 17.04.2020
4745 Clouds 10 1016 62 10000 5.1 70 21:20 17.04.2020
4746 Clouds 10 1016 62 10000 4.6 80 20:56 17.04.2020
4747 Rain 10 1016 66 10000 6.2 70 20:37 17.04.2020
4748 Rain 11 1016 66 10000 6.2 70 20:18 17.04.2020
4749 Clouds 10 1016 71 10000 7.7 80 19:56 17.04.2020
4750 Clouds 11 1016 71 10000 7.7 90 19:38 17.04.2020
4751 Clouds 11 1016 71 10000 7.7 90 19:19 17.04.2020
4752 Rain 11 1016 76 10000 6.2 100 18:42 17.04.2020
4753 Rain 12 1016 76 10000 6.2 100 18:22 17.04.2020
4754 Rain 12 1017 62 10000 6.2 60 17:38 17.04.2020
4755 Rain 13 1017 62 10000 6.2 60 17:20 17.04.2020
4756 Clouds 13 1017 62 10000 5.1 80 16:59 17.04.2020
4757 Clouds 13 1017 58 10000 7.2 80 16:41 17.04.2020
4758 Clouds 13 1017 58 10000 7.2 80 16:22 17.04.2020
4759 Clouds 13 1017 54 10000 7.7 90 15:40 17.04.2020
4760 Clouds 13 1017 54 10000 7.7 90 15:22 17.04.2020
4761 Clouds 14 1017 54 10000 7.7 90 14:55 17.04.2020
4762 Clouds 13 1017 54 10000 7.2 90 14:37 17.04.2020
4763 Clouds 13 1017 58 10000 9.3 80 14:19 17.04.2020
4764 Clouds 13 1017 62 10000 8.7 80 13:40 17.04.2020
4765 Clouds 13 1017 62 10000 8.7 80 13:20 17.04.2020
4766 Clouds 13 1017 62 10000 8.7 90 12:58 17.04.2020
4767 Clouds 13 1017 62 10000 9.3 80 12:40 17.04.2020
4768 Clouds 13 1017 62 10000 9.3 80 12:21 17.04.2020
4769 Clouds 12 1017 66 10000 9.3 80 11:40 17.04.2020
4770 Clouds 12 1018 66 10000 9.3 80 11:19 17.04.2020
4771 Clouds 11 1018 76 10000 7.7 70 10:44 17.04.2020
4772 Clouds 11 1018 76 10000 7.7 70 10:23 17.04.2020
4773 Clouds 11 1018 76 10000 8.2 80 09:57 17.04.2020
4774 Clouds 10 1018 81 10000 7.7 80 09:39 17.04.2020
4775 Clouds 10 1017 81 10000 6.7 70 09:19 17.04.2020
4776 Clouds 9 1017 81 10000 6.7 70 08:49 17.04.2020
4777 Clouds 9 1017 81 10000 6.7 70 08:28 17.04.2020
4778 Clouds 9 1017 81 10000 6.7 80 07:58 17.04.2020
4779 Rain 9 1017 81 10000 6.7 70 07:40 17.04.2020
4780 Rain 9 1017 81 10000 6.7 70 07:19 17.04.2020
4781 Clouds 9 1017 81 10000 5.1 80 06:45 17.04.2020
4782 Clear 9 1018 81 10000 5.1 70 06:20 17.04.2020
4783 Clear 10 1018 76 10000 4.1 60 03:36 17.04.2020
4784 Clear 10 1018 76 10000 4.6 90 03:18 17.04.2020
4785 Clear 10 1018 71 10000 4.1 80 01:55 17.04.2020
4786 Clear 10 1018 66 10000 4.1 80 01:23 17.04.2020
4787 Clear 11 1017 66 10000 4.1 70 00:28 17.04.2020
4788 Clear 11 1017 66 10000 5.1 80 23:56 16.04.2020
4789 Clear 12 1017 66 10000 5.1 80 23:38 16.04.2020
4790 Clear 12 1017 71 7000 5.1 80 23:19 16.04.2020
4791 Clear 12 1017 76 7000 4.1 90 22:55 16.04.2020
4792 Clear 13 1017 76 7000 4.1 90 22:36 16.04.2020
4793 Clear 13 1016 71 7000 4.6 100 22:18 16.04.2020
4794 Clear 14 1016 71 7000 4.6 110 21:41 16.04.2020
4795 Clouds 15 1016 66 8000 5.1 110 21:20 16.04.2020
4796 Clouds 15 1015 58 9000 4.6 100 20:58 16.04.2020
4797 Clouds 16 1015 58 9000 4.6 100 20:39 16.04.2020
4798 Clouds 16 1015 51 10000 4.1 100 20:19 16.04.2020
4799 Clouds 17 1015 48 10000 5.1 80 19:54 16.04.2020
4800 Clouds 17 1015 45 9000 4.6 90 19:36 16.04.2020
4801 Clouds 18 1015 45 9000 4.6 90 19:18 16.04.2020
4802 Clouds 18 1015 48 10000 4.1 90 18:41 16.04.2020
4803 Clouds 18 1015 45 10000 4.6 90 18:41 16.04.2020
4804 Clouds 18 1015 48 10000 4.1 90 18:21 16.04.2020
4805 Clouds 18 1015 48 10000 4.1 90 17:57 16.04.2020
4806 Clouds 18 1015 48 10000 4.1 90 17:38 16.04.2020
4807 Clouds 19 1015 45 10000 3.6 80 17:18 16.04.2020
4808 Clouds 19 1016 39 10000 3.1 90 16:42 16.04.2020
4809 Clouds 19 1016 39 10000 3.1 90 16:23 16.04.2020
4810 Clouds 19 1016 37 10000 3.6 100 15:45 16.04.2020
4811 Clouds 19 1016 37 10000 4.1 110 15:20 16.04.2020
4812 Clouds 19 1016 39 10000 4.6 110 14:59 16.04.2020
4813 Clouds 19 1016 39 10000 4.6 110 14:40 16.04.2020
4814 Clouds 18 1016 48 10000 3.6 90 14:22 16.04.2020
4815 Clouds 18 1016 51 10000 3.1 80 13:58 16.04.2020
4816 Clouds 18 1016 51 10000 3.1 80 13:58 16.04.2020
4817 Clouds 18 1016 51 10000 3.1 80 13:40 16.04.2020
4818 Clouds 17 1016 55 9000 3.6 90 13:21 16.04.2020
4819 Clouds 17 1016 55 9000 3.6 90 13:21 16.04.2020
4820 Clouds 17 1016 55 8000 3.6 90 12:57 16.04.2020
4821 Clouds 16 1016 58 7000 3.6 90 12:38 16.04.2020
4822 Clouds 15 1016 58 7000 3.6 90 12:19 16.04.2020
4823 Clouds 14 1016 66 6000 3.6 100 11:56 16.04.2020
4824 Clouds 14 1016 66 6000 3.6 100 11:38 16.04.2020
4825 Haze 13 1016 71 5000 3.1 80 11:18 16.04.2020
4826 Haze 12 1016 76 5000 3.1 100 10:54 16.04.2020
4827 Haze 12 1016 76 5000 3.1 100 10:54 16.04.2020
4828 Haze 11 1016 81 4500 2.6 90 10:36 16.04.2020
4829 Haze 10 1016 81 4500 2.6 90 10:18 16.04.2020
4830 Haze 8 1016 87 4600 2.6 70 09:39 16.04.2020
4831 Haze 8 1016 87 4600 2.6 70 09:39 16.04.2020
4832 Haze 7 1016 87 4800 1.5 0 09:20 16.04.2020
4833 Haze 5 1016 87 5000 1 360 08:45 16.04.2020
4834 Haze 4 1016 87 5000 2.1 20 08:26 16.04.2020
4835 Haze 4 1016 86 5000 1.5 360 07:59 16.04.2020
4836 Haze 4 1016 86 5000 1.5 360 07:41 16.04.2020
4837 Clouds 4 1016 87 6000 1.5 20 07:20 16.04.2020
4838 Clear 4 1016 81 6000 1.5 0 06:41 16.04.2020
4839 Clear 4 1016 81 7000 1.5 0 06:22 16.04.2020
4840 Clear 5 1017 81 7000 1.5 0 04:53 16.04.2020
4841 Clouds 5 1018 75 8000 2.1 50 03:28 16.04.2020
4842 Clouds 6 1018 81 8000 2.6 70 02:59 16.04.2020
4843 Clear 6 1018 81 8000 2.6 70 02:36 16.04.2020
4844 Clear 7 1019 76 10000 3.1 70 01:28 16.04.2020
4845 Clear 7 1019 76 10000 2.6 40 00:54 16.04.2020
4846 Clear 7 1019 75 10000 3.6 100 00:21 16.04.2020
4847 Clear 8 1019 70 10000 3.1 90 23:55 15.04.2020
4848 Clear 8 1019 70 10000 3.1 90 23:36 15.04.2020
4849 Clear 8 1019 70 10000 3.1 90 23:18 15.04.2020
4850 Clear 9 1019 70 10000 4.6 100 22:39 15.04.2020
4851 Clear 10 1019 61 10000 5.1 100 22:20 15.04.2020
4852 Clear 10 1019 57 10000 4.6 90 21:56 15.04.2020
4853 Clear 11 1019 57 10000 4.6 90 21:37 15.04.2020
4854 Clear 11 1019 57 10000 4.6 90 21:37 15.04.2020
4855 Clear 12 1019 57 10000 5.1 90 21:19 15.04.2020
4856 Clear 13 1019 50 10000 5.7 100 20:54 15.04.2020
4857 Clear 13 1019 50 10000 5.7 100 20:54 15.04.2020
4858 Clear 14 1019 50 10000 5.7 100 20:36 15.04.2020
4859 Clear 14 1019 47 10000 5.7 110 20:18 15.04.2020
4860 Clear 15 1019 44 10000 6.2 100 19:41 15.04.2020
4861 Clear 16 1019 41 10000 7.2 100 19:41 15.04.2020
4862 Clear 16 1019 41 10000 7.2 100 19:20 15.04.2020
4863 Clear 16 1019 41 10000 7.2 100 19:20 15.04.2020
4864 Clear 17 1020 41 10000 5.1 100 18:42 15.04.2020
4865 Clear 17 1020 41 10000 5.1 100 18:23 15.04.2020
4866 Clear 17 1020 39 10000 4.6 100 17:58 15.04.2020
4867 Clear 17 1020 39 10000 4.6 100 17:40 15.04.2020
4868 Clear 17 1020 39 10000 4.6 100 17:40 15.04.2020
4869 Clear 17 1020 41 10000 4.6 70 17:20 15.04.2020
4870 Clear 17 1021 41 10000 4.1 80 16:57 15.04.2020
4871 Clear 17 1021 41 10000 4.1 80 16:38 15.04.2020
4872 Clear 17 1022 41 10000 4.1 80 16:19 15.04.2020
4873 Clear 17 1022 41 10000 4.1 80 16:19 15.04.2020
4874 Clear 17 1022 41 10000 2.6 80 15:57 15.04.2020
4875 Clear 17 1022 41 10000 2.6 80 15:39 15.04.2020
4876 Clear 16 1022 41 10000 2.6 80 15:19 15.04.2020
4877 Clear 15 1023 44 10000 3.6 80 14:58 15.04.2020
4878 Clear 15 1023 44 10000 3.6 80 14:39 15.04.2020
4879 Clouds 15 1023 44 10000 3.6 80 14:21 15.04.2020
4880 Clouds 15 1023 44 10000 3.6 80 14:21 15.04.2020
4881 Clouds 15 1023 41 10000 3.1 80 13:58 15.04.2020
4882 Clouds 15 1023 41 10000 3.1 80 13:38 15.04.2020
4883 Clouds 14 1023 47 10000 1.5 0 13:20 15.04.2020
4884 Clouds 13 1024 58 10000 2.6 70 12:54 15.04.2020
4885 Clouds 13 1024 57 10000 3.1 80 12:36 15.04.2020
4886 Clouds 12 1024 57 10000 3.1 80 12:18 15.04.2020
4887 Clouds 11 1024 61 10000 3.1 80 11:42 15.04.2020
4888 Clouds 11 1024 61 10000 3.1 80 11:24 15.04.2020
4889 Clouds 10 1025 70 10000 2.1 70 10:58 15.04.2020
4890 Clouds 9 1025 70 10000 2.1 70 10:36 15.04.2020
4891 Clouds 9 1025 70 10000 2.1 70 10:18 15.04.2020
4892 Clouds 7 1025 70 10000 2.6 90 09:55 15.04.2020
4893 Clouds 6 1025 70 10000 2.6 90 09:37 15.04.2020
4894 Clouds 5 1025 70 10000 1.5 80 09:18 15.04.2020
4895 Clouds 3 1025 75 10000 1.5 50 08:41 15.04.2020
4896 Clouds 2 1024 93 10000 3.1 150 08:20 15.04.2020
4897 Clouds 1 1025 93 10000 2.1 140 07:55 15.04.2020
4898 Clouds 1 1025 62 10000 0.91 129 07:34 15.04.2020
4899 Clouds 1 1025 62 10000 0.5 270 06:37 15.04.2020
4900 Clouds 1 1025 63 10000 0.5 360 05:57 15.04.2020
4901 Clouds 2 1026 63 10000 0.5 40 05:22 15.04.2020
4902 Clouds 2 1025 63 10000 1 330 04:45 15.04.2020
4903 Clouds 2 1025 63 10000 1 340 03:51 15.04.2020
4904 Clouds 3 1026 70 10000 2.1 120 03:20 15.04.2020
4905 Clouds 3 1026 75 10000 2.6 110 02:39 15.04.2020
4906 Clouds 3 1026 70 10000 2.6 120 01:50 15.04.2020
4907 Clouds 4 1027 70 10000 2.6 110 01:22 15.04.2020
4908 Clouds 4 1027 65 10000 2.6 110 00:39 15.04.2020
4909 Clear 5 1027 65 10000 3.1 100 00:20 15.04.2020
4910 Clear 5 1027 65 10000 3.6 100 23:55 14.04.2020
4911 Clear 5 1027 65 10000 3.6 100 23:36 14.04.2020
4912 Clear 6 1027 65 10000 3.1 110 23:18 14.04.2020
4913 Clear 6 1027 59 10000 3.6 110 22:56 14.04.2020
4914 Clear 6 1027 59 10000 3.6 110 22:37 14.04.2020
4915 Clear 7 1027 65 10000 3.6 100 22:19 14.04.2020
4916 Clear 7 1027 61 10000 5.1 90 21:55 14.04.2020
4917 Clear 7 1027 61 10000 5.1 90 21:37 14.04.2020
4918 Clear 8 1027 61 10000 5.1 90 21:37 14.04.2020
4919 Clear 8 1027 57 10000 5.7 90 21:18 14.04.2020
4920 Clear 9 1027 47 10000 5.1 100 20:41 14.04.2020
4921 Clear 10 1027 48 10000 5.1 100 20:23 14.04.2020
4922 Clear 11 1027 50 10000 5.1 100 19:59 14.04.2020
4923 Clear 11 1027 50 10000 5.1 100 19:40 14.04.2020
4924 Clear 12 1027 50 10000 4.6 100 19:21 14.04.2020
4925 Clear 12 1027 50 10000 4.6 110 18:57 14.04.2020
4926 Clear 12 1027 50 10000 4.6 110 18:39 14.04.2020
4927 Clear 12 1027 50 10000 4.1 100 18:20 14.04.2020
4928 Clear 12 1027 46 10000 4.6 100 17:56 14.04.2020
4929 Clear 12 1027 46 10000 4.6 100 17:37 14.04.2020
4930 Clear 12 1027 40 10000 4.1 120 17:19 14.04.2020
4931 Clear 12 1028 40 10000 3.1 110 16:54 14.04.2020
4932 Clear 12 1028 41 10000 3.1 110 16:36 14.04.2020
4933 Clear 12 1028 41 10000 3.6 100 16:18 14.04.2020
4934 Clear 12 1028 43 10000 4.1 100 15:41 14.04.2020
4935 Clouds 11 1028 43 10000 4.1 110 15:23 14.04.2020
4936 Clouds 11 1029 43 10000 3.1 120 14:59 14.04.2020
4937 Clear 11 1029 43 10000 3.1 120 14:40 14.04.2020
4938 Clear 10 1029 46 10000 3.1 100 14:22 14.04.2020
4939 Clear 10 1029 46 10000 4.1 100 13:57 14.04.2020
4940 Clear 10 1029 46 10000 4.1 100 13:39 14.04.2020
4941 Clear 10 1030 45 10000 3.6 90 13:21 14.04.2020
4942 Clouds 9 1030 49 10000 4.1 90 12:42 14.04.2020
4943 Clouds 8 1030 49 10000 4.1 70 12:21 14.04.2020
4944 Clouds 8 1030 49 10000 3.6 90 11:57 14.04.2020
4945 Clouds 8 1030 49 10000 3.6 90 11:38 14.04.2020
4946 Clouds 7 1030 52 10000 4.6 90 11:19 14.04.2020
4947 Clouds 7 1030 56 10000 4.6 80 10:46 14.04.2020
4948 Clouds 7 1030 52 10000 3.1 60 10:27 14.04.2020
4949 Clouds 6 1030 56 10000 2.6 50 09:58 14.04.2020
4950 Clouds 6 1030 56 10000 2.6 50 09:40 14.04.2020
4951 Clear 5 1030 62 0 1.34 62 09:22 14.04.2020
4952 Clouds 4 1029 56 10000 3.6 60 08:44 14.04.2020
4953 Clouds 4 1029 56 10000 1.5 0 08:24 14.04.2020
4954 Clear 4 1030 72 0 2.56 32 07:58 14.04.2020
4955 Clouds 3 1029 60 10000 1.5 0 07:40 14.04.2020
4956 Clouds 3 1029 60 10000 2.1 10 07:21 14.04.2020
4957 Clouds 4 1029 56 10000 2.1 60 06:35 14.04.2020
4958 Clouds 4 1030 56 10000 2.1 30 05:22 14.04.2020
4959 Clouds 4 1030 56 10000 2.1 50 03:25 14.04.2020
4960 Clouds 5 1030 56 10000 4.6 60 02:19 14.04.2020
4961 Clear 5 1030 56 10000 4.6 70 01:26 14.04.2020
4962 Clear 5 1029 60 10000 4.1 50 00:49 14.04.2020
4963 Clear 5 1029 60 10000 4.1 50 00:24 14.04.2020
4964 Clear 5 1029 56 10000 4.1 50 23:56 13.04.2020
4965 Clear 5 1029 56 10000 4.1 50 23:37 13.04.2020
4966 Clouds 5 1028 64 10000 6.7 40 23:18 13.04.2020
4967 Clouds 6 1029 52 10000 5.7 60 22:42 13.04.2020
4968 Clouds 6 1029 52 10000 5.7 60 22:42 13.04.2020
4969 Clouds 6 1028 64 10000 5.1 50 22:22 13.04.2020
4970 Clouds 6 1028 52 10000 6.2 70 21:58 13.04.2020
4971 Clouds 6 1028 52 10000 6.2 70 21:39 13.04.2020
4972 Clear 7 1028 49 10000 5.7 50 21:20 13.04.2020
4973 Clouds 7 1028 45 10000 7.2 60 20:56 13.04.2020
4974 Clouds 8 1028 45 10000 7.2 60 20:38 13.04.2020
4975 Clouds 8 1027 49 10000 6.2 60 20:19 13.04.2020
4976 Clear 9 1027 43 10000 6.7 60 19:57 13.04.2020
4977 Clear 9 1027 43 10000 7.2 60 19:36 13.04.2020
4978 Clear 9 1027 43 10000 7.2 60 19:18 13.04.2020
4979 Clouds 10 1027 43 10000 6.7 60 18:55 13.04.2020
4980 Clouds 10 1027 43 10000 6.7 60 18:36 13.04.2020
4981 Clouds 10 1027 46 10000 6.7 50 18:18 13.04.2020
4982 Clear 10 1027 43 10000 7.2 60 17:55 13.04.2020
4983 Clear 10 1027 43 10000 7.2 60 17:36 13.04.2020
4984 Clouds 11 1027 43 10000 7.7 80 17:18 13.04.2020
4985 Clouds 10 1027 46 10000 7.7 70 16:55 13.04.2020
4986 Clouds 10 1027 46 10000 7.7 70 16:55 13.04.2020
4987 Clouds 11 1027 46 10000 7.7 70 16:55 13.04.2020
4988 Clouds 11 1027 46 10000 7.7 70 16:36 13.04.2020
4989 Clouds 10 1027 46 10000 7.2 70 16:18 13.04.2020
4990 Clouds 10 1027 43 10000 5.1 60 15:45 13.04.2020
4991 Clouds 10 1027 45 10000 7.2 60 15:27 13.04.2020
4992 Clouds 10 1027 46 10000 8.2 70 14:57 13.04.2020
4993 Clouds 10 1027 43 10000 7.7 60 14:39 13.04.2020
4994 Clouds 10 1027 43 10000 7.7 60 14:21 13.04.2020
4995 Clouds 10 1027 45 10000 7.2 60 13:56 13.04.2020
4996 Clouds 10 1027 45 10000 7.2 60 13:38 13.04.2020
4997 Clouds 9 1027 49 10000 9.8 70 13:19 13.04.2020
4998 Clouds 10 1027 49 10000 9.8 70 13:19 13.04.2020
4999 Clouds 9 1027 49 10000 8.2 60 12:58 13.04.2020
5000 Clouds 9 1027 49 10000 8.2 60 12:39 13.04.2020
5001 Clouds 8 1027 56 10000 9.3 70 12:19 13.04.2020
5002 Clouds 8 1027 56 10000 9.3 70 12:19 13.04.2020
5003 Clouds 8 1026 56 10000 6.7 60 11:57 13.04.2020
5004 Clouds 8 1026 56 10000 6.7 60 11:38 13.04.2020
5005 Clouds 8 1026 61 10000 7.2 60 11:18 13.04.2020
5006 Clouds 8 1026 57 10000 8.2 60 10:54 13.04.2020
5007 Clouds 8 1026 57 10000 8.2 60 10:36 13.04.2020
5008 Clouds 8 1025 55 10000 7.7 60 10:18 13.04.2020
5009 Rain 8 1025 70 10000 6.7 60 09:43 13.04.2020
5010 Clouds 8 1024 61 10000 7.7 60 09:24 13.04.2020
5011 Clouds 8 1024 61 10000 8.2 60 08:45 13.04.2020
5012 Clouds 8 1023 66 10000 7.7 60 08:26 13.04.2020
5013 Clouds 8 1023 70 10000 7.2 60 07:56 13.04.2020
5014 Clouds 8 1023 70 10000 7.2 60 07:37 13.04.2020
5015 Rain 8 1022 76 10000 7.2 60 07:18 13.04.2020
5016 Rain 8 1022 76 10000 6.2 60 06:42 13.04.2020
5017 Clouds 9 1021 76 10000 5.1 60 05:51 13.04.2020
5018 Clouds 9 1021 70 10000 6.7 60 05:19 13.04.2020
5019 Clouds 9 1021 70 10000 6.7 60 05:19 13.04.2020
5020 Clouds 9 1020 71 10000 5.1 60 04:31 13.04.2020
5021 Clouds 9 1020 71 10000 5.1 60 04:31 13.04.2020
5022 Clouds 10 1019 71 10000 5.7 60 03:55 13.04.2020
5023 Rain 10 1019 71 10000 5.7 70 03:34 13.04.2020
5024 Rain 11 1018 71 10000 7.2 70 02:41 13.04.2020
5025 Clouds 12 1017 76 10000 5.7 60 01:47 13.04.2020
5026 Clouds 12 1017 76 10000 6.2 60 01:28 13.04.2020
5027 Rain 13 1016 72 10000 4.1 60 00:50 13.04.2020
5028 Rain 14 1015 55 10000 3.1 0 00:25 13.04.2020
5029 Rain 14 1015 55 10000 1.5 0 23:57 12.04.2020
5030 Rain 14 1015 55 10000 1.5 0 23:39 12.04.2020
5031 Rain 14 1014 55 10000 3.1 90 23:20 12.04.2020
5032 Rain 15 1014 51 10000 2.1 0 22:55 12.04.2020
5033 Rain 15 1014 51 10000 2.1 0 22:36 12.04.2020
5034 Rain 15 1013 51 10000 3.1 70 22:18 12.04.2020
5035 Rain 16 1012 48 10000 4.1 100 21:38 12.04.2020
5036 Clouds 17 1012 48 10000 3.6 100 21:20 12.04.2020
5037 Clouds 18 1012 40 10000 3.1 50 20:54 12.04.2020
5038 Clouds 19 1012 40 10000 3.1 50 20:36 12.04.2020
5039 Clouds 20 1012 37 10000 3.6 50 20:18 12.04.2020
5040 Clouds 21 1011 33 10000 2.6 60 19:41 12.04.2020
5041 Clouds 21 1011 30 10000 2.6 50 19:20 12.04.2020
5042 Clouds 21 1011 30 10000 2.6 50 19:20 12.04.2020
5043 Clouds 22 1011 30 10000 2.1 60 18:59 12.04.2020
5044 Clouds 22 1011 33 10000 2.6 20 18:40 12.04.2020
5045 Clouds 22 1011 33 10000 2.6 20 18:19 12.04.2020
5046 Clouds 22 1012 37 10000 3.6 340 17:55 12.04.2020
5047 Clouds 22 1012 37 10000 3.6 340 17:37 12.04.2020
5048 Clouds 22 1012 37 10000 3.6 340 17:37 12.04.2020
5049 Clouds 23 1012 35 10000 5.7 310 17:18 12.04.2020
5050 Thunderstorm 22 1011 35 10000 2.6 20 16:54 12.04.2020
5051 Thunderstorm 23 1011 35 10000 2.6 20 16:36 12.04.2020
5052 Clouds 23 1012 33 10000 2.1 230 16:18 12.04.2020
5053 Clouds 23 1012 31 10000 3.1 250 15:41 12.04.2020
5054 Clouds 23 1012 29 10000 3.1 250 15:21 12.04.2020
5055 Clouds 22 1013 31 10000 2.6 240 14:39 12.04.2020
5056 Clouds 22 1014 40 10000 4.6 210 14:21 12.04.2020
5057 Clouds 22 1013 35 10000 2.6 270 13:58 12.04.2020
5058 Clouds 22 1013 35 10000 2.6 270 13:37 12.04.2020
5059 Clouds 22 1013 40 10000 2.1 290 13:19 12.04.2020
5060 Clouds 21 1014 45 10000 1 0 12:46 12.04.2020
5061 Clouds 19 1014 45 10000 1.5 300 12:22 12.04.2020
5062 Clouds 19 1014 52 10000 1 0 11:59 12.04.2020
5063 Clouds 18 1014 52 10000 1 0 11:38 12.04.2020
5064 Clouds 17 1015 55 10000 1.5 0 11:19 12.04.2020
5065 Clouds 17 1015 51 10000 2.1 240 10:56 12.04.2020
5066 Clouds 16 1015 51 10000 2.1 240 10:38 12.04.2020
5067 Clouds 15 1015 58 10000 2.6 250 10:20 12.04.2020
5068 Clouds 14 1015 62 10000 1.5 250 09:58 12.04.2020
5069 Clouds 13 1015 62 10000 1.5 250 09:39 12.04.2020
5070 Clear 11 1016 62 10000 2.1 220 09:19 12.04.2020
5071 Clear 10 1016 93 6000 1.33 247 08:50 12.04.2020
5072 Clear 9 1016 93 6000 1.33 247 08:31 12.04.2020
5073 Clear 9 1016 93 8000 0.5 330 07:47 12.04.2020
5074 Clear 9 1016 93 8000 0.5 330 07:20 12.04.2020
5075 Clear 9 1017 93 9000 1 270 06:54 12.04.2020
5076 Clear 9 1017 93 9000 1 270 06:30 12.04.2020
5077 Clear 10 1017 93 10000 0.5 220 05:49 12.04.2020
5078 Clear 10 1017 87 10000 1.64 234 04:53 12.04.2020
5079 Rain 12 1019 71 10000 0.5 210 03:30 12.04.2020
5080 Rain 12 1019 76 10000 1.81 241 02:49 12.04.2020
5081 Rain 12 1019 62 10000 1.5 190 02:30 12.04.2020
5082 Rain 13 1020 55 10000 2.1 240 01:26 12.04.2020
5083 Rain 13 1020 55 10000 2.1 230 00:55 12.04.2020
5084 Rain 13 1020 55 10000 2.1 230 00:37 12.04.2020
5085 Rain 13 1020 62 10000 1.5 180 00:18 12.04.2020
5086 Rain 13 1020 62 10000 1.5 180 00:18 12.04.2020
5087 Rain 14 1020 51 10000 3.1 230 23:43 11.04.2020
5088 Rain 14 1020 51 10000 2.6 210 23:23 11.04.2020
5089 Rain 15 1020 48 10000 2.1 230 22:39 11.04.2020
5090 Rain 15 1020 55 10000 2.14 219 22:21 11.04.2020
5091 Rain 16 1020 48 10000 0.5 0 21:56 11.04.2020
5092 Rain 17 1020 48 10000 0.5 0 21:37 11.04.2020
5093 Rain 17 1020 48 10000 0.5 0 21:37 11.04.2020
5094 Rain 17 1020 52 10000 1.5 0 21:18 11.04.2020
5095 Rain 19 1020 45 10000 3.1 70 20:56 11.04.2020
5096 Rain 20 1020 45 10000 3.1 70 20:38 11.04.2020
5097 Rain 20 1020 48 10000 3.6 80 20:20 11.04.2020
5098 Rain 21 1020 45 10000 2.6 80 19:57 11.04.2020
5099 Rain 21 1020 45 10000 2.6 80 19:57 11.04.2020
5100 Rain 21 1020 45 10000 2.6 80 19:38 11.04.2020
5101 Rain 22 1020 45 10000 4.6 90 19:19 11.04.2020
5102 Rain 22 1020 43 10000 5.1 100 18:56 11.04.2020
5103 Rain 22 1020 43 10000 5.1 100 18:37 11.04.2020
5104 Clouds 23 1021 35 10000 2.6 230 18:19 11.04.2020
5105 Clouds 23 1020 43 10000 5.1 100 17:58 11.04.2020
5106 Clouds 23 1020 43 10000 5.1 100 17:40 11.04.2020
5107 Clouds 23 1021 46 10000 4.6 110 17:19 11.04.2020
5108 Clouds 23 1021 43 10000 4.6 90 16:43 11.04.2020
5109 Clouds 23 1021 43 10000 5.7 90 16:22 11.04.2020
5110 Clouds 23 1021 40 10000 5.1 70 15:59 11.04.2020
5111 Clouds 23 1021 40 10000 5.1 70 15:59 11.04.2020
5112 Clouds 23 1021 40 10000 5.1 70 15:37 11.04.2020
5113 Clouds 23 1022 40 10000 4.1 80 15:18 11.04.2020
5114 Clouds 23 1022 40 10000 3.6 90 14:42 11.04.2020
5115 Clouds 23 1022 46 10000 3.6 80 14:23 11.04.2020
5116 Clouds 22 1022 40 10000 3.6 100 13:59 11.04.2020
5117 Clouds 22 1022 40 10000 3.6 100 13:39 11.04.2020
5118 Clouds 21 1023 52 10000 4.1 80 13:19 11.04.2020
5119 Clouds 20 1023 52 10000 3.6 90 12:42 11.04.2020
5120 Clouds 20 1023 52 10000 3.6 90 12:42 11.04.2020
5121 Clouds 18 1023 55 10000 4.1 90 12:20 11.04.2020
5122 Clouds 17 1024 63 10000 2.6 80 11:57 11.04.2020
5123 Clouds 17 1024 67 10000 2.1 70 11:39 11.04.2020
5124 Clouds 17 1024 67 10000 2.1 70 11:19 11.04.2020
5125 Clouds 15 1024 67 10000 2.6 80 10:43 11.04.2020
5126 Clouds 14 1024 76 10000 2.1 90 10:23 11.04.2020
5127 Clouds 13 1024 81 9000 2.6 80 09:59 11.04.2020
5128 Clouds 12 1024 81 9000 2.6 80 09:40 11.04.2020
5129 Clouds 11 1024 81 8000 2.1 100 09:21 11.04.2020
5130 Clouds 10 1024 81 8000 1 100 08:51 11.04.2020
5131 Clouds 9 1023 87 7000 2.6 110 08:29 11.04.2020
5132 Clouds 9 1023 87 7000 2.6 100 07:55 11.04.2020
5133 Clouds 9 1023 87 8000 1.5 90 07:37 11.04.2020
5134 Clouds 9 1023 87 8000 1.5 90 07:18 11.04.2020
5135 Clouds 9 1023 87 8000 1.5 350 06:35 11.04.2020
5136 Clouds 9 1023 87 7000 1.5 360 05:56 11.04.2020
5137 Clouds 10 1023 87 8000 2.6 80 03:48 11.04.2020
5138 Clouds 10 1024 87 6000 2.6 80 02:50 11.04.2020
5139 Clouds 11 1024 81 8000 3.6 90 01:26 11.04.2020
5140 Clouds 11 1024 81 8000 3.6 90 00:55 11.04.2020
5141 Clouds 11 1024 81 8000 3.6 90 00:37 11.04.2020
5142 Clouds 12 1024 81 9000 4.1 90 00:18 11.04.2020
5143 Clouds 12 1024 81 9000 4.1 90 23:41 10.04.2020
5144 Clouds 13 1024 76 10000 3.6 100 23:19 10.04.2020
5145 Clouds 13 1024 76 10000 3.6 90 22:58 10.04.2020
5146 Clouds 13 1024 76 10000 3.6 90 22:37 10.04.2020
5147 Clouds 14 1024 66 10000 4.1 100 22:19 10.04.2020
5148 Clouds 15 1024 62 10000 4.6 90 21:42 10.04.2020
5149 Clouds 16 1024 62 10000 4.6 100 21:21 10.04.2020
5150 Clouds 17 1024 58 10000 4.6 100 20:58 10.04.2020
5151 Clouds 17 1024 58 10000 4.6 100 20:39 10.04.2020
5152 Clouds 18 1024 51 10000 6.7 100 20:20 10.04.2020
5153 Clouds 19 1024 48 10000 7.7 100 19:56 10.04.2020
5154 Clouds 19 1024 48 10000 6.7 100 19:38 10.04.2020
5155 Clouds 20 1024 48 10000 6.7 100 19:19 10.04.2020
5156 Clouds 20 1024 48 10000 6.7 100 18:56 10.04.2020
5157 Clouds 20 1024 48 10000 6.7 100 18:38 10.04.2020
5158 Clouds 21 1024 45 10000 6.2 110 18:20 10.04.2020
5159 Clouds 21 1024 45 10000 7.7 100 17:57 10.04.2020
5160 Clouds 21 1024 45 10000 7.7 100 17:39 10.04.2020
5161 Clouds 21 1024 42 10000 7.2 110 17:19 10.04.2020
5162 Clouds 21 1024 45 10000 7.2 100 16:46 10.04.2020
5163 Clouds 22 1024 45 10000 7.7 90 16:24 10.04.2020
5164 Clouds 21 1024 45 10000 7.7 90 16:24 10.04.2020
5165 Clouds 22 1024 45 10000 7.7 90 15:59 10.04.2020
5166 Clouds 22 1024 45 10000 7.7 90 15:40 10.04.2020
5167 Clouds 21 1024 49 10000 6.7 90 15:21 10.04.2020
5168 Clouds 21 1025 46 10000 6.2 100 14:59 10.04.2020
5169 Clouds 21 1025 46 10000 6.2 100 14:41 10.04.2020
5170 Clouds 21 1025 48 10000 6.2 70 14:23 10.04.2020
5171 Clouds 21 1025 52 10000 5.1 70 13:56 10.04.2020
5172 Clouds 21 1025 52 10000 5.1 70 13:38 10.04.2020
5173 Clouds 20 1025 55 10000 4.6 80 13:20 10.04.2020
5174 Clouds 20 1026 55 10000 4.6 90 12:42 10.04.2020
5175 Clouds 17 1026 63 10000 3.6 80 12:21 10.04.2020
5176 Clouds 17 1026 67 8000 4.1 90 11:55 10.04.2020
5177 Clouds 16 1026 67 8000 4.1 90 11:36 10.04.2020
5178 Clouds 15 1026 67 7000 4.6 100 11:18 10.04.2020
5179 Clouds 14 1026 76 7000 4.1 90 10:42 10.04.2020
5180 Clouds 13 1026 81 6000 3.1 90 10:22 10.04.2020
5181 Haze 12 1026 87 5000 3.1 80 09:56 10.04.2020
5182 Haze 11 1026 87 5000 3.1 80 09:38 10.04.2020
5183 Haze 10 1026 87 4200 2.1 110 09:18 10.04.2020
5184 Haze 9 1026 93 4100 3.6 90 08:42 10.04.2020
5185 Haze 8 1026 93 4000 2.6 70 08:21 10.04.2020
5186 Haze 8 1026 93 4500 3.6 80 07:45 10.04.2020
5187 Haze 8 1026 87 4600 3.1 70 07:23 10.04.2020
5188 Haze 8 1026 87 4400 2.6 70 06:49 10.04.2020
5189 Haze 8 1026 87 4400 3.1 70 06:28 10.04.2020
5190 Haze 8 1026 87 4300 2.6 70 05:40 10.04.2020
5191 Haze 9 1026 87 4600 2.6 70 04:58 10.04.2020
5192 Haze 9 1026 81 4900 3.6 80 03:50 10.04.2020
5193 Haze 9 1026 81 5000 4.1 80 03:31 10.04.2020
5194 Clouds 9 1026 81 6000 4.1 100 02:49 10.04.2020
5195 Clouds 10 1026 81 7000 4.1 90 02:30 10.04.2020
5196 Clouds 10 1026 76 8000 4.6 90 01:30 10.04.2020
5197 Clouds 11 1026 76 10000 5.1 90 00:50 10.04.2020
5198 Clouds 11 1026 66 10000 4.6 90 00:25 10.04.2020
5199 Clouds 11 1026 66 10000 4.6 90 23:56 09.04.2020
5200 Clouds 12 1026 66 10000 4.6 90 23:38 09.04.2020
5201 Clouds 12 1026 66 10000 4.6 100 23:20 09.04.2020
5202 Clouds 13 1026 66 10000 4.6 90 22:42 09.04.2020
5203 Clouds 13 1026 62 10000 5.1 90 22:23 09.04.2020
5204 Clouds 14 1026 62 10000 5.7 100 21:56 09.04.2020
5205 Clouds 14 1026 62 10000 5.7 100 21:37 09.04.2020
5206 Clouds 15 1025 62 10000 5.1 90 21:19 09.04.2020
5207 Clouds 15 1025 62 10000 5.1 90 21:19 09.04.2020
5208 Clouds 16 1025 58 10000 5.1 100 20:44 09.04.2020
5209 Clouds 17 1025 51 10000 5.7 100 20:21 09.04.2020
5210 Clouds 18 1025 45 10000 7.7 100 19:58 09.04.2020
5211 Clouds 19 1025 42 10000 7.7 90 19:37 09.04.2020
5212 Clouds 19 1025 42 10000 7.7 90 19:18 09.04.2020
5213 Clouds 20 1025 39 10000 7.2 100 18:42 09.04.2020
5214 Clouds 20 1025 39 10000 7.2 100 18:42 09.04.2020
5215 Clear 21 1024 37 10000 7.2 100 18:20 09.04.2020
5216 Clear 21 1024 40 10000 7.2 110 17:43 09.04.2020
5217 Clear 21 1025 42 10000 6.7 90 17:24 09.04.2020
5218 Clear 22 1025 40 10000 5.7 90 16:57 09.04.2020
5219 Clear 22 1025 40 10000 5.7 90 16:39 09.04.2020
5220 Clear 22 1025 45 10000 6.2 80 16:19 09.04.2020
5221 Clear 22 1025 45 10000 6.2 80 15:55 09.04.2020
5222 Clear 22 1025 45 10000 6.2 80 15:55 09.04.2020
5223 Clear 21 1025 45 10000 6.2 80 15:37 09.04.2020
5224 Clear 21 1025 45 10000 6.2 80 15:37 09.04.2020
5225 Clear 21 1025 45 10000 6.2 80 15:37 09.04.2020
5226 Clear 21 1025 45 10000 6.2 90 15:18 09.04.2020
5227 Clear 21 1025 45 10000 6.2 90 15:18 09.04.2020
5228 Clear 21 1025 45 10000 5.7 80 14:42 09.04.2020
5229 Clear 21 1025 45 10000 5.1 90 14:21 09.04.2020
5230 Clear 21 1025 48 10000 5.7 100 13:56 09.04.2020
5231 Clear 20 1025 48 9000 5.7 100 13:38 09.04.2020
5232 Clear 20 1025 48 9000 5.7 100 13:19 09.04.2020
5233 Clear 20 1026 55 7000 5.1 100 12:43 09.04.2020
5234 Haze 18 1026 63 5000 4.6 80 12:24 09.04.2020
5235 Haze 16 1026 59 5000 4.1 90 11:59 09.04.2020
5236 Haze 16 1026 59 5000 4.1 90 11:59 09.04.2020
5237 Haze 16 1026 59 5000 4.1 90 11:41 09.04.2020
5238 Haze 16 1026 62 4800 3.6 90 11:20 09.04.2020
5239 Haze 15 1025 71 4400 3.6 80 10:58 09.04.2020
5240 Haze 15 1025 71 4400 3.6 80 10:39 09.04.2020
5241 Haze 14 1025 76 3800 2.1 90 10:20 09.04.2020
5242 Haze 12 1025 81 3400 1.5 100 09:56 09.04.2020
5243 Haze 12 1025 81 3400 1.5 100 09:38 09.04.2020
5244 Haze 10 1025 87 3200 2.1 80 09:19 09.04.2020
5245 Haze 9 1025 81 3200 2.1 40 08:43 09.04.2020
5246 Haze 8 1024 87 2800 1.5 60 08:23 09.04.2020
5247 Haze 8 1024 87 3000 1.5 70 07:55 09.04.2020
5248 Haze 8 1024 81 3500 1.5 70 07:27 09.04.2020
5249 Haze 8 1024 81 3500 1.5 0 06:55 09.04.2020
5250 Haze 8 1024 81 3600 1.5 80 06:18 09.04.2020
5251 Haze 8 1024 81 3600 2.1 90 05:40 09.04.2020
5252 Haze 9 1024 81 3600 2.1 100 03:55 09.04.2020
5253 Haze 10 1024 81 4400 1.5 50 02:30 09.04.2020
5254 Haze 10 1024 76 4800 2.1 70 01:42 09.04.2020
5255 Haze 11 1024 76 4800 2.1 80 01:24 09.04.2020
5256 Haze 11 1024 76 5000 2.1 70 00:43 09.04.2020
5257 Haze 12 1024 76 5000 3.1 90 00:20 09.04.2020
5258 Haze 12 1024 76 5000 3.1 90 00:20 09.04.2020
5259 Haze 12 1024 66 5000 2.6 80 23:59 08.04.2020
5260 Haze 12 1024 66 5000 2.6 80 23:41 08.04.2020
5261 Clear 13 1024 66 6000 4.1 100 23:21 08.04.2020
5262 Clear 14 1024 62 7000 4.6 100 22:44 08.04.2020
5263 Clear 14 1024 62 7000 4.6 100 22:24 08.04.2020
5264 Clear 15 1024 62 7000 3.6 80 21:57 08.04.2020
5265 Clear 15 1023 62 8000 4.6 100 21:39 08.04.2020
5266 Rain 16 1023 62 8000 4.6 100 21:20 08.04.2020
5267 Rain 17 1023 55 9000 5.1 90 20:58 08.04.2020
5268 Rain 18 1023 55 9000 5.1 90 20:39 08.04.2020
5269 Rain 18 1023 55 9000 5.1 90 20:20 08.04.2020
5270 Rain 19 1023 52 9000 5.1 100 19:57 08.04.2020
5271 Rain 19 1023 52 9000 5.1 100 19:37 08.04.2020
5272 Rain 20 1023 48 10000 5.1 110 19:19 08.04.2020
5273 Rain 20 1023 48 10000 5.1 110 19:19 08.04.2020
5274 Rain 21 1023 48 10000 5.1 90 18:42 08.04.2020
5275 Rain 21 1023 48 10000 5.1 90 18:24 08.04.2020
5276 Rain 21 1023 48 9000 5.1 80 17:56 08.04.2020
5277 Rain 21 1023 48 9000 5.1 80 17:38 08.04.2020
5278 Rain 21 1023 48 9000 5.1 80 17:38 08.04.2020
5279 Rain 21 1023 48 10000 5.7 90 17:18 08.04.2020
5280 Rain 21 1024 42 10000 5.7 100 16:42 08.04.2020
5281 Rain 21 1024 42 10000 5.7 100 16:23 08.04.2020
5282 Rain 21 1024 42 10000 5.7 100 15:58 08.04.2020
5283 Rain 21 1024 42 10000 5.7 100 15:38 08.04.2020
5284 Clouds 20 1024 48 10000 5.7 100 15:20 08.04.2020
5285 Clouds 20 1024 48 10000 5.7 100 14:45 08.04.2020
5286 Clouds 20 1024 48 10000 5.1 110 14:25 08.04.2020
5287 Clouds 19 1025 52 10000 5.7 110 13:57 08.04.2020
5288 Clouds 19 1025 52 10000 5.7 110 13:39 08.04.2020
5289 Clouds 19 1025 52 10000 4.6 100 13:20 08.04.2020
5290 Clouds 18 1025 52 10000 4.1 90 12:42 08.04.2020
5291 Clouds 16 1025 52 10000 3.6 100 12:18 08.04.2020
5292 Clouds 15 1025 55 10000 2.6 100 11:58 08.04.2020
5293 Clouds 15 1025 55 10000 2.6 100 11:39 08.04.2020
5294 Clouds 15 1025 58 10000 2.1 100 11:21 08.04.2020
5295 Clouds 14 1025 62 10000 1.5 100 10:56 08.04.2020
5296 Clouds 14 1025 66 7000 1.5 120 10:37 08.04.2020
5297 Clouds 13 1025 66 7000 1.5 120 10:19 08.04.2020
5298 Clouds 12 1025 66 10000 1 0 09:55 08.04.2020
5299 Clouds 11 1025 66 10000 1 0 09:37 08.04.2020
5300 Clouds 10 1025 71 10000 1.62 65 09:18 08.04.2020
5301 Clouds 9 1025 76 9000 0.5 0 08:42 08.04.2020
5302 Clouds 9 1025 71 9000 1.5 60 08:23 08.04.2020
5303 Clouds 8 1025 71 9000 1 0 07:44 08.04.2020
5304 Clouds 9 1025 76 10000 1.62 65 07:25 08.04.2020
5305 Clouds 9 1025 76 10000 1.62 65 06:59 08.04.2020
5306 Clouds 9 1025 71 10000 1 340 06:19 08.04.2020
5307 Clouds 9 1026 76 9000 1 80 04:19 08.04.2020
5308 Clouds 9 1027 81 10000 1.5 100 02:49 08.04.2020
5309 Clouds 9 1027 76 10000 2.1 70 02:20 08.04.2020
5310 Clouds 9 1027 76 10000 2.1 80 01:45 08.04.2020
5311 Clouds 9 1027 76 10000 2.6 60 01:23 08.04.2020
5312 Clouds 10 1027 76 10000 3.1 80 00:41 08.04.2020
5313 Clouds 10 1027 76 10000 3.6 90 00:22 08.04.2020
5314 Clouds 11 1027 76 10000 2.6 90 23:40 07.04.2020
5315 Clouds 11 1027 76 10000 2.6 90 23:40 07.04.2020
5316 Clouds 11 1028 76 10000 3.6 90 23:21 07.04.2020
5317 Clouds 11 1028 71 10000 3.6 100 22:57 07.04.2020
5318 Clouds 12 1028 71 10000 3.6 100 22:39 07.04.2020
5319 Clouds 12 1028 71 10000 3.6 100 22:19 07.04.2020
5320 Clouds 13 1027 71 10000 4.1 80 21:56 07.04.2020
5321 Clouds 13 1027 71 10000 4.1 80 21:56 07.04.2020
5322 Clouds 13 1027 71 10000 4.1 80 21:38 07.04.2020
5323 Clouds 14 1027 62 10000 4.1 80 21:20 07.04.2020
5324 Clouds 15 1027 62 10000 4.6 90 20:57 07.04.2020
5325 Clouds 15 1027 44 10000 4.6 100 20:38 07.04.2020
5326 Clouds 16 1027 44 10000 4.6 100 20:20 07.04.2020
5327 Clouds 16 1027 44 10000 4.6 100 20:20 07.04.2020
5328 Clouds 16 1027 39 10000 6.7 100 19:57 07.04.2020
5329 Clouds 17 1027 36 10000 3.6 120 19:37 07.04.2020
5330 Clouds 17 1027 36 10000 3.6 120 19:18 07.04.2020
5331 Clouds 17 1027 39 10000 4.1 120 18:57 07.04.2020
5332 Clouds 18 1027 39 10000 4.1 120 18:38 07.04.2020
5333 Clouds 18 1027 45 10000 4.6 100 18:19 07.04.2020
5334 Clouds 18 1028 45 10000 4.6 80 17:44 07.04.2020
5335 Clouds 18 1028 45 10000 4.6 80 17:21 07.04.2020
5336 Clouds 18 1028 42 10000 5.1 90 16:47 07.04.2020
5337 Clouds 18 1028 36 10000 5.7 90 16:29 07.04.2020
5338 Clouds 18 1028 36 10000 5.7 90 15:58 07.04.2020
5339 Clouds 18 1029 34 10000 6.2 110 15:40 07.04.2020
5340 Clouds 18 1029 34 10000 6.2 110 15:22 07.04.2020
5341 Clouds 18 1029 42 10000 5.1 100 14:41 07.04.2020
5342 Clouds 18 1029 42 10000 5.7 100 14:22 07.04.2020
5343 Clouds 17 1030 45 10000 5.7 90 13:57 07.04.2020
5344 Clouds 17 1030 45 10000 5.7 90 13:38 07.04.2020
5345 Clouds 17 1030 48 10000 4.6 100 13:18 07.04.2020
5346 Clouds 17 1030 48 10000 4.6 100 12:55 07.04.2020
5347 Clouds 16 1030 48 10000 4.6 100 12:36 07.04.2020
5348 Clear 15 1030 51 10000 5.1 100 12:18 07.04.2020
5349 Clear 14 1030 54 10000 4.1 90 11:44 07.04.2020
5350 Clear 13 1030 58 10000 3.6 90 11:26 07.04.2020
5351 Clear 12 1030 62 10000 1.5 90 10:59 07.04.2020
5352 Clear 12 1030 62 10000 1.5 90 10:38 07.04.2020
5353 Clear 11 1030 62 10000 1 100 10:19 07.04.2020
5354 Clear 9 1030 70 10000 1.5 80 09:45 07.04.2020
5355 Clouds 6 1030 70 10000 0.5 0 09:19 07.04.2020
5356 Clouds 5 1030 75 10000 1.23 75 08:56 07.04.2020
5357 Clouds 5 1030 75 10000 1.23 75 08:38 07.04.2020
5358 Clouds 4 1030 81 10000 1.23 75 08:18 07.04.2020
5359 Clouds 4 1030 81 10000 1.23 75 07:43 07.04.2020
5360 Clouds 4 1029 81 10000 1.23 75 07:25 07.04.2020
5361 Clouds 4 1029 81 10000 1.23 75 06:51 07.04.2020
5362 Clouds 5 1029 70 10000 0.5 270 06:25 07.04.2020
5363 Clouds 4 1028 93 10000 0.5 210 05:46 07.04.2020
5364 Clouds 5 1029 81 10000 1 320 05:22 07.04.2020
5365 Clouds 6 1028 75 10000 1 0 03:32 07.04.2020
5366 Clear 6 1027 75 10000 1.5 320 02:59 07.04.2020
5367 Clear 7 1028 70 10000 1.5 320 02:33 07.04.2020
5368 Clear 7 1026 75 10000 1.5 280 01:33 07.04.2020
5369 Clear 8 1027 66 10000 2.6 270 00:44 07.04.2020
5370 Clear 8 1026 71 10000 2.1 230 00:25 07.04.2020
5371 Clear 9 1026 71 10000 2.1 230 23:39 06.04.2020
5372 Clear 10 1026 71 10000 2.6 210 23:20 06.04.2020
5373 Clear 11 1025 47 10000 1 0 22:41 06.04.2020
5374 Clear 11 1025 71 10000 2.6 220 22:23 06.04.2020
5375 Clear 12 1024 62 10000 1.5 0 21:59 06.04.2020
5376 Clear 12 1024 62 10000 1.5 0 21:41 06.04.2020
5377 Rain 13 1023 44 10000 5.1 280 21:19 06.04.2020
5378 Rain 14 1022 44 10000 5.7 270 20:56 06.04.2020
5379 Rain 14 1022 44 10000 5.7 270 20:38 06.04.2020
5380 Rain 15 1022 58 10000 3.1 210 20:20 06.04.2020
5381 Rain 15 1021 41 10000 5.1 270 19:56 06.04.2020
5382 Rain 15 1021 41 10000 5.1 270 19:38 06.04.2020
5383 Rain 16 1021 36 10000 5.1 260 19:19 06.04.2020
5384 Rain 16 1021 36 10000 5.1 260 19:19 06.04.2020
5385 Rain 16 1020 36 10000 5.1 280 18:42 06.04.2020
5386 Clear 16 1020 36 10000 4.6 250 18:23 06.04.2020
5387 Clear 16 1020 33 10000 5.7 240 17:57 06.04.2020
5388 Clear 17 1020 33 10000 5.7 240 17:39 06.04.2020
5389 Clear 17 1019 34 10000 5.7 260 17:18 06.04.2020
5390 Clear 17 1019 36 10000 5.7 280 16:48 06.04.2020
5391 Clear 17 1019 39 10000 5.1 270 16:30 06.04.2020
5392 Clouds 16 1018 59 10000 3.6 260 14:49 06.04.2020
5393 Clouds 16 1018 59 10000 3.6 260 14:49 06.04.2020
5394 Clouds 16 1018 59 10000 3.6 260 14:49 06.04.2020
5395 Clouds 16 1018 59 10000 3.6 260 14:49 06.04.2020
5396 Clouds 16 1018 59 10000 3.6 260 14:49 06.04.2020
5397 Clouds 16 1017 76 10000 4.1 250 13:45 06.04.2020
5398 Clouds 16 1017 76 10000 4.1 250 13:45 06.04.2020
5399 Clouds 15 1017 82 10000 3.6 230 13:22 06.04.2020
5400 Clouds 14 1017 87 10000 2.1 240 12:46 06.04.2020
5401 Rain 13 1016 81 10000 4.6 280 12:20 06.04.2020
5402 Rain 12 1015 87 10000 4.6 290 11:40 06.04.2020
5403 Drizzle 12 1015 87 3000 5.1 260 11:21 06.04.2020
5404 Drizzle 12 1015 87 3000 5.1 260 11:21 06.04.2020
5405 Drizzle 12 1015 87 3000 5.1 260 11:21 06.04.2020
5406 Drizzle 12 1015 87 3000 5.1 260 11:21 06.04.2020
5407 Drizzle 12 1015 87 3000 5.1 260 11:19 06.04.2020
5408 Clouds 12 1014 82 10000 3.1 230 10:42 06.04.2020
5409 Clouds 12 1014 82 10000 3.1 230 10:42 06.04.2020
5410 Clouds 12 1014 82 10000 3.1 230 10:42 06.04.2020
5411 Clouds 12 1014 82 10000 3.1 230 10:42 06.04.2020
5412 Clouds 12 1014 82 10000 3.1 230 10:42 06.04.2020
5413 Clouds 12 1013 76 10000 3.6 230 10:21 06.04.2020
5414 Clouds 12 1013 76 10000 3.6 230 10:21 06.04.2020
5415 Clouds 12 1013 76 10000 3.6 230 10:21 06.04.2020
5416 Clouds 12 1013 76 10000 3.6 230 10:20 06.04.2020
5417 Clouds 12 1013 76 10000 3.6 230 10:20 06.04.2020
5418 Clouds 12 1013 76 10000 4.1 210 09:40 06.04.2020
5419 Rain 12 1012 76 10000 3.6 220 09:20 06.04.2020
5420 Rain 12 1012 76 10000 3.6 220 09:20 06.04.2020
5421 Clouds 12 1012 71 10000 3.6 220 08:47 06.04.2020
5422 Clouds 12 1012 81 10000 5.1 190 08:29 06.04.2020
5423 Clouds 12 1012 81 10000 5.1 190 08:29 06.04.2020
5424 Clouds 12 1012 81 10000 5.1 190 08:29 06.04.2020
5425 Clouds 12 1012 81 10000 5.1 190 08:29 06.04.2020
5426 Clouds 12 1012 81 10000 5.1 190 08:29 06.04.2020
5427 Rain 12 1011 67 10000 2.1 170 07:23 06.04.2020
5428 Rain 13 1011 71 10000 4.1 190 06:28 06.04.2020
5429 Clear 12 1010 66 10000 3.6 180 05:54 06.04.2020
5430 Clear 12 1010 66 10000 3.1 170 04:18 06.04.2020
5431 Clear 13 1010 58 10000 4.1 160 02:54 06.04.2020
5432 Clear 13 1010 58 10000 3.1 130 01:57 06.04.2020
5433 Clear 14 1010 47 10000 3.6 190 00:59 06.04.2020
5434 Clear 14 1010 47 10000 2.6 150 00:28 06.04.2020
5435 Clear 14 1010 41 10000 4.1 170 23:56 05.04.2020
5436 Clear 14 1010 41 10000 4.1 170 23:38 05.04.2020
5437 Clear 14 1011 39 10000 5.1 150 23:19 05.04.2020
5438 Clear 15 1011 39 10000 4.1 150 22:54 05.04.2020
5439 Clear 15 1011 39 10000 4.1 150 22:36 05.04.2020
5440 Clear 15 1010 44 10000 4.6 150 22:18 05.04.2020
5441 Clear 16 1011 36 10000 4.1 140 21:42 05.04.2020
5442 Clear 16 1011 36 10000 4.1 140 21:42 05.04.2020
5443 Clouds 16 1011 44 10000 5.7 150 21:23 05.04.2020
5444 Clouds 18 1011 39 10000 5.1 150 20:24 05.04.2020
5445 Clouds 19 1011 30 10000 5.7 160 19:43 05.04.2020
5446 Clouds 19 1011 30 10000 5.7 170 19:24 05.04.2020
5447 Clouds 20 1011 56 10000 6.7 170 18:49 05.04.2020
5448 Clouds 20 1011 56 10000 6.7 170 18:49 05.04.2020
5449 Clear 20 1011 21 10000 6.2 180 18:18 05.04.2020
5450 Clear 20 1011 45 10000 6.2 160 17:49 05.04.2020
5451 Clear 20 1011 45 10000 6.2 160 17:49 05.04.2020
5452 Clear 20 1011 45 10000 6.2 160 17:49 05.04.2020
5453 Clear 20 1011 45 10000 6.2 160 17:49 05.04.2020
5454 Clear 20 1011 45 10000 6.2 160 17:49 05.04.2020
5455 Clear 20 1012 26 10000 6.2 160 17:22 05.04.2020
5456 Clear 20 1012 26 10000 5.1 180 16:47 05.04.2020
5457 Clear 20 1012 26 10000 5.1 180 16:47 05.04.2020
5458 Clear 20 1012 26 10000 5.1 180 16:47 05.04.2020
5459 Clear 20 1012 28 10000 6.2 160 16:19 05.04.2020
5460 Clear 20 1013 28 10000 5.1 160 15:46 05.04.2020
5461 Clear 19 1013 28 10000 5.1 160 15:27 05.04.2020
5462 Clear 19 1013 28 10000 5.1 160 15:27 05.04.2020
5463 Clear 19 1013 28 10000 5.1 160 15:27 05.04.2020
5464 Clear 19 1013 32 10000 5.1 160 14:48 05.04.2020
5465 Clear 19 1013 32 10000 5.1 160 14:48 05.04.2020
5466 Clear 19 1013 32 10000 5.1 160 14:48 05.04.2020
5467 Clear 19 1013 32 10000 5.1 160 14:48 05.04.2020
5468 Clear 18 1014 32 10000 6.7 150 13:59 05.04.2020
5469 Clear 18 1014 34 10000 5.1 150 13:40 05.04.2020
5470 Clear 18 1014 34 10000 5.1 150 13:40 05.04.2020
5471 Clear 18 1014 34 10000 5.1 150 13:40 05.04.2020
5472 Clear 18 1014 34 10000 5.1 150 13:40 05.04.2020
5473 Clear 18 1014 34 10000 5.1 150 13:40 05.04.2020
5474 Clear 15 1015 44 10000 3.6 130 12:20 05.04.2020
5475 Clear 14 1015 47 10000 4.1 120 11:40 05.04.2020
5476 Clear 14 1016 47 10000 5.1 130 11:20 05.04.2020
5477 Clear 13 1016 50 10000 4.6 140 10:47 05.04.2020
5478 Clear 12 1016 54 10000 4.1 120 10:23 05.04.2020
5479 Clear 11 1016 54 10000 4.1 120 09:55 05.04.2020
5480 Clear 9 1016 57 10000 5.1 110 09:27 05.04.2020
5481 Clear 7 1016 70 10000 5.1 100 08:34 05.04.2020
5482 Clear 7 1016 70 10000 5.1 100 08:34 05.04.2020
5483 Clear 6 1016 61 10000 5.1 120 07:20 05.04.2020
5484 Clear 6 1016 61 10000 5.1 120 07:19 05.04.2020
5485 Clear 7 1017 70 10000 3.6 110 04:31 05.04.2020
5486 Clear 7 1018 75 10000 3.6 100 03:28 05.04.2020
5487 Clear 7 1019 81 9000 4.6 100 02:46 05.04.2020
5488 Clear 7 1019 75 10000 4.1 100 01:45 05.04.2020
5489 Clear 7 1019 75 10000 4.1 100 01:23 05.04.2020
5490 Clear 8 1019 70 10000 4.6 100 00:42 05.04.2020
5491 Clear 8 1019 70 10000 4.6 100 00:21 05.04.2020
5492 Clear 8 1020 70 10000 4.1 100 23:42 04.04.2020
5493 Clear 9 1020 61 10000 4.1 100 23:22 04.04.2020
5494 Clear 9 1020 61 10000 4.1 100 22:57 04.04.2020
5495 Clear 9 1019 53 10000 4.1 100 22:39 04.04.2020
5496 Clear 9 1019 63 10000 4.1 120 22:20 04.04.2020
5497 Clear 10 1019 63 10000 4.1 120 21:58 04.04.2020
5498 Clear 10 1019 63 10000 3.6 120 21:39 04.04.2020
5499 Clear 11 1019 58 10000 3.6 130 21:19 04.04.2020
5500 Clear 11 1019 58 10000 3.6 130 20:56 04.04.2020
5501 Clear 12 1019 58 10000 5.1 130 20:37 04.04.2020
5502 Clear 13 1019 40 10000 3.6 150 20:19 04.04.2020
5503 Clear 14 1019 40 10000 4.6 130 19:55 04.04.2020
5504 Clear 14 1019 31 10000 4.6 150 19:36 04.04.2020
5505 Clear 14 1019 31 10000 4.6 150 19:36 04.04.2020
5506 Clear 14 1019 31 10000 4.6 160 19:18 04.04.2020
5507 Clear 15 1019 31 10000 4.1 160 18:55 04.04.2020
5508 Clear 15 1019 31 10000 4.1 160 18:37 04.04.2020
5509 Clear 15 1019 31 10000 5.1 150 18:18 04.04.2020
5510 Clear 15 1019 36 10000 4.1 160 17:40 04.04.2020
5511 Clear 15 1019 33 10000 3.6 210 17:20 04.04.2020
5512 Clear 15 1020 36 10000 3.6 170 16:55 04.04.2020
5513 Clear 15 1020 36 10000 3.6 170 16:37 04.04.2020
5514 Clear 15 1020 38 10000 4.6 180 16:18 04.04.2020
5515 Clear 15 1020 44 10000 4.6 180 15:40 04.04.2020
5516 Clouds 15 1020 41 10000 4.1 180 15:22 04.04.2020
5517 Clouds 15 1020 41 10000 4.1 180 14:57 04.04.2020
5518 Clouds 15 1020 41 10000 4.1 180 14:57 04.04.2020
5519 Clouds 15 1020 41 10000 3.6 200 14:39 04.04.2020
5520 Clear 15 1021 47 10000 4.1 180 14:20 04.04.2020
5521 Clear 15 1021 54 10000 4.1 160 13:55 04.04.2020
5522 Clear 14 1021 54 10000 4.1 160 13:37 04.04.2020
5523 Clear 14 1021 58 10000 3.1 180 13:18 04.04.2020
5524 Clear 14 1021 58 10000 3.1 180 13:18 04.04.2020
5525 Clear 13 1021 58 10000 4.6 210 12:44 04.04.2020
5526 Clear 11 1022 62 10000 3.1 200 12:23 04.04.2020
5527 Clear 11 1022 62 10000 3.1 200 11:58 04.04.2020
5528 Clouds 10 1022 71 10000 1.5 0 11:38 04.04.2020
5529 Clear 9 1022 76 10000 2.1 230 11:19 04.04.2020
5530 Clouds 9 1022 81 10000 2.1 240 10:55 04.04.2020
5531 Clouds 8 1022 81 10000 2.1 240 10:37 04.04.2020
5532 Clear 7 1021 81 10000 3.1 220 10:18 04.04.2020
5533 Clear 6 1021 87 10000 3.1 220 09:54 04.04.2020
5534 Clear 6 1021 87 10000 3.1 220 09:36 04.04.2020
5535 Clouds 5 1021 87 10000 2.6 220 09:18 04.04.2020
5536 Clouds 5 1021 81 10000 1.5 0 08:38 04.04.2020
5537 Clouds 4 1020 87 10000 2.1 230 08:20 04.04.2020
5538 Clouds 4 1020 87 10000 0.5 0 07:44 04.04.2020
5539 Clouds 3 1020 87 10000 1.64 177 07:26 04.04.2020
5540 Clouds 3 1020 81 10000 1 240 06:51 04.04.2020
5541 Clouds 4 1020 81 10000 1.5 220 06:19 04.04.2020
5542 Clouds 3 1020 79 10000 0.5 250 05:41 04.04.2020
5543 Clouds 4 1020 80 10000 1 170 05:23 04.04.2020
5544 Clouds 4 1020 80 10000 0.5 150 04:30 04.04.2020
5545 Clouds 4 1020 86 10000 1.46 193 03:49 04.04.2020
5546 Clouds 5 1019 86 10000 1 170 02:51 04.04.2020
5547 Clouds 5 1020 75 10000 1.5 230 02:32 04.04.2020
5548 Clouds 5 1020 75 10000 1 280 01:55 04.04.2020
5549 Clouds 5 1020 70 10000 1 260 01:25 04.04.2020
5550 Clouds 6 1019 75 10000 0.5 230 00:49 04.04.2020
5551 Clouds 6 1019 61 10000 1.5 220 00:30 04.04.2020
5552 Clouds 6 1019 70 10000 4.1 190 23:40 03.04.2020
5553 Clouds 7 1019 64 10000 3.1 200 23:21 03.04.2020
5554 Clouds 7 1019 64 10000 3.1 200 22:58 03.04.2020
5555 Clouds 8 1019 64 10000 2.6 190 22:39 03.04.2020
5556 Clouds 8 1019 57 10000 2.1 200 22:19 03.04.2020
5557 Clouds 9 1019 57 10000 1.5 210 21:45 03.04.2020
5558 Clouds 9 1019 64 10000 2.1 280 21:26 03.04.2020
5559 Clouds 10 1019 57 10000 1.5 230 20:57 03.04.2020
5560 Clouds 11 1018 46 10000 2.6 280 20:39 03.04.2020
5561 Clouds 11 1018 43 10000 3.1 270 20:21 03.04.2020
5562 Clouds 12 1018 43 10000 3.1 270 19:58 03.04.2020
5563 Clouds 12 1018 43 10000 2.6 280 19:39 03.04.2020
5564 Clouds 12 1018 43 10000 2.6 270 19:21 03.04.2020
5565 Clouds 12 1018 43 10000 3.1 0 18:59 03.04.2020
5566 Clouds 12 1018 43 10000 3.1 0 18:41 03.04.2020
5567 Clouds 13 1018 44 10000 3.6 250 18:23 03.04.2020
5568 Clouds 12 1018 41 10000 3.6 260 17:58 03.04.2020
5569 Clouds 12 1018 41 10000 3.6 260 17:39 03.04.2020
5570 Clouds 12 1018 43 10000 3.6 240 17:19 03.04.2020
5571 Clouds 12 1018 47 10000 3.1 240 16:46 03.04.2020
5572 Clouds 12 1018 50 10000 4.1 240 16:22 03.04.2020
5573 Clouds 12 1018 50 10000 4.1 240 15:59 03.04.2020
5574 Clouds 12 1018 43 10000 3.6 280 15:40 03.04.2020
5575 Clouds 11 1018 46 10000 3.6 270 15:22 03.04.2020
5576 Clouds 12 1018 57 0 0.89 294 14:57 03.04.2020
5577 Clouds 11 1018 50 10000 2.1 250 14:39 03.04.2020
5578 Clouds 11 1018 50 10000 2.1 250 14:21 03.04.2020
5579 Clouds 11 1018 50 10000 2.1 250 13:46 03.04.2020
5580 Clouds 10 1018 50 10000 2.1 250 13:26 03.04.2020
5581 Clouds 10 1018 50 10000 3.1 270 12:57 03.04.2020
5582 Clouds 10 1018 50 10000 3.1 270 12:39 03.04.2020
5583 Clouds 10 1018 57 10000 2.6 270 12:18 03.04.2020
5584 Clouds 10 1018 57 10000 3.1 240 11:55 03.04.2020
5585 Clouds 9 1018 57 10000 3.1 240 11:55 03.04.2020
5586 Clouds 10 1018 57 10000 3.1 240 11:55 03.04.2020
5587 Clouds 9 1018 57 10000 3.1 240 11:37 03.04.2020
5588 Clouds 9 1017 61 10000 2.1 240 11:18 03.04.2020
5589 Clouds 9 1017 61 10000 2.1 240 10:56 03.04.2020
5590 Clouds 9 1017 70 10000 2.1 230 10:37 03.04.2020
5591 Clouds 8 1017 76 10000 2.1 230 10:19 03.04.2020
5592 Clouds 8 1017 66 10000 1.5 220 09:55 03.04.2020
5593 Clouds 8 1017 66 10000 1.5 220 09:37 03.04.2020
5594 Clouds 7 1017 87 10000 1.5 0 09:19 03.04.2020
5595 Clouds 7 1017 87 10000 2.1 220 08:44 03.04.2020
5596 Clouds 7 1017 87 10000 2.1 220 08:24 03.04.2020
5597 Clouds 7 1016 87 10000 1.5 0 07:57 03.04.2020
5598 Clouds 7 1016 87 10000 1.5 230 07:39 03.04.2020
5599 Clouds 7 1016 87 10000 2.1 260 07:20 03.04.2020
5600 Clouds 7 1015 87 10000 1 300 06:28 03.04.2020
5601 Clouds 7 1015 61 10000 2.6 310 05:43 03.04.2020
5602 Clouds 7 1016 81 10000 1.5 310 04:30 03.04.2020
5603 Clouds 7 1016 81 10000 1 0 03:35 03.04.2020
5604 Clouds 8 1015 71 10000 3.6 290 02:40 03.04.2020
5605 Clouds 8 1015 81 10000 3.6 270 01:27 03.04.2020
5606 Clouds 8 1015 70 10000 3.1 290 00:52 03.04.2020
5607 Clouds 8 1015 81 10000 3.1 290 00:33 03.04.2020
5608 Clouds 9 1015 70 10000 4.1 280 23:57 02.04.2020
5609 Clouds 9 1015 70 10000 4.1 280 23:38 02.04.2020
5610 Clouds 9 1015 70 10000 4.1 280 23:19 02.04.2020
5611 Rain 9 1014 70 10000 4.1 270 22:42 02.04.2020
5612 Rain 9 1014 70 10000 4.1 270 22:42 02.04.2020
5613 Rain 10 1014 70 10000 4.1 280 22:23 02.04.2020
5614 Rain 10 1014 70 10000 4.1 280 21:59 02.04.2020
5615 Rain 10 1014 58 10000 5.1 290 21:37 02.04.2020
5616 Clouds 10 1014 66 10000 4.1 280 21:19 02.04.2020
5617 Clouds 11 1013 66 10000 4.6 280 20:54 02.04.2020
5618 Clouds 11 1013 66 10000 4.6 280 20:36 02.04.2020
5619 Clouds 11 1013 54 10000 5.7 290 20:18 02.04.2020
5620 Clouds 12 1013 54 10000 5.7 290 19:42 02.04.2020
5621 Clouds 12 1013 58 10000 6.7 270 19:20 02.04.2020
5622 Clouds 12 1013 58 10000 6.7 270 18:56 02.04.2020
5623 Clouds 12 1013 58 10000 6.7 270 18:38 02.04.2020
5624 Clouds 12 1013 58 10000 6.2 260 18:19 02.04.2020
5625 Clouds 13 1013 54 10000 6.7 270 17:43 02.04.2020
5626 Clouds 13 1013 50 10000 6.7 280 17:24 02.04.2020
5627 Clouds 13 1013 50 10000 6.7 280 16:59 02.04.2020
5628 Clouds 13 1014 54 10000 6.7 270 16:40 02.04.2020
5629 Clouds 13 1014 50 10000 4.6 270 16:22 02.04.2020
5630 Clouds 13 1014 50 10000 4.6 270 15:57 02.04.2020
5631 Clouds 13 1014 50 10000 4.6 260 15:39 02.04.2020
5632 Clouds 13 1014 50 10000 4.6 260 15:20 02.04.2020
5633 Clouds 12 1014 50 10000 4.6 260 14:58 02.04.2020
5634 Clouds 12 1015 50 10000 5.1 280 14:38 02.04.2020
5635 Clouds 12 1015 50 10000 4.6 300 14:19 02.04.2020
5636 Clouds 12 1015 50 10000 4.6 300 14:19 02.04.2020
5637 Clouds 12 1015 50 10000 4.1 290 13:55 02.04.2020
5638 Clouds 12 1015 50 10000 4.1 290 13:37 02.04.2020
5639 Clouds 11 1015 57 10000 6.2 270 13:19 02.04.2020
5640 Clouds 11 1016 62 10000 4.1 260 12:46 02.04.2020
5641 Clouds 10 1016 62 10000 4.1 270 12:20 02.04.2020
5642 Clouds 10 1016 62 10000 4.1 270 12:20 02.04.2020
5643 Clouds 9 1016 61 10000 3.6 280 11:58 02.04.2020
5644 Clouds 9 1016 61 10000 3.6 280 11:39 02.04.2020
5645 Clouds 9 1016 61 10000 3.6 280 11:39 02.04.2020
5646 Clouds 9 1016 61 10000 3.6 280 11:39 02.04.2020
5647 Clouds 9 1016 66 10000 3.1 260 11:21 02.04.2020
5648 Clouds 8 1016 66 10000 3.1 260 10:57 02.04.2020
5649 Clouds 8 1016 66 10000 3.6 280 10:39 02.04.2020
5650 Clouds 8 1016 70 10000 4.1 280 10:21 02.04.2020
5651 Clouds 7 1016 70 10000 4.1 280 09:59 02.04.2020
5652 Clouds 7 1017 65 10000 2.6 270 09:41 02.04.2020
5653 Clouds 6 1017 75 10000 4.1 280 09:22 02.04.2020
5654 Clouds 6 1017 75 10000 4.1 280 08:57 02.04.2020
5655 Clouds 6 1017 70 10000 2.6 260 08:38 02.04.2020
5656 Clouds 6 1017 70 10000 3.1 280 08:19 02.04.2020
5657 Clouds 5 1017 78 10000 2.6 260 07:42 02.04.2020
5658 Clouds 5 1017 75 10000 2.1 270 07:19 02.04.2020
5659 Clouds 6 1017 70 10000 2.1 280 06:46 02.04.2020
5660 Clouds 5 1017 70 10000 2.1 280 06:20 02.04.2020
5661 Clouds 6 1018 70 10000 2.1 290 05:41 02.04.2020
5662 Clouds 6 1019 70 10000 2.1 290 02:59 02.04.2020
5663 Clouds 6 1020 70 10000 2.1 290 01:31 02.04.2020
5664 Clouds 6 1020 70 10000 1.5 320 00:42 02.04.2020
5665 Clouds 6 1020 64 10000 2.1 310 00:24 02.04.2020
5666 Rain 6 1020 58 10000 2.6 300 23:41 01.04.2020
5667 Clouds 7 1020 56 10000 2.1 330 23:20 01.04.2020
5668 Clouds 7 1020 56 10000 2.1 330 22:59 01.04.2020
5669 Clouds 7 1020 58 10000 1.5 0 22:39 01.04.2020
5670 Clouds 7 1020 56 10000 3.1 330 22:21 01.04.2020
5671 Clouds 7 1020 60 10000 3.1 330 21:42 01.04.2020
5672 Clouds 7 1020 56 10000 3.6 300 21:22 01.04.2020
5673 -273 0 0 0 0 0 21:22 01.04.2020
5674 Clouds 7 1020 56 10000 3.6 300 21:21 01.04.2020
5675 Clouds 7 1020 56 10000 3.6 300 21:21 01.04.2020
5676 Clouds 7 1020 56 10000 3.6 300 21:20 01.04.2020
5677 Clouds 7 1020 56 10000 3.6 300 20:57 01.04.2020
5678 Clouds 8 1020 65 10000 3.1 330 20:39 01.04.2020
5679 Clouds 8 1020 58 10000 4.1 290 20:20 01.04.2020
5680 Clouds 8 1020 58 10000 4.1 290 20:20 01.04.2020
5681 Clouds 8 1020 49 10000 3.6 300 19:59 01.04.2020
5682 Clouds 8 1020 49 10000 3.6 300 19:41 01.04.2020
5683 Clouds 8 1020 49 10000 3.6 290 19:20 01.04.2020
5684 Clouds 8 1021 49 10000 3.1 310 18:44 01.04.2020
5685 Clouds 8 1021 49 10000 3.1 300 18:25 01.04.2020
5686 Clouds 9 1021 45 10000 3.6 310 17:58 01.04.2020
5687 Clouds 9 1021 45 10000 3.6 310 17:38 01.04.2020
5688 Clouds 9 1021 49 10000 3.1 300 17:20 01.04.2020
5689 Clouds 9 1021 49 10000 3.1 300 16:59 01.04.2020
5690 Clouds 9 1022 45 10000 3.1 320 16:39 01.04.2020
5691 Clouds 9 1022 49 10000 3.6 310 16:21 01.04.2020
5692 Clouds 9 1022 49 10000 3.6 310 15:58 01.04.2020
5693 Clouds 9 1022 49 10000 3.6 280 15:38 01.04.2020
5694 Clouds 9 1023 49 10000 2.1 320 15:20 01.04.2020
5695 Clouds 9 1023 49 10000 2.1 320 14:56 01.04.2020
5696 Clouds 9 1023 45 10000 3.1 300 14:38 01.04.2020
5697 Clouds 9 1023 49 10000 2.6 320 14:19 01.04.2020
5698 Clouds 9 1023 49 10000 2.6 320 13:57 01.04.2020
5699 Clouds 9 1024 49 10000 3.1 300 13:37 01.04.2020
5700 Clouds 9 1024 49 10000 1.5 0 13:18 01.04.2020
5701 Clouds 8 1024 49 10000 1.5 0 12:54 01.04.2020
5702 Clouds 8 1024 49 10000 1.5 0 12:36 01.04.2020
5703 Clouds 7 1025 52 10000 1 0 12:18 01.04.2020
5704 Clear 7 1025 58 10000 0.5 0 11:40 01.04.2020
5705 Clear 6 1025 58 10000 0.9 343 11:21 01.04.2020
5706 Clear 6 1025 58 10000 0.9 343 10:57 01.04.2020
5707 Clear 5 1025 58 10000 0.5 0 10:37 01.04.2020
5708 Clear 4 1025 58 10000 1 0 10:18 01.04.2020
5709 Clear 4 1025 58 10000 1 0 10:18 01.04.2020
5710 Clear 2 1026 74 10000 1.5 270 09:55 01.04.2020
5711 Clear 2 1026 74 10000 1.5 270 09:37 01.04.2020
5712 Clear 1 1026 80 10000 1.5 0 09:18 01.04.2020
5713 Clouds 0 1025 92 10000 1 270 08:40 01.04.2020
5714 Clear -1 1026 80 10000 2.1 290 08:18 01.04.2020
5715 Clear -1 1025 92 10000 1 0 07:44 01.04.2020
5716 Clear -1 1026 92 10000 1.5 310 07:21 01.04.2020
5717 Clear -1 1026 80 10000 1 0 06:48 01.04.2020
5718 Clear -1 1026 80 10000 1.5 330 06:26 01.04.2020
5719 Clear -1 1027 80 10000 1 0 05:56 01.04.2020
5720 Clear 0 1027 74 10000 1.65 17 04:32 01.04.2020
5721 Clear 0 1028 74 10000 1 0 03:32 01.04.2020
5722 Clear 1 1028 74 10000 1.5 0 02:56 01.04.2020
5723 Clear 1 1029 69 10000 2.1 50 01:59 01.04.2020
5724 Clear 2 1029 69 10000 2.1 50 01:39 01.04.2020
5725 Clear 2 1029 69 10000 2.1 50 01:18 01.04.2020
5726 Clear 2 1029 64 10000 2.1 60 00:46 01.04.2020
5727 Clear 2 1029 65 10000 1.5 0 00:21 01.04.2020
5728 Clear 3 1029 65 10000 2.1 40 23:48 31.03.2020
5729 Clear 3 1029 65 10000 2.1 40 23:27 31.03.2020
5730 Clear 4 1030 65 10000 4.1 70 22:59 31.03.2020
5731 Clear 4 1030 65 10000 4.1 70 22:37 31.03.2020
5732 Clear 4 1030 60 10000 3.6 100 22:19 31.03.2020
5733 Clear 5 1030 56 10000 4.1 100 21:57 31.03.2020
5734 Clear 5 1030 56 10000 4.1 100 21:39 31.03.2020
5735 Clouds 6 1030 56 10000 4.6 100 21:20 31.03.2020
5736 Clouds 6 1030 56 10000 4.6 100 20:55 31.03.2020
5737 Clouds 7 1030 55 10000 4.6 110 20:37 31.03.2020
5738 Rain 7 1030 55 10000 4.6 110 20:18 31.03.2020
5739 Rain 8 1030 55 10000 5.1 100 19:42 31.03.2020
5740 Clouds 9 1030 57 10000 6.2 90 19:24 31.03.2020
5741 Clouds 9 1030 57 10000 6.2 90 18:59 31.03.2020
5742 Clouds 9 1030 57 10000 6.2 90 18:41 31.03.2020
5743 Clouds 10 1030 57 10000 6.7 90 18:19 31.03.2020
5744 Clouds 10 1030 57 10000 5.7 90 17:55 31.03.2020
5745 Clouds 10 1030 57 10000 5.7 90 17:37 31.03.2020
5746 Clouds 10 1030 57 10000 5.7 90 17:37 31.03.2020
5747 Clouds 10 1031 53 10000 6.2 90 17:19 31.03.2020
5748 Clouds 10 1031 48 10000 5.7 60 16:41 31.03.2020
5749 Clouds 10 1031 48 10000 4.6 60 16:20 31.03.2020
5750 Clouds 10 1031 48 10000 4.6 60 15:59 31.03.2020
5751 Clouds 10 1031 57 10000 5.1 60 15:41 31.03.2020
5752 Clouds 10 1032 49 10000 3.6 60 15:23 31.03.2020
5753 Clouds 10 1032 49 10000 3.6 60 14:59 31.03.2020
5754 Clouds 10 1032 57 10000 6.2 90 14:40 31.03.2020
5755 Clouds 9 1032 57 10000 5.1 80 14:21 31.03.2020
5756 Clouds 9 1032 57 10000 5.1 80 13:55 31.03.2020
5757 Clouds 9 1032 49 10000 6.7 70 13:37 31.03.2020
5758 Clouds 9 1032 57 10000 5.1 50 13:18 31.03.2020
5759 Clouds 9 1032 61 10000 5.1 60 12:44 31.03.2020
5760 Clouds 8 1033 61 10000 6.2 60 12:20 31.03.2020
5761 Clouds 8 1033 65 10000 6.2 70 11:55 31.03.2020
5762 Clouds 8 1033 65 10000 6.2 70 11:36 31.03.2020
5763 Clouds 8 1033 65 10000 6.2 70 11:36 31.03.2020
5764 Clouds 7 1033 70 10000 6.2 60 11:18 31.03.2020
5765 Clouds 7 1033 70 10000 6.2 60 10:55 31.03.2020
5766 Clouds 7 1033 70 10000 5.1 60 10:37 31.03.2020
5767 Clouds 7 1033 70 10000 5.1 60 10:37 31.03.2020
5768 Clouds 6 1032 75 10000 4.6 60 10:18 31.03.2020
5769 Clouds 5 1032 75 10000 4.6 60 09:43 31.03.2020
5770 Clouds 4 1032 80 10000 3.1 0 09:24 31.03.2020
5771 Clouds 3 1032 80 10000 3.1 0 08:58 31.03.2020
5772 Clouds 3 1032 80 10000 3.1 0 08:39 31.03.2020
5773 Clouds 3 1032 80 10000 3.1 0 08:20 31.03.2020
5774 Clouds 3 1032 80 10000 3.1 0 07:56 31.03.2020
5775 Clouds 3 1032 80 10000 2.1 0 07:38 31.03.2020
5776 Clouds 3 1032 80 10000 2.1 0 07:20 31.03.2020
5777 Clouds 3 1031 80 10000 1.5 0 06:51 31.03.2020
5778 Clouds 3 1031 80 10000 1.5 0 06:30 31.03.2020
5779 Clouds 3 1031 80 10000 2.1 0 05:40 31.03.2020
5780 Clouds 4 1032 75 10000 2.6 0 03:57 31.03.2020
5781 Clouds 4 1032 80 10000 3.1 40 02:26 31.03.2020
5782 Clouds 5 1032 75 10000 2.6 0 01:46 31.03.2020
5783 Clouds 5 1032 75 10000 2.6 0 00:52 31.03.2020
5784 Clouds 5 1032 75 10000 3.1 30 00:25 31.03.2020
5785 Clouds 5 1032 75 10000 3.1 30 23:59 30.03.2020
5786 Clouds 6 1032 70 10000 4.1 10 23:38 30.03.2020
5787 Clouds 6 1032 75 10000 2.6 0 23:19 30.03.2020
5788 Clouds 6 1032 75 10000 2.6 0 22:56 30.03.2020
5789 Clouds 6 1031 80 10000 4.6 20 22:37 30.03.2020
5790 Clouds 6 1031 80 10000 4.6 20 22:37 30.03.2020
5791 Clouds 6 1031 80 10000 5.1 10 22:18 30.03.2020
5792 Clouds 6 1031 80 10000 5.1 10 21:55 30.03.2020
5793 Clouds 7 1031 70 10000 3.6 360 21:37 30.03.2020
5794 Clouds 7 1031 70 10000 3.6 10 21:18 30.03.2020
5795 Clouds 7 1031 70 10000 3.6 10 20:55 30.03.2020
5796 Clouds 7 1031 75 10000 4.1 20 20:36 30.03.2020
5797 Clouds 8 1031 57 10000 3.1 0 20:18 30.03.2020
5798 Clouds 8 1031 57 10000 3.1 0 19:40 30.03.2020
5799 Clouds 8 1031 57 10000 4.1 60 19:22 30.03.2020
5800 Clouds 8 1031 57 10000 4.1 60 18:57 30.03.2020
5801 Clouds 9 1031 64 10000 4.1 50 18:39 30.03.2020
5802 Clouds 9 1031 64 10000 6.7 0 18:20 30.03.2020
5803 Rain 9 1032 53 10000 5.1 50 17:57 30.03.2020
5804 Rain 9 1032 53 10000 5.1 50 17:38 30.03.2020
5805 Rain 9 1032 61 10000 4.1 60 17:19 30.03.2020
5806 Rain 9 1032 66 10000 3.6 30 16:56 30.03.2020
5807 Rain 9 1032 66 10000 3.6 30 16:38 30.03.2020
5808 Rain 9 1032 75 10000 3.1 40 16:20 30.03.2020
5809 Rain 8 1032 75 10000 3.1 40 15:55 30.03.2020
5810 Clouds 8 1032 61 10000 3.1 50 15:36 30.03.2020
5811 Clouds 8 1033 61 10000 3.6 0 15:18 30.03.2020
5812 Clouds 8 1033 61 10000 3.6 0 14:55 30.03.2020
5813 Clouds 8 1033 61 10000 3.1 30 14:36 30.03.2020
5814 Clouds 7 1034 70 10000 3.1 10 14:18 30.03.2020
5815 Clouds 7 1034 70 10000 4.1 10 13:44 30.03.2020
5816 Rain 7 1034 70 10000 3.6 360 13:21 30.03.2020
5817 Rain 7 1034 70 10000 3.6 360 12:59 30.03.2020
5818 Clouds 6 1034 70 10000 2.6 20 12:41 30.03.2020
5819 Clouds 6 1035 70 10000 3.6 330 12:19 30.03.2020
5820 Clouds 6 1035 71 10000 3.6 350 11:57 30.03.2020
5821 Clouds 6 1035 71 10000 3.6 350 11:39 30.03.2020
5822 Clouds 5 1035 65 10000 3.1 350 11:20 30.03.2020
5823 Clouds 4 1035 65 10000 3.1 340 10:41 30.03.2020
5824 Clouds 4 1036 60 10000 3.1 340 10:22 30.03.2020
5825 Clouds 4 1036 60 10000 3.1 340 09:58 30.03.2020
5826 Clouds 4 1036 69 10000 2.6 360 09:39 30.03.2020
5827 Clouds 3 1036 69 10000 2.6 340 09:19 30.03.2020
5828 Clouds 3 1036 69 10000 2.1 360 08:43 30.03.2020
5829 Clouds 2 1036 86 10000 4.1 350 08:23 30.03.2020
5830 Clouds 2 1035 86 10000 4.6 340 07:55 30.03.2020
5831 Clouds 2 1035 86 10000 4.6 340 07:37 30.03.2020
5832 Clouds 2 1036 85 10000 2.1 350 06:59 30.03.2020
5833 Clouds 2 1037 85 10000 2.6 350 06:37 30.03.2020
5834 Clouds 2 1037 80 10000 2.1 360 06:18 30.03.2020
5835 Clouds 2 1037 74 10000 3.6 20 05:38 30.03.2020
5836 Clouds 3 1038 69 10000 2.6 360 04:27 30.03.2020
5837 Clouds 3 1038 69 10000 3.1 10 03:50 30.03.2020
5838 Clouds 2 1039 59 10000 2.1 360 02:44 30.03.2020
5839 Clouds 2 1039 59 10000 2.1 360 01:54 30.03.2020
5840 Clouds 2 1039 55 10000 2.1 0 00:56 30.03.2020
5841 Clouds 2 1039 59 10000 4.1 30 00:25 30.03.2020
5842 Clouds 2 1039 55 10000 2.1 0 00:25 30.03.2020
5843 Clouds 3 1039 51 10000 2.1 0 23:55 29.03.2020
5844 Clouds 3 1039 51 10000 3.6 0 23:36 29.03.2020
5845 Clouds 3 1039 51 10000 3.6 60 23:18 29.03.2020
5846 Clouds 3 1039 51 10000 3.6 0 22:39 29.03.2020
5847 Clouds 3 1039 48 10000 5.7 60 22:20 29.03.2020
5848 Clouds 4 1039 48 10000 5.7 60 21:59 29.03.2020
5849 Clouds 4 1039 44 10000 4.1 50 21:37 29.03.2020
5850 Clouds 4 1039 44 10000 5.7 60 21:19 29.03.2020
5851 Clouds 4 1038 55 10000 9.3 20 20:55 29.03.2020
5852 Clouds 4 1039 44 10000 6.7 30 20:37 29.03.2020
5853 Clouds 5 1039 41 10000 6.2 0 20:18 29.03.2020
5854 Clouds 5 1039 41 10000 6.2 0 20:18 29.03.2020
5855 Clouds 5 1037 48 10000 9.8 30 19:55 29.03.2020
5856 Clouds 6 1038 41 10000 8.7 40 19:37 29.03.2020
5857 Clouds 6 1038 36 10000 6.7 60 19:19 29.03.2020
5858 Clouds 6 1038 36 10000 5.1 0 18:55 29.03.2020
5859 Clouds 6 1038 36 10000 5.1 0 18:37 29.03.2020
5860 Clouds 7 1038 39 10000 9.8 60 18:18 29.03.2020
5861 Clouds 7 1038 45 10000 6.7 50 17:55 29.03.2020
5862 Clouds 7 1038 45 10000 6.7 50 17:36 29.03.2020
5863 Clouds 7 1038 48 10000 8.2 60 17:18 29.03.2020
5864 Clouds 7 1038 52 10000 5.1 60 16:55 29.03.2020
5865 Clouds 7 1038 52 10000 5.1 60 16:36 29.03.2020
5866 Clouds 7 1038 56 10000 5.7 0 16:18 29.03.2020
5867 Rain 6 1038 60 10000 6.2 40 15:41 29.03.2020
5868 Rain 7 1038 60 10000 6.2 20 15:23 29.03.2020
5869 Rain 7 1038 60 10000 6.2 20 15:23 29.03.2020
5870 Rain 6 1038 60 10000 6.2 20 14:57 29.03.2020
5871 Clouds 7 1038 75 10000 6.2 20 14:39 29.03.2020
5872 Clouds 6 1038 49 10000 6.7 0 14:20 29.03.2020
5873 Rain 7 1038 60 10000 6.7 40 13:57 29.03.2020
5874 Rain 7 1038 60 10000 6.7 40 13:57 29.03.2020
5875 Rain 6 1038 60 10000 6.7 40 13:39 29.03.2020
5876 Clouds 6 1038 52 10000 5.7 0 13:19 29.03.2020
5877 Clouds 6 1037 52 10000 7.2 30 12:55 29.03.2020
5878 Clouds 6 1037 52 10000 7.2 30 12:37 29.03.2020
5879 Rain 6 1037 52 10000 6.2 50 12:18 29.03.2020
5880 Clouds 6 1037 45 10000 6.2 50 11:55 29.03.2020
5881 Clouds 6 1037 45 10000 6.2 50 11:36 29.03.2020
5882 Clouds 6 1037 48 10000 6.2 0 11:18 29.03.2020
5883 Clouds 5 1037 45 10000 6.7 0 10:38 29.03.2020
5884 Clouds 5 1036 48 10000 6.2 10 10:19 29.03.2020
5885 Clouds 5 1036 56 10000 4.6 0 09:41 29.03.2020
5886 Clouds 4 1036 56 10000 4.6 0 09:41 29.03.2020
5887 Clouds 4 1036 56 10000 4.1 20 09:20 29.03.2020
5888 Clouds 4 1036 60 10000 3.6 30 08:54 29.03.2020
5889 Clouds 3 1036 60 10000 4.1 0 08:36 29.03.2020
5890 Clouds 3 1036 64 10000 4.1 10 08:18 29.03.2020
5891 Clouds 3 1036 60 10000 6.7 30 07:42 29.03.2020
5892 Clouds 3 1036 60 10000 6.7 30 07:21 29.03.2020
5893 Clouds 4 1035 60 10000 4.1 0 05:50 29.03.2020
5894 Clouds 4 1035 64 10000 3.6 20 04:29 29.03.2020
5895 Clouds 4 1035 65 10000 4.1 0 03:31 29.03.2020
5896 Clouds 4 1035 67 10000 3.1 0 01:51 29.03.2020
5897 Clouds 4 1034 75 10000 4.1 20 01:24 29.03.2020
5898 Clouds 4 1034 75 10000 4.1 20 00:58 29.03.2020
5899 Clouds 4 1034 75 10000 4.1 50 00:33 29.03.2020
5900 Clouds 5 1034 70 10000 4.1 50 23:57 28.03.2020
5901 Clouds 5 1034 70 10000 4.1 50 23:39 28.03.2020
5902 Clouds 5 1034 65 10000 5.1 0 23:20 28.03.2020
5903 Clouds 5 1033 65 10000 3.1 0 22:41 28.03.2020
5904 Clouds 5 1033 60 10000 3.6 20 22:22 28.03.2020
5905 Clouds 5 1033 60 10000 3.6 20 21:56 28.03.2020
5906 Clouds 6 1033 60 10000 3.6 30 21:38 28.03.2020
5907 Clouds 6 1033 56 10000 4.6 20 21:19 28.03.2020
5908 Clouds 6 1031 65 10000 9.8 20 20:54 28.03.2020
5909 Clouds 6 1032 61 10000 4.1 40 20:36 28.03.2020
5910 Clouds 7 1032 56 10000 4.6 0 20:18 28.03.2020
5911 Clouds 7 1030 60 10000 10.3 30 19:54 28.03.2020
5912 Clouds 8 1031 56 10000 5.1 60 19:36 28.03.2020
5913 Clouds 8 1030 52 10000 9.8 30 19:18 28.03.2020
5914 Clouds 9 1030 43 10000 6.7 50 18:39 28.03.2020
5915 Clouds 9 1030 46 10000 7.2 0 18:20 28.03.2020
5916 Clouds 9 1030 56 10000 6.7 60 17:41 28.03.2020
5917 Clouds 9 1030 53 10000 8.2 60 17:22 28.03.2020
5918 Clouds 10 1030 53 10000 8.7 60 16:59 28.03.2020
5919 Clouds 10 1030 53 10000 8.7 60 16:38 28.03.2020
5920 Clouds 10 1030 53 10000 6.7 60 16:18 28.03.2020
5921 Clouds 10 1030 53 10000 6.7 60 16:18 28.03.2020
5922 Clouds 10 1030 57 10000 5.7 40 15:40 28.03.2020
5923 Clouds 9 1030 61 10000 7.2 60 15:19 28.03.2020
5924 Clouds 9 1030 61 10000 7.2 60 15:19 28.03.2020
5925 Clouds 9 1030 61 10000 7.2 60 14:58 28.03.2020
5926 Clouds 9 1030 61 10000 6.2 60 14:40 28.03.2020
5927 Clouds 10 1030 61 10000 6.2 60 14:21 28.03.2020
5928 Clouds 10 1029 61 10000 7.2 60 13:43 28.03.2020
5929 Clouds 10 1029 53 10000 5.7 50 13:23 28.03.2020
5930 Clouds 10 1029 50 10000 5.1 0 12:41 28.03.2020
5931 Clouds 10 1029 50 10000 7.2 0 12:22 28.03.2020
5932 Clouds 10 1029 57 10000 4.6 50 11:55 28.03.2020
5933 Clouds 10 1029 57 10000 4.6 50 11:37 28.03.2020
5934 Clouds 10 1028 57 10000 7.7 60 11:18 28.03.2020
5935 Clouds 9 1028 57 10000 6.7 60 10:39 28.03.2020
5936 Clouds 8 1028 61 10000 4.6 60 10:20 28.03.2020
5937 Clouds 8 1028 61 10000 4.1 50 09:43 28.03.2020
5938 Clouds 7 1028 61 10000 4.1 50 09:24 28.03.2020
5939 Clouds 6 1027 75 10000 3.1 40 08:58 28.03.2020
5940 Clouds 6 1027 75 10000 3.1 40 08:40 28.03.2020
5941 Clear 5 1027 75 10000 2.6 20 08:21 28.03.2020
5942 Clouds 5 1026 75 10000 3.1 0 07:46 28.03.2020
5943 Clouds 4 1026 75 10000 2.1 0 07:28 28.03.2020
5944 Clouds 4 1026 75 10000 2.1 0 06:36 28.03.2020
5945 Clouds 4 1026 75 10000 2.6 0 06:18 28.03.2020
5946 Clouds 4 1025 75 10000 5.7 30 05:21 28.03.2020
5947 Clouds 4 1025 75 10000 5.7 30 04:42 28.03.2020
5948 Clouds 4 1025 80 10000 3.1 10 03:55 28.03.2020
5949 Clouds 5 1025 70 10000 2.1 40 02:33 28.03.2020
5950 Clear 5 1025 70 10000 3.1 60 01:45 28.03.2020
5951 Clear 5 1025 70 10000 2.1 0 01:20 28.03.2020
5952 Clear 5 1025 70 10000 2.1 0 00:46 28.03.2020
5953 Clear 5 1024 69 10000 5.1 20 00:20 28.03.2020
5954 Clear 5 1024 69 10000 5.1 20 23:43 27.03.2020
5955 Clear 6 1025 71 10000 4.1 50 23:23 27.03.2020
5956 Clear 6 1024 65 10000 6.2 20 22:56 27.03.2020
5957 Clear 6 1024 65 10000 6.2 20 22:56 27.03.2020
5958 Clear 6 1024 65 10000 6.2 20 22:38 27.03.2020
5959 Clear 6 1024 52 10000 3.6 0 22:20 27.03.2020
5960 Clear 7 1024 56 10000 7.2 20 21:56 27.03.2020
5961 Clear 7 1024 56 10000 7.2 20 21:38 27.03.2020
5962 Clear 7 1024 49 10000 3.1 0 21:20 27.03.2020
5963 Clear 8 1024 49 10000 3.1 0 20:55 27.03.2020
5964 Clear 8 1024 43 10000 3.6 60 20:37 27.03.2020
5965 Clouds 9 1023 40 10000 4.6 0 20:18 27.03.2020
5966 Clouds 10 1023 40 10000 4.6 60 19:42 27.03.2020
5967 Clouds 10 1023 37 10000 5.1 60 19:22 27.03.2020
5968 Clouds 11 1023 37 10000 6.7 60 18:56 27.03.2020
5969 Clouds 11 1023 37 10000 6.7 60 18:38 27.03.2020
5970 Clouds 11 1023 37 10000 6.7 60 18:38 27.03.2020
5971 Clouds 12 1022 37 10000 7.7 60 18:19 27.03.2020
5972 Clouds 12 1022 37 10000 7.7 60 18:19 27.03.2020
5973 Clouds 12 1022 37 10000 6.7 60 17:40 27.03.2020
5974 Clouds 13 1022 35 10000 4.6 0 17:20 27.03.2020
5975 Clouds 13 1022 37 10000 5.7 60 16:55 27.03.2020
5976 Clouds 13 1022 37 10000 5.7 60 16:37 27.03.2020
5977 Clouds 13 1022 35 10000 5.1 0 16:19 27.03.2020
5978 Clouds 13 1023 35 10000 6.2 50 15:42 27.03.2020
5979 Clouds 13 1023 35 10000 6.7 60 15:24 27.03.2020
5980 Clouds 13 1023 35 10000 4.6 50 14:46 27.03.2020
5981 Clouds 13 1023 37 10000 5.7 60 14:25 27.03.2020
5982 Clear 13 1023 37 10000 5.7 60 13:58 27.03.2020
5983 Clear 13 1023 49 10000 7.2 70 13:40 27.03.2020
5984 Clear 13 1024 40 10000 7.7 80 13:21 27.03.2020
5985 Clear 13 1024 40 10000 7.2 60 12:57 27.03.2020
5986 Clear 12 1024 40 10000 7.2 60 12:39 27.03.2020
5987 Clear 12 1024 43 10000 8.2 70 12:19 27.03.2020
5988 Clear 11 1024 43 10000 6.2 60 11:41 27.03.2020
5989 Clear 10 1024 53 10000 4.6 60 11:23 27.03.2020
5990 Clear 10 1024 53 10000 4.6 60 11:23 27.03.2020
5991 Clear 10 1024 53 10000 4.6 60 11:23 27.03.2020
5992 Clear 9 1024 57 10000 5.1 60 10:55 27.03.2020
5993 Clear 9 1024 57 10000 5.1 60 10:37 27.03.2020
5994 Clear 8 1024 65 10000 3.6 0 10:19 27.03.2020
5995 Clear 8 1024 65 10000 3.6 0 09:57 27.03.2020
5996 Clear 7 1024 75 10000 3.1 40 09:37 27.03.2020
5997 Clear 6 1024 80 8000 3.1 60 09:18 27.03.2020
5998 Clear 5 1024 80 8000 3.1 60 08:56 27.03.2020
5999 Clear 5 1024 80 7000 1.5 0 08:38 27.03.2020
6000 Clear 4 1024 80 7000 1.5 0 08:20 27.03.2020
6001 Clear 3 1024 86 7000 1 0 07:50 27.03.2020
6002 Clear 3 1024 86 7000 0.5 0 07:24 27.03.2020
6003 Clear 3 1024 86 7000 1.5 0 06:53 27.03.2020
6004 Clear 3 1024 86 7000 1.5 0 06:35 27.03.2020
6005 Clear 3 1023 80 8000 1 0 04:59 27.03.2020
6006 Clear 4 1024 76 10000 1 0 02:36 27.03.2020
6007 Clouds 4 1024 70 10000 1.5 0 01:23 27.03.2020
6008 Clouds 5 1024 69 10000 2.1 0 00:51 27.03.2020
6009 Clouds 5 1024 69 10000 2.1 0 00:31 27.03.2020
6010 Clouds 5 1024 60 10000 1.5 0 23:44 26.03.2020
6011 Clouds 5 1024 56 10000 1.5 0 23:23 26.03.2020
6012 Clouds 6 1024 60 10000 1.5 0 22:59 26.03.2020
6013 Clouds 6 1024 60 10000 1.5 0 22:39 26.03.2020
6014 Clouds 6 1024 56 10000 3.6 60 22:20 26.03.2020
6015 Clouds 6 1024 56 10000 3.6 60 21:58 26.03.2020
6016 Clouds 6 1024 62 10000 4.6 70 21:39 26.03.2020
6017 Clouds 6 1023 56 10000 4.1 70 21:21 26.03.2020
6018 Clouds 7 1023 49 10000 4.6 70 20:58 26.03.2020
6019 Clouds 7 1023 49 10000 4.6 70 20:38 26.03.2020
6020 Clouds 8 1023 45 10000 5.1 80 20:20 26.03.2020
6021 Clouds 8 1023 45 10000 5.1 90 19:56 26.03.2020
6022 Clouds 8 1023 45 10000 5.1 90 19:38 26.03.2020
6023 Clouds 9 1022 45 10000 6.2 90 19:20 26.03.2020
6024 Clouds 10 1022 43 10000 5.7 90 18:55 26.03.2020
6025 Clouds 10 1022 43 10000 5.7 90 18:37 26.03.2020
6026 Clouds 11 1022 37 10000 6.7 90 18:19 26.03.2020
6027 Clouds 12 1022 34 10000 6.2 90 17:42 26.03.2020
6028 Clouds 12 1022 34 10000 5.7 80 17:19 26.03.2020
6029 Clouds 12 1022 34 10000 5.7 80 17:19 26.03.2020
6030 Clouds 12 1022 34 10000 5.7 80 17:19 26.03.2020
6031 Clouds 12 1022 32 10000 6.2 70 16:46 26.03.2020
6032 Clouds 13 1022 32 10000 6.2 90 16:28 26.03.2020
6033 Clouds 12 1022 32 10000 6.2 90 15:59 26.03.2020
6034 Clouds 12 1023 32 10000 6.2 90 15:41 26.03.2020
6035 Clouds 12 1023 32 10000 7.7 90 15:22 26.03.2020
6036 Clouds 12 1023 32 10000 7.7 90 14:58 26.03.2020
6037 Clouds 12 1023 30 10000 7.2 80 14:39 26.03.2020
6038 Clouds 12 1023 40 10000 7.7 80 14:19 26.03.2020
6039 Clouds 12 1024 43 10000 8.2 90 13:44 26.03.2020
6040 Clouds 12 1024 43 10000 8.7 90 13:24 26.03.2020
6041 Clouds 11 1024 43 10000 8.7 90 12:58 26.03.2020
6042 Clouds 11 1024 43 10000 6.7 70 12:38 26.03.2020
6043 Clouds 11 1024 43 10000 7.7 70 12:20 26.03.2020
6044 Clouds 11 1024 45 10000 6.2 80 11:46 26.03.2020
6045 Clouds 9 1024 45 10000 6.7 70 11:22 26.03.2020
6046 Clouds 9 1024 57 10000 5.1 60 10:56 26.03.2020
6047 Clouds 9 1024 57 10000 5.1 60 10:56 26.03.2020
6048 Clouds 9 1024 57 10000 5.1 60 10:56 26.03.2020
6049 Clouds 9 1024 57 10000 5.1 60 10:38 26.03.2020
6050 Clouds 8 1024 65 10000 2.6 60 10:19 26.03.2020
6051 Clouds 7 1024 70 10000 2.6 50 09:44 26.03.2020
6052 Clouds 6 1023 75 10000 2.6 50 09:20 26.03.2020
6053 Clouds 5 1023 57 9000 1.5 0 08:56 26.03.2020
6054 Clouds 4 1023 57 9000 1.5 0 08:37 26.03.2020
6055 Clouds 3 1023 76 7000 1 0 08:19 26.03.2020
6056 Clouds 2 1023 76 8000 1.5 0 07:44 26.03.2020
6057 Clouds 2 1023 80 8000 1 0 07:22 26.03.2020
6058 Clouds 2 1023 76 9000 1.5 0 06:56 26.03.2020
6059 Clouds 2 1023 80 10000 1.5 0 05:59 26.03.2020
6060 Clouds 3 1023 71 10000 2.1 340 05:22 26.03.2020
6061 Clouds 3 1023 74 10000 1.5 340 03:45 26.03.2020
6062 Clouds 3 1023 74 10000 2.1 350 02:56 26.03.2020
6063 Clouds 3 1024 69 10000 1.5 10 01:50 26.03.2020
6064 Clouds 4 1024 64 10000 1 0 00:55 26.03.2020
6065 Clouds 4 1024 65 10000 2.1 40 00:22 26.03.2020
6066 Clouds 5 1024 65 10000 2.6 60 23:41 25.03.2020
6067 Clouds 5 1024 56 10000 2.6 50 23:22 25.03.2020
6068 Clouds 5 1024 56 10000 3.6 60 22:42 25.03.2020
6069 Clouds 6 1024 60 10000 3.6 70 22:22 25.03.2020
6070 Clouds 6 1024 56 10000 3.6 70 21:57 25.03.2020
6071 Clouds 6 1024 56 10000 3.6 70 21:38 25.03.2020
6072 Clouds 6 1024 52 10000 3.6 80 21:20 25.03.2020
6073 Clouds 6 1024 52 10000 3.6 80 20:56 25.03.2020
6074 Clouds 7 1024 52 10000 4.1 80 20:37 25.03.2020
6075 Clouds 7 1023 49 10000 4.1 80 20:18 25.03.2020
6076 Clouds 7 1023 49 10000 4.1 80 20:18 25.03.2020
6077 Clouds 8 1023 52 10000 4.1 90 19:43 25.03.2020
6078 Clouds 8 1023 45 10000 5.1 100 19:23 25.03.2020
6079 Clouds 9 1023 29 10000 5.7 110 18:59 25.03.2020
6080 Clouds 9 1023 29 10000 5.7 110 18:40 25.03.2020
6081 Clouds 10 1023 27 10000 6.7 110 18:22 25.03.2020
6082 Clouds 11 1023 27 10000 6.2 110 17:57 25.03.2020
6083 Clouds 11 1023 27 10000 6.2 110 17:39 25.03.2020
6084 Clear 12 1023 27 10000 6.2 110 17:21 25.03.2020
6085 Clear 12 1024 27 10000 6.2 100 16:55 25.03.2020
6086 Clear 13 1024 27 10000 6.2 100 16:36 25.03.2020
6087 Clear 13 1024 32 10000 5.1 80 16:18 25.03.2020
6088 Clear 13 1024 32 10000 5.1 90 15:41 25.03.2020
6089 Clear 13 1024 34 10000 5.1 90 15:20 25.03.2020
6090 Clear 13 1025 32 10000 5.1 90 14:56 25.03.2020
6091 Clear 13 1025 32 10000 5.1 90 14:37 25.03.2020
6092 Clear 13 1025 34 10000 5.1 70 14:19 25.03.2020
6093 Clear 12 1025 32 10000 5.7 80 13:42 25.03.2020
6094 Clear 12 1025 32 10000 5.1 90 13:22 25.03.2020
6095 Clear 12 1025 32 10000 5.1 90 13:22 25.03.2020
6096 Clear 12 1025 32 10000 5.1 100 12:38 25.03.2020
6097 Clear 12 1025 37 10000 4.1 90 12:20 25.03.2020
6098 Clear 12 1025 43 10000 3.1 90 11:57 25.03.2020
6099 Clear 12 1025 43 10000 3.1 90 11:39 25.03.2020
6100 Clear 9 1025 49 10000 2.6 90 11:20 25.03.2020
6101 Clear 9 1025 49 10000 2.6 90 11:20 25.03.2020
6102 Clear 8 1025 52 10000 3.6 80 10:58 25.03.2020
6103 Clear 9 1025 52 10000 3.6 80 10:39 25.03.2020
6104 Clear 9 1025 52 10000 3.6 80 10:39 25.03.2020
6105 Clear 9 1025 52 10000 3.6 80 10:39 25.03.2020
6106 Clear 9 1026 52 10000 2.1 90 10:18 25.03.2020
6107 Clear 8 1026 52 10000 2.1 90 09:56 25.03.2020
6108 Clear 8 1026 55 10000 2.1 80 09:38 25.03.2020
6109 Clear 7 1026 75 10000 1.5 80 09:19 25.03.2020
6110 Clear 5 1026 75 10000 2.1 100 08:41 25.03.2020
6111 Clear 5 1025 80 10000 1.5 100 08:23 25.03.2020
6112 Clear 4 1025 80 10000 1.5 100 07:56 25.03.2020
6113 Clear 4 1025 86 10000 1.5 90 07:37 25.03.2020
6114 Clear 4 1025 80 10000 1.5 80 07:18 25.03.2020
6115 Clear 4 1025 80 10000 1.5 80 06:41 25.03.2020
6116 Clear 4 1025 80 10000 1 0 06:23 25.03.2020
6117 Clear 4 1025 69 10000 1 0 05:47 25.03.2020
6118 Clear 4 1025 80 10000 1 0 04:42 25.03.2020
6119 Clear 3 1025 66 10000 1 0 03:57 25.03.2020
6120 Clear 3 1025 66 10000 1 0 03:32 25.03.2020
6121 Clear 4 1025 64 10000 1.5 10 01:40 25.03.2020
6122 Clear 5 1025 60 10000 2.6 80 00:50 25.03.2020
6123 Clear 6 1025 63 10000 2.6 70 00:27 25.03.2020
6124 Clear 6 1025 48 10000 1.5 80 23:57 24.03.2020
6125 Clear 6 1025 48 10000 1.5 80 23:37 24.03.2020
6126 Clear 7 1025 42 10000 1.5 120 23:19 24.03.2020
6127 Clear 7 1025 48 10000 2.6 110 22:54 24.03.2020
6128 Clear 7 1025 48 10000 2.6 110 22:36 24.03.2020
6129 Clear 7 1025 42 10000 2.1 120 22:18 24.03.2020
6130 Clear 8 1025 36 10000 2.6 140 21:42 24.03.2020
6131 Clear 8 1025 39 10000 3.6 130 21:19 24.03.2020
6132 Clear 9 1025 39 10000 3.6 130 20:59 24.03.2020
6133 Clear 9 1025 43 10000 4.1 120 20:40 24.03.2020
6134 Clouds 10 1025 37 10000 3.6 130 20:22 24.03.2020
6135 Clear 11 1025 37 10000 4.1 130 19:48 24.03.2020
6136 Clear 12 1024 37 10000 4.1 120 19:22 24.03.2020
6137 Clear 12 1024 37 10000 4.1 120 18:59 24.03.2020
6138 Clear 13 1024 33 10000 3.1 130 18:39 24.03.2020
6139 Clear 14 1024 26 10000 3.1 160 18:20 24.03.2020
6140 Clear 14 1024 26 10000 2.6 160 17:58 24.03.2020
6141 Clear 14 1024 26 10000 2.6 160 17:40 24.03.2020
6142 Clear 15 1024 26 10000 2.6 200 17:22 24.03.2020
6143 Clouds 14 1025 30 10000 3.1 160 16:57 24.03.2020
6144 Clouds 14 1025 30 10000 3.1 160 16:38 24.03.2020
6145 Clouds 14 1025 30 10000 3.6 140 16:20 24.03.2020
6146 Clouds 14 1025 33 10000 4.1 140 15:44 24.03.2020
6147 Clouds 14 1025 33 10000 4.1 140 15:44 24.03.2020
6148 Clouds 14 1025 33 10000 4.1 140 15:25 24.03.2020
6149 Clouds 14 1025 30 10000 4.1 160 14:57 24.03.2020
6150 Clouds 14 1025 35 10000 4.1 140 14:39 24.03.2020
6151 Clouds 14 1026 35 10000 3.6 150 14:18 24.03.2020
6152 Clouds 13 1026 37 10000 4.6 140 13:42 24.03.2020
6153 Clear 13 1026 37 10000 4.1 150 13:23 24.03.2020
6154 Clear 13 1026 37 10000 4.1 150 13:23 24.03.2020
6155 Clear 12 1026 40 10000 4.1 150 12:47 24.03.2020
6156 Clear 12 1026 40 10000 4.1 150 12:28 24.03.2020
6157 Clear 11 1027 45 10000 3.1 130 11:59 24.03.2020
6158 Clear 11 1027 45 10000 3.1 130 11:39 24.03.2020
6159 Clear 9 1027 58 10000 3.6 120 11:19 24.03.2020
6160 Clear 8 1027 58 10000 3.1 130 10:42 24.03.2020
6161 Clear 8 1027 52 10000 3.6 140 10:20 24.03.2020
6162 Clear 8 1027 52 10000 3.6 140 09:58 24.03.2020
6163 Clear 7 1027 56 10000 3.1 140 09:39 24.03.2020
6164 Clear 6 1027 60 10000 2.1 110 09:20 24.03.2020
6165 Clear 5 1027 60 10000 2.6 80 08:38 24.03.2020
6166 Clear 3 1027 64 10000 3.1 100 08:20 24.03.2020
6167 Clear 2 1027 64 10000 2.1 80 07:47 24.03.2020
6168 Clear 2 1027 64 10000 2.1 90 07:24 24.03.2020
6169 Clear 2 1027 64 10000 2.1 90 07:24 24.03.2020
6170 Clear 2 1027 64 10000 2.6 120 06:53 24.03.2020
6171 Clear 2 1026 65 10000 2.1 80 06:27 24.03.2020
6172 Clear 2 1026 64 10000 2.6 100 05:22 24.03.2020
6173 Clear 2 1026 69 10000 4.1 120 04:27 24.03.2020
6174 Clear 3 1026 60 10000 3.1 110 03:18 24.03.2020
6175 Clear 4 1026 64 10000 2.6 100 01:49 24.03.2020
6176 Clear 4 1026 75 10000 2.1 110 00:49 24.03.2020
6177 Clear 4 1026 75 10000 2.6 90 00:26 24.03.2020
6178 Clear 4 1027 75 10000 2.6 110 23:46 23.03.2020
6179 Clear 4 1027 70 10000 2.1 100 23:26 23.03.2020
6180 Clear 4 1027 75 10000 2.1 80 22:56 23.03.2020
6181 Clear 4 1027 75 10000 2.1 80 22:37 23.03.2020
6182 Clear 4 1027 70 10000 1.5 70 22:19 23.03.2020
6183 Clear 5 1027 65 10000 2.1 100 21:44 23.03.2020
6184 Clear 5 1027 70 10000 3.1 100 21:21 23.03.2020
6185 Clear 5 1027 65 10000 4.1 100 20:58 23.03.2020
6186 Clear 6 1027 65 10000 4.1 100 20:40 23.03.2020
6187 Clear 6 1026 52 10000 4.1 100 20:22 23.03.2020
6188 Clear 7 1026 45 10000 4.6 90 19:54 23.03.2020
6189 Clear 8 1026 45 10000 4.6 90 19:36 23.03.2020
6190 Clear 9 1026 45 10000 5.1 90 19:18 23.03.2020
6191 Clear 9 1026 45 10000 6.2 90 18:42 23.03.2020
6192 Clear 10 1026 46 10000 7.2 90 18:23 23.03.2020
6193 Clear 10 1026 45 10000 6.7 90 17:56 23.03.2020
6194 Clear 10 1026 45 10000 6.7 90 17:38 23.03.2020
6195 Clear 11 1026 36 10000 7.2 80 17:19 23.03.2020
6196 Clear 11 1026 36 10000 6.7 80 16:43 23.03.2020
6197 Clear 11 1026 36 10000 7.7 90 16:25 23.03.2020
6198 Clear 11 1026 36 10000 7.2 80 15:44 23.03.2020
6199 Clear 11 1026 36 10000 7.2 80 15:21 23.03.2020
6200 Clear 11 1026 36 10000 7.2 80 14:57 23.03.2020
6201 Clear 11 1026 36 10000 6.7 90 14:37 23.03.2020
6202 Clear 11 1026 46 10000 7.2 90 14:18 23.03.2020
6203 Clear 10 1027 49 10000 7.7 90 13:54 23.03.2020
6204 Clear 10 1027 49 10000 7.7 90 13:54 23.03.2020
6205 Clear 10 1027 49 10000 7.7 90 13:36 23.03.2020
6206 Clear 10 1027 49 10000 7.7 90 13:36 23.03.2020
6207 Clear 10 1027 49 10000 6.7 90 13:18 23.03.2020
6208 Clear 10 1028 42 10000 6.2 90 12:41 23.03.2020
6209 Clear 9 1028 42 10000 6.7 100 12:22 23.03.2020
6210 Clear 9 1028 45 10000 6.7 100 11:55 23.03.2020
6211 Clear 8 1028 45 10000 6.7 100 11:37 23.03.2020
6212 Clear 7 1028 48 10000 6.7 100 11:18 23.03.2020
6213 Clear 7 1029 48 10000 5.7 100 10:41 23.03.2020
6214 Clear 6 1029 52 10000 5.7 90 10:23 23.03.2020
6215 Clear 6 1029 52 10000 5.7 90 09:59 23.03.2020
6216 Clear 6 1028 52 10000 6.2 100 09:41 23.03.2020
6217 Clear 5 1028 60 10000 5.7 100 09:19 23.03.2020
6218 Clear 4 1028 64 10000 4.1 100 08:38 23.03.2020
6219 Clear 3 1027 60 10000 4.1 100 08:20 23.03.2020
6220 Clear 2 1027 64 10000 4.6 90 07:52 23.03.2020
6221 Clear 2 1027 64 10000 4.6 90 07:33 23.03.2020
6222 Clear 2 1027 69 10000 4.1 100 06:58 23.03.2020
6223 Clear 2 1027 69 10000 4.1 100 06:40 23.03.2020
6224 Clear 2 1027 69 10000 4.6 100 05:44 23.03.2020
6225 Clear 2 1027 69 10000 4.6 100 05:44 23.03.2020
6226 Clear 3 1027 65 10000 5.7 100 04:41 23.03.2020
6227 Clear 3 1027 69 10000 2.6 80 02:59 23.03.2020
6228 Clear 4 1027 75 10000 5.7 90 01:50 23.03.2020
6229 Clear 4 1027 70 10000 4.6 80 00:50 23.03.2020
6230 Clear 5 1027 70 10000 4.1 70 00:31 23.03.2020
6231 Clear 5 1027 70 10000 4.1 70 23:45 22.03.2020
6232 Clear 5 1027 70 10000 4.6 80 23:25 22.03.2020
6233 Clear 5 1027 70 10000 4.6 70 22:44 22.03.2020
6234 Clear 5 1027 65 10000 5.1 80 22:22 22.03.2020
6235 Clear 5 1027 65 10000 4.6 70 21:55 22.03.2020
6236 Clear 5 1027 65 10000 4.6 70 21:37 22.03.2020
6237 Clear 6 1027 65 10000 5.1 80 21:18 22.03.2020
6238 Clear 6 1027 65 10000 5.1 70 20:46 22.03.2020
6239 Clear 6 1027 65 10000 6.2 80 20:25 22.03.2020
6240 Clear 6 1027 65 10000 6.2 80 19:58 22.03.2020
6241 Clear 6 1026 46 10000 5.1 60 19:39 22.03.2020
6242 Clear 7 1027 61 10000 7.7 80 19:20 22.03.2020
6243 Clear 7 1027 61 10000 7.7 80 18:59 22.03.2020
6244 Clear 8 1027 61 10000 8.2 80 18:41 22.03.2020
6245 Clear 8 1026 61 10000 8.2 90 18:22 22.03.2020
6246 Clear 8 1026 46 10000 8.7 90 17:58 22.03.2020
6247 Clear 9 1026 46 10000 8.7 90 17:38 22.03.2020
6248 Clear 9 1026 57 10000 9.8 80 17:20 22.03.2020
6249 Clear 9 1026 57 10000 9.8 80 16:57 22.03.2020
6250 Clear 10 1026 57 10000 9.3 80 16:39 22.03.2020
6251 Clear 10 1026 45 10000 8.7 70 16:21 22.03.2020
6252 Clear 10 1026 45 10000 8.7 70 15:56 22.03.2020
6253 Clear 10 1026 45 10000 8.2 80 15:38 22.03.2020
6254 Clear 10 1027 45 10000 8.2 80 14:46 22.03.2020
6255 Clear 10 1027 46 10000 9.3 80 14:19 22.03.2020
6256 Clear 10 1027 57 10000 8.2 70 13:55 22.03.2020
6257 Clear 10 1027 57 10000 8.2 70 13:37 22.03.2020
6258 Clear 9 1027 61 10000 9.3 80 13:19 22.03.2020
6259 Clear 9 1027 61 10000 9.3 80 12:43 22.03.2020
6260 Clouds 8 1027 61 10000 8.2 90 12:20 22.03.2020
6261 Clouds 8 1028 61 10000 7.2 90 11:56 22.03.2020
6262 Clouds 8 1028 61 10000 7.2 90 11:37 22.03.2020
6263 Clear 7 1028 65 10000 7.7 90 11:19 22.03.2020
6264 Clear 7 1028 65 10000 8.2 90 10:43 22.03.2020
6265 Clouds 7 1027 70 10000 8.7 80 10:23 22.03.2020
6266 Clouds 6 1027 70 10000 7.2 80 09:48 22.03.2020
6267 Clouds 6 1027 70 10000 7.2 80 09:29 22.03.2020
6268 Clouds 5 1027 70 10000 6.7 70 08:55 22.03.2020
6269 Clouds 4 1027 60 10000 3.6 60 08:36 22.03.2020
6270 Clouds 4 1027 67 10000 2.6 50 08:18 22.03.2020
6271 Clouds 3 1027 67 10000 2.6 40 07:48 22.03.2020
6272 Clear 3 1027 67 10000 3.6 50 07:18 22.03.2020
6273 Clear 3 1026 75 10000 3.6 70 05:55 22.03.2020
6274 Clear 3 1026 70 10000 3.6 70 04:58 22.03.2020
6275 Clear 4 1026 63 10000 4.1 60 02:43 22.03.2020
6276 Clear 5 1026 70 10000 4.6 70 01:21 22.03.2020
6277 Clear 5 1026 65 10000 4.6 80 00:39 22.03.2020
6278 Clear 5 1026 65 10000 4.6 80 00:21 22.03.2020
6279 Clear 5 1026 65 10000 4.6 70 23:41 21.03.2020
6280 Clouds 5 1026 65 10000 5.1 80 23:19 21.03.2020
6281 Clouds 5 1026 65 10000 5.1 70 22:38 21.03.2020
6282 Clouds 5 1026 70 10000 4.6 70 22:20 21.03.2020
6283 Clouds 5 1026 70 10000 4.6 70 21:59 21.03.2020
6284 Clouds 5 1025 70 10000 4.1 70 21:40 21.03.2020
6285 Clear 5 1025 70 10000 5.1 70 21:22 21.03.2020
6286 Clear 5 1025 70 10000 5.1 70 20:56 21.03.2020
6287 Clear 6 1025 70 10000 5.7 80 20:38 21.03.2020
6288 Clear 6 1025 70 10000 6.2 80 20:18 21.03.2020
6289 Clear 6 1025 65 10000 6.2 80 19:43 21.03.2020
6290 Clear 6 1025 65 10000 7.2 80 19:23 21.03.2020
6291 Clear 7 1025 54 10000 8.2 70 18:55 21.03.2020
6292 Clear 7 1025 54 10000 8.2 70 18:37 21.03.2020
6293 Clear 7 1025 54 10000 8.2 80 18:19 21.03.2020
6294 Clear 8 1025 54 10000 8.2 80 17:55 21.03.2020
6295 Clear 8 1025 49 10000 8.7 80 17:37 21.03.2020
6296 Clear 8 1025 49 10000 8.7 80 17:18 21.03.2020
6297 Clear 9 1025 42 10000 9.3 80 16:40 21.03.2020
6298 Clear 9 1025 42 10000 8.2 80 16:19 21.03.2020
6299 Clear 9 1025 42 10000 8.2 80 15:55 21.03.2020
6300 Clear 9 1026 42 10000 8.7 70 15:37 21.03.2020
6301 Clear 9 1026 42 10000 9.8 80 15:18 21.03.2020
6302 Clear 10 1026 42 10000 8.2 90 14:54 21.03.2020
6303 Clear 10 1026 42 10000 8.2 90 14:36 21.03.2020
6304 Clear 10 1026 31 10000 10.3 100 14:18 21.03.2020
6305 Clear 10 1026 31 10000 10.3 100 13:56 21.03.2020
6306 Clear 10 1026 36 10000 11.3 90 13:38 21.03.2020
6307 Clear 10 1027 37 10000 10.8 90 13:19 21.03.2020
6308 Clear 10 1027 37 10000 10.3 90 12:39 21.03.2020
6309 Clear 10 1027 39 10000 11.8 90 12:19 21.03.2020
6310 Clear 9 1027 49 10000 10.8 90 11:58 21.03.2020
6311 Clear 9 1027 49 10000 10.8 90 11:38 21.03.2020
6312 Clouds 9 1027 57 10000 11.3 90 11:19 21.03.2020
6313 Clouds 8 1027 61 10000 11.3 80 10:57 21.03.2020
6314 Clouds 8 1027 61 10000 11.3 80 10:57 21.03.2020
6315 Clouds 8 1027 61 10000 11.3 80 10:39 21.03.2020
6316 Clouds 8 1027 65 10000 10.8 90 10:20 21.03.2020
6317 Clouds 7 1027 65 10000 10.8 90 09:57 21.03.2020
6318 Clouds 7 1027 65 10000 9.3 80 09:37 21.03.2020
6319 Clouds 7 1027 65 10000 9.3 80 09:37 21.03.2020
6320 Clouds 7 1027 65 10000 8.2 80 09:19 21.03.2020
6321 Clouds 6 1027 75 10000 5.7 70 08:55 21.03.2020
6322 Clouds 6 1027 75 10000 5.7 70 08:37 21.03.2020
6323 Clouds 5 1027 81 10000 5.1 70 08:18 21.03.2020
6324 Clouds 4 1027 80 10000 3.6 60 07:32 21.03.2020
6325 Clouds 4 1027 80 10000 4.1 60 06:49 21.03.2020
6326 Clouds 4 1027 80 10000 4.1 60 06:29 21.03.2020
6327 -273 0 0 0 0 0 05:50 21.03.2020
6328 Clouds 4 1027 80 10000 4.1 60 05:23 21.03.2020
6329 Clouds 5 1028 75 10000 4.6 60 03:38 21.03.2020
6330 Clouds 5 1028 75 10000 4.6 60 02:36 21.03.2020
6331 Clouds 5 1029 75 10000 5.1 60 01:43 21.03.2020
6332 Clouds 5 1029 80 10000 5.1 60 01:22 21.03.2020
6333 Clouds 5 1029 81 10000 5.7 60 00:39 21.03.2020
6334 Clouds 5 1029 81 10000 5.1 60 00:20 21.03.2020
6335 Clouds 5 1029 81 10000 5.1 60 23:41 20.03.2020
6336 Clouds 5 1029 81 10000 5.7 60 23:20 20.03.2020
6337 Clouds 5 1029 75 10000 5.7 60 22:44 20.03.2020
6338 Clouds 6 1029 70 10000 6.2 50 22:25 20.03.2020
6339 Clouds 6 1029 70 10000 6.2 50 21:58 20.03.2020
6340 Clouds 6 1029 70 10000 6.7 60 21:40 20.03.2020
6341 Clouds 6 1028 80 10000 8.2 50 21:20 20.03.2020
6342 Clouds 6 1028 80 10000 8.2 50 20:58 20.03.2020
6343 Clouds 6 1028 80 10000 7.7 50 20:40 20.03.2020
6344 Clouds 7 1029 70 10000 5.1 60 20:19 20.03.2020
6345 Clouds 7 1029 70 10000 6.7 60 19:47 20.03.2020
6346 Clouds 7 1028 61 10000 7.2 70 19:20 20.03.2020
6347 Clouds 8 1029 61 10000 6.2 60 18:57 20.03.2020
6348 Clouds 8 1029 61 10000 6.2 60 18:38 20.03.2020
6349 Clouds 8 1029 61 10000 7.2 70 18:20 20.03.2020
6350 Clouds 8 1029 61 10000 7.2 70 17:56 20.03.2020
6351 Clouds 9 1029 61 10000 7.2 70 17:37 20.03.2020
6352 Clouds 9 1028 56 10000 7.7 60 17:18 20.03.2020
6353 Clouds 9 1028 53 10000 7.7 60 16:41 20.03.2020
6354 Clouds 9 1028 53 10000 7.2 70 16:21 20.03.2020
6355 Clouds 9 1029 53 10000 6.2 70 15:55 20.03.2020
6356 Clouds 9 1029 53 10000 6.2 70 15:37 20.03.2020
6357 Clouds 9 1029 53 10000 7.7 70 15:18 20.03.2020
6358 Clouds 9 1029 57 10000 7.7 60 14:42 20.03.2020
6359 Clouds 9 1029 61 10000 7.2 60 14:21 20.03.2020
6360 Clouds 9 1029 61 10000 6.2 60 13:49 20.03.2020
6361 Clouds 9 1029 61 10000 6.2 60 13:49 20.03.2020
6362 Clouds 9 1029 61 10000 6.7 60 13:25 20.03.2020
6363 Clouds 9 1029 61 10000 6.7 60 12:59 20.03.2020
6364 Clouds 9 1029 57 10000 6.7 60 12:38 20.03.2020
6365 Clouds 9 1029 57 10000 7.2 70 12:20 20.03.2020
6366 Clouds 8 1029 61 10000 7.2 60 11:40 20.03.2020
6367 Clouds 8 1029 65 10000 6.7 50 11:21 20.03.2020
6368 Clouds 8 1029 65 10000 6.7 60 10:57 20.03.2020
6369 Clouds 8 1029 65 10000 6.7 60 10:57 20.03.2020
6370 Clouds 8 1029 65 10000 6.7 60 10:38 20.03.2020
6371 Clouds 7 1029 70 10000 6.2 60 10:18 20.03.2020
6372 Clouds 7 1029 75 10000 5.7 60 09:46 20.03.2020
6373 Clouds 6 1029 81 10000 5.7 50 09:21 20.03.2020
6374 Clouds 6 1029 81 10000 5.7 50 08:59 20.03.2020
6375 Clouds 6 1029 75 10000 4.6 60 08:40 20.03.2020
6376 Clouds 6 1028 75 10000 4.6 60 08:19 20.03.2020
6377 Clouds 6 1028 75 10000 5.1 60 07:45 20.03.2020
6378 Clouds 6 1028 75 10000 4.1 50 07:26 20.03.2020
6379 Clouds 6 1028 70 10000 4.6 60 06:47 20.03.2020
6380 Clouds 6 1028 70 10000 4.1 60 06:29 20.03.2020
6381 Clouds 6 1027 75 10000 3.6 60 04:49 20.03.2020
6382 Clouds 6 1027 81 10000 4.1 60 03:19 20.03.2020
6383 Clouds 6 1027 81 10000 3.1 0 01:51 20.03.2020
6384 Clouds 6 1027 75 10000 3.6 60 00:46 20.03.2020
6385 Clouds 6 1027 81 10000 3.6 60 00:26 20.03.2020
6386 Clouds 7 1027 81 10000 4.1 60 23:45 19.03.2020
6387 Clouds 7 1027 81 10000 4.1 60 23:26 19.03.2020
6388 Clouds 7 1027 81 10000 4.6 60 22:56 19.03.2020
6389 Clouds 7 1027 81 10000 4.6 60 22:38 19.03.2020
6390 Clouds 7 1027 81 10000 4.6 60 22:38 19.03.2020
6391 Clouds 7 1026 93 10000 5.7 60 22:18 19.03.2020
6392 Clouds 7 1026 93 10000 4.6 60 21:41 19.03.2020
6393 Clouds 7 1026 93 10000 5.1 60 21:20 19.03.2020
6394 Clouds 7 1026 93 10000 5.1 60 20:59 19.03.2020
6395 Rain 7 1026 100 10000 5.1 60 20:41 19.03.2020
6396 Rain 7 1026 100 10000 4.6 60 20:22 19.03.2020
6397 Drizzle 7 1026 81 9000 4.6 60 19:55 19.03.2020
6398 Drizzle 7 1026 81 9000 4.6 60 19:37 19.03.2020
6399 Rain 7 1026 93 6000 2.6 60 19:19 19.03.2020
6400 Drizzle 7 1026 100 4300 2.6 50 18:54 19.03.2020
6401 Drizzle 8 1026 100 4300 2.6 50 18:36 19.03.2020
6402 Drizzle 8 1026 93 2500 2.1 60 18:18 19.03.2020
6403 Drizzle 8 1026 87 5000 3.6 60 17:41 19.03.2020
6404 Rain 8 1026 87 9000 3.6 60 17:19 19.03.2020
6405 Clouds 8 1026 87 10000 4.1 70 16:44 19.03.2020
6406 Clouds 8 1026 87 10000 4.1 60 16:24 19.03.2020
6407 Clouds 8 1026 81 10000 3.1 60 15:46 19.03.2020
6408 Clouds 8 1026 81 10000 3.1 60 15:27 19.03.2020
6409 Clouds 8 1026 93 8000 2.6 50 14:58 19.03.2020
6410 Clouds 7 1026 93 8000 2.6 50 14:40 19.03.2020
6411 Clouds 7 1027 93 6000 2.6 50 14:19 19.03.2020
6412 Clouds 7 1027 87 8000 3.6 60 13:40 19.03.2020
6413 Clouds 7 1027 87 8000 3.6 60 13:40 19.03.2020
6414 Clouds 7 1027 87 7000 3.6 50 13:19 19.03.2020
6415 Drizzle 7 1027 93 4500 3.6 60 12:56 19.03.2020
6416 Drizzle 7 1027 93 4500 3.6 60 12:38 19.03.2020
6417 Clouds 7 1027 87 8000 4.6 70 12:19 19.03.2020
6418 Clouds 7 1027 87 10000 4.1 80 11:42 19.03.2020
6419 Clouds 7 1027 87 10000 5.1 90 11:23 19.03.2020
6420 Clouds 7 1027 93 8000 4.1 70 10:57 19.03.2020
6421 Clouds 7 1027 93 8000 4.1 70 10:38 19.03.2020
6422 Haze 7 1027 93 5000 3.6 60 10:19 19.03.2020
6423 Clouds 6 1026 93 6000 3.1 60 09:45 19.03.2020
6424 Clouds 6 1026 93 6000 3.1 60 09:27 19.03.2020
6425 Clouds 6 1026 87 6000 4.6 60 08:58 19.03.2020
6426 Clouds 6 1026 87 6000 4.1 60 08:40 19.03.2020
6427 Clouds 6 1026 87 6000 4.1 70 08:19 19.03.2020
6428 Rain 6 1026 93 4400 3.1 60 07:44 19.03.2020
6429 Drizzle 6 1026 93 2600 5.1 60 07:23 19.03.2020
6430 Drizzle 7 1026 93 2400 2.6 60 06:34 19.03.2020
6431 Drizzle 7 1025 100 2000 3.6 60 05:47 19.03.2020
6432 Rain 7 1025 93 4100 3.6 60 04:53 19.03.2020
6433 Rain 7 1025 93 4100 3.6 60 04:34 19.03.2020
6434 Drizzle 8 1025 93 3900 1.5 0 02:37 19.03.2020
6435 Haze 8 1025 93 4900 1.5 0 00:58 19.03.2020
6436 Drizzle 9 1025 93 4600 3.1 310 00:28 19.03.2020
6437 Clouds 9 1025 81 10000 3.6 240 23:48 18.03.2020
6438 Clouds 9 1025 81 10000 3.6 240 23:29 18.03.2020
6439 Clouds 9 1025 81 10000 3.6 240 22:56 18.03.2020
6440 Clouds 10 1025 81 10000 3.6 240 22:38 18.03.2020
6441 Clouds 10 1025 81 10000 4.1 240 22:20 18.03.2020
6442 Clouds 10 1024 81 10000 3.6 230 21:42 18.03.2020
6443 Clouds 10 1024 76 10000 4.6 240 21:21 18.03.2020
6444 Clouds 10 1024 76 10000 4.6 240 20:58 18.03.2020
6445 Clouds 10 1024 76 10000 5.1 230 20:40 18.03.2020
6446 Clouds 11 1024 87 10000 5.7 220 20:20 18.03.2020
6447 Clouds 11 1024 71 10000 4.1 220 19:56 18.03.2020
6448 Clouds 11 1024 71 10000 4.1 230 19:38 18.03.2020
6449 Clouds 11 1023 71 10000 5.1 230 19:19 18.03.2020
6450 Clouds 12 1023 67 10000 4.6 250 18:41 18.03.2020
6451 Clouds 12 1024 81 10000 6.7 210 18:20 18.03.2020
6452 Clouds 13 1023 67 10000 5.7 250 17:58 18.03.2020
6453 Clouds 13 1023 67 10000 5.7 250 17:40 18.03.2020
6454 Clouds 13 1023 62 10000 5.1 230 17:21 18.03.2020
6455 Clouds 14 1023 67 10000 4.6 230 16:58 18.03.2020
6456 Clouds 14 1023 67 10000 4.6 230 16:40 18.03.2020
6457 Clouds 14 1023 62 10000 5.1 240 16:20 18.03.2020
6458 Clouds 14 1024 67 10000 6.7 250 15:45 18.03.2020
6459 Clouds 14 1024 67 10000 5.7 240 15:23 18.03.2020
6460 Clouds 14 1024 67 10000 5.7 240 14:57 18.03.2020
6461 Clouds 14 1024 67 10000 6.7 240 14:39 18.03.2020
6462 Clouds 13 1024 71 10000 5.7 240 14:20 18.03.2020
6463 Clouds 13 1025 71 10000 6.7 230 13:39 18.03.2020
6464 Clouds 13 1025 71 10000 6.7 240 13:19 18.03.2020
6465 Clouds 13 1025 71 10000 6.7 240 12:42 18.03.2020
6466 Clouds 13 1025 76 10000 5.7 240 12:20 18.03.2020
6467 Clouds 12 1025 76 10000 5.7 240 11:57 18.03.2020
6468 Clouds 12 1025 76 10000 5.7 240 11:37 18.03.2020
6469 Clouds 12 1025 76 10000 5.1 240 11:18 18.03.2020
6470 Clouds 12 1025 76 10000 4.6 250 10:54 18.03.2020
6471 Clouds 12 1025 76 10000 4.6 250 10:36 18.03.2020
6472 Clouds 12 1025 81 10000 4.6 240 10:18 18.03.2020
6473 Clouds 11 1025 81 10000 5.7 240 09:41 18.03.2020
6474 Clouds 11 1024 81 10000 5.1 240 09:22 18.03.2020
6475 Clouds 11 1024 81 10000 5.1 240 08:40 18.03.2020
6476 Clouds 10 1024 87 10000 4.6 250 08:21 18.03.2020
6477 Clouds 10 1024 87 10000 5.1 240 07:49 18.03.2020
6478 Clouds 10 1024 87 10000 5.1 240 07:31 18.03.2020
6479 Clouds 10 1024 81 10000 5.1 240 06:55 18.03.2020
6480 Clouds 10 1024 81 10000 5.1 240 06:37 18.03.2020
6481 Clouds 10 1024 81 10000 5.7 240 05:37 18.03.2020
6482 Clouds 10 1024 81 10000 6.7 240 04:38 18.03.2020
6483 Clouds 10 1025 87 10000 5.1 240 03:21 18.03.2020
6484 Clouds 10 1025 81 10000 5.7 230 02:36 18.03.2020
6485 Clouds 10 1025 81 10000 5.1 240 01:43 18.03.2020
6486 Clouds 10 1026 87 10000 4.6 240 00:45 18.03.2020
6487 Clouds 10 1026 87 10000 4.6 220 00:21 18.03.2020
6488 Clouds 9 1026 81 10000 4.6 230 23:42 17.03.2020
6489 Clouds 9 1026 81 10000 4.1 240 23:21 17.03.2020
6490 Clouds 9 1026 81 10000 5.7 210 22:46 17.03.2020
6491 Clouds 9 1027 81 10000 4.6 220 22:28 17.03.2020
6492 Clouds 9 1027 81 10000 3.6 220 21:57 17.03.2020
6493 Clouds 9 1027 81 10000 3.6 220 21:36 17.03.2020
6494 Clouds 9 1027 76 10000 3.6 230 21:18 17.03.2020
6495 Clouds 10 1027 76 10000 4.1 210 20:38 17.03.2020
6496 Clouds 10 1027 71 10000 5.7 240 20:20 17.03.2020
6497 Clouds 10 1027 71 10000 4.6 230 19:54 17.03.2020
6498 Clouds 10 1027 71 10000 4.6 230 19:36 17.03.2020
6499 Clouds 11 1027 87 10000 7.2 210 19:18 17.03.2020
6500 Clouds 11 1027 66 10000 4.1 230 18:54 17.03.2020
6501 Clouds 11 1027 66 10000 4.1 230 18:36 17.03.2020
6502 Clouds 11 1027 66 10000 4.1 230 18:36 17.03.2020
6503 Clouds 11 1027 66 10000 6.7 230 18:18 17.03.2020
6504 Clouds 12 1027 66 10000 4.6 240 17:39 17.03.2020
6505 Clouds 12 1027 66 10000 5.7 250 17:20 17.03.2020
6506 Clouds 12 1027 66 10000 6.7 230 16:44 17.03.2020
6507 Clouds 12 1027 66 10000 5.7 230 16:19 17.03.2020
6508 Clouds 12 1027 66 10000 5.7 230 15:56 17.03.2020
6509 Clouds 13 1027 62 10000 5.1 230 15:38 17.03.2020
6510 Clouds 13 1027 62 10000 5.7 210 15:18 17.03.2020
6511 Clouds 13 1027 62 10000 6.7 230 14:41 17.03.2020
6512 Clouds 13 1028 62 10000 5.1 230 14:18 17.03.2020
6513 Clouds 13 1028 62 10000 6.2 240 13:41 17.03.2020
6514 Clouds 13 1028 66 10000 5.1 230 13:22 17.03.2020
6515 Clouds 12 1028 66 10000 6.2 230 12:48 17.03.2020
6516 Clouds 12 1028 66 10000 6.2 240 12:26 17.03.2020
6517 Clouds 12 1028 66 10000 5.1 230 11:59 17.03.2020
6518 Clouds 12 1028 66 10000 5.1 230 11:40 17.03.2020
6519 Clouds 11 1028 66 10000 5.1 240 11:22 17.03.2020
6520 Clouds 10 1028 71 10000 5.1 240 10:56 17.03.2020
6521 Clouds 10 1028 71 10000 5.1 240 10:37 17.03.2020
6522 Clouds 9 1028 71 10000 5.1 240 10:18 17.03.2020
6523 Clouds 9 1028 76 10000 4.6 230 09:46 17.03.2020
6524 Clouds 8 1027 76 10000 3.6 230 09:20 17.03.2020
6525 Clouds 8 1027 76 10000 3.6 230 08:59 17.03.2020
6526 Clouds 7 1027 76 10000 4.1 240 08:41 17.03.2020
6527 Clouds 6 1027 81 10000 4.1 240 08:20 17.03.2020
6528 Clouds 5 1027 81 10000 3.1 240 07:49 17.03.2020
6529 Clouds 5 1027 81 10000 3.1 230 07:21 17.03.2020
6530 Clouds 5 1027 81 10000 3.6 240 06:52 17.03.2020
6531 Clouds 5 1027 81 10000 3.1 230 06:25 17.03.2020
6532 Clouds 5 1026 75 10000 4.1 240 05:34 17.03.2020
6533 Clear 4 1026 81 10000 2.6 230 03:36 17.03.2020
6534 Clear 4 1026 81 10000 3.1 230 02:31 17.03.2020
6535 Clouds 4 1026 70 10000 2.1 230 01:39 17.03.2020
6536 Clouds 4 1025 75 10000 2.6 230 00:54 17.03.2020
6537 Clouds 4 1025 62 10000 3.1 220 00:19 17.03.2020
6538 Clouds 5 1026 80 10000 4.1 210 23:43 16.03.2020
6539 Clouds 5 1026 80 10000 3.1 210 23:22 16.03.2020
6540 Clouds 5 1025 47 10000 1.5 230 22:38 16.03.2020
6541 Clouds 6 1025 75 10000 3.1 230 22:20 16.03.2020
6542 Clouds 6 1025 75 10000 3.6 230 21:55 16.03.2020
6543 Clouds 6 1025 75 10000 3.6 230 21:36 16.03.2020
6544 Clouds 7 1025 70 10000 4.1 220 21:18 16.03.2020
6545 Clouds 7 1024 47 10000 2.1 230 20:42 16.03.2020
6546 Clouds 8 1024 47 10000 2.1 230 20:24 16.03.2020
6547 Clear 8 1024 61 10000 3.1 250 19:56 16.03.2020
6548 Clear 9 1024 61 10000 3.1 250 19:37 16.03.2020
6549 Clear 9 1023 47 10000 2.1 230 19:18 16.03.2020
6550 Clear 10 1023 50 10000 3.1 260 18:41 16.03.2020
6551 Clear 11 1022 46 10000 3.6 250 18:20 16.03.2020
6552 Clear 12 1022 43 10000 3.6 240 17:46 16.03.2020
6553 Clear 12 1022 43 10000 3.1 240 17:26 16.03.2020
6554 Clear 12 1023 47 10000 3.6 250 16:58 16.03.2020
6555 Clear 12 1023 47 10000 3.6 250 16:40 16.03.2020
6556 Clouds 12 1022 47 10000 3.1 240 16:22 16.03.2020
6557 Clouds 12 1022 50 10000 3.1 280 15:43 16.03.2020
6558 Clouds 12 1022 54 10000 3.6 250 15:25 16.03.2020
6559 Clouds 12 1022 54 10000 4.1 290 14:49 16.03.2020
6560 Clouds 11 1022 54 10000 4.1 290 14:25 16.03.2020
6561 Clouds 11 1022 57 10000 3.1 300 13:55 16.03.2020
6562 Clouds 11 1022 57 10000 3.1 300 13:37 16.03.2020
6563 Clear 11 1022 57 10000 1.5 0 13:18 16.03.2020
6564 Clouds 10 1022 61 10000 2.1 0 12:42 16.03.2020
6565 Clouds 10 1022 70 10000 2.1 280 12:23 16.03.2020
6566 Clouds 9 1021 70 10000 1.5 0 11:46 16.03.2020
6567 Clear 8 1021 70 10000 2.6 290 11:27 16.03.2020
6568 Clear 8 1021 70 10000 2.1 290 10:55 16.03.2020
6569 Clear 7 1021 70 10000 2.1 290 10:37 16.03.2020
6570 Rain 7 1020 70 10000 2.6 290 10:18 16.03.2020
6571 Rain 6 1020 75 10000 2.6 290 09:40 16.03.2020
6572 Clear 5 1020 75 10000 3.1 280 09:20 16.03.2020
6573 Clear 4 1019 81 10000 3.1 290 08:49 16.03.2020
6574 Clear 3 1019 93 10000 2.6 280 08:25 16.03.2020
6575 Clear 3 1019 93 10000 3.1 280 07:45 16.03.2020
6576 Clear 3 1018 100 10000 1.5 290 07:25 16.03.2020
6577 Clear 3 1018 93 10000 3.1 270 06:52 16.03.2020
6578 Clear 3 1017 100 10000 0.5 260 06:24 16.03.2020
6579 Clear 3 1016 81 10000 2.1 280 04:54 16.03.2020
6580 Clear 5 1015 87 10000 1.5 310 02:41 16.03.2020
6581 Clouds 6 1013 93 10000 2.1 310 00:52 16.03.2020
6582 Clouds 6 1013 93 10000 2.1 310 00:33 16.03.2020
6583 Clouds 6 1013 81 10000 2.1 290 23:46 15.03.2020
6584 Clouds 6 1012 81 10000 3.6 300 23:20 15.03.2020
6585 Clouds 7 1012 81 10000 3.6 290 22:42 15.03.2020
6586 Clouds 7 1011 81 10000 4.1 290 22:23 15.03.2020
6587 Clouds 7 1011 81 10000 4.1 290 22:23 15.03.2020
6588 Clouds 7 1011 81 10000 4.1 290 21:58 15.03.2020
6589 Clouds 7 1011 81 10000 3.1 290 21:38 15.03.2020
6590 Clouds 7 1010 81 10000 3.1 290 21:18 15.03.2020
6591 Rain 8 1010 81 10000 4.1 290 20:42 15.03.2020
6592 Rain 8 1009 93 10000 2.6 310 20:20 15.03.2020
6593 Rain 8 1009 93 10000 2.6 310 19:58 15.03.2020
6594 Rain 8 1009 87 10000 2.1 300 19:39 15.03.2020
6595 Rain 8 1008 87 10000 3.1 300 19:20 15.03.2020
6596 Rain 8 1008 87 10000 3.6 290 18:55 15.03.2020
6597 Rain 9 1008 87 10000 3.6 290 18:37 15.03.2020
6598 Rain 9 1007 87 10000 6.2 210 18:19 15.03.2020
6599 Rain 9 1006 76 10000 4.6 220 17:41 15.03.2020
6600 Rain 10 1006 100 10000 4.6 320 17:21 15.03.2020
6601 Clouds 10 1006 71 10000 6.2 230 16:58 15.03.2020
6602 Clouds 10 1006 71 10000 6.2 230 16:40 15.03.2020
6603 Clouds 10 1006 71 10000 6.2 220 16:21 15.03.2020
6604 Clouds 11 1006 71 10000 6.7 230 15:48 15.03.2020
6605 Clouds 11 1006 71 10000 6.7 230 15:30 15.03.2020
6606 Clouds 11 1006 71 10000 7.2 220 14:58 15.03.2020
6607 Clouds 11 1006 71 10000 8.2 210 14:38 15.03.2020
6608 Clouds 11 1006 71 10000 5.7 220 14:19 15.03.2020
6609 Clouds 11 1006 71 10000 7.2 210 13:55 15.03.2020
6610 Clouds 11 1006 71 10000 7.2 210 13:37 15.03.2020
6611 Clouds 11 1007 71 10000 5.7 210 13:18 15.03.2020
6612 Clouds 11 1007 71 10000 5.7 210 13:18 15.03.2020
6613 Clouds 11 1007 71 10000 6.7 220 12:40 15.03.2020
6614 Clouds 11 1007 66 10000 6.7 210 12:22 15.03.2020
6615 Clouds 10 1007 71 10000 7.7 200 11:44 15.03.2020
6616 Clouds 10 1007 71 10000 6.2 200 11:25 15.03.2020
6617 Clouds 10 1007 71 10000 6.2 210 10:59 15.03.2020
6618 Clouds 10 1006 81 10000 7.7 200 10:40 15.03.2020
6619 Clouds 10 1007 76 10000 5.1 200 10:22 15.03.2020
6620 Clouds 10 1007 76 10000 5.1 200 09:59 15.03.2020
6621 Clouds 9 1008 76 10000 5.7 210 09:38 15.03.2020
6622 Clouds 9 1007 76 10000 5.7 210 09:20 15.03.2020
6623 Clouds 9 1007 76 10000 5.1 200 08:41 15.03.2020
6624 Clouds 9 1008 76 10000 5.1 200 08:19 15.03.2020
6625 Clouds 9 1008 76 10000 5.7 200 07:49 15.03.2020
6626 Clouds 9 1008 76 10000 7.7 200 07:23 15.03.2020
6627 Clouds 9 1008 76 10000 6.2 200 06:44 15.03.2020
6628 Clouds 9 1009 81 10000 5.7 220 05:49 15.03.2020
6629 Clouds 9 1009 81 10000 6.2 220 04:58 15.03.2020
6630 Clouds 9 1009 81 10000 6.2 220 04:40 15.03.2020
6631 Rain 9 1009 76 10000 6.7 210 04:20 15.03.2020
6632 Clouds 9 1010 76 10000 7.2 210 03:24 15.03.2020
6633 Clouds 10 1010 76 10000 6.2 210 02:28 15.03.2020
6634 Clouds 10 1011 87 10000 5.1 220 01:19 15.03.2020
6635 Clouds 10 1012 76 10000 5.7 230 00:42 15.03.2020
6636 Clouds 9 1011 87 10000 6.2 220 00:19 15.03.2020
6637 Clouds 9 1012 87 10000 5.7 220 23:41 14.03.2020
6638 Clouds 9 1012 87 10000 5.1 220 23:20 14.03.2020
6639 Clouds 9 1012 87 10000 6.2 220 22:57 14.03.2020
6640 Clouds 9 1012 87 10000 6.2 220 22:38 14.03.2020
6641 Clouds 9 1012 81 10000 5.7 220 22:20 14.03.2020
6642 Clouds 9 1012 81 10000 5.7 210 21:56 14.03.2020
6643 Clouds 9 1012 81 10000 5.7 210 21:36 14.03.2020
6644 Clouds 9 1013 71 10000 5.7 230 21:18 14.03.2020
6645 Clouds 10 1013 71 10000 5.7 230 20:58 14.03.2020
6646 Clouds 10 1013 71 10000 5.1 220 20:39 14.03.2020
6647 Clouds 10 1013 76 10000 4.1 230 20:19 14.03.2020
6648 Clouds 10 1012 66 10000 5.1 240 19:42 14.03.2020
6649 Clouds 10 1013 81 10000 6.7 210 19:24 14.03.2020
6650 Clouds 11 1012 71 10000 4.1 210 18:41 14.03.2020
6651 Clouds 11 1013 81 10000 5.1 220 18:23 14.03.2020
6652 Clouds 11 1012 71 10000 4.6 210 17:56 14.03.2020
6653 Clouds 11 1012 71 10000 4.6 210 17:38 14.03.2020
6654 Clouds 12 1012 66 10000 5.7 230 17:20 14.03.2020
6655 Clouds 12 1012 71 10000 4.1 220 16:41 14.03.2020
6656 Clouds 12 1012 71 10000 4.6 240 16:23 14.03.2020
6657 Clouds 12 1012 71 10000 4.6 240 15:58 14.03.2020
6658 Rain 12 1012 76 10000 4.1 220 15:27 14.03.2020
6659 Rain 12 1013 87 7000 5.1 210 14:58 14.03.2020
6660 Rain 12 1013 87 7000 5.1 210 14:36 14.03.2020
6661 Rain 12 1013 71 10000 4.6 200 14:18 14.03.2020
6662 Clouds 12 1013 71 10000 4.6 210 13:42 14.03.2020
6663 Clouds 11 1013 71 10000 4.1 210 13:23 14.03.2020
6664 Clouds 11 1013 71 10000 4.6 200 12:55 14.03.2020
6665 Clouds 11 1013 71 10000 4.6 200 12:37 14.03.2020
6666 Clouds 11 1013 71 10000 4.1 210 12:19 14.03.2020
6667 Clouds 10 1014 76 10000 4.6 170 11:40 14.03.2020
6668 Clouds 10 1014 81 10000 2.6 190 11:20 14.03.2020
6669 Clouds 9 1014 87 10000 3.1 170 10:46 14.03.2020
6670 Clouds 9 1014 87 10000 3.6 160 10:27 14.03.2020
6671 Rain 8 1014 87 10000 3.6 160 09:58 14.03.2020
6672 Rain 8 1014 93 10000 3.6 150 09:40 14.03.2020
6673 Rain 8 1014 87 10000 4.6 150 09:20 14.03.2020
6674 Rain 7 1014 87 10000 4.1 150 08:45 14.03.2020
6675 Rain 7 1014 87 10000 4.6 160 08:24 14.03.2020
6676 Rain 7 1014 81 10000 4.1 140 07:39 14.03.2020
6677 Rain 7 1013 93 10000 4.1 150 07:21 14.03.2020
6678 Rain 7 1014 87 10000 4.6 150 06:41 14.03.2020
6679 Rain 7 1014 87 8000 4.6 150 05:58 14.03.2020
6680 Rain 7 1015 81 10000 4.1 150 04:52 14.03.2020
6681 Clouds 6 1016 93 10000 3.6 150 03:25 14.03.2020
6682 Rain 6 1017 81 10000 3.1 150 02:35 14.03.2020
6683 Rain 6 1017 81 10000 3.6 160 01:39 14.03.2020
6684 Clouds 7 1018 70 10000 3.6 210 00:23 14.03.2020
6685 Clouds 7 1019 70 10000 3.1 210 23:42 13.03.2020
6686 Clouds 7 1019 70 10000 3.1 210 23:22 13.03.2020
6687 Clouds 6 1019 70 10000 2.1 210 22:41 13.03.2020
6688 Clouds 7 1019 70 10000 2.6 230 22:21 13.03.2020
6689 Clouds 7 1019 80 10000 4.1 200 21:40 13.03.2020
6690 Clouds 7 1019 75 10000 4.6 210 21:18 13.03.2020
6691 Clouds 7 1019 61 10000 4.6 230 20:42 13.03.2020
6692 Rain 7 1019 75 10000 3.6 210 20:22 13.03.2020
6693 Clouds 8 1019 75